<?xml version='1.0' encoding='UTF-8'?><gpx version="1.1" creator="JPX - https://github.com/jenetics/jpx" xmlns="http://www.topografix.com/GPX/1/1"><trk><trkseg><trkpt lat="-36.7398425" lon="174.4231165"><ele>81.0</ele><time>2026-04-17T22:17:51.981Z</time></trkpt><trkpt lat="-36.7398488" lon="174.4231979"><ele>81.0</ele><time>2026-04-17T22:17:55.982Z</time></trkpt><trkpt lat="-36.7398808" lon="174.4232831"><ele>81.0</ele><time>2026-04-17T22:17:58.982Z</time></trkpt><trkpt lat="-36.7399514" lon="174.4233467"><ele>81.0</ele><time>2026-04-17T22:18:01.981Z</time></trkpt><trkpt lat="-36.7400397" lon="174.4233692"><ele>81.0</ele><time>2026-04-17T22:18:04.983Z</time></trkpt><trkpt lat="-36.7401199" lon="174.4233545"><ele>81.0</ele><time>2026-04-17T22:18:07.981Z</time></trkpt><trkpt lat="-36.7401946" lon="174.4233186"><ele>81.0</ele><time>2026-04-17T22:18:10.98Z</time></trkpt><trkpt lat="-36.7402599" lon="174.4233252"><ele>81.0</ele><time>2026-04-17T22:18:13.981Z</time></trkpt><trkpt lat="-36.7402853" lon="174.4234166"><ele>81.0</ele><time>2026-04-17T22:18:17.982Z</time></trkpt><trkpt lat="-36.7403496" lon="174.423425"><ele>81.0</ele><time>2026-04-17T22:19:08.98Z</time></trkpt><trkpt lat="-36.740269" lon="174.4234503"><ele>81.0</ele><time>2026-04-17T22:21:21.98Z</time></trkpt><trkpt lat="-36.7402689" lon="174.4233519"><ele>81.0</ele><time>2026-04-17T22:21:27.981Z</time></trkpt><trkpt lat="-36.7402042" lon="174.4233146"><ele>81.0</ele><time>2026-04-17T22:21:32.98Z</time></trkpt><trkpt lat="-36.7401478" lon="174.4233545"><ele>81.0</ele><time>2026-04-17T22:21:36.982Z</time></trkpt><trkpt lat="-36.7400798" lon="174.4233442"><ele>81.0</ele><time>2026-04-17T22:21:39.98Z</time></trkpt><trkpt lat="-36.7399873" lon="174.4233285"><ele>81.0</ele><time>2026-04-17T22:21:42.98Z</time></trkpt><trkpt lat="-36.7399159" lon="174.4232954"><ele>81.0</ele><time>2026-04-17T22:21:44.982Z</time></trkpt><trkpt lat="-36.7398748" lon="174.4232153"><ele>81.0</ele><time>2026-04-17T22:21:46.98Z</time></trkpt><trkpt lat="-36.7398702" lon="174.4231367"><ele>81.0</ele><time>2026-04-17T22:21:48.981Z</time></trkpt><trkpt lat="-36.7398752" lon="174.4230339"><ele>81.66666666666667</ele><time>2026-04-17T22:21:51.982Z</time></trkpt><trkpt lat="-36.739884" lon="174.4229477"><ele>82.33333333333333</ele><time>2026-04-17T22:21:54.98Z</time></trkpt><trkpt lat="-36.7399023" lon="174.4228594"><ele>83.0</ele><time>2026-04-17T22:21:57.98Z</time></trkpt><trkpt lat="-36.739928" lon="174.4227478"><ele>83.66666666666666</ele><time>2026-04-17T22:22:00.982Z</time></trkpt><trkpt lat="-36.7399496" lon="174.422639"><ele>84.33333333333333</ele><time>2026-04-17T22:22:03.981Z</time></trkpt><trkpt lat="-36.7399759" lon="174.4225443"><ele>85.0</ele><time>2026-04-17T22:22:06.98Z</time></trkpt><trkpt lat="-36.7400508" lon="174.4225405"><ele>85.0</ele><time>2026-04-17T22:23:18.98Z</time></trkpt><trkpt lat="-36.7400289" lon="174.422457"><ele>85.0</ele><time>2026-04-17T22:24:47.981Z</time></trkpt><trkpt lat="-36.7400576" lon="174.4223838"><ele>85.0</ele><time>2026-04-17T22:24:52.981Z</time></trkpt><trkpt lat="-36.7400807" lon="174.4223038"><ele>85.0</ele><time>2026-04-17T22:24:57.98Z</time></trkpt><trkpt lat="-36.740122" lon="174.422226"><ele>85.0</ele><time>2026-04-17T22:25:00.98Z</time></trkpt><trkpt lat="-36.740175" lon="174.4221562"><ele>85.0</ele><time>2026-04-17T22:25:02.98Z</time></trkpt><trkpt lat="-36.7402231" lon="174.4220742"><ele>85.0</ele><time>2026-04-17T22:25:04.981Z</time></trkpt><trkpt lat="-36.7403011" lon="174.4220509"><ele>86.5</ele><time>2026-04-17T22:25:08.981Z</time></trkpt><trkpt lat="-36.7403965" lon="174.4220661"><ele>88.0</ele><time>2026-04-17T22:25:11.981Z</time></trkpt><trkpt lat="-36.7404531" lon="174.4220239"><ele>89.5</ele><time>2026-04-17T22:25:13.981Z</time></trkpt><trkpt lat="-36.7404966" lon="174.4219478"><ele>91.0</ele><time>2026-04-17T22:25:16.98Z</time></trkpt><trkpt lat="-36.7405664" lon="174.4219255"><ele>92.5</ele><time>2026-04-17T22:25:23.98Z</time></trkpt><trkpt lat="-36.7406443" lon="174.4218982"><ele>94.0</ele><time>2026-04-17T22:25:26.979Z</time></trkpt><trkpt lat="-36.74072" lon="174.4219524"><ele>94.0</ele><time>2026-04-17T22:25:29.979Z</time></trkpt><trkpt lat="-36.7407652" lon="174.4218779"><ele>94.0</ele><time>2026-04-17T22:25:33.979Z</time></trkpt><trkpt lat="-36.7407415" lon="174.4217857"><ele>94.0</ele><time>2026-04-17T22:25:35.98Z</time></trkpt><trkpt lat="-36.7407144" lon="174.4216953"><ele>94.0</ele><time>2026-04-17T22:25:37.98Z</time></trkpt><trkpt lat="-36.740726" lon="174.4216074"><ele>94.0</ele><time>2026-04-17T22:25:39.979Z</time></trkpt><trkpt lat="-36.7407997" lon="174.4215731"><ele>94.0</ele><time>2026-04-17T22:25:41.98Z</time></trkpt><trkpt lat="-36.740865" lon="174.4215442"><ele>94.0</ele><time>2026-04-17T22:25:43.981Z</time></trkpt><trkpt lat="-36.7409202" lon="174.421493"><ele>94.0</ele><time>2026-04-17T22:25:45.98Z</time></trkpt><trkpt lat="-36.7409502" lon="174.4213723"><ele>94.0</ele><time>2026-04-17T22:25:47.98Z</time></trkpt><trkpt lat="-36.7409424" lon="174.4212875"><ele>94.0</ele><time>2026-04-17T22:25:49.979Z</time></trkpt><trkpt lat="-36.740948" lon="174.4211737"><ele>94.0</ele><time>2026-04-17T22:25:51.98Z</time></trkpt><trkpt lat="-36.7409589" lon="174.4210651"><ele>94.0</ele><time>2026-04-17T22:25:53.98Z</time></trkpt><trkpt lat="-36.7409926" lon="174.4209781"><ele>94.0</ele><time>2026-04-17T22:25:55.98Z</time></trkpt><trkpt lat="-36.7410427" lon="174.4209264"><ele>95.33333333333333</ele><time>2026-04-17T22:25:57.979Z</time></trkpt><trkpt lat="-36.7411072" lon="174.4208542"><ele>96.66666666666666</ele><time>2026-04-17T22:26:00.98Z</time></trkpt><trkpt lat="-36.7411299" lon="174.420766"><ele>98.0</ele><time>2026-04-17T22:26:02.981Z</time></trkpt><trkpt lat="-36.741163" lon="174.420681"><ele>99.33333333333333</ele><time>2026-04-17T22:26:05.979Z</time></trkpt><trkpt lat="-36.7412198" lon="174.4206246"><ele>100.66666666666667</ele><time>2026-04-17T22:26:07.981Z</time></trkpt><trkpt lat="-36.7413028" lon="174.4205395"><ele>102.0</ele><time>2026-04-17T22:26:09.979Z</time></trkpt><trkpt lat="-36.7413939" lon="174.4204595"><ele>102.0</ele><time>2026-04-17T22:26:11.98Z</time></trkpt><trkpt lat="-36.7414627" lon="174.4203791"><ele>102.0</ele><time>2026-04-17T22:26:13.979Z</time></trkpt><trkpt lat="-36.7415289" lon="174.4203097"><ele>102.0</ele><time>2026-04-17T22:26:15.98Z</time></trkpt><trkpt lat="-36.7415556" lon="174.4202172"><ele>102.0</ele><time>2026-04-17T22:26:17.979Z</time></trkpt><trkpt lat="-36.74157" lon="174.4201105"><ele>102.0</ele><time>2026-04-17T22:26:19.979Z</time></trkpt><trkpt lat="-36.7415289" lon="174.4199859"><ele>102.0</ele><time>2026-04-17T22:26:21.979Z</time></trkpt><trkpt lat="-36.7415199" lon="174.4198707"><ele>102.0</ele><time>2026-04-17T22:26:23.979Z</time></trkpt><trkpt lat="-36.7415198" lon="174.4197664"><ele>102.0</ele><time>2026-04-17T22:26:25.979Z</time></trkpt><trkpt lat="-36.7415406" lon="174.4196578"><ele>102.0</ele><time>2026-04-17T22:26:27.979Z</time></trkpt><trkpt lat="-36.7415169" lon="174.4195541"><ele>102.0</ele><time>2026-04-17T22:26:29.981Z</time></trkpt><trkpt lat="-36.7414814" lon="174.4194876"><ele>102.0</ele><time>2026-04-17T22:26:30.981Z</time></trkpt><trkpt lat="-36.7414181" lon="174.4194093"><ele>103.39999999999999</ele><time>2026-04-17T22:26:32.979Z</time></trkpt><trkpt lat="-36.7414251" lon="174.4193152"><ele>104.8</ele><time>2026-04-17T22:26:34.981Z</time></trkpt><trkpt lat="-36.7414753" lon="174.4192347"><ele>106.2</ele><time>2026-04-17T22:26:36.98Z</time></trkpt><trkpt lat="-36.7415686" lon="174.419168"><ele>107.6</ele><time>2026-04-17T22:26:38.981Z</time></trkpt><trkpt lat="-36.7416561" lon="174.41911"><ele>109.0</ele><time>2026-04-17T22:26:40.98Z</time></trkpt><trkpt lat="-36.7417568" lon="174.4190627"><ele>109.0</ele><time>2026-04-17T22:26:42.982Z</time></trkpt><trkpt lat="-36.7418467" lon="174.4190386"><ele>109.0</ele><time>2026-04-17T22:26:44.98Z</time></trkpt><trkpt lat="-36.7419371" lon="174.4190027"><ele>109.0</ele><time>2026-04-17T22:26:46.979Z</time></trkpt><trkpt lat="-36.7420271" lon="174.4189649"><ele>109.0</ele><time>2026-04-17T22:26:48.98Z</time></trkpt><trkpt lat="-36.7421237" lon="174.4189384"><ele>109.0</ele><time>2026-04-17T22:26:50.979Z</time></trkpt><trkpt lat="-36.7422166" lon="174.4188962"><ele>109.6</ele><time>2026-04-17T22:26:52.98Z</time></trkpt><trkpt lat="-36.7423107" lon="174.4188306"><ele>110.2</ele><time>2026-04-17T22:26:54.979Z</time></trkpt><trkpt lat="-36.7423956" lon="174.4187727"><ele>110.79999999999998</ele><time>2026-04-17T22:26:56.979Z</time></trkpt><trkpt lat="-36.7424744" lon="174.4187197"><ele>111.39999999999999</ele><time>2026-04-17T22:26:58.981Z</time></trkpt><trkpt lat="-36.7425739" lon="174.4186798"><ele>112.0</ele><time>2026-04-17T22:27:00.98Z</time></trkpt><trkpt lat="-36.742662" lon="174.4186556"><ele>112.6</ele><time>2026-04-17T22:27:02.979Z</time></trkpt><trkpt lat="-36.7427663" lon="174.4186709"><ele>113.19999999999999</ele><time>2026-04-17T22:27:04.98Z</time></trkpt><trkpt lat="-36.7428357" lon="174.4186955"><ele>113.8</ele><time>2026-04-17T22:27:06.981Z</time></trkpt><trkpt lat="-36.7429137" lon="174.4187298"><ele>114.4</ele><time>2026-04-17T22:27:08.98Z</time></trkpt><trkpt lat="-36.7430271" lon="174.4187236"><ele>115.0</ele><time>2026-04-17T22:27:10.981Z</time></trkpt><trkpt lat="-36.7431199" lon="174.418712"><ele>115.0</ele><time>2026-04-17T22:27:12.979Z</time></trkpt><trkpt lat="-36.7432201" lon="174.4187203"><ele>115.0</ele><time>2026-04-17T22:27:14.98Z</time></trkpt><trkpt lat="-36.7433147" lon="174.4187361"><ele>115.0</ele><time>2026-04-17T22:27:16.979Z</time></trkpt><trkpt lat="-36.7434265" lon="174.4187063"><ele>115.0</ele><time>2026-04-17T22:27:18.979Z</time></trkpt><trkpt lat="-36.7434965" lon="174.4186988"><ele>115.0</ele><time>2026-04-17T22:27:20.981Z</time></trkpt><trkpt lat="-36.7435615" lon="174.418667"><ele>115.66666666666667</ele><time>2026-04-17T22:27:22.979Z</time></trkpt><trkpt lat="-36.7436549" lon="174.4186934"><ele>116.33333333333334</ele><time>2026-04-17T22:27:24.979Z</time></trkpt><trkpt lat="-36.7437628" lon="174.4187432"><ele>117.0</ele><time>2026-04-17T22:27:26.98Z</time></trkpt><trkpt lat="-36.7438586" lon="174.418767"><ele>117.66666666666666</ele><time>2026-04-17T22:27:28.98Z</time></trkpt><trkpt lat="-36.743914" lon="174.4188063"><ele>118.33333333333333</ele><time>2026-04-17T22:27:30.979Z</time></trkpt><trkpt lat="-36.7439796" lon="174.4188446"><ele>119.0</ele><time>2026-04-17T22:27:32.98Z</time></trkpt><trkpt lat="-36.7440458" lon="174.4188507"><ele>119.83333333333333</ele><time>2026-04-17T22:27:34.98Z</time></trkpt><trkpt lat="-36.7441338" lon="174.4188488"><ele>120.66666666666666</ele><time>2026-04-17T22:27:36.98Z</time></trkpt><trkpt lat="-36.744211" lon="174.4188655"><ele>121.5</ele><time>2026-04-17T22:27:38.98Z</time></trkpt><trkpt lat="-36.7442836" lon="174.41886"><ele>122.33333333333334</ele><time>2026-04-17T22:27:40.98Z</time></trkpt><trkpt lat="-36.7443551" lon="174.4188607"><ele>123.16666666666667</ele><time>2026-04-17T22:27:42.979Z</time></trkpt><trkpt lat="-36.7443869" lon="174.4189452"><ele>124.0</ele><time>2026-04-17T22:27:45.981Z</time></trkpt><trkpt lat="-36.7443652" lon="174.4190226"><ele>124.00000000000001</ele><time>2026-04-17T22:27:47.98Z</time></trkpt><trkpt lat="-36.7443211" lon="174.419115"><ele>124.0</ele><time>2026-04-17T22:27:49.98Z</time></trkpt><trkpt lat="-36.7442781" lon="174.4191965"><ele>124.0</ele><time>2026-04-17T22:27:51.979Z</time></trkpt><trkpt lat="-36.7443481" lon="174.4192282"><ele>124.0</ele><time>2026-04-17T22:27:54.98Z</time></trkpt><trkpt lat="-36.7444129" lon="174.4192026"><ele>124.00000000000001</ele><time>2026-04-17T22:27:56.98Z</time></trkpt><trkpt lat="-36.7444811" lon="174.4191935"><ele>124.0</ele><time>2026-04-17T22:27:58.98Z</time></trkpt><trkpt lat="-36.7445536" lon="174.4191118"><ele>124.85714285714286</ele><time>2026-04-17T22:28:01.98Z</time></trkpt><trkpt lat="-36.7445941" lon="174.4190284"><ele>125.71428571428572</ele><time>2026-04-17T22:28:03.979Z</time></trkpt><trkpt lat="-36.7446333" lon="174.4189588"><ele>126.57142857142858</ele><time>2026-04-17T22:28:05.98Z</time></trkpt><trkpt lat="-36.7446722" lon="174.4188727"><ele>127.42857142857144</ele><time>2026-04-17T22:28:07.98Z</time></trkpt><trkpt lat="-36.7447144" lon="174.4188034"><ele>128.28571428571428</ele><time>2026-04-17T22:28:09.98Z</time></trkpt><trkpt lat="-36.7447738" lon="174.4188485"><ele>129.14285714285717</ele><time>2026-04-17T22:28:13.979Z</time></trkpt><trkpt lat="-36.7447584" lon="174.4189275"><ele>130.0</ele><time>2026-04-17T22:28:15.98Z</time></trkpt><trkpt lat="-36.7447415" lon="174.4190412"><ele>130.0</ele><time>2026-04-17T22:28:18.98Z</time></trkpt><trkpt lat="-36.7448072" lon="174.4190388"><ele>130.0</ele><time>2026-04-17T22:28:22.98Z</time></trkpt><trkpt lat="-36.7448774" lon="174.4189622"><ele>130.0</ele><time>2026-04-17T22:28:24.979Z</time></trkpt><trkpt lat="-36.7449129" lon="174.4188636"><ele>130.0</ele><time>2026-04-17T22:28:26.98Z</time></trkpt><trkpt lat="-36.7449625" lon="174.4188085"><ele>130.0</ele><time>2026-04-17T22:28:29.98Z</time></trkpt><trkpt lat="-36.7449738" lon="174.4189076"><ele>130.0</ele><time>2026-04-17T22:28:33.979Z</time></trkpt><trkpt lat="-36.7449831" lon="174.4189915"><ele>130.0</ele><time>2026-04-17T22:28:35.979Z</time></trkpt><trkpt lat="-36.7450414" lon="174.4190343"><ele>130.0</ele><time>2026-04-17T22:28:37.98Z</time></trkpt><trkpt lat="-36.745115" lon="174.4190982"><ele>130.0</ele><time>2026-04-17T22:28:40.979Z</time></trkpt><trkpt lat="-36.7451308" lon="174.4190152"><ele>130.0</ele><time>2026-04-17T22:28:44.979Z</time></trkpt><trkpt lat="-36.7451981" lon="174.4190631"><ele>130.0</ele><time>2026-04-17T22:28:48.981Z</time></trkpt><trkpt lat="-36.7452433" lon="174.4191376"><ele>130.0</ele><time>2026-04-17T22:28:51.979Z</time></trkpt><trkpt lat="-36.7453045" lon="174.4192032"><ele>130.66666666666669</ele><time>2026-04-17T22:28:54.98Z</time></trkpt><trkpt lat="-36.7453674" lon="174.4192142"><ele>131.33333333333334</ele><time>2026-04-17T22:28:56.98Z</time></trkpt><trkpt lat="-36.7454568" lon="174.4191913"><ele>132.0</ele><time>2026-04-17T22:28:59.98Z</time></trkpt><trkpt lat="-36.74552" lon="174.4191522"><ele>132.66666666666666</ele><time>2026-04-17T22:29:01.979Z</time></trkpt><trkpt lat="-36.7455737" lon="174.4190703"><ele>133.33333333333331</ele><time>2026-04-17T22:29:03.98Z</time></trkpt><trkpt lat="-36.7456171" lon="174.4189963"><ele>134.0</ele><time>2026-04-17T22:29:05.979Z</time></trkpt><trkpt lat="-36.7456569" lon="174.418906"><ele>134.33333333333331</ele><time>2026-04-17T22:29:07.979Z</time></trkpt><trkpt lat="-36.7456904" lon="174.4188166"><ele>134.66666666666666</ele><time>2026-04-17T22:29:09.98Z</time></trkpt><trkpt lat="-36.7457475" lon="174.418745"><ele>135.0</ele><time>2026-04-17T22:29:11.98Z</time></trkpt><trkpt lat="-36.7458097" lon="174.4186679"><ele>135.33333333333334</ele><time>2026-04-17T22:29:13.979Z</time></trkpt><trkpt lat="-36.7458653" lon="174.4185889"><ele>135.66666666666669</ele><time>2026-04-17T22:29:15.981Z</time></trkpt><trkpt lat="-36.7459233" lon="174.418509"><ele>136.0</ele><time>2026-04-17T22:29:17.979Z</time></trkpt><trkpt lat="-36.7459754" lon="174.4184374"><ele>136.0</ele><time>2026-04-17T22:29:19.979Z</time></trkpt><trkpt lat="-36.746017" lon="174.4183588"><ele>136.0</ele><time>2026-04-17T22:29:21.978Z</time></trkpt><trkpt lat="-36.7460601" lon="174.4182716"><ele>136.0</ele><time>2026-04-17T22:29:23.981Z</time></trkpt><trkpt lat="-36.7460899" lon="174.4181807"><ele>136.0</ele><time>2026-04-17T22:29:25.979Z</time></trkpt><trkpt lat="-36.746135" lon="174.4181022"><ele>136.0</ele><time>2026-04-17T22:29:27.981Z</time></trkpt><trkpt lat="-36.7461794" lon="174.4180198"><ele>136.0</ele><time>2026-04-17T22:29:29.978Z</time></trkpt><trkpt lat="-36.7462016" lon="174.4179371"><ele>135.85714285714283</ele><time>2026-04-17T22:29:31.98Z</time></trkpt><trkpt lat="-36.7462209" lon="174.4178564"><ele>135.71428571428572</ele><time>2026-04-17T22:29:33.979Z</time></trkpt><trkpt lat="-36.7462505" lon="174.4177801"><ele>135.57142857142856</ele><time>2026-04-17T22:29:35.981Z</time></trkpt><trkpt lat="-36.7463141" lon="174.4177883"><ele>135.42857142857142</ele><time>2026-04-17T22:29:39.98Z</time></trkpt><trkpt lat="-36.746309" lon="174.4178783"><ele>135.28571428571428</ele><time>2026-04-17T22:30:04.98Z</time></trkpt><trkpt lat="-36.746289" lon="174.4179945"><ele>135.14285714285714</ele><time>2026-04-17T22:30:07.98Z</time></trkpt><trkpt lat="-36.7462511" lon="174.4180659"><ele>135.0</ele><time>2026-04-17T22:30:09.979Z</time></trkpt><trkpt lat="-36.7462223" lon="174.4181471"><ele>134.83333333333334</ele><time>2026-04-17T22:30:11.978Z</time></trkpt><trkpt lat="-36.7461887" lon="174.4182422"><ele>134.66666666666666</ele><time>2026-04-17T22:30:13.979Z</time></trkpt><trkpt lat="-36.7461276" lon="174.4183345"><ele>134.5</ele><time>2026-04-17T22:30:14.979Z</time></trkpt><trkpt lat="-36.7460958" lon="174.4184138"><ele>134.33333333333331</ele><time>2026-04-17T22:30:15.979Z</time></trkpt><trkpt lat="-36.7460529" lon="174.4184855"><ele>134.16666666666666</ele><time>2026-04-17T22:30:16.979Z</time></trkpt><trkpt lat="-36.7460137" lon="174.4185625"><ele>134.0</ele><time>2026-04-17T22:30:17.98Z</time></trkpt><trkpt lat="-36.7459611" lon="174.4186076"><ele>134.0</ele><time>2026-04-17T22:30:18.98Z</time></trkpt><trkpt lat="-36.7458988" lon="174.4186701"><ele>134.0</ele><time>2026-04-17T22:30:19.979Z</time></trkpt><trkpt lat="-36.7458279" lon="174.4187909"><ele>134.0</ele><time>2026-04-17T22:30:21.98Z</time></trkpt><trkpt lat="-36.7458211" lon="174.4189093"><ele>134.0</ele><time>2026-04-17T22:30:22.979Z</time></trkpt><trkpt lat="-36.745785" lon="174.4189987"><ele>134.0</ele><time>2026-04-17T22:30:23.98Z</time></trkpt><trkpt lat="-36.7457235" lon="174.4190555"><ele>134.0</ele><time>2026-04-17T22:30:24.979Z</time></trkpt><trkpt lat="-36.745669" lon="174.4191046"><ele>134.0</ele><time>2026-04-17T22:30:25.98Z</time></trkpt><trkpt lat="-36.7456515" lon="174.4192142"><ele>134.0</ele><time>2026-04-17T22:30:27.979Z</time></trkpt><trkpt lat="-36.7457289" lon="174.4192745"><ele>134.0</ele><time>2026-04-17T22:30:29.98Z</time></trkpt><trkpt lat="-36.745785" lon="174.41932"><ele>134.0</ele><time>2026-04-17T22:30:30.98Z</time></trkpt><trkpt lat="-36.7457926" lon="174.4194245"><ele>134.0</ele><time>2026-04-17T22:30:32.979Z</time></trkpt><trkpt lat="-36.7457958" lon="174.419507"><ele>134.0</ele><time>2026-04-17T22:30:33.98Z</time></trkpt><trkpt lat="-36.745884" lon="174.4195729"><ele>134.0</ele><time>2026-04-17T22:30:35.98Z</time></trkpt><trkpt lat="-36.746008" lon="174.4195771"><ele>134.0</ele><time>2026-04-17T22:30:37.98Z</time></trkpt><trkpt lat="-36.7460888" lon="174.4196811"><ele>134.0</ele><time>2026-04-17T22:30:39.981Z</time></trkpt><trkpt lat="-36.7460907" lon="174.4198273"><ele>132.2</ele><time>2026-04-17T22:30:41.979Z</time></trkpt><trkpt lat="-36.7460648" lon="174.4199105"><ele>130.4</ele><time>2026-04-17T22:30:42.979Z</time></trkpt><trkpt lat="-36.7460451" lon="174.4200305"><ele>128.6</ele><time>2026-04-17T22:30:44.98Z</time></trkpt><trkpt lat="-36.7461294" lon="174.4201038"><ele>126.8</ele><time>2026-04-17T22:30:46.98Z</time></trkpt><trkpt lat="-36.7462309" lon="174.4200838"><ele>125.0</ele><time>2026-04-17T22:30:47.98Z</time></trkpt><trkpt lat="-36.7463141" lon="174.4201043"><ele>124.99999999999999</ele><time>2026-04-17T22:30:48.979Z</time></trkpt><trkpt lat="-36.7463978" lon="174.4201008"><ele>125.0</ele><time>2026-04-17T22:30:49.98Z</time></trkpt><trkpt lat="-36.7464964" lon="174.4200871"><ele>125.0</ele><time>2026-04-17T22:30:50.979Z</time></trkpt><trkpt lat="-36.746578" lon="174.4200561"><ele>125.0</ele><time>2026-04-17T22:30:51.98Z</time></trkpt><trkpt lat="-36.7466339" lon="174.4199777"><ele>124.99999999999999</ele><time>2026-04-17T22:30:52.979Z</time></trkpt><trkpt lat="-36.7466399" lon="174.4198771"><ele>125.0</ele><time>2026-04-17T22:30:53.98Z</time></trkpt><trkpt lat="-36.7466684" lon="174.4197971"><ele>124.99999999999999</ele><time>2026-04-17T22:30:54.981Z</time></trkpt><trkpt lat="-36.7466294" lon="174.4196934"><ele>125.0</ele><time>2026-04-17T22:30:55.98Z</time></trkpt><trkpt lat="-36.746684" lon="174.419635"><ele>125.0</ele><time>2026-04-17T22:30:57.979Z</time></trkpt><trkpt lat="-36.7467641" lon="174.4196876"><ele>125.0</ele><time>2026-04-17T22:30:59.98Z</time></trkpt><trkpt lat="-36.7467902" lon="174.4197644"><ele>124.99999999999999</ele><time>2026-04-17T22:31:01.98Z</time></trkpt><trkpt lat="-36.7468376" lon="174.419848"><ele>125.0</ele><time>2026-04-17T22:31:03.979Z</time></trkpt><trkpt lat="-36.7468664" lon="174.4199828"><ele>124.99999999999999</ele><time>2026-04-17T22:31:05.979Z</time></trkpt><trkpt lat="-36.7468751" lon="174.4200612"><ele>125.0</ele><time>2026-04-17T22:31:06.979Z</time></trkpt><trkpt lat="-36.7469199" lon="174.4201452"><ele>125.0</ele><time>2026-04-17T22:31:08.98Z</time></trkpt><trkpt lat="-36.7469863" lon="174.4201788"><ele>125.0</ele><time>2026-04-17T22:31:10.979Z</time></trkpt><trkpt lat="-36.7470518" lon="174.4201364"><ele>124.99999999999999</ele><time>2026-04-17T22:31:11.979Z</time></trkpt><trkpt lat="-36.7471325" lon="174.4200535"><ele>125.0</ele><time>2026-04-17T22:31:13.978Z</time></trkpt><trkpt lat="-36.747197" lon="174.4200601"><ele>123.49999999999999</ele><time>2026-04-17T22:31:14.98Z</time></trkpt><trkpt lat="-36.7472759" lon="174.4201191"><ele>122.0</ele><time>2026-04-17T22:31:16.98Z</time></trkpt><trkpt lat="-36.7473223" lon="174.4201774"><ele>120.5</ele><time>2026-04-17T22:31:17.979Z</time></trkpt><trkpt lat="-36.7473874" lon="174.4201691"><ele>119.0</ele><time>2026-04-17T22:31:19.979Z</time></trkpt><trkpt lat="-36.74748" lon="174.4200992"><ele>117.49999999999999</ele><time>2026-04-17T22:31:21.978Z</time></trkpt><trkpt lat="-36.7475232" lon="174.4200061"><ele>116.0</ele><time>2026-04-17T22:31:23.979Z</time></trkpt><trkpt lat="-36.7475146" lon="174.4198907"><ele>115.99999999999999</ele><time>2026-04-17T22:31:25.98Z</time></trkpt><trkpt lat="-36.7474841" lon="174.4197891"><ele>116.0</ele><time>2026-04-17T22:31:27.979Z</time></trkpt><trkpt lat="-36.7474024" lon="174.4197199"><ele>116.0</ele><time>2026-04-17T22:31:29.979Z</time></trkpt><trkpt lat="-36.7473419" lon="174.4196629"><ele>116.0</ele><time>2026-04-17T22:31:31.98Z</time></trkpt><trkpt lat="-36.7472684" lon="174.4196205"><ele>115.99999999999999</ele><time>2026-04-17T22:31:33.98Z</time></trkpt><trkpt lat="-36.7472277" lon="174.4195237"><ele>116.0</ele><time>2026-04-17T22:31:35.978Z</time></trkpt><trkpt lat="-36.7472153" lon="174.4194273"><ele>117.0</ele><time>2026-04-17T22:31:37.98Z</time></trkpt><trkpt lat="-36.7472231" lon="174.4193081"><ele>118.0</ele><time>2026-04-17T22:31:39.981Z</time></trkpt><trkpt lat="-36.7472238" lon="174.4191906"><ele>119.0</ele><time>2026-04-17T22:31:41.979Z</time></trkpt><trkpt lat="-36.7472508" lon="174.4190893"><ele>120.0</ele><time>2026-04-17T22:31:43.978Z</time></trkpt><trkpt lat="-36.7473192" lon="174.4189896"><ele>121.0</ele><time>2026-04-17T22:31:45.979Z</time></trkpt><trkpt lat="-36.7473837" lon="174.418889"><ele>121.0</ele><time>2026-04-17T22:31:47.979Z</time></trkpt><trkpt lat="-36.7474301" lon="174.4188201"><ele>121.0</ele><time>2026-04-17T22:31:49.979Z</time></trkpt><trkpt lat="-36.747407" lon="174.4187124"><ele>121.0</ele><time>2026-04-17T22:31:52.98Z</time></trkpt><trkpt lat="-36.7473973" lon="174.4186044"><ele>121.0</ele><time>2026-04-17T22:31:55.979Z</time></trkpt><trkpt lat="-36.7474575" lon="174.4184612"><ele>121.0</ele><time>2026-04-17T22:31:57.98Z</time></trkpt><trkpt lat="-36.7474829" lon="174.4183579"><ele>121.83333333333334</ele><time>2026-04-17T22:31:59.979Z</time></trkpt><trkpt lat="-36.7475167" lon="174.4182409"><ele>122.66666666666667</ele><time>2026-04-17T22:32:01.979Z</time></trkpt><trkpt lat="-36.7475461" lon="174.4181354"><ele>123.5</ele><time>2026-04-17T22:32:03.979Z</time></trkpt><trkpt lat="-36.7475217" lon="174.4180514"><ele>124.33333333333334</ele><time>2026-04-17T22:32:05.979Z</time></trkpt><trkpt lat="-36.747464" lon="174.4179836"><ele>125.16666666666667</ele><time>2026-04-17T22:32:07.981Z</time></trkpt><trkpt lat="-36.7473948" lon="174.4179273"><ele>126.0</ele><time>2026-04-17T22:32:09.979Z</time></trkpt><trkpt lat="-36.7473383" lon="174.4178861"><ele>126.83333333333333</ele><time>2026-04-17T22:32:11.979Z</time></trkpt><trkpt lat="-36.7472643" lon="174.4178388"><ele>127.66666666666666</ele><time>2026-04-17T22:32:13.979Z</time></trkpt><trkpt lat="-36.7471815" lon="174.4178026"><ele>128.5</ele><time>2026-04-17T22:32:15.979Z</time></trkpt><trkpt lat="-36.7471041" lon="174.4177618"><ele>129.33333333333331</ele><time>2026-04-17T22:32:17.978Z</time></trkpt><trkpt lat="-36.7470251" lon="174.4177131"><ele>130.16666666666666</ele><time>2026-04-17T22:32:19.979Z</time></trkpt><trkpt lat="-36.7469417" lon="174.4176646"><ele>131.0</ele><time>2026-04-17T22:32:21.98Z</time></trkpt><trkpt lat="-36.7468671" lon="174.4176184"><ele>131.66666666666666</ele><time>2026-04-17T22:32:23.979Z</time></trkpt><trkpt lat="-36.7467988" lon="174.4175704"><ele>132.33333333333331</ele><time>2026-04-17T22:32:25.979Z</time></trkpt><trkpt lat="-36.7467298" lon="174.4175213"><ele>133.0</ele><time>2026-04-17T22:32:27.979Z</time></trkpt><trkpt lat="-36.7466627" lon="174.4174826"><ele>133.66666666666666</ele><time>2026-04-17T22:32:29.978Z</time></trkpt><trkpt lat="-36.7465783" lon="174.4174444"><ele>134.33333333333334</ele><time>2026-04-17T22:32:32.979Z</time></trkpt><trkpt lat="-36.7465042" lon="174.4174672"><ele>135.0</ele><time>2026-04-17T22:32:34.98Z</time></trkpt><trkpt lat="-36.7464248" lon="174.4175129"><ele>135.0</ele><time>2026-04-17T22:32:37.981Z</time></trkpt><trkpt lat="-36.7463587" lon="174.417558"><ele>135.0</ele><time>2026-04-17T22:32:40.98Z</time></trkpt><trkpt lat="-36.7463138" lon="174.4176172"><ele>135.0</ele><time>2026-04-17T22:32:42.979Z</time></trkpt><trkpt lat="-36.7462897" lon="174.4177164"><ele>135.0</ele><time>2026-04-17T22:32:45.98Z</time></trkpt><trkpt lat="-36.7462462" lon="174.4177927"><ele>135.0</ele><time>2026-04-17T22:33:49.979Z</time></trkpt><trkpt lat="-36.7461699" lon="174.4177732"><ele>135.0</ele><time>2026-04-17T22:33:52.979Z</time></trkpt><trkpt lat="-36.7461103" lon="174.4177085"><ele>135.2</ele><time>2026-04-17T22:33:55.978Z</time></trkpt><trkpt lat="-36.7460301" lon="174.4176361"><ele>135.4</ele><time>2026-04-17T22:33:58.978Z</time></trkpt><trkpt lat="-36.7459773" lon="174.4175434"><ele>135.6</ele><time>2026-04-17T22:34:00.981Z</time></trkpt><trkpt lat="-36.7459565" lon="174.4174303"><ele>135.8</ele><time>2026-04-17T22:34:02.98Z</time></trkpt><trkpt lat="-36.7459571" lon="174.4172903"><ele>136.0</ele><time>2026-04-17T22:34:04.979Z</time></trkpt><trkpt lat="-36.7459382" lon="174.4172049"><ele>136.16666666666669</ele><time>2026-04-17T22:34:05.98Z</time></trkpt><trkpt lat="-36.7458729" lon="174.4171487"><ele>136.33333333333334</ele><time>2026-04-17T22:34:07.979Z</time></trkpt><trkpt lat="-36.7457861" lon="174.4170602"><ele>136.5</ele><time>2026-04-17T22:34:09.981Z</time></trkpt><trkpt lat="-36.7457209" lon="174.4170187"><ele>136.66666666666666</ele><time>2026-04-17T22:34:10.978Z</time></trkpt><trkpt lat="-36.7456584" lon="174.4169598"><ele>136.83333333333331</ele><time>2026-04-17T22:34:11.981Z</time></trkpt><trkpt lat="-36.7455671" lon="174.4169108"><ele>137.0</ele><time>2026-04-17T22:34:12.979Z</time></trkpt><trkpt lat="-36.7454951" lon="174.4169423"><ele>137.0</ele><time>2026-04-17T22:34:13.978Z</time></trkpt><trkpt lat="-36.7454264" lon="174.416914"><ele>137.0</ele><time>2026-04-17T22:34:14.979Z</time></trkpt><trkpt lat="-36.7453592" lon="174.4168622"><ele>137.0</ele><time>2026-04-17T22:34:15.979Z</time></trkpt><trkpt lat="-36.7452552" lon="174.4168107"><ele>137.0</ele><time>2026-04-17T22:34:17.98Z</time></trkpt><trkpt lat="-36.7451857" lon="174.4167879"><ele>137.0</ele><time>2026-04-17T22:34:18.979Z</time></trkpt><trkpt lat="-36.7451114" lon="174.4167245"><ele>137.0</ele><time>2026-04-17T22:34:19.98Z</time></trkpt><trkpt lat="-36.7450435" lon="174.4166746"><ele>136.16666666666666</ele><time>2026-04-17T22:34:20.979Z</time></trkpt><trkpt lat="-36.7449778" lon="174.4165931"><ele>135.33333333333331</ele><time>2026-04-17T22:34:21.98Z</time></trkpt><trkpt lat="-36.74491" lon="174.4165265"><ele>134.5</ele><time>2026-04-17T22:34:22.98Z</time></trkpt><trkpt lat="-36.7448811" lon="174.4164454"><ele>133.66666666666666</ele><time>2026-04-17T22:34:23.979Z</time></trkpt><trkpt lat="-36.7448113" lon="174.4164055"><ele>132.83333333333334</ele><time>2026-04-17T22:34:24.979Z</time></trkpt><trkpt lat="-36.7447424" lon="174.4163621"><ele>132.0</ele><time>2026-04-17T22:34:25.981Z</time></trkpt><trkpt lat="-36.7446793" lon="174.4163171"><ele>131.4</ele><time>2026-04-17T22:34:26.98Z</time></trkpt><trkpt lat="-36.7445499" lon="174.416196"><ele>130.79999999999998</ele><time>2026-04-17T22:34:28.979Z</time></trkpt><trkpt lat="-36.7444748" lon="174.4161754"><ele>130.2</ele><time>2026-04-17T22:34:29.979Z</time></trkpt><trkpt lat="-36.7443984" lon="174.4161001"><ele>129.6</ele><time>2026-04-17T22:34:30.98Z</time></trkpt><trkpt lat="-36.7443357" lon="174.4160334"><ele>129.0</ele><time>2026-04-17T22:34:31.979Z</time></trkpt><trkpt lat="-36.7442734" lon="174.4159374"><ele>127.0</ele><time>2026-04-17T22:34:32.979Z</time></trkpt><trkpt lat="-36.7442066" lon="174.4158495"><ele>125.0</ele><time>2026-04-17T22:34:33.979Z</time></trkpt><trkpt lat="-36.7441197" lon="174.4157906"><ele>123.0</ele><time>2026-04-17T22:34:34.979Z</time></trkpt><trkpt lat="-36.7440171" lon="174.4157414"><ele>121.0</ele><time>2026-04-17T22:34:35.978Z</time></trkpt><trkpt lat="-36.7439073" lon="174.4156817"><ele>119.0</ele><time>2026-04-17T22:34:36.979Z</time></trkpt><trkpt lat="-36.7437995" lon="174.4156128"><ele>119.0</ele><time>2026-04-17T22:34:37.98Z</time></trkpt><trkpt lat="-36.7436735" lon="174.4155013"><ele>119.0</ele><time>2026-04-17T22:34:39.98Z</time></trkpt><trkpt lat="-36.7436129" lon="174.4153682"><ele>119.0</ele><time>2026-04-17T22:34:41.98Z</time></trkpt><trkpt lat="-36.7435591" lon="174.4153042"><ele>119.0</ele><time>2026-04-17T22:34:43.978Z</time></trkpt><trkpt lat="-36.7434987" lon="174.4152397"><ele>119.0</ele><time>2026-04-17T22:34:45.978Z</time></trkpt><trkpt lat="-36.7434163" lon="174.4151775"><ele>120.4</ele><time>2026-04-17T22:34:47.978Z</time></trkpt><trkpt lat="-36.7433284" lon="174.4151045"><ele>121.80000000000001</ele><time>2026-04-17T22:34:49.979Z</time></trkpt><trkpt lat="-36.7432563" lon="174.4150308"><ele>123.19999999999999</ele><time>2026-04-17T22:34:51.979Z</time></trkpt><trkpt lat="-36.7431646" lon="174.4149625"><ele>124.6</ele><time>2026-04-17T22:34:53.979Z</time></trkpt><trkpt lat="-36.7430841" lon="174.4149006"><ele>126.0</ele><time>2026-04-17T22:34:55.979Z</time></trkpt><trkpt lat="-36.7429886" lon="174.4148309"><ele>126.0</ele><time>2026-04-17T22:34:57.979Z</time></trkpt><trkpt lat="-36.7428975" lon="174.4147546"><ele>126.0</ele><time>2026-04-17T22:34:59.98Z</time></trkpt><trkpt lat="-36.7428184" lon="174.4147002"><ele>126.0</ele><time>2026-04-17T22:35:01.979Z</time></trkpt><trkpt lat="-36.7427375" lon="174.4146203"><ele>126.0</ele><time>2026-04-17T22:35:03.979Z</time></trkpt><trkpt lat="-36.7426782" lon="174.4145876"><ele>126.0</ele><time>2026-04-17T22:35:04.979Z</time></trkpt><trkpt lat="-36.7426039" lon="174.4145281"><ele>127.66666666666667</ele><time>2026-04-17T22:35:06.98Z</time></trkpt><trkpt lat="-36.7425354" lon="174.4144777"><ele>129.33333333333334</ele><time>2026-04-17T22:35:08.98Z</time></trkpt><trkpt lat="-36.7424705" lon="174.4144245"><ele>131.0</ele><time>2026-04-17T22:35:10.978Z</time></trkpt><trkpt lat="-36.7423964" lon="174.4143904"><ele>132.66666666666669</ele><time>2026-04-17T22:35:13.978Z</time></trkpt><trkpt lat="-36.7423408" lon="174.4143516"><ele>134.33333333333334</ele><time>2026-04-17T22:35:16.979Z</time></trkpt><trkpt lat="-36.7423946" lon="174.4142562"><ele>136.0</ele><time>2026-04-17T22:35:21.978Z</time></trkpt><trkpt lat="-36.7425525" lon="174.4142336"><ele>136.0</ele><time>2026-04-17T22:35:23.979Z</time></trkpt><trkpt lat="-36.7426211" lon="174.4142266"><ele>136.0</ele><time>2026-04-17T22:35:24.98Z</time></trkpt><trkpt lat="-36.742727" lon="174.4142543"><ele>136.0</ele><time>2026-04-17T22:35:26.98Z</time></trkpt><trkpt lat="-36.7427717" lon="174.4143355"><ele>136.0</ele><time>2026-04-17T22:35:27.979Z</time></trkpt><trkpt lat="-36.7428054" lon="174.4144184"><ele>136.0</ele><time>2026-04-17T22:35:29.981Z</time></trkpt><trkpt lat="-36.7428808" lon="174.4144742"><ele>136.0</ele><time>2026-04-17T22:35:31.98Z</time></trkpt><trkpt lat="-36.7429911" lon="174.4144621"><ele>135.2</ele><time>2026-04-17T22:35:33.98Z</time></trkpt><trkpt lat="-36.743094" lon="174.4144787"><ele>134.39999999999998</ele><time>2026-04-17T22:35:35.979Z</time></trkpt><trkpt lat="-36.7431411" lon="174.4145438"><ele>133.6</ele><time>2026-04-17T22:35:36.979Z</time></trkpt><trkpt lat="-36.7431546" lon="174.4146571"><ele>132.79999999999998</ele><time>2026-04-17T22:35:38.979Z</time></trkpt><trkpt lat="-36.7431938" lon="174.4147557"><ele>132.0</ele><time>2026-04-17T22:35:40.98Z</time></trkpt><trkpt lat="-36.743305" lon="174.4148131"><ele>131.0</ele><time>2026-04-17T22:35:42.979Z</time></trkpt><trkpt lat="-36.7433767" lon="174.4148507"><ele>130.0</ele><time>2026-04-17T22:35:44.979Z</time></trkpt><trkpt lat="-36.7434697" lon="174.4148615"><ele>129.0</ele><time>2026-04-17T22:35:46.979Z</time></trkpt><trkpt lat="-36.7435731" lon="174.4148827"><ele>128.0</ele><time>2026-04-17T22:35:48.978Z</time></trkpt><trkpt lat="-36.743654" lon="174.4148946"><ele>127.0</ele><time>2026-04-17T22:35:50.978Z</time></trkpt><trkpt lat="-36.743741" lon="174.4148616"><ele>126.0</ele><time>2026-04-17T22:35:52.978Z</time></trkpt><trkpt lat="-36.7438239" lon="174.4147728"><ele>125.5</ele><time>2026-04-17T22:35:54.978Z</time></trkpt><trkpt lat="-36.7439161" lon="174.4147376"><ele>125.0</ele><time>2026-04-17T22:35:56.979Z</time></trkpt><trkpt lat="-36.7439719" lon="174.4147858"><ele>124.5</ele><time>2026-04-17T22:35:58.979Z</time></trkpt><trkpt lat="-36.744049" lon="174.4148657"><ele>124.0</ele><time>2026-04-17T22:36:00.978Z</time></trkpt><trkpt lat="-36.7441188" lon="174.4149115"><ele>123.5</ele><time>2026-04-17T22:36:02.978Z</time></trkpt><trkpt lat="-36.7441967" lon="174.4149735"><ele>123.0</ele><time>2026-04-17T22:36:04.978Z</time></trkpt><trkpt lat="-36.7443001" lon="174.4149802"><ele>123.80000000000001</ele><time>2026-04-17T22:36:05.978Z</time></trkpt><trkpt lat="-36.7443933" lon="174.4150553"><ele>124.60000000000001</ele><time>2026-04-17T22:36:07.98Z</time></trkpt><trkpt lat="-36.7444216" lon="174.4151712"><ele>125.39999999999999</ele><time>2026-04-17T22:36:09.979Z</time></trkpt><trkpt lat="-36.7444696" lon="174.4152436"><ele>126.19999999999999</ele><time>2026-04-17T22:36:10.98Z</time></trkpt><trkpt lat="-36.7445268" lon="174.4153483"><ele>127.0</ele><time>2026-04-17T22:36:12.979Z</time></trkpt><trkpt lat="-36.7445518" lon="174.4154514"><ele>127.33333333333334</ele><time>2026-04-17T22:36:14.98Z</time></trkpt><trkpt lat="-36.7445257" lon="174.4155407"><ele>127.66666666666667</ele><time>2026-04-17T22:36:16.98Z</time></trkpt><trkpt lat="-36.7445004" lon="174.4156283"><ele>128.0</ele><time>2026-04-17T22:36:18.979Z</time></trkpt><trkpt lat="-36.7445229" lon="174.4157122"><ele>128.33333333333334</ele><time>2026-04-17T22:36:21.979Z</time></trkpt><trkpt lat="-36.7446055" lon="174.4157321"><ele>128.66666666666666</ele><time>2026-04-17T22:36:23.978Z</time></trkpt><trkpt lat="-36.7446907" lon="174.4157382"><ele>129.0</ele><time>2026-04-17T22:36:25.979Z</time></trkpt><trkpt lat="-36.7447697" lon="174.415742"><ele>129.0</ele><time>2026-04-17T22:36:27.979Z</time></trkpt><trkpt lat="-36.7448355" lon="174.4157831"><ele>129.0</ele><time>2026-04-17T22:36:30.979Z</time></trkpt><trkpt lat="-36.7447845" lon="174.4158768"><ele>129.0</ele><time>2026-04-17T22:36:33.98Z</time></trkpt><trkpt lat="-36.7447348" lon="174.4159408"><ele>129.0</ele><time>2026-04-17T22:36:36.979Z</time></trkpt><trkpt lat="-36.744809" lon="174.4159666"><ele>129.0</ele><time>2026-04-17T22:36:42.978Z</time></trkpt><trkpt lat="-36.7448776" lon="174.4160198"><ele>129.0</ele><time>2026-04-17T22:36:45.978Z</time></trkpt><trkpt lat="-36.7449506" lon="174.4160275"><ele>129.0</ele><time>2026-04-17T22:36:48.979Z</time></trkpt><trkpt lat="-36.7449823" lon="174.4161061"><ele>129.0</ele><time>2026-04-17T22:36:52.979Z</time></trkpt><trkpt lat="-36.7450231" lon="174.4160132"><ele>129.0</ele><time>2026-04-17T22:36:56.981Z</time></trkpt><trkpt lat="-36.7450586" lon="174.4159138"><ele>129.0</ele><time>2026-04-17T22:36:58.979Z</time></trkpt><trkpt lat="-36.7451314" lon="174.4159075"><ele>129.0</ele><time>2026-04-17T22:37:02.98Z</time></trkpt><trkpt lat="-36.7452052" lon="174.4159251"><ele>129.0</ele><time>2026-04-17T22:37:05.978Z</time></trkpt><trkpt lat="-36.7452828" lon="174.4159286"><ele>130.14285714285714</ele><time>2026-04-17T22:37:08.979Z</time></trkpt><trkpt lat="-36.7452803" lon="174.4160271"><ele>131.28571428571428</ele><time>2026-04-17T22:37:12.978Z</time></trkpt><trkpt lat="-36.7452606" lon="174.4161087"><ele>132.42857142857144</ele><time>2026-04-17T22:37:15.979Z</time></trkpt><trkpt lat="-36.745276" lon="174.4161976"><ele>133.57142857142856</ele><time>2026-04-17T22:37:19.98Z</time></trkpt><trkpt lat="-36.7453365" lon="174.4162435"><ele>134.71428571428572</ele><time>2026-04-17T22:37:22.978Z</time></trkpt><trkpt lat="-36.7453981" lon="174.4163036"><ele>135.85714285714286</ele><time>2026-04-17T22:37:25.98Z</time></trkpt><trkpt lat="-36.7454462" lon="174.4163811"><ele>137.0</ele><time>2026-04-17T22:37:28.98Z</time></trkpt><trkpt lat="-36.7455313" lon="174.4164082"><ele>137.00000000000003</ele><time>2026-04-17T22:37:31.978Z</time></trkpt><trkpt lat="-36.7455987" lon="174.4164624"><ele>137.0</ele><time>2026-04-17T22:37:34.978Z</time></trkpt><trkpt lat="-36.7456409" lon="174.4165218"><ele>137.0</ele><time>2026-04-17T22:37:37.98Z</time></trkpt><trkpt lat="-36.7457092" lon="174.4165203"><ele>137.0</ele><time>2026-04-17T22:37:41.98Z</time></trkpt><trkpt lat="-36.7457568" lon="174.4164586"><ele>137.0</ele><time>2026-04-17T22:37:44.98Z</time></trkpt><trkpt lat="-36.745789" lon="174.4163902"><ele>137.00000000000003</ele><time>2026-04-17T22:37:47.979Z</time></trkpt><trkpt lat="-36.745765" lon="174.4162851"><ele>137.0</ele><time>2026-04-17T22:37:50.98Z</time></trkpt><trkpt lat="-36.7457849" lon="174.4161804"><ele>137.16666666666666</ele><time>2026-04-17T22:37:53.978Z</time></trkpt><trkpt lat="-36.7458366" lon="174.4161218"><ele>137.33333333333331</ele><time>2026-04-17T22:37:56.98Z</time></trkpt><trkpt lat="-36.7458673" lon="174.4160135"><ele>137.5</ele><time>2026-04-17T22:37:59.98Z</time></trkpt><trkpt lat="-36.7458282" lon="174.415932"><ele>137.66666666666666</ele><time>2026-04-17T22:38:02.979Z</time></trkpt><trkpt lat="-36.7457302" lon="174.4159646"><ele>137.83333333333334</ele><time>2026-04-17T22:38:05.979Z</time></trkpt><trkpt lat="-36.745657" lon="174.4158882"><ele>138.0</ele><time>2026-04-17T22:38:08.978Z</time></trkpt><trkpt lat="-36.7456409" lon="174.4157757"><ele>138.0</ele><time>2026-04-17T22:38:09.979Z</time></trkpt><trkpt lat="-36.7456105" lon="174.4156976"><ele>138.0</ele><time>2026-04-17T22:38:10.978Z</time></trkpt><trkpt lat="-36.7455601" lon="174.4156329"><ele>138.0</ele><time>2026-04-17T22:38:11.979Z</time></trkpt><trkpt lat="-36.7455163" lon="174.4155723"><ele>138.0</ele><time>2026-04-17T22:38:12.98Z</time></trkpt><trkpt lat="-36.745436" lon="174.4154676"><ele>138.0</ele><time>2026-04-17T22:38:14.979Z</time></trkpt><trkpt lat="-36.7453832" lon="174.4153953"><ele>138.0</ele><time>2026-04-17T22:38:15.978Z</time></trkpt><trkpt lat="-36.7453841" lon="174.4153026"><ele>136.66666666666666</ele><time>2026-04-17T22:38:16.978Z</time></trkpt><trkpt lat="-36.745363" lon="174.415227"><ele>135.33333333333334</ele><time>2026-04-17T22:38:17.98Z</time></trkpt><trkpt lat="-36.7453337" lon="174.4151476"><ele>134.0</ele><time>2026-04-17T22:38:18.979Z</time></trkpt><trkpt lat="-36.7453189" lon="174.415066"><ele>132.66666666666669</ele><time>2026-04-17T22:38:19.978Z</time></trkpt><trkpt lat="-36.7452259" lon="174.4150364"><ele>131.33333333333334</ele><time>2026-04-17T22:38:21.979Z</time></trkpt><trkpt lat="-36.7451296" lon="174.4150499"><ele>130.0</ele><time>2026-04-17T22:38:23.979Z</time></trkpt><trkpt lat="-36.7450597" lon="174.415094"><ele>129.5</ele><time>2026-04-17T22:38:25.979Z</time></trkpt><trkpt lat="-36.7449665" lon="174.4151056"><ele>129.0</ele><time>2026-04-17T22:38:27.978Z</time></trkpt><trkpt lat="-36.7448957" lon="174.4151193"><ele>128.5</ele><time>2026-04-17T22:38:29.98Z</time></trkpt><trkpt lat="-36.7448296" lon="174.4151416"><ele>128.0</ele><time>2026-04-17T22:38:31.979Z</time></trkpt><trkpt lat="-36.7447559" lon="174.4151679"><ele>127.50000000000001</ele><time>2026-04-17T22:38:33.978Z</time></trkpt><trkpt lat="-36.744686" lon="174.4151605"><ele>127.0</ele><time>2026-04-17T22:38:35.979Z</time></trkpt><trkpt lat="-36.7445834" lon="174.4151352"><ele>127.00000000000001</ele><time>2026-04-17T22:38:37.98Z</time></trkpt><trkpt lat="-36.7444847" lon="174.4150692"><ele>127.0</ele><time>2026-04-17T22:38:39.98Z</time></trkpt><trkpt lat="-36.7444242" lon="174.4149818"><ele>127.0</ele><time>2026-04-17T22:38:41.98Z</time></trkpt><trkpt lat="-36.7443859" lon="174.4148845"><ele>127.0</ele><time>2026-04-17T22:38:43.978Z</time></trkpt><trkpt lat="-36.7443433" lon="174.414824"><ele>127.00000000000001</ele><time>2026-04-17T22:38:45.979Z</time></trkpt><trkpt lat="-36.7442844" lon="174.4147832"><ele>127.0</ele><time>2026-04-17T22:38:48.978Z</time></trkpt><trkpt lat="-36.7442086" lon="174.4147109"><ele>127.33333333333334</ele><time>2026-04-17T22:38:51.979Z</time></trkpt><trkpt lat="-36.7441494" lon="174.414626"><ele>127.66666666666667</ele><time>2026-04-17T22:38:54.98Z</time></trkpt><trkpt lat="-36.7441116" lon="174.4145503"><ele>128.0</ele><time>2026-04-17T22:38:56.98Z</time></trkpt><trkpt lat="-36.7440685" lon="174.4144728"><ele>128.33333333333334</ele><time>2026-04-17T22:38:58.979Z</time></trkpt><trkpt lat="-36.7440221" lon="174.4143729"><ele>128.66666666666666</ele><time>2026-04-17T22:39:00.979Z</time></trkpt><trkpt lat="-36.7439868" lon="174.4142901"><ele>129.0</ele><time>2026-04-17T22:39:02.98Z</time></trkpt><trkpt lat="-36.743985" lon="174.4141673"><ele>129.0</ele><time>2026-04-17T22:39:04.98Z</time></trkpt><trkpt lat="-36.7439648" lon="174.4140617"><ele>129.0</ele><time>2026-04-17T22:39:06.978Z</time></trkpt><trkpt lat="-36.7439472" lon="174.4138959"><ele>129.0</ele><time>2026-04-17T22:39:08.978Z</time></trkpt><trkpt lat="-36.7438876" lon="174.4138504"><ele>129.0</ele><time>2026-04-17T22:39:10.979Z</time></trkpt><trkpt lat="-36.7438224" lon="174.413863"><ele>129.0</ele><time>2026-04-17T22:39:11.979Z</time></trkpt><trkpt lat="-36.7437601" lon="174.4138312"><ele>129.0</ele><time>2026-04-17T22:39:12.979Z</time></trkpt><trkpt lat="-36.7436666" lon="174.4137181"><ele>129.16666666666666</ele><time>2026-04-17T22:39:14.978Z</time></trkpt><trkpt lat="-36.7435831" lon="174.4136512"><ele>129.33333333333334</ele><time>2026-04-17T22:39:16.979Z</time></trkpt><trkpt lat="-36.7435268" lon="174.4135385"><ele>129.5</ele><time>2026-04-17T22:39:18.978Z</time></trkpt><trkpt lat="-36.7434748" lon="174.4134583"><ele>129.66666666666669</ele><time>2026-04-17T22:39:20.979Z</time></trkpt><trkpt lat="-36.7434387" lon="174.413379"><ele>129.83333333333334</ele><time>2026-04-17T22:39:22.979Z</time></trkpt><trkpt lat="-36.7434675" lon="174.413282"><ele>130.0</ele><time>2026-04-17T22:39:24.978Z</time></trkpt><trkpt lat="-36.7435173" lon="174.4131805"><ele>130.0</ele><time>2026-04-17T22:39:26.98Z</time></trkpt><trkpt lat="-36.7435474" lon="174.4130904"><ele>130.0</ele><time>2026-04-17T22:39:28.979Z</time></trkpt><trkpt lat="-36.7436063" lon="174.4130029"><ele>130.0</ele><time>2026-04-17T22:39:30.979Z</time></trkpt><trkpt lat="-36.7436884" lon="174.4129363"><ele>130.0</ele><time>2026-04-17T22:39:32.979Z</time></trkpt><trkpt lat="-36.7437685" lon="174.4129546"><ele>130.0</ele><time>2026-04-17T22:39:33.978Z</time></trkpt><trkpt lat="-36.7438125" lon="174.4130148"><ele>130.0</ele><time>2026-04-17T22:39:35.98Z</time></trkpt><trkpt lat="-36.7437736" lon="174.4130794"><ele>130.0</ele><time>2026-04-17T22:39:37.979Z</time></trkpt><trkpt lat="-36.7437118" lon="174.4131167"><ele>130.0</ele><time>2026-04-17T22:39:39.978Z</time></trkpt><trkpt lat="-36.7436782" lon="174.4132011"><ele>130.0</ele><time>2026-04-17T22:39:41.98Z</time></trkpt><trkpt lat="-36.7436467" lon="174.4132766"><ele>130.0</ele><time>2026-04-17T22:39:43.98Z</time></trkpt><trkpt lat="-36.7436833" lon="174.413346"><ele>130.0</ele><time>2026-04-17T22:39:46.98Z</time></trkpt><trkpt lat="-36.7437307" lon="174.4134201"><ele>130.0</ele><time>2026-04-17T22:39:48.979Z</time></trkpt><trkpt lat="-36.7437671" lon="174.413532"><ele>130.0</ele><time>2026-04-17T22:39:50.979Z</time></trkpt><trkpt lat="-36.7437913" lon="174.4136172"><ele>130.0</ele><time>2026-04-17T22:39:52.979Z</time></trkpt><trkpt lat="-36.7438755" lon="174.4136817"><ele>130.0</ele><time>2026-04-17T22:39:55.979Z</time></trkpt><trkpt lat="-36.7439699" lon="174.4137083"><ele>130.0</ele><time>2026-04-17T22:39:57.979Z</time></trkpt><trkpt lat="-36.7440293" lon="174.4137365"><ele>130.0</ele><time>2026-04-17T22:39:59.978Z</time></trkpt><trkpt lat="-36.7440914" lon="174.4138056"><ele>130.0</ele><time>2026-04-17T22:40:01.981Z</time></trkpt><trkpt lat="-36.7441471" lon="174.4138565"><ele>129.83333333333334</ele><time>2026-04-17T22:40:03.978Z</time></trkpt><trkpt lat="-36.7442136" lon="174.4138717"><ele>129.66666666666669</ele><time>2026-04-17T22:40:05.978Z</time></trkpt><trkpt lat="-36.7442818" lon="174.4139189"><ele>129.5</ele><time>2026-04-17T22:40:07.978Z</time></trkpt><trkpt lat="-36.7443131" lon="174.4140049"><ele>129.33333333333334</ele><time>2026-04-17T22:40:09.98Z</time></trkpt><trkpt lat="-36.7442731" lon="174.4140878"><ele>129.16666666666666</ele><time>2026-04-17T22:40:11.98Z</time></trkpt><trkpt lat="-36.7442413" lon="174.4141687"><ele>129.0</ele><time>2026-04-17T22:40:13.979Z</time></trkpt><trkpt lat="-36.7442827" lon="174.4142626"><ele>129.0</ele><time>2026-04-17T22:40:16.98Z</time></trkpt><trkpt lat="-36.7443426" lon="174.4142925"><ele>129.0</ele><time>2026-04-17T22:40:18.98Z</time></trkpt><trkpt lat="-36.7444131" lon="174.4142701"><ele>129.0</ele><time>2026-04-17T22:40:20.978Z</time></trkpt><trkpt lat="-36.7444967" lon="174.4143214"><ele>129.0</ele><time>2026-04-17T22:40:23.98Z</time></trkpt><trkpt lat="-36.7445408" lon="174.4144066"><ele>129.0</ele><time>2026-04-17T22:40:25.978Z</time></trkpt><trkpt lat="-36.7445798" lon="174.414566"><ele>129.0</ele><time>2026-04-17T22:40:27.979Z</time></trkpt><trkpt lat="-36.7445939" lon="174.4146444"><ele>128.66666666666666</ele><time>2026-04-17T22:40:28.979Z</time></trkpt><trkpt lat="-36.7446387" lon="174.4147686"><ele>128.33333333333334</ele><time>2026-04-17T22:40:30.979Z</time></trkpt><trkpt lat="-36.7446837" lon="174.4148722"><ele>128.0</ele><time>2026-04-17T22:40:32.978Z</time></trkpt><trkpt lat="-36.7447342" lon="174.4149487"><ele>127.66666666666667</ele><time>2026-04-17T22:40:34.979Z</time></trkpt><trkpt lat="-36.7448053" lon="174.4149838"><ele>127.33333333333334</ele><time>2026-04-17T22:40:36.979Z</time></trkpt><trkpt lat="-36.7448854" lon="174.4149605"><ele>127.0</ele><time>2026-04-17T22:40:38.978Z</time></trkpt><trkpt lat="-36.7449523" lon="174.4148828"><ele>127.00000000000001</ele><time>2026-04-17T22:40:40.979Z</time></trkpt><trkpt lat="-36.745018" lon="174.4147975"><ele>127.0</ele><time>2026-04-17T22:40:42.98Z</time></trkpt><trkpt lat="-36.7450819" lon="174.4147877"><ele>127.0</ele><time>2026-04-17T22:40:44.979Z</time></trkpt><trkpt lat="-36.7451473" lon="174.4148045"><ele>127.0</ele><time>2026-04-17T22:40:46.98Z</time></trkpt><trkpt lat="-36.7452272" lon="174.414789"><ele>127.00000000000001</ele><time>2026-04-17T22:40:48.979Z</time></trkpt><trkpt lat="-36.7453095" lon="174.4147786"><ele>127.0</ele><time>2026-04-17T22:40:50.978Z</time></trkpt><trkpt lat="-36.7453876" lon="174.414803"><ele>127.50000000000001</ele><time>2026-04-17T22:40:52.979Z</time></trkpt><trkpt lat="-36.7454617" lon="174.4148176"><ele>128.0</ele><time>2026-04-17T22:40:54.979Z</time></trkpt><trkpt lat="-36.7455441" lon="174.414761"><ele>128.5</ele><time>2026-04-17T22:40:57.979Z</time></trkpt><trkpt lat="-36.7456215" lon="174.4147795"><ele>129.0</ele><time>2026-04-17T22:41:00.98Z</time></trkpt><trkpt lat="-36.7456762" lon="174.4148635"><ele>129.5</ele><time>2026-04-17T22:41:03.978Z</time></trkpt><trkpt lat="-36.7456617" lon="174.4149593"><ele>130.0</ele><time>2026-04-17T22:41:05.978Z</time></trkpt><trkpt lat="-36.7456707" lon="174.4150573"><ele>130.0</ele><time>2026-04-17T22:41:08.979Z</time></trkpt><trkpt lat="-36.7457506" lon="174.4150796"><ele>130.0</ele><time>2026-04-17T22:41:11.979Z</time></trkpt><trkpt lat="-36.7458202" lon="174.4151016"><ele>130.0</ele><time>2026-04-17T22:41:13.98Z</time></trkpt><trkpt lat="-36.7458043" lon="174.4151871"><ele>130.0</ele><time>2026-04-17T22:41:16.98Z</time></trkpt><trkpt lat="-36.7458017" lon="174.4152862"><ele>130.0</ele><time>2026-04-17T22:41:19.979Z</time></trkpt><trkpt lat="-36.7458802" lon="174.4153185"><ele>130.0</ele><time>2026-04-17T22:41:22.98Z</time></trkpt><trkpt lat="-36.7458844" lon="174.4154411"><ele>131.33333333333334</ele><time>2026-04-17T22:41:26.978Z</time></trkpt><trkpt lat="-36.7458437" lon="174.4155221"><ele>132.66666666666669</ele><time>2026-04-17T22:41:28.98Z</time></trkpt><trkpt lat="-36.7458001" lon="174.415589"><ele>134.0</ele><time>2026-04-17T22:41:30.978Z</time></trkpt><trkpt lat="-36.7457768" lon="174.4156822"><ele>135.33333333333334</ele><time>2026-04-17T22:41:33.98Z</time></trkpt><trkpt lat="-36.7458432" lon="174.4156813"><ele>136.66666666666666</ele><time>2026-04-17T22:41:40.979Z</time></trkpt><trkpt lat="-36.7458728" lon="174.415771"><ele>138.0</ele><time>2026-04-17T22:41:43.979Z</time></trkpt><trkpt lat="-36.7459588" lon="174.4157726"><ele>138.0</ele><time>2026-04-17T22:41:46.978Z</time></trkpt><trkpt lat="-36.7460303" lon="174.4157774"><ele>138.0</ele><time>2026-04-17T22:41:49.978Z</time></trkpt><trkpt lat="-36.7460858" lon="174.4157192"><ele>138.0</ele><time>2026-04-17T22:41:53.978Z</time></trkpt><trkpt lat="-36.7461195" lon="174.4155418"><ele>138.0</ele><time>2026-04-17T22:41:56.98Z</time></trkpt><trkpt lat="-36.7461053" lon="174.4154428"><ele>138.0</ele><time>2026-04-17T22:41:57.98Z</time></trkpt><trkpt lat="-36.7461042" lon="174.4153454"><ele>138.0</ele><time>2026-04-17T22:41:58.978Z</time></trkpt><trkpt lat="-36.7461304" lon="174.4152438"><ele>138.6</ele><time>2026-04-17T22:41:59.98Z</time></trkpt><trkpt lat="-36.7461922" lon="174.4151431"><ele>139.20000000000002</ele><time>2026-04-17T22:42:01.979Z</time></trkpt><trkpt lat="-36.7462908" lon="174.4150884"><ele>139.8</ele><time>2026-04-17T22:42:04.978Z</time></trkpt><trkpt lat="-36.7462974" lon="174.4149988"><ele>140.4</ele><time>2026-04-17T22:42:07.978Z</time></trkpt><trkpt lat="-36.7462742" lon="174.4149074"><ele>141.0</ele><time>2026-04-17T22:42:08.98Z</time></trkpt><trkpt lat="-36.74629" lon="174.4147528"><ele>140.6</ele><time>2026-04-17T22:42:10.98Z</time></trkpt><trkpt lat="-36.7463081" lon="174.4146467"><ele>140.2</ele><time>2026-04-17T22:42:11.979Z</time></trkpt><trkpt lat="-36.7463643" lon="174.4145681"><ele>139.8</ele><time>2026-04-17T22:42:12.978Z</time></trkpt><trkpt lat="-36.746405" lon="174.4144865"><ele>139.4</ele><time>2026-04-17T22:42:13.98Z</time></trkpt><trkpt lat="-36.746445" lon="174.4143602"><ele>139.0</ele><time>2026-04-17T22:42:15.98Z</time></trkpt><trkpt lat="-36.7463772" lon="174.4142815"><ele>139.0</ele><time>2026-04-17T22:42:17.98Z</time></trkpt><trkpt lat="-36.7462557" lon="174.4141989"><ele>139.0</ele><time>2026-04-17T22:42:19.978Z</time></trkpt><trkpt lat="-36.7462074" lon="174.4140992"><ele>139.0</ele><time>2026-04-17T22:42:20.98Z</time></trkpt><trkpt lat="-36.7461356" lon="174.4140141"><ele>139.0</ele><time>2026-04-17T22:42:21.981Z</time></trkpt><trkpt lat="-36.7460854" lon="174.4139299"><ele>139.0</ele><time>2026-04-17T22:42:23.978Z</time></trkpt><trkpt lat="-36.7460182" lon="174.4140213"><ele>137.16666666666669</ele><time>2026-04-17T22:42:31.978Z</time></trkpt><trkpt lat="-36.7459732" lon="174.414099"><ele>135.33333333333334</ele><time>2026-04-17T22:42:33.979Z</time></trkpt><trkpt lat="-36.7459038" lon="174.4141445"><ele>133.5</ele><time>2026-04-17T22:42:35.978Z</time></trkpt><trkpt lat="-36.7458286" lon="174.4141351"><ele>131.66666666666666</ele><time>2026-04-17T22:42:37.978Z</time></trkpt><trkpt lat="-36.7457554" lon="174.4141135"><ele>129.83333333333331</ele><time>2026-04-17T22:42:38.98Z</time></trkpt><trkpt lat="-36.7456694" lon="174.4141667"><ele>128.0</ele><time>2026-04-17T22:42:40.98Z</time></trkpt><trkpt lat="-36.7455886" lon="174.414286"><ele>127.99999999999999</ele><time>2026-04-17T22:42:42.978Z</time></trkpt><trkpt lat="-36.7455217" lon="174.4143175"><ele>128.0</ele><time>2026-04-17T22:42:43.979Z</time></trkpt><trkpt lat="-36.7454493" lon="174.4143321"><ele>128.0</ele><time>2026-04-17T22:42:44.979Z</time></trkpt><trkpt lat="-36.7453825" lon="174.4143341"><ele>128.0</ele><time>2026-04-17T22:42:45.978Z</time></trkpt><trkpt lat="-36.7453109" lon="174.4143082"><ele>127.99999999999999</ele><time>2026-04-17T22:42:46.979Z</time></trkpt><trkpt lat="-36.745197" lon="174.4143174"><ele>128.0</ele><time>2026-04-17T22:42:48.979Z</time></trkpt><trkpt lat="-36.7451026" lon="174.4143376"><ele>127.57142857142857</ele><time>2026-04-17T22:42:50.98Z</time></trkpt><trkpt lat="-36.7450333" lon="174.4143396"><ele>127.14285714285714</ele><time>2026-04-17T22:42:52.979Z</time></trkpt><trkpt lat="-36.7450049" lon="174.4142627"><ele>126.71428571428571</ele><time>2026-04-17T22:42:54.979Z</time></trkpt><trkpt lat="-36.7449743" lon="174.4141925"><ele>126.28571428571428</ele><time>2026-04-17T22:42:56.98Z</time></trkpt><trkpt lat="-36.7449496" lon="174.414113"><ele>125.85714285714286</ele><time>2026-04-17T22:42:58.979Z</time></trkpt><trkpt lat="-36.7449055" lon="174.4140189"><ele>125.42857142857142</ele><time>2026-04-17T22:43:01.979Z</time></trkpt><trkpt lat="-36.7448557" lon="174.4139635"><ele>125.0</ele><time>2026-04-17T22:43:03.978Z</time></trkpt><trkpt lat="-36.7447866" lon="174.4139362"><ele>124.99999999999999</ele><time>2026-04-17T22:43:05.98Z</time></trkpt><trkpt lat="-36.7447154" lon="174.413913"><ele>125.0</ele><time>2026-04-17T22:43:07.978Z</time></trkpt><trkpt lat="-36.7446565" lon="174.4138657"><ele>125.0</ele><time>2026-04-17T22:43:09.978Z</time></trkpt><trkpt lat="-36.744584" lon="174.4138116"><ele>125.0</ele><time>2026-04-17T22:43:11.981Z</time></trkpt><trkpt lat="-36.7445012" lon="174.413797"><ele>124.99999999999999</ele><time>2026-04-17T22:43:13.978Z</time></trkpt><trkpt lat="-36.7444229" lon="174.4137683"><ele>125.0</ele><time>2026-04-17T22:43:15.979Z</time></trkpt><trkpt lat="-36.7443797" lon="174.4136917"><ele>125.28571428571428</ele><time>2026-04-17T22:43:17.978Z</time></trkpt><trkpt lat="-36.744378" lon="174.4136123"><ele>125.57142857142858</ele><time>2026-04-17T22:43:19.979Z</time></trkpt><trkpt lat="-36.7443914" lon="174.4135345"><ele>125.85714285714286</ele><time>2026-04-17T22:43:21.978Z</time></trkpt><trkpt lat="-36.7443481" lon="174.4134708"><ele>126.14285714285714</ele><time>2026-04-17T22:43:23.979Z</time></trkpt><trkpt lat="-36.7442583" lon="174.4134635"><ele>126.42857142857142</ele><time>2026-04-17T22:43:25.979Z</time></trkpt><trkpt lat="-36.7441709" lon="174.4134183"><ele>126.71428571428572</ele><time>2026-04-17T22:43:27.979Z</time></trkpt><trkpt lat="-36.7441217" lon="174.4133585"><ele>127.0</ele><time>2026-04-17T22:43:29.978Z</time></trkpt><trkpt lat="-36.7440482" lon="174.4133405"><ele>127.0</ele><time>2026-04-17T22:43:31.98Z</time></trkpt><trkpt lat="-36.7439058" lon="174.4132552"><ele>126.99999999999999</ele><time>2026-04-17T22:43:33.979Z</time></trkpt><trkpt lat="-36.7438736" lon="174.4131619"><ele>126.99999999999999</ele><time>2026-04-17T22:43:35.979Z</time></trkpt><trkpt lat="-36.7438951" lon="174.4130577"><ele>127.0</ele><time>2026-04-17T22:43:37.979Z</time></trkpt><trkpt lat="-36.7439118" lon="174.4129526"><ele>127.0</ele><time>2026-04-17T22:43:39.979Z</time></trkpt><trkpt lat="-36.743941" lon="174.4128578"><ele>127.00000000000001</ele><time>2026-04-17T22:43:41.978Z</time></trkpt><trkpt lat="-36.7439784" lon="174.4127525"><ele>127.0</ele><time>2026-04-17T22:43:43.978Z</time></trkpt><trkpt lat="-36.743998" lon="174.412651"><ele>127.0</ele><time>2026-04-17T22:43:45.979Z</time></trkpt><trkpt lat="-36.7440013" lon="174.412561"><ele>127.0</ele><time>2026-04-17T22:43:47.978Z</time></trkpt><trkpt lat="-36.743969" lon="174.4124833"><ele>127.00000000000001</ele><time>2026-04-17T22:43:49.978Z</time></trkpt><trkpt lat="-36.7439204" lon="174.4124122"><ele>127.0</ele><time>2026-04-17T22:43:51.979Z</time></trkpt><trkpt lat="-36.7438671" lon="174.412337"><ele>127.00000000000001</ele><time>2026-04-17T22:43:54.978Z</time></trkpt><trkpt lat="-36.7439241" lon="174.4122436"><ele>127.0</ele><time>2026-04-17T22:43:57.98Z</time></trkpt><trkpt lat="-36.7440038" lon="174.412232"><ele>127.0</ele><time>2026-04-17T22:43:59.979Z</time></trkpt><trkpt lat="-36.744073" lon="174.4122585"><ele>127.0</ele><time>2026-04-17T22:44:01.978Z</time></trkpt><trkpt lat="-36.744164" lon="174.4122745"><ele>127.00000000000001</ele><time>2026-04-17T22:44:04.978Z</time></trkpt><trkpt lat="-36.7442358" lon="174.4123264"><ele>127.0</ele><time>2026-04-17T22:44:06.979Z</time></trkpt><trkpt lat="-36.7443043" lon="174.4123732"><ele>127.00000000000001</ele><time>2026-04-17T22:44:08.98Z</time></trkpt><trkpt lat="-36.7443732" lon="174.4124257"><ele>127.0</ele><time>2026-04-17T22:44:10.979Z</time></trkpt><trkpt lat="-36.7443947" lon="174.4125204"><ele>127.0</ele><time>2026-04-17T22:44:12.978Z</time></trkpt><trkpt lat="-36.7443777" lon="174.4126286"><ele>127.0</ele><time>2026-04-17T22:44:14.978Z</time></trkpt><trkpt lat="-36.744345" lon="174.4127402"><ele>127.00000000000001</ele><time>2026-04-17T22:44:16.979Z</time></trkpt><trkpt lat="-36.7443022" lon="174.4128523"><ele>127.0</ele><time>2026-04-17T22:44:18.978Z</time></trkpt><trkpt lat="-36.7442905" lon="174.4129913"><ele>127.00000000000001</ele><time>2026-04-17T22:44:20.98Z</time></trkpt><trkpt lat="-36.7442588" lon="174.4130977"><ele>127.0</ele><time>2026-04-17T22:44:22.979Z</time></trkpt><trkpt lat="-36.7442582" lon="174.4131865"><ele>127.0</ele><time>2026-04-17T22:44:24.979Z</time></trkpt><trkpt lat="-36.7443124" lon="174.4132355"><ele>127.0</ele><time>2026-04-17T22:44:26.978Z</time></trkpt><trkpt lat="-36.7443507" lon="174.413318"><ele>127.00000000000001</ele><time>2026-04-17T22:44:29.98Z</time></trkpt><trkpt lat="-36.7444531" lon="174.4133203"><ele>127.0</ele><time>2026-04-17T22:44:32.978Z</time></trkpt><trkpt lat="-36.7445501" lon="174.4133453"><ele>127.00000000000001</ele><time>2026-04-17T22:44:34.98Z</time></trkpt><trkpt lat="-36.7446203" lon="174.4133694"><ele>127.0</ele><time>2026-04-17T22:44:36.978Z</time></trkpt><trkpt lat="-36.7446966" lon="174.4133044"><ele>127.0</ele><time>2026-04-17T22:44:39.979Z</time></trkpt><trkpt lat="-36.7447498" lon="174.4132502"><ele>127.0</ele><time>2026-04-17T22:44:41.978Z</time></trkpt><trkpt lat="-36.7448" lon="174.4131702"><ele>127.00000000000001</ele><time>2026-04-17T22:44:43.978Z</time></trkpt><trkpt lat="-36.7448581" lon="174.4131073"><ele>127.0</ele><time>2026-04-17T22:44:45.979Z</time></trkpt><trkpt lat="-36.7449171" lon="174.4130586"><ele>127.00000000000001</ele><time>2026-04-17T22:44:47.978Z</time></trkpt><trkpt lat="-36.7449687" lon="174.413005"><ele>127.0</ele><time>2026-04-17T22:44:49.979Z</time></trkpt><trkpt lat="-36.7450377" lon="174.4129507"><ele>127.0</ele><time>2026-04-17T22:44:51.979Z</time></trkpt><trkpt lat="-36.7451096" lon="174.4129184"><ele>127.0</ele><time>2026-04-17T22:44:53.979Z</time></trkpt><trkpt lat="-36.7451762" lon="174.4128932"><ele>127.00000000000001</ele><time>2026-04-17T22:44:54.978Z</time></trkpt><trkpt lat="-36.7452639" lon="174.4128741"><ele>127.0</ele><time>2026-04-17T22:44:56.978Z</time></trkpt><trkpt lat="-36.7453958" lon="174.4128559"><ele>126.8</ele><time>2026-04-17T22:44:58.979Z</time></trkpt><trkpt lat="-36.745509" lon="174.4128634"><ele>126.6</ele><time>2026-04-17T22:45:00.978Z</time></trkpt><trkpt lat="-36.745609" lon="174.4129494"><ele>126.39999999999999</ele><time>2026-04-17T22:45:02.979Z</time></trkpt><trkpt lat="-36.7456057" lon="174.4130423"><ele>126.19999999999999</ele><time>2026-04-17T22:45:04.978Z</time></trkpt><trkpt lat="-36.7455893" lon="174.4131549"><ele>126.0</ele><time>2026-04-17T22:45:06.979Z</time></trkpt><trkpt lat="-36.7456414" lon="174.4132439"><ele>126.5</ele><time>2026-04-17T22:45:09.978Z</time></trkpt><trkpt lat="-36.7457278" lon="174.41324"><ele>127.0</ele><time>2026-04-17T22:45:12.979Z</time></trkpt><trkpt lat="-36.7457978" lon="174.4132154"><ele>127.5</ele><time>2026-04-17T22:45:14.98Z</time></trkpt><trkpt lat="-36.7458648" lon="174.413223"><ele>128.0</ele><time>2026-04-17T22:45:16.978Z</time></trkpt><trkpt lat="-36.7459222" lon="174.4132803"><ele>128.5</ele><time>2026-04-17T22:45:18.979Z</time></trkpt><trkpt lat="-36.7459651" lon="174.4133552"><ele>129.0</ele><time>2026-04-17T22:45:20.979Z</time></trkpt><trkpt lat="-36.7460437" lon="174.4134066"><ele>129.0</ele><time>2026-04-17T22:45:23.978Z</time></trkpt><trkpt lat="-36.7461151" lon="174.4133323"><ele>129.0</ele><time>2026-04-17T22:45:26.978Z</time></trkpt><trkpt lat="-36.7461756" lon="174.4132017"><ele>129.0</ele><time>2026-04-17T22:45:28.978Z</time></trkpt><trkpt lat="-36.7462455" lon="174.4130934"><ele>129.0</ele><time>2026-04-17T22:45:30.98Z</time></trkpt><trkpt lat="-36.7462707" lon="174.4129696"><ele>129.0</ele><time>2026-04-17T22:45:32.98Z</time></trkpt><trkpt lat="-36.746307" lon="174.4128627"><ele>129.0</ele><time>2026-04-17T22:45:34.98Z</time></trkpt><trkpt lat="-36.7463716" lon="174.4128146"><ele>129.0</ele><time>2026-04-17T22:45:37.98Z</time></trkpt><trkpt lat="-36.7464589" lon="174.4128362"><ele>129.0</ele><time>2026-04-17T22:45:39.98Z</time></trkpt><trkpt lat="-36.7464997" lon="174.4129269"><ele>129.0</ele><time>2026-04-17T22:45:41.979Z</time></trkpt><trkpt lat="-36.7465346" lon="174.4130181"><ele>129.0</ele><time>2026-04-17T22:45:43.98Z</time></trkpt><trkpt lat="-36.7465603" lon="174.4131083"><ele>129.0</ele><time>2026-04-17T22:45:45.979Z</time></trkpt><trkpt lat="-36.7465799" lon="174.4132136"><ele>129.5</ele><time>2026-04-17T22:45:48.98Z</time></trkpt><trkpt lat="-36.746589" lon="174.4133283"><ele>130.0</ele><time>2026-04-17T22:45:51.978Z</time></trkpt><trkpt lat="-36.7465687" lon="174.4134304"><ele>130.5</ele><time>2026-04-17T22:45:54.978Z</time></trkpt><trkpt lat="-36.7465505" lon="174.4135334"><ele>131.0</ele><time>2026-04-17T22:45:57.979Z</time></trkpt><trkpt lat="-36.7465796" lon="174.413612"><ele>131.5</ele><time>2026-04-17T22:46:00.979Z</time></trkpt><trkpt lat="-36.7466461" lon="174.4135769"><ele>132.0</ele><time>2026-04-17T22:46:03.979Z</time></trkpt><trkpt lat="-36.7466943" lon="174.4135006"><ele>132.0</ele><time>2026-04-17T22:46:06.979Z</time></trkpt><trkpt lat="-36.7467305" lon="174.4134025"><ele>132.0</ele><time>2026-04-17T22:46:09.978Z</time></trkpt><trkpt lat="-36.7467677" lon="174.4133326"><ele>132.0</ele><time>2026-04-17T22:46:11.979Z</time></trkpt><trkpt lat="-36.7468106" lon="174.413253"><ele>132.0</ele><time>2026-04-17T22:46:14.978Z</time></trkpt><trkpt lat="-36.746856" lon="174.4131951"><ele>132.0</ele><time>2026-04-17T22:46:17.979Z</time></trkpt><trkpt lat="-36.7469149" lon="174.4132563"><ele>132.0</ele><time>2026-04-17T22:46:20.979Z</time></trkpt><trkpt lat="-36.7469412" lon="174.413346"><ele>132.0</ele><time>2026-04-17T22:46:23.978Z</time></trkpt><trkpt lat="-36.7469402" lon="174.4134494"><ele>134.79999999999998</ele><time>2026-04-17T22:46:26.979Z</time></trkpt><trkpt lat="-36.7469765" lon="174.4135452"><ele>137.6</ele><time>2026-04-17T22:46:29.978Z</time></trkpt><trkpt lat="-36.7470117" lon="174.4136219"><ele>140.39999999999998</ele><time>2026-04-17T22:46:32.979Z</time></trkpt><trkpt lat="-36.7470686" lon="174.4135606"><ele>143.2</ele><time>2026-04-17T22:46:36.978Z</time></trkpt><trkpt lat="-36.7470466" lon="174.4134869"><ele>146.0</ele><time>2026-04-17T22:46:41.978Z</time></trkpt><trkpt lat="-36.7469693" lon="174.4132639"><ele>146.0</ele><time>2026-04-17T22:46:43.98Z</time></trkpt><trkpt lat="-36.7469273" lon="174.4131826"><ele>146.0</ele><time>2026-04-17T22:46:44.979Z</time></trkpt><trkpt lat="-36.7468921" lon="174.4131023"><ele>146.0</ele><time>2026-04-17T22:46:45.98Z</time></trkpt><trkpt lat="-36.7468576" lon="174.4130034"><ele>146.0</ele><time>2026-04-17T22:46:46.979Z</time></trkpt><trkpt lat="-36.7468297" lon="174.4129018"><ele>146.0</ele><time>2026-04-17T22:46:47.98Z</time></trkpt><trkpt lat="-36.7467842" lon="174.4128114"><ele>146.0</ele><time>2026-04-17T22:46:48.978Z</time></trkpt><trkpt lat="-36.7467579" lon="174.4127191"><ele>143.16666666666666</ele><time>2026-04-17T22:46:49.979Z</time></trkpt><trkpt lat="-36.7467238" lon="174.4126471"><ele>140.33333333333331</ele><time>2026-04-17T22:46:50.979Z</time></trkpt><trkpt lat="-36.7466703" lon="174.4125709"><ele>137.5</ele><time>2026-04-17T22:46:51.979Z</time></trkpt><trkpt lat="-36.7466088" lon="174.4125083"><ele>134.66666666666666</ele><time>2026-04-17T22:46:52.979Z</time></trkpt><trkpt lat="-36.7465616" lon="174.4124536"><ele>131.83333333333334</ele><time>2026-04-17T22:46:53.98Z</time></trkpt><trkpt lat="-36.7464594" lon="174.4123759"><ele>129.0</ele><time>2026-04-17T22:46:55.98Z</time></trkpt><trkpt lat="-36.7463845" lon="174.412358"><ele>129.0</ele><time>2026-04-17T22:46:56.979Z</time></trkpt><trkpt lat="-36.7462953" lon="174.4123314"><ele>129.0</ele><time>2026-04-17T22:46:57.978Z</time></trkpt><trkpt lat="-36.7461898" lon="174.412252"><ele>129.0</ele><time>2026-04-17T22:46:59.978Z</time></trkpt><trkpt lat="-36.7461118" lon="174.4121609"><ele>129.0</ele><time>2026-04-17T22:47:01.978Z</time></trkpt><trkpt lat="-36.7460718" lon="174.4120932"><ele>129.0</ele><time>2026-04-17T22:47:03.979Z</time></trkpt><trkpt lat="-36.7460085" lon="174.4120381"><ele>128.66666666666666</ele><time>2026-04-17T22:47:06.979Z</time></trkpt><trkpt lat="-36.7459411" lon="174.4120261"><ele>128.33333333333334</ele><time>2026-04-17T22:47:09.978Z</time></trkpt><trkpt lat="-36.7458534" lon="174.4120646"><ele>128.0</ele><time>2026-04-17T22:47:12.98Z</time></trkpt><trkpt lat="-36.7457814" lon="174.4120765"><ele>127.66666666666667</ele><time>2026-04-17T22:47:15.98Z</time></trkpt><trkpt lat="-36.7457777" lon="174.4119826"><ele>127.33333333333334</ele><time>2026-04-17T22:47:18.978Z</time></trkpt><trkpt lat="-36.7457833" lon="174.4118819"><ele>127.0</ele><time>2026-04-17T22:47:21.979Z</time></trkpt><trkpt lat="-36.7457089" lon="174.4118532"><ele>127.0</ele><time>2026-04-17T22:47:24.98Z</time></trkpt><trkpt lat="-36.7456566" lon="174.4118995"><ele>126.99999999999999</ele><time>2026-04-17T22:47:26.978Z</time></trkpt><trkpt lat="-36.7456047" lon="174.4119957"><ele>126.99999999999999</ele><time>2026-04-17T22:47:29.978Z</time></trkpt><trkpt lat="-36.7455533" lon="174.4120967"><ele>127.0</ele><time>2026-04-17T22:47:30.978Z</time></trkpt><trkpt lat="-36.7454897" lon="174.4122133"><ele>127.0</ele><time>2026-04-17T22:47:32.978Z</time></trkpt><trkpt lat="-36.7453502" lon="174.4122122"><ele>126.83333333333334</ele><time>2026-04-17T22:47:34.978Z</time></trkpt><trkpt lat="-36.7452791" lon="174.412164"><ele>126.66666666666667</ele><time>2026-04-17T22:47:35.978Z</time></trkpt><trkpt lat="-36.7452078" lon="174.412122"><ele>126.5</ele><time>2026-04-17T22:47:36.978Z</time></trkpt><trkpt lat="-36.7451254" lon="174.4121029"><ele>126.33333333333334</ele><time>2026-04-17T22:47:37.979Z</time></trkpt><trkpt lat="-36.7450559" lon="174.4121016"><ele>126.16666666666667</ele><time>2026-04-17T22:47:38.979Z</time></trkpt><trkpt lat="-36.7449733" lon="174.4120943"><ele>126.0</ele><time>2026-04-17T22:47:39.978Z</time></trkpt><trkpt lat="-36.7448937" lon="174.4120797"><ele>125.6</ele><time>2026-04-17T22:47:40.98Z</time></trkpt><trkpt lat="-36.7447898" lon="174.4120002"><ele>125.19999999999999</ele><time>2026-04-17T22:47:42.978Z</time></trkpt><trkpt lat="-36.7447256" lon="174.4118882"><ele>124.80000000000001</ele><time>2026-04-17T22:47:44.979Z</time></trkpt><trkpt lat="-36.7447488" lon="174.4117768"><ele>124.4</ele><time>2026-04-17T22:47:46.979Z</time></trkpt><trkpt lat="-36.7448298" lon="174.4116948"><ele>124.0</ele><time>2026-04-17T22:47:48.978Z</time></trkpt><trkpt lat="-36.7449127" lon="174.4116253"><ele>124.00000000000001</ele><time>2026-04-17T22:47:50.979Z</time></trkpt><trkpt lat="-36.744967" lon="174.4115546"><ele>124.0</ele><time>2026-04-17T22:47:52.979Z</time></trkpt><trkpt lat="-36.7449846" lon="174.4114715"><ele>124.0</ele><time>2026-04-17T22:47:54.98Z</time></trkpt><trkpt lat="-36.7449654" lon="174.4113506"><ele>124.0</ele><time>2026-04-17T22:47:57.981Z</time></trkpt><trkpt lat="-36.7449502" lon="174.4112327"><ele>124.00000000000001</ele><time>2026-04-17T22:47:59.979Z</time></trkpt><trkpt lat="-36.7449328" lon="174.4111539"><ele>124.0</ele><time>2026-04-17T22:48:00.979Z</time></trkpt><trkpt lat="-36.7448948" lon="174.411072"><ele>123.28571428571429</ele><time>2026-04-17T22:48:02.978Z</time></trkpt><trkpt lat="-36.7448336" lon="174.410991"><ele>122.57142857142858</ele><time>2026-04-17T22:48:04.978Z</time></trkpt><trkpt lat="-36.7447578" lon="174.4109922"><ele>121.85714285714286</ele><time>2026-04-17T22:48:06.978Z</time></trkpt><trkpt lat="-36.7446931" lon="174.4110203"><ele>121.14285714285714</ele><time>2026-04-17T22:48:08.978Z</time></trkpt><trkpt lat="-36.7446338" lon="174.4110468"><ele>120.42857142857143</ele><time>2026-04-17T22:48:10.98Z</time></trkpt><trkpt lat="-36.7445759" lon="174.4110782"><ele>119.71428571428572</ele><time>2026-04-17T22:48:12.979Z</time></trkpt><trkpt lat="-36.7445272" lon="174.411162"><ele>119.0</ele><time>2026-04-17T22:48:15.98Z</time></trkpt><trkpt lat="-36.7445867" lon="174.4111896"><ele>119.0</ele><time>2026-04-17T22:48:18.979Z</time></trkpt><trkpt lat="-36.7446218" lon="174.4112552"><ele>119.0</ele><time>2026-04-17T22:48:21.979Z</time></trkpt><trkpt lat="-36.7445869" lon="174.4113259"><ele>119.0</ele><time>2026-04-17T22:48:23.979Z</time></trkpt><trkpt lat="-36.7445321" lon="174.4114055"><ele>119.0</ele><time>2026-04-17T22:48:25.979Z</time></trkpt><trkpt lat="-36.7444946" lon="174.4114745"><ele>119.0</ele><time>2026-04-17T22:48:27.98Z</time></trkpt><trkpt lat="-36.7444354" lon="174.411536"><ele>119.0</ele><time>2026-04-17T22:48:29.979Z</time></trkpt><trkpt lat="-36.7443806" lon="174.4116124"><ele>119.0</ele><time>2026-04-17T22:48:31.978Z</time></trkpt><trkpt lat="-36.7443219" lon="174.4116873"><ele>120.16666666666666</ele><time>2026-04-17T22:48:33.98Z</time></trkpt><trkpt lat="-36.744257" lon="174.4117479"><ele>121.33333333333333</ele><time>2026-04-17T22:48:35.979Z</time></trkpt><trkpt lat="-36.7442143" lon="174.4118145"><ele>122.5</ele><time>2026-04-17T22:48:37.978Z</time></trkpt><trkpt lat="-36.7441705" lon="174.4118903"><ele>123.66666666666666</ele><time>2026-04-17T22:48:39.978Z</time></trkpt><trkpt lat="-36.7441146" lon="174.4119364"><ele>124.83333333333333</ele><time>2026-04-17T22:48:41.978Z</time></trkpt><trkpt lat="-36.744018" lon="174.4119459"><ele>126.0</ele><time>2026-04-17T22:48:44.979Z</time></trkpt><trkpt lat="-36.7439436" lon="174.4119623"><ele>126.0</ele><time>2026-04-17T22:48:46.979Z</time></trkpt><trkpt lat="-36.7438732" lon="174.4119942"><ele>126.0</ele><time>2026-04-17T22:48:48.978Z</time></trkpt><trkpt lat="-36.7438099" lon="174.4120425"><ele>126.0</ele><time>2026-04-17T22:48:50.979Z</time></trkpt><trkpt lat="-36.7437548" lon="174.4121176"><ele>126.0</ele><time>2026-04-17T22:48:52.979Z</time></trkpt><trkpt lat="-36.7437504" lon="174.4122166"><ele>126.0</ele><time>2026-04-17T22:48:54.978Z</time></trkpt><trkpt lat="-36.7437521" lon="174.4122954"><ele>126.0</ele><time>2026-04-17T22:48:56.978Z</time></trkpt><trkpt lat="-36.7436838" lon="174.4123356"><ele>126.0</ele><time>2026-04-17T22:48:58.979Z</time></trkpt><trkpt lat="-36.7436094" lon="174.4124259"><ele>125.83333333333333</ele><time>2026-04-17T22:49:00.979Z</time></trkpt><trkpt lat="-36.7435254" lon="174.4124685"><ele>125.66666666666666</ele><time>2026-04-17T22:49:01.978Z</time></trkpt><trkpt lat="-36.7434645" lon="174.4124906"><ele>125.5</ele><time>2026-04-17T22:49:02.979Z</time></trkpt><trkpt lat="-36.7434263" lon="174.4125602"><ele>125.33333333333333</ele><time>2026-04-17T22:49:03.979Z</time></trkpt><trkpt lat="-36.7433544" lon="174.4126384"><ele>125.16666666666666</ele><time>2026-04-17T22:49:05.979Z</time></trkpt><trkpt lat="-36.7433064" lon="174.4127226"><ele>125.0</ele><time>2026-04-17T22:49:07.979Z</time></trkpt><trkpt lat="-36.7432368" lon="174.4128052"><ele>124.99999999999999</ele><time>2026-04-17T22:49:09.978Z</time></trkpt><trkpt lat="-36.7431905" lon="174.4128742"><ele>125.0</ele><time>2026-04-17T22:49:11.979Z</time></trkpt><trkpt lat="-36.7431392" lon="174.4129554"><ele>125.0</ele><time>2026-04-17T22:49:13.979Z</time></trkpt><trkpt lat="-36.7430808" lon="174.4130276"><ele>125.0</ele><time>2026-04-17T22:49:15.978Z</time></trkpt><trkpt lat="-36.743038" lon="174.4131091"><ele>124.99999999999999</ele><time>2026-04-17T22:49:17.978Z</time></trkpt><trkpt lat="-36.7430128" lon="174.4131897"><ele>125.0</ele><time>2026-04-17T22:49:19.979Z</time></trkpt><trkpt lat="-36.7429732" lon="174.4132919"><ele>125.66666666666666</ele><time>2026-04-17T22:49:21.978Z</time></trkpt><trkpt lat="-36.7429258" lon="174.4133747"><ele>126.33333333333333</ele><time>2026-04-17T22:49:23.98Z</time></trkpt><trkpt lat="-36.7428623" lon="174.4134514"><ele>127.0</ele><time>2026-04-17T22:49:25.978Z</time></trkpt><trkpt lat="-36.7428009" lon="174.4135363"><ele>127.66666666666666</ele><time>2026-04-17T22:49:27.978Z</time></trkpt><trkpt lat="-36.7427568" lon="174.413602"><ele>128.33333333333334</ele><time>2026-04-17T22:49:29.979Z</time></trkpt><trkpt lat="-36.7427075" lon="174.4136877"><ele>129.0</ele><time>2026-04-17T22:49:31.978Z</time></trkpt><trkpt lat="-36.742662" lon="174.4137706"><ele>130.16666666666666</ele><time>2026-04-17T22:49:33.978Z</time></trkpt><trkpt lat="-36.7426064" lon="174.4138329"><ele>131.33333333333334</ele><time>2026-04-17T22:49:35.979Z</time></trkpt><trkpt lat="-36.7425559" lon="174.4139065"><ele>132.5</ele><time>2026-04-17T22:49:37.978Z</time></trkpt><trkpt lat="-36.7425187" lon="174.4139873"><ele>133.66666666666669</ele><time>2026-04-17T22:49:40.98Z</time></trkpt><trkpt lat="-36.7424418" lon="174.4139864"><ele>134.83333333333334</ele><time>2026-04-17T22:49:44.979Z</time></trkpt><trkpt lat="-36.7423878" lon="174.4139113"><ele>136.0</ele><time>2026-04-17T22:49:47.978Z</time></trkpt><trkpt lat="-36.7423274" lon="174.4139514"><ele>136.0</ele><time>2026-04-17T22:49:51.978Z</time></trkpt><trkpt lat="-36.7423132" lon="174.4140466"><ele>136.0</ele><time>2026-04-17T22:49:54.978Z</time></trkpt><trkpt lat="-36.7422973" lon="174.4141479"><ele>136.0</ele><time>2026-04-17T22:49:57.978Z</time></trkpt><trkpt lat="-36.7423243" lon="174.4142305"><ele>136.0</ele><time>2026-04-17T22:50:00.979Z</time></trkpt><trkpt lat="-36.7422736" lon="174.4143006"><ele>136.0</ele><time>2026-04-17T22:50:04.979Z</time></trkpt><trkpt lat="-36.7422085" lon="174.414257"><ele>136.0</ele><time>2026-04-17T22:50:07.978Z</time></trkpt><trkpt lat="-36.742148" lon="174.414206"><ele>136.0</ele><time>2026-04-17T22:50:09.978Z</time></trkpt><trkpt lat="-36.7420925" lon="174.4141481"><ele>136.0</ele><time>2026-04-17T22:50:11.978Z</time></trkpt><trkpt lat="-36.7420232" lon="174.4141006"><ele>136.0</ele><time>2026-04-17T22:50:14.979Z</time></trkpt><trkpt lat="-36.7419436" lon="174.4140667"><ele>136.0</ele><time>2026-04-17T22:50:17.98Z</time></trkpt><trkpt lat="-36.7418627" lon="174.4140148"><ele>136.0</ele><time>2026-04-17T22:50:20.978Z</time></trkpt><trkpt lat="-36.7417938" lon="174.4139758"><ele>136.0</ele><time>2026-04-17T22:50:22.978Z</time></trkpt><trkpt lat="-36.7417123" lon="174.4139355"><ele>135.8</ele><time>2026-04-17T22:50:24.98Z</time></trkpt><trkpt lat="-36.7416251" lon="174.4138776"><ele>135.6</ele><time>2026-04-17T22:50:26.978Z</time></trkpt><trkpt lat="-36.7415337" lon="174.4138421"><ele>135.4</ele><time>2026-04-17T22:50:28.978Z</time></trkpt><trkpt lat="-36.7414393" lon="174.4137948"><ele>135.2</ele><time>2026-04-17T22:50:30.978Z</time></trkpt><trkpt lat="-36.7413444" lon="174.4137619"><ele>135.0</ele><time>2026-04-17T22:50:32.978Z</time></trkpt><trkpt lat="-36.7412463" lon="174.4137181"><ele>133.4</ele><time>2026-04-17T22:50:34.979Z</time></trkpt><trkpt lat="-36.7411503" lon="174.4136743"><ele>131.8</ele><time>2026-04-17T22:50:36.979Z</time></trkpt><trkpt lat="-36.7410449" lon="174.4136223"><ele>130.2</ele><time>2026-04-17T22:50:38.979Z</time></trkpt><trkpt lat="-36.7409436" lon="174.4135765"><ele>128.6</ele><time>2026-04-17T22:50:40.978Z</time></trkpt><trkpt lat="-36.740835" lon="174.4135327"><ele>127.0</ele><time>2026-04-17T22:50:42.978Z</time></trkpt><trkpt lat="-36.7407167" lon="174.413474"><ele>126.8</ele><time>2026-04-17T22:50:44.98Z</time></trkpt><trkpt lat="-36.7406015" lon="174.4134215"><ele>126.6</ele><time>2026-04-17T22:50:46.979Z</time></trkpt><trkpt lat="-36.7404901" lon="174.4133746"><ele>126.39999999999999</ele><time>2026-04-17T22:50:48.979Z</time></trkpt><trkpt lat="-36.7404305" lon="174.4133416"><ele>126.19999999999999</ele><time>2026-04-17T22:50:49.98Z</time></trkpt><trkpt lat="-36.7403708" lon="174.4133143"><ele>126.0</ele><time>2026-04-17T22:50:50.98Z</time></trkpt><trkpt lat="-36.7402528" lon="174.4132539"><ele>126.33333333333333</ele><time>2026-04-17T22:50:52.98Z</time></trkpt><trkpt lat="-36.7401392" lon="174.4131887"><ele>126.66666666666666</ele><time>2026-04-17T22:50:54.978Z</time></trkpt><trkpt lat="-36.7400761" lon="174.4131568"><ele>127.0</ele><time>2026-04-17T22:50:55.98Z</time></trkpt><trkpt lat="-36.7400015" lon="174.4131206"><ele>127.33333333333333</ele><time>2026-04-17T22:50:56.979Z</time></trkpt><trkpt lat="-36.73994" lon="174.4130861"><ele>127.66666666666666</ele><time>2026-04-17T22:50:57.98Z</time></trkpt><trkpt lat="-36.7398808" lon="174.4130549"><ele>128.0</ele><time>2026-04-17T22:50:58.979Z</time></trkpt><trkpt lat="-36.7398193" lon="174.4130164"><ele>126.16666666666666</ele><time>2026-04-17T22:50:59.978Z</time></trkpt><trkpt lat="-36.7397556" lon="174.412988"><ele>124.33333333333333</ele><time>2026-04-17T22:51:00.978Z</time></trkpt><trkpt lat="-36.7396946" lon="174.4129597"><ele>122.5</ele><time>2026-04-17T22:51:01.979Z</time></trkpt><trkpt lat="-36.7396326" lon="174.4129271"><ele>120.66666666666666</ele><time>2026-04-17T22:51:02.979Z</time></trkpt><trkpt lat="-36.7395731" lon="174.4128927"><ele>118.83333333333333</ele><time>2026-04-17T22:51:03.978Z</time></trkpt><trkpt lat="-36.7395119" lon="174.4128616"><ele>117.0</ele><time>2026-04-17T22:51:04.979Z</time></trkpt><trkpt lat="-36.7393918" lon="174.4127985"><ele>118.16666666666667</ele><time>2026-04-17T22:51:06.979Z</time></trkpt><trkpt lat="-36.7392815" lon="174.4127338"><ele>119.33333333333334</ele><time>2026-04-17T22:51:08.98Z</time></trkpt><trkpt lat="-36.7392222" lon="174.4126923"><ele>120.5</ele><time>2026-04-17T22:51:09.978Z</time></trkpt><trkpt lat="-36.7391613" lon="174.412658"><ele>121.66666666666667</ele><time>2026-04-17T22:51:10.979Z</time></trkpt><trkpt lat="-36.7391016" lon="174.4126288"><ele>122.83333333333334</ele><time>2026-04-17T22:51:11.978Z</time></trkpt><trkpt lat="-36.7389901" lon="174.4125751"><ele>124.0</ele><time>2026-04-17T22:51:13.978Z</time></trkpt><trkpt lat="-36.7389288" lon="174.4125488"><ele>124.00000000000001</ele><time>2026-04-17T22:51:14.98Z</time></trkpt><trkpt lat="-36.7388643" lon="174.4125227"><ele>124.0</ele><time>2026-04-17T22:51:15.979Z</time></trkpt><trkpt lat="-36.7387394" lon="174.4124624"><ele>124.0</ele><time>2026-04-17T22:51:17.979Z</time></trkpt><trkpt lat="-36.7386749" lon="174.4124292"><ele>124.0</ele><time>2026-04-17T22:51:18.978Z</time></trkpt><trkpt lat="-36.7386115" lon="174.4124001"><ele>124.00000000000001</ele><time>2026-04-17T22:51:19.979Z</time></trkpt><trkpt lat="-36.7385418" lon="174.4123629"><ele>124.0</ele><time>2026-04-17T22:51:20.979Z</time></trkpt><trkpt lat="-36.7384749" lon="174.4123298"><ele>124.0</ele><time>2026-04-17T22:51:21.978Z</time></trkpt><trkpt lat="-36.7384145" lon="174.4122989"><ele>124.00000000000001</ele><time>2026-04-17T22:51:22.979Z</time></trkpt><trkpt lat="-36.7383505" lon="174.412268"><ele>124.0</ele><time>2026-04-17T22:51:23.978Z</time></trkpt><trkpt lat="-36.7382793" lon="174.4122377"><ele>124.0</ele><time>2026-04-17T22:51:24.979Z</time></trkpt><trkpt lat="-36.7382115" lon="174.4122033"><ele>124.00000000000001</ele><time>2026-04-17T22:51:25.978Z</time></trkpt><trkpt lat="-36.7381367" lon="174.4121681"><ele>124.0</ele><time>2026-04-17T22:51:26.979Z</time></trkpt><trkpt lat="-36.7380713" lon="174.4121355"><ele>124.0</ele><time>2026-04-17T22:51:27.979Z</time></trkpt><trkpt lat="-36.7379991" lon="174.4121044"><ele>124.0</ele><time>2026-04-17T22:51:28.978Z</time></trkpt><trkpt lat="-36.7379301" lon="174.4120666"><ele>124.00000000000001</ele><time>2026-04-17T22:51:29.979Z</time></trkpt><trkpt lat="-36.7378645" lon="174.412031"><ele>124.0</ele><time>2026-04-17T22:51:30.98Z</time></trkpt><trkpt lat="-36.737799" lon="174.4119918"><ele>124.0</ele><time>2026-04-17T22:51:31.978Z</time></trkpt><trkpt lat="-36.7377318" lon="174.4119543"><ele>124.00000000000001</ele><time>2026-04-17T22:51:32.979Z</time></trkpt><trkpt lat="-36.7376675" lon="174.4119197"><ele>124.0</ele><time>2026-04-17T22:51:33.978Z</time></trkpt><trkpt lat="-36.7376038" lon="174.4118978"><ele>124.0</ele><time>2026-04-17T22:51:34.979Z</time></trkpt><trkpt lat="-36.7375383" lon="174.4118713"><ele>124.6</ele><time>2026-04-17T22:51:35.979Z</time></trkpt><trkpt lat="-36.7374759" lon="174.4118434"><ele>125.2</ele><time>2026-04-17T22:51:36.979Z</time></trkpt><trkpt lat="-36.7373583" lon="174.4117904"><ele>125.79999999999998</ele><time>2026-04-17T22:51:38.979Z</time></trkpt><trkpt lat="-36.7372445" lon="174.4117402"><ele>126.39999999999999</ele><time>2026-04-17T22:51:40.979Z</time></trkpt><trkpt lat="-36.7371375" lon="174.4116761"><ele>127.0</ele><time>2026-04-17T22:51:42.978Z</time></trkpt><trkpt lat="-36.7370271" lon="174.4116241"><ele>127.0</ele><time>2026-04-17T22:51:44.979Z</time></trkpt><trkpt lat="-36.7369305" lon="174.4115645"><ele>126.99999999999999</ele><time>2026-04-17T22:51:46.978Z</time></trkpt><trkpt lat="-36.7368313" lon="174.4115297"><ele>126.99999999999999</ele><time>2026-04-17T22:51:48.978Z</time></trkpt><trkpt lat="-36.7367471" lon="174.4114901"><ele>127.0</ele><time>2026-04-17T22:51:50.98Z</time></trkpt><trkpt lat="-36.7366605" lon="174.4114496"><ele>127.0</ele><time>2026-04-17T22:51:52.978Z</time></trkpt><trkpt lat="-36.7365876" lon="174.4114171"><ele>127.39999999999999</ele><time>2026-04-17T22:51:54.979Z</time></trkpt><trkpt lat="-36.7364985" lon="174.4113787"><ele>127.79999999999998</ele><time>2026-04-17T22:51:56.978Z</time></trkpt><trkpt lat="-36.7363973" lon="174.4113335"><ele>128.2</ele><time>2026-04-17T22:51:58.979Z</time></trkpt><trkpt lat="-36.7363097" lon="174.411294"><ele>128.6</ele><time>2026-04-17T22:52:00.978Z</time></trkpt><trkpt lat="-36.7362294" lon="174.411253"><ele>129.0</ele><time>2026-04-17T22:52:02.979Z</time></trkpt><trkpt lat="-36.7361589" lon="174.4112447"><ele>129.66666666666666</ele><time>2026-04-17T22:52:04.978Z</time></trkpt><trkpt lat="-36.7360773" lon="174.4112178"><ele>130.33333333333334</ele><time>2026-04-17T22:52:07.979Z</time></trkpt><trkpt lat="-36.7361214" lon="174.4111532"><ele>131.0</ele><time>2026-04-17T22:52:10.979Z</time></trkpt><trkpt lat="-36.7362065" lon="174.4111909"><ele>131.66666666666669</ele><time>2026-04-17T22:52:12.978Z</time></trkpt><trkpt lat="-36.7363018" lon="174.4111856"><ele>132.33333333333334</ele><time>2026-04-17T22:52:14.978Z</time></trkpt><trkpt lat="-36.7363879" lon="174.4111816"><ele>133.0</ele><time>2026-04-17T22:52:16.978Z</time></trkpt><trkpt lat="-36.736467" lon="174.4111682"><ele>133.0</ele><time>2026-04-17T22:52:18.979Z</time></trkpt><trkpt lat="-36.7365214" lon="174.4111019"><ele>133.0</ele><time>2026-04-17T22:52:20.979Z</time></trkpt><trkpt lat="-36.736503" lon="174.4109972"><ele>133.0</ele><time>2026-04-17T22:52:23.979Z</time></trkpt><trkpt lat="-36.7364117" lon="174.4109079"><ele>133.0</ele><time>2026-04-17T22:52:26.979Z</time></trkpt><trkpt lat="-36.7363539" lon="174.4108596"><ele>133.0</ele><time>2026-04-17T22:52:28.978Z</time></trkpt><trkpt lat="-36.7363444" lon="174.4107784"><ele>133.0</ele><time>2026-04-17T22:52:30.978Z</time></trkpt><trkpt lat="-36.7363768" lon="174.4106749"><ele>133.0</ele><time>2026-04-17T22:52:32.979Z</time></trkpt><trkpt lat="-36.7364081" lon="174.4105661"><ele>133.0</ele><time>2026-04-17T22:52:34.979Z</time></trkpt><trkpt lat="-36.7364262" lon="174.4104532"><ele>133.0</ele><time>2026-04-17T22:52:36.979Z</time></trkpt><trkpt lat="-36.7364665" lon="174.410332"><ele>133.0</ele><time>2026-04-17T22:52:38.979Z</time></trkpt><trkpt lat="-36.7364875" lon="174.4102138"><ele>133.0</ele><time>2026-04-17T22:52:40.98Z</time></trkpt><trkpt lat="-36.736492" lon="174.410065"><ele>134.0</ele><time>2026-04-17T22:52:42.978Z</time></trkpt><trkpt lat="-36.7365084" lon="174.4099544"><ele>135.0</ele><time>2026-04-17T22:52:44.979Z</time></trkpt><trkpt lat="-36.7365382" lon="174.4098465"><ele>136.0</ele><time>2026-04-17T22:52:46.978Z</time></trkpt><trkpt lat="-36.7365704" lon="174.4097784"><ele>137.0</ele><time>2026-04-17T22:52:47.979Z</time></trkpt><trkpt lat="-36.7366074" lon="174.4096522"><ele>138.0</ele><time>2026-04-17T22:52:49.979Z</time></trkpt><trkpt lat="-36.7366481" lon="174.4095214"><ele>138.0</ele><time>2026-04-17T22:52:51.978Z</time></trkpt><trkpt lat="-36.736681" lon="174.4093942"><ele>138.0</ele><time>2026-04-17T22:52:53.979Z</time></trkpt><trkpt lat="-36.7367244" lon="174.409255"><ele>138.0</ele><time>2026-04-17T22:52:55.978Z</time></trkpt><trkpt lat="-36.7367344" lon="174.4091765"><ele>138.0</ele><time>2026-04-17T22:52:56.979Z</time></trkpt><trkpt lat="-36.7367552" lon="174.4090873"><ele>138.0</ele><time>2026-04-17T22:52:57.979Z</time></trkpt><trkpt lat="-36.7368065" lon="174.4089588"><ele>138.0</ele><time>2026-04-17T22:52:59.979Z</time></trkpt><trkpt lat="-36.7368249" lon="174.4088804"><ele>138.0</ele><time>2026-04-17T22:53:00.979Z</time></trkpt><trkpt lat="-36.7368717" lon="174.4087387"><ele>138.0</ele><time>2026-04-17T22:53:02.979Z</time></trkpt><trkpt lat="-36.7369112" lon="174.4085951"><ele>138.0</ele><time>2026-04-17T22:53:04.979Z</time></trkpt><trkpt lat="-36.7369578" lon="174.4084549"><ele>138.0</ele><time>2026-04-17T22:53:06.98Z</time></trkpt><trkpt lat="-36.7369925" lon="174.4083401"><ele>137.66666666666666</ele><time>2026-04-17T22:53:08.979Z</time></trkpt><trkpt lat="-36.7370339" lon="174.4082263"><ele>137.33333333333334</ele><time>2026-04-17T22:53:10.978Z</time></trkpt><trkpt lat="-36.7370582" lon="174.4081144"><ele>137.0</ele><time>2026-04-17T22:53:12.978Z</time></trkpt><trkpt lat="-36.7370848" lon="174.4080102"><ele>136.66666666666669</ele><time>2026-04-17T22:53:14.979Z</time></trkpt><trkpt lat="-36.7371085" lon="174.4079171"><ele>136.33333333333334</ele><time>2026-04-17T22:53:16.978Z</time></trkpt><trkpt lat="-36.7371305" lon="174.4078197"><ele>136.0</ele><time>2026-04-17T22:53:18.98Z</time></trkpt><trkpt lat="-36.737153" lon="174.4077275"><ele>137.0</ele><time>2026-04-17T22:53:20.979Z</time></trkpt><trkpt lat="-36.7371802" lon="174.407632"><ele>138.0</ele><time>2026-04-17T22:53:22.978Z</time></trkpt><trkpt lat="-36.737218" lon="174.4075385"><ele>139.0</ele><time>2026-04-17T22:53:24.979Z</time></trkpt><trkpt lat="-36.7372484" lon="174.4074367"><ele>140.0</ele><time>2026-04-17T22:53:26.979Z</time></trkpt><trkpt lat="-36.7372731" lon="174.4073329"><ele>141.0</ele><time>2026-04-17T22:53:28.979Z</time></trkpt><trkpt lat="-36.7372992" lon="174.4072283"><ele>142.0</ele><time>2026-04-17T22:53:30.979Z</time></trkpt><trkpt lat="-36.7373297" lon="174.4071307"><ele>142.0</ele><time>2026-04-17T22:53:32.978Z</time></trkpt><trkpt lat="-36.7373743" lon="174.4070469"><ele>142.0</ele><time>2026-04-17T22:53:34.979Z</time></trkpt><trkpt lat="-36.7374167" lon="174.4069627"><ele>142.0</ele><time>2026-04-17T22:53:36.978Z</time></trkpt><trkpt lat="-36.7374684" lon="174.4068687"><ele>142.0</ele><time>2026-04-17T22:53:39.978Z</time></trkpt><trkpt lat="-36.7374637" lon="174.4067578"><ele>142.0</ele><time>2026-04-17T22:53:42.979Z</time></trkpt><trkpt lat="-36.7373924" lon="174.4066765"><ele>142.0</ele><time>2026-04-17T22:53:44.979Z</time></trkpt><trkpt lat="-36.7373122" lon="174.4066171"><ele>142.0</ele><time>2026-04-17T22:53:46.979Z</time></trkpt><trkpt lat="-36.737187" lon="174.4065988"><ele>142.0</ele><time>2026-04-17T22:53:48.978Z</time></trkpt><trkpt lat="-36.7370842" lon="174.4065705"><ele>142.0</ele><time>2026-04-17T22:53:50.978Z</time></trkpt><trkpt lat="-36.7371" lon="174.4064809"><ele>142.0</ele><time>2026-04-17T22:53:52.978Z</time></trkpt><trkpt lat="-36.7370456" lon="174.4063924"><ele>142.0</ele><time>2026-04-17T22:53:54.978Z</time></trkpt><trkpt lat="-36.7369444" lon="174.4063282"><ele>140.14285714285714</ele><time>2026-04-17T22:53:56.979Z</time></trkpt><trkpt lat="-36.7368823" lon="174.4062968"><ele>138.28571428571428</ele><time>2026-04-17T22:53:57.978Z</time></trkpt><trkpt lat="-36.7368255" lon="174.4062624"><ele>136.42857142857142</ele><time>2026-04-17T22:53:58.979Z</time></trkpt><trkpt lat="-36.7367595" lon="174.406246"><ele>134.57142857142856</ele><time>2026-04-17T22:53:59.979Z</time></trkpt><trkpt lat="-36.736695" lon="174.4062174"><ele>132.71428571428572</ele><time>2026-04-17T22:54:00.978Z</time></trkpt><trkpt lat="-36.7366298" lon="174.4061957"><ele>130.85714285714283</ele><time>2026-04-17T22:54:01.979Z</time></trkpt><trkpt lat="-36.7365642" lon="174.4061761"><ele>129.0</ele><time>2026-04-17T22:54:02.978Z</time></trkpt><trkpt lat="-36.7364841" lon="174.4061332"><ele>129.0</ele><time>2026-04-17T22:54:03.978Z</time></trkpt><trkpt lat="-36.7364158" lon="174.4060944"><ele>129.0</ele><time>2026-04-17T22:54:04.978Z</time></trkpt><trkpt lat="-36.7363478" lon="174.406074"><ele>129.0</ele><time>2026-04-17T22:54:05.978Z</time></trkpt><trkpt lat="-36.7362559" lon="174.4060951"><ele>129.0</ele><time>2026-04-17T22:54:06.978Z</time></trkpt><trkpt lat="-36.736169" lon="174.4060621"><ele>129.0</ele><time>2026-04-17T22:54:07.979Z</time></trkpt><trkpt lat="-36.736093" lon="174.4060599"><ele>129.0</ele><time>2026-04-17T22:54:08.979Z</time></trkpt><trkpt lat="-36.7360102" lon="174.4060564"><ele>127.2</ele><time>2026-04-17T22:54:09.979Z</time></trkpt><trkpt lat="-36.7359226" lon="174.4061141"><ele>125.4</ele><time>2026-04-17T22:54:10.977Z</time></trkpt><trkpt lat="-36.7358378" lon="174.4061568"><ele>123.6</ele><time>2026-04-17T22:54:11.979Z</time></trkpt><trkpt lat="-36.7357492" lon="174.4061729"><ele>121.8</ele><time>2026-04-17T22:54:12.979Z</time></trkpt><trkpt lat="-36.7356632" lon="174.4061686"><ele>120.0</ele><time>2026-04-17T22:54:13.978Z</time></trkpt><trkpt lat="-36.7355701" lon="174.4061782"><ele>120.0</ele><time>2026-04-17T22:54:14.978Z</time></trkpt><trkpt lat="-36.7354839" lon="174.4061873"><ele>120.0</ele><time>2026-04-17T22:54:15.979Z</time></trkpt><trkpt lat="-36.735395" lon="174.4062039"><ele>120.0</ele><time>2026-04-17T22:54:16.979Z</time></trkpt><trkpt lat="-36.7353167" lon="174.4062141"><ele>120.0</ele><time>2026-04-17T22:54:17.978Z</time></trkpt><trkpt lat="-36.7352353" lon="174.4062097"><ele>120.0</ele><time>2026-04-17T22:54:18.979Z</time></trkpt><trkpt lat="-36.7351603" lon="174.4062029"><ele>120.0</ele><time>2026-04-17T22:54:19.98Z</time></trkpt><trkpt lat="-36.7350944" lon="174.4061829"><ele>120.0</ele><time>2026-04-17T22:54:20.979Z</time></trkpt><trkpt lat="-36.7349878" lon="174.4061428"><ele>120.0</ele><time>2026-04-17T22:54:22.978Z</time></trkpt><trkpt lat="-36.7349307" lon="174.4061093"><ele>120.0</ele><time>2026-04-17T22:54:23.978Z</time></trkpt><trkpt lat="-36.7348718" lon="174.4060678"><ele>120.0</ele><time>2026-04-17T22:54:24.979Z</time></trkpt><trkpt lat="-36.7347963" lon="174.4059632"><ele>120.0</ele><time>2026-04-17T22:54:26.978Z</time></trkpt><trkpt lat="-36.7347429" lon="174.4058466"><ele>120.0</ele><time>2026-04-17T22:54:28.978Z</time></trkpt><trkpt lat="-36.7347038" lon="174.4057379"><ele>120.0</ele><time>2026-04-17T22:54:30.98Z</time></trkpt><trkpt lat="-36.7346851" lon="174.4056423"><ele>120.0</ele><time>2026-04-17T22:54:32.979Z</time></trkpt><trkpt lat="-36.7346837" lon="174.4055473"><ele>120.0</ele><time>2026-04-17T22:54:34.979Z</time></trkpt><trkpt lat="-36.7346765" lon="174.4054601"><ele>120.0</ele><time>2026-04-17T22:54:36.979Z</time></trkpt><trkpt lat="-36.7346365" lon="174.4053854"><ele>120.0</ele><time>2026-04-17T22:54:39.979Z</time></trkpt><trkpt lat="-36.7346959" lon="174.4053401"><ele>120.16666666666667</ele><time>2026-04-17T22:54:44.979Z</time></trkpt><trkpt lat="-36.7346905" lon="174.4052523"><ele>120.33333333333334</ele><time>2026-04-17T22:54:48.978Z</time></trkpt><trkpt lat="-36.7346578" lon="174.4051715"><ele>120.5</ele><time>2026-04-17T22:54:51.978Z</time></trkpt><trkpt lat="-36.7346538" lon="174.4050648"><ele>120.66666666666667</ele><time>2026-04-17T22:54:53.978Z</time></trkpt><trkpt lat="-36.7346353" lon="174.404963"><ele>120.83333333333334</ele><time>2026-04-17T22:54:55.978Z</time></trkpt><trkpt lat="-36.7346169" lon="174.4048789"><ele>121.0</ele><time>2026-04-17T22:54:57.978Z</time></trkpt><trkpt lat="-36.7346686" lon="174.4047779"><ele>121.00000000000001</ele><time>2026-04-17T22:54:59.978Z</time></trkpt><trkpt lat="-36.7347179" lon="174.4046645"><ele>121.0</ele><time>2026-04-17T22:55:01.979Z</time></trkpt><trkpt lat="-36.734783" lon="174.4045806"><ele>121.0</ele><time>2026-04-17T22:55:03.978Z</time></trkpt><trkpt lat="-36.7348143" lon="174.404472"><ele>121.0</ele><time>2026-04-17T22:55:05.984Z</time></trkpt><trkpt lat="-36.7348252" lon="174.4043922"><ele>121.00000000000001</ele><time>2026-04-17T22:55:07.979Z</time></trkpt><trkpt lat="-36.7348565" lon="174.4042987"><ele>121.0</ele><time>2026-04-17T22:55:09.978Z</time></trkpt><trkpt lat="-36.7348603" lon="174.4041963"><ele>122.33333333333334</ele><time>2026-04-17T22:55:12.979Z</time></trkpt><trkpt lat="-36.7348674" lon="174.404076"><ele>123.66666666666667</ele><time>2026-04-17T22:55:15.98Z</time></trkpt><trkpt lat="-36.7348658" lon="174.4039904"><ele>125.0</ele><time>2026-04-17T22:55:17.98Z</time></trkpt><trkpt lat="-36.7348692" lon="174.4038946"><ele>126.33333333333334</ele><time>2026-04-17T22:55:19.979Z</time></trkpt><trkpt lat="-36.7349038" lon="174.4038223"><ele>127.66666666666667</ele><time>2026-04-17T22:55:21.979Z</time></trkpt><trkpt lat="-36.7349396" lon="174.403736"><ele>129.0</ele><time>2026-04-17T22:55:23.978Z</time></trkpt><trkpt lat="-36.735012" lon="174.4036682"><ele>128.83333333333334</ele><time>2026-04-17T22:55:25.982Z</time></trkpt><trkpt lat="-36.7350704" lon="174.4036136"><ele>128.66666666666666</ele><time>2026-04-17T22:55:26.979Z</time></trkpt><trkpt lat="-36.7351496" lon="174.4035616"><ele>128.5</ele><time>2026-04-17T22:55:28.979Z</time></trkpt><trkpt lat="-36.7352356" lon="174.4035199"><ele>128.33333333333331</ele><time>2026-04-17T22:55:30.982Z</time></trkpt><trkpt lat="-36.7352916" lon="174.4034824"><ele>128.16666666666666</ele><time>2026-04-17T22:55:31.989Z</time></trkpt><trkpt lat="-36.7353753" lon="174.4034148"><ele>128.0</ele><time>2026-04-17T22:55:33.979Z</time></trkpt><trkpt lat="-36.7354341" lon="174.403381"><ele>127.99999999999999</ele><time>2026-04-17T22:55:35.979Z</time></trkpt><trkpt lat="-36.7355012" lon="174.4033975"><ele>128.0</ele><time>2026-04-17T22:55:37.978Z</time></trkpt><trkpt lat="-36.7355775" lon="174.4034266"><ele>128.0</ele><time>2026-04-17T22:55:41.979Z</time></trkpt><trkpt lat="-36.7356638" lon="174.4034408"><ele>128.0</ele><time>2026-04-17T22:55:44.979Z</time></trkpt><trkpt lat="-36.7357433" lon="174.4034405"><ele>127.99999999999999</ele><time>2026-04-17T22:55:45.978Z</time></trkpt><trkpt lat="-36.7358057" lon="174.4033272"><ele>128.0</ele><time>2026-04-17T22:55:47.978Z</time></trkpt><trkpt lat="-36.7358311" lon="174.4032523"><ele>127.99999999999999</ele><time>2026-04-17T22:55:48.979Z</time></trkpt><trkpt lat="-36.7358633" lon="174.4031777"><ele>128.0</ele><time>2026-04-17T22:55:49.979Z</time></trkpt><trkpt lat="-36.7359107" lon="174.4031015"><ele>128.0</ele><time>2026-04-17T22:55:50.978Z</time></trkpt><trkpt lat="-36.735944" lon="174.403026"><ele>128.0</ele><time>2026-04-17T22:55:51.979Z</time></trkpt><trkpt lat="-36.7359351" lon="174.4028875"><ele>127.99999999999999</ele><time>2026-04-17T22:55:53.978Z</time></trkpt><trkpt lat="-36.7359898" lon="174.4027493"><ele>128.0</ele><time>2026-04-17T22:55:55.978Z</time></trkpt><trkpt lat="-36.736008" lon="174.4026711"><ele>127.16666666666666</ele><time>2026-04-17T22:55:56.978Z</time></trkpt><trkpt lat="-36.7360555" lon="174.4026011"><ele>126.33333333333333</ele><time>2026-04-17T22:55:57.979Z</time></trkpt><trkpt lat="-36.7360618" lon="174.4025181"><ele>125.5</ele><time>2026-04-17T22:55:58.979Z</time></trkpt><trkpt lat="-36.7360783" lon="174.4024366"><ele>124.66666666666666</ele><time>2026-04-17T22:55:59.979Z</time></trkpt><trkpt lat="-36.7361056" lon="174.4023416"><ele>123.83333333333333</ele><time>2026-04-17T22:56:00.979Z</time></trkpt><trkpt lat="-36.7361718" lon="174.4022191"><ele>123.0</ele><time>2026-04-17T22:56:02.979Z</time></trkpt><trkpt lat="-36.73625" lon="174.4021014"><ele>122.66666666666667</ele><time>2026-04-17T22:56:04.978Z</time></trkpt><trkpt lat="-36.7362781" lon="174.4019972"><ele>122.33333333333334</ele><time>2026-04-17T22:56:06.98Z</time></trkpt><trkpt lat="-36.7362799" lon="174.4018899"><ele>122.0</ele><time>2026-04-17T22:56:08.979Z</time></trkpt><trkpt lat="-36.7363015" lon="174.4018005"><ele>121.66666666666667</ele><time>2026-04-17T22:56:10.979Z</time></trkpt><trkpt lat="-36.7363296" lon="174.4017046"><ele>121.33333333333334</ele><time>2026-04-17T22:56:12.978Z</time></trkpt><trkpt lat="-36.7363646" lon="174.4015935"><ele>121.0</ele><time>2026-04-17T22:56:14.979Z</time></trkpt><trkpt lat="-36.7363912" lon="174.4014728"><ele>121.0</ele><time>2026-04-17T22:56:16.978Z</time></trkpt><trkpt lat="-36.7364229" lon="174.4013851"><ele>120.99999999999999</ele><time>2026-04-17T22:56:18.979Z</time></trkpt><trkpt lat="-36.7364413" lon="174.4012889"><ele>121.0</ele><time>2026-04-17T22:56:20.978Z</time></trkpt><trkpt lat="-36.7364512" lon="174.4012016"><ele>121.0</ele><time>2026-04-17T22:56:22.978Z</time></trkpt><trkpt lat="-36.7364688" lon="174.4011237"><ele>120.99999999999999</ele><time>2026-04-17T22:56:24.979Z</time></trkpt><trkpt lat="-36.7364971" lon="174.4010504"><ele>121.0</ele><time>2026-04-17T22:56:26.979Z</time></trkpt><trkpt lat="-36.7365609" lon="174.4010004"><ele>121.0</ele><time>2026-04-17T22:56:28.978Z</time></trkpt><trkpt lat="-36.736639" lon="174.4009497"><ele>121.6</ele><time>2026-04-17T22:56:30.978Z</time></trkpt><trkpt lat="-36.7367129" lon="174.4008842"><ele>122.19999999999999</ele><time>2026-04-17T22:56:32.978Z</time></trkpt><trkpt lat="-36.736788" lon="174.4007748"><ele>122.80000000000001</ele><time>2026-04-17T22:56:34.979Z</time></trkpt><trkpt lat="-36.7368408" lon="174.4006716"><ele>123.4</ele><time>2026-04-17T22:56:36.978Z</time></trkpt><trkpt lat="-36.7368718" lon="174.4005798"><ele>124.0</ele><time>2026-04-17T22:56:38.978Z</time></trkpt><trkpt lat="-36.7369415" lon="174.4004843"><ele>125.80000000000001</ele><time>2026-04-17T22:56:40.979Z</time></trkpt><trkpt lat="-36.7370526" lon="174.4004326"><ele>127.60000000000001</ele><time>2026-04-17T22:56:42.979Z</time></trkpt><trkpt lat="-36.7371183" lon="174.4003562"><ele>129.4</ele><time>2026-04-17T22:56:44.978Z</time></trkpt><trkpt lat="-36.7371652" lon="174.4002983"><ele>131.20000000000002</ele><time>2026-04-17T22:56:45.979Z</time></trkpt><trkpt lat="-36.7372246" lon="174.4001921"><ele>133.0</ele><time>2026-04-17T22:56:47.977Z</time></trkpt><trkpt lat="-36.7372737" lon="174.4000391"><ele>133.0</ele><time>2026-04-17T22:56:49.979Z</time></trkpt><trkpt lat="-36.73731" lon="174.3999559"><ele>133.0</ele><time>2026-04-17T22:56:50.979Z</time></trkpt><trkpt lat="-36.7373488" lon="174.3998838"><ele>133.0</ele><time>2026-04-17T22:56:51.978Z</time></trkpt><trkpt lat="-36.7373616" lon="174.399806"><ele>133.0</ele><time>2026-04-17T22:56:52.979Z</time></trkpt><trkpt lat="-36.7373546" lon="174.3996929"><ele>133.0</ele><time>2026-04-17T22:56:54.98Z</time></trkpt><trkpt lat="-36.7372992" lon="174.3997378"><ele>133.0</ele><time>2026-04-17T22:56:58.979Z</time></trkpt><trkpt lat="-36.7372868" lon="174.3998536"><ele>133.0</ele><time>2026-04-17T22:57:01.978Z</time></trkpt><trkpt lat="-36.7372722" lon="174.3999437"><ele>133.0</ele><time>2026-04-17T22:57:03.978Z</time></trkpt><trkpt lat="-36.7372098" lon="174.4000104"><ele>133.0</ele><time>2026-04-17T22:57:05.979Z</time></trkpt><trkpt lat="-36.737147" lon="174.400092"><ele>133.0</ele><time>2026-04-17T22:57:07.978Z</time></trkpt><trkpt lat="-36.7370144" lon="174.4001401"><ele>133.0</ele><time>2026-04-17T22:57:09.979Z</time></trkpt><trkpt lat="-36.7369016" lon="174.4001927"><ele>131.20000000000002</ele><time>2026-04-17T22:57:11.977Z</time></trkpt><trkpt lat="-36.7368334" lon="174.4002808"><ele>129.4</ele><time>2026-04-17T22:57:13.979Z</time></trkpt><trkpt lat="-36.736768" lon="174.4003989"><ele>127.60000000000001</ele><time>2026-04-17T22:57:15.977Z</time></trkpt><trkpt lat="-36.7367091" lon="174.400447"><ele>125.80000000000001</ele><time>2026-04-17T22:57:17.978Z</time></trkpt><trkpt lat="-36.7366822" lon="174.4005815"><ele>124.0</ele><time>2026-04-17T22:57:19.978Z</time></trkpt><trkpt lat="-36.7366145" lon="174.4006892"><ele>124.00000000000001</ele><time>2026-04-17T22:57:21.978Z</time></trkpt><trkpt lat="-36.7365471" lon="174.4007038"><ele>124.0</ele><time>2026-04-17T22:57:23.978Z</time></trkpt><trkpt lat="-36.736465" lon="174.4007288"><ele>124.0</ele><time>2026-04-17T22:57:25.978Z</time></trkpt><trkpt lat="-36.7363894" lon="174.4007621"><ele>124.0</ele><time>2026-04-17T22:57:27.978Z</time></trkpt><trkpt lat="-36.7363475" lon="174.4008308"><ele>124.00000000000001</ele><time>2026-04-17T22:57:29.979Z</time></trkpt><trkpt lat="-36.7363359" lon="174.4009268"><ele>124.0</ele><time>2026-04-17T22:57:31.979Z</time></trkpt><trkpt lat="-36.7363367" lon="174.4010171"><ele>124.0</ele><time>2026-04-17T22:57:33.978Z</time></trkpt><trkpt lat="-36.7363402" lon="174.4011264"><ele>124.0</ele><time>2026-04-17T22:57:34.979Z</time></trkpt><trkpt lat="-36.7363498" lon="174.4012455"><ele>124.0</ele><time>2026-04-17T22:57:36.979Z</time></trkpt><trkpt lat="-36.7362823" lon="174.4013636"><ele>124.0</ele><time>2026-04-17T22:57:38.978Z</time></trkpt><trkpt lat="-36.7362105" lon="174.4014879"><ele>124.0</ele><time>2026-04-17T22:57:40.979Z</time></trkpt><trkpt lat="-36.7361842" lon="174.4015752"><ele>123.50000000000001</ele><time>2026-04-17T22:57:41.979Z</time></trkpt><trkpt lat="-36.7361565" lon="174.4016597"><ele>123.0</ele><time>2026-04-17T22:57:42.978Z</time></trkpt><trkpt lat="-36.7361617" lon="174.401818"><ele>122.5</ele><time>2026-04-17T22:57:44.978Z</time></trkpt><trkpt lat="-36.7361354" lon="174.4019158"><ele>122.0</ele><time>2026-04-17T22:57:45.979Z</time></trkpt><trkpt lat="-36.7360737" lon="174.4019846"><ele>121.50000000000001</ele><time>2026-04-17T22:57:47.978Z</time></trkpt><trkpt lat="-36.7360216" lon="174.4019145"><ele>121.0</ele><time>2026-04-17T22:57:49.979Z</time></trkpt><trkpt lat="-36.7360125" lon="174.4017661"><ele>120.00000000000001</ele><time>2026-04-17T22:57:51.978Z</time></trkpt><trkpt lat="-36.7360284" lon="174.4016824"><ele>119.0</ele><time>2026-04-17T22:57:52.978Z</time></trkpt><trkpt lat="-36.7359551" lon="174.4016045"><ele>118.0</ele><time>2026-04-17T22:57:54.979Z</time></trkpt><trkpt lat="-36.7358773" lon="174.4016501"><ele>117.0</ele><time>2026-04-17T22:57:56.979Z</time></trkpt><trkpt lat="-36.7358283" lon="174.401709"><ele>116.00000000000001</ele><time>2026-04-17T22:57:57.977Z</time></trkpt><trkpt lat="-36.7357438" lon="174.4017623"><ele>115.0</ele><time>2026-04-17T22:57:58.978Z</time></trkpt><trkpt lat="-36.7356262" lon="174.4017429"><ele>115.00000000000001</ele><time>2026-04-17T22:58:00.978Z</time></trkpt><trkpt lat="-36.7355619" lon="174.4016847"><ele>115.0</ele><time>2026-04-17T22:58:01.978Z</time></trkpt><trkpt lat="-36.7355031" lon="174.4016289"><ele>115.0</ele><time>2026-04-17T22:58:02.979Z</time></trkpt><trkpt lat="-36.7354337" lon="174.4015706"><ele>115.0</ele><time>2026-04-17T22:58:03.977Z</time></trkpt><trkpt lat="-36.7353609" lon="174.4015334"><ele>115.00000000000001</ele><time>2026-04-17T22:58:04.979Z</time></trkpt><trkpt lat="-36.7352816" lon="174.4014959"><ele>115.0</ele><time>2026-04-17T22:58:05.978Z</time></trkpt><trkpt lat="-36.7351965" lon="174.4015186"><ele>114.50000000000001</ele><time>2026-04-17T22:58:06.978Z</time></trkpt><trkpt lat="-36.7351099" lon="174.4015396"><ele>114.0</ele><time>2026-04-17T22:58:07.978Z</time></trkpt><trkpt lat="-36.7350428" lon="174.4015942"><ele>113.5</ele><time>2026-04-17T22:58:08.979Z</time></trkpt><trkpt lat="-36.7349411" lon="174.4016119"><ele>113.0</ele><time>2026-04-17T22:58:10.978Z</time></trkpt><trkpt lat="-36.734872" lon="174.4016083"><ele>112.50000000000001</ele><time>2026-04-17T22:58:11.978Z</time></trkpt><trkpt lat="-36.7347855" lon="174.4015458"><ele>112.0</ele><time>2026-04-17T22:58:13.98Z</time></trkpt><trkpt lat="-36.7348158" lon="174.4013627"><ele>111.0</ele><time>2026-04-17T22:58:15.978Z</time></trkpt><trkpt lat="-36.7349207" lon="174.4012477"><ele>109.99999999999999</ele><time>2026-04-17T22:58:17.978Z</time></trkpt><trkpt lat="-36.7350414" lon="174.4012038"><ele>108.99999999999999</ele><time>2026-04-17T22:58:18.979Z</time></trkpt><trkpt lat="-36.7351113" lon="174.4011579"><ele>108.0</ele><time>2026-04-17T22:58:19.979Z</time></trkpt><trkpt lat="-36.7351802" lon="174.4011377"><ele>107.0</ele><time>2026-04-17T22:58:20.978Z</time></trkpt><trkpt lat="-36.7352679" lon="174.4011397"><ele>106.99999999999999</ele><time>2026-04-17T22:58:21.979Z</time></trkpt><trkpt lat="-36.7352536" lon="174.4010283"><ele>107.0</ele><time>2026-04-17T22:58:23.978Z</time></trkpt><trkpt lat="-36.735182" lon="174.4010089"><ele>107.0</ele><time>2026-04-17T22:58:24.978Z</time></trkpt><trkpt lat="-36.7350783" lon="174.4010308"><ele>107.0</ele><time>2026-04-17T22:58:26.977Z</time></trkpt><trkpt lat="-36.7350126" lon="174.4010445"><ele>106.99999999999999</ele><time>2026-04-17T22:58:27.977Z</time></trkpt><trkpt lat="-36.7349616" lon="174.4009905"><ele>107.0</ele><time>2026-04-17T22:58:29.979Z</time></trkpt><trkpt lat="-36.7350119" lon="174.4009018"><ele>106.0</ele><time>2026-04-17T22:58:30.978Z</time></trkpt><trkpt lat="-36.7350871" lon="174.4007989"><ele>104.99999999999999</ele><time>2026-04-17T22:58:32.978Z</time></trkpt><trkpt lat="-36.7350848" lon="174.4006793"><ele>104.0</ele><time>2026-04-17T22:58:34.978Z</time></trkpt><trkpt lat="-36.7350718" lon="174.4005702"><ele>103.0</ele><time>2026-04-17T22:58:36.98Z</time></trkpt><trkpt lat="-36.73515" lon="174.4005014"><ele>102.0</ele><time>2026-04-17T22:58:38.98Z</time></trkpt><trkpt lat="-36.7352198" lon="174.4004954"><ele>101.66666666666667</ele><time>2026-04-17T22:58:40.978Z</time></trkpt><trkpt lat="-36.7352819" lon="174.400527"><ele>101.33333333333334</ele><time>2026-04-17T22:58:42.979Z</time></trkpt><trkpt lat="-36.7353605" lon="174.4005993"><ele>101.0</ele><time>2026-04-17T22:58:45.978Z</time></trkpt><trkpt lat="-36.7354468" lon="174.4006373"><ele>100.66666666666667</ele><time>2026-04-17T22:58:47.978Z</time></trkpt><trkpt lat="-36.7355026" lon="174.4005849"><ele>100.33333333333334</ele><time>2026-04-17T22:58:50.979Z</time></trkpt><trkpt lat="-36.735565" lon="174.4004965"><ele>100.0</ele><time>2026-04-17T22:58:53.978Z</time></trkpt><trkpt lat="-36.7356171" lon="174.4004207"><ele>100.00000000000001</ele><time>2026-04-17T22:58:55.978Z</time></trkpt><trkpt lat="-36.7356753" lon="174.4003735"><ele>100.0</ele><time>2026-04-17T22:58:57.979Z</time></trkpt><trkpt lat="-36.7356517" lon="174.4002579"><ele>100.0</ele><time>2026-04-17T22:59:01.978Z</time></trkpt><trkpt lat="-36.7356816" lon="174.400184"><ele>100.0</ele><time>2026-04-17T22:59:03.979Z</time></trkpt><trkpt lat="-36.7357598" lon="174.4001423"><ele>100.00000000000001</ele><time>2026-04-17T22:59:05.98Z</time></trkpt><trkpt lat="-36.7358334" lon="174.4000823"><ele>100.0</ele><time>2026-04-17T22:59:07.978Z</time></trkpt><trkpt lat="-36.7358849" lon="174.4000062"><ele>100.0</ele><time>2026-04-17T22:59:09.977Z</time></trkpt><trkpt lat="-36.7359412" lon="174.399934"><ele>100.0</ele><time>2026-04-17T22:59:11.979Z</time></trkpt><trkpt lat="-36.7360025" lon="174.3998477"><ele>100.0</ele><time>2026-04-17T22:59:13.978Z</time></trkpt><trkpt lat="-36.7360703" lon="174.3997652"><ele>100.0</ele><time>2026-04-17T22:59:15.978Z</time></trkpt><trkpt lat="-36.7361261" lon="174.3996113"><ele>100.0</ele><time>2026-04-17T22:59:17.978Z</time></trkpt><trkpt lat="-36.7361618" lon="174.3995438"><ele>99.71428571428572</ele><time>2026-04-17T22:59:18.977Z</time></trkpt><trkpt lat="-36.7361861" lon="174.3994632"><ele>99.42857142857143</ele><time>2026-04-17T22:59:19.98Z</time></trkpt><trkpt lat="-36.7362304" lon="174.3993983"><ele>99.14285714285714</ele><time>2026-04-17T22:59:20.978Z</time></trkpt><trkpt lat="-36.7363074" lon="174.3993438"><ele>98.85714285714286</ele><time>2026-04-17T22:59:22.978Z</time></trkpt><trkpt lat="-36.7363676" lon="174.3993181"><ele>98.57142857142857</ele><time>2026-04-17T22:59:23.978Z</time></trkpt><trkpt lat="-36.7364116" lon="174.3992291"><ele>98.28571428571429</ele><time>2026-04-17T22:59:25.979Z</time></trkpt><trkpt lat="-36.7363768" lon="174.3991628"><ele>98.0</ele><time>2026-04-17T22:59:26.979Z</time></trkpt><trkpt lat="-36.7363232" lon="174.3990963"><ele>97.99999999999999</ele><time>2026-04-17T22:59:28.978Z</time></trkpt><trkpt lat="-36.7362602" lon="174.3990395"><ele>98.0</ele><time>2026-04-17T22:59:30.979Z</time></trkpt><trkpt lat="-36.7361948" lon="174.3990799"><ele>98.0</ele><time>2026-04-17T22:59:32.978Z</time></trkpt><trkpt lat="-36.7361315" lon="174.3991303"><ele>98.0</ele><time>2026-04-17T22:59:34.979Z</time></trkpt><trkpt lat="-36.7360647" lon="174.3991601"><ele>97.99999999999999</ele><time>2026-04-17T22:59:36.978Z</time></trkpt><trkpt lat="-36.7359765" lon="174.3991975"><ele>98.0</ele><time>2026-04-17T22:59:39.979Z</time></trkpt><trkpt lat="-36.7359199" lon="174.3992386"><ele>98.16666666666666</ele><time>2026-04-17T22:59:41.977Z</time></trkpt><trkpt lat="-36.7358659" lon="174.3993028"><ele>98.33333333333333</ele><time>2026-04-17T22:59:43.978Z</time></trkpt><trkpt lat="-36.7358315" lon="174.3994007"><ele>98.5</ele><time>2026-04-17T22:59:45.978Z</time></trkpt><trkpt lat="-36.7358113" lon="174.3994965"><ele>98.66666666666666</ele><time>2026-04-17T22:59:47.979Z</time></trkpt><trkpt lat="-36.735793" lon="174.3995751"><ele>98.83333333333333</ele><time>2026-04-17T22:59:49.978Z</time></trkpt><trkpt lat="-36.7357034" lon="174.3996627"><ele>99.0</ele><time>2026-04-17T22:59:51.978Z</time></trkpt><trkpt lat="-36.7356428" lon="174.3997194"><ele>99.16666666666667</ele><time>2026-04-17T22:59:53.98Z</time></trkpt><trkpt lat="-36.7355872" lon="174.3997953"><ele>99.33333333333334</ele><time>2026-04-17T22:59:55.979Z</time></trkpt><trkpt lat="-36.7355273" lon="174.3998532"><ele>99.5</ele><time>2026-04-17T22:59:57.979Z</time></trkpt><trkpt lat="-36.7354542" lon="174.3998878"><ele>99.66666666666667</ele><time>2026-04-17T22:59:59.979Z</time></trkpt><trkpt lat="-36.7353812" lon="174.3999359"><ele>99.83333333333334</ele><time>2026-04-17T23:00:01.978Z</time></trkpt><trkpt lat="-36.7353162" lon="174.3999799"><ele>100.0</ele><time>2026-04-17T23:00:03.978Z</time></trkpt><trkpt lat="-36.7352445" lon="174.4000403"><ele>100.16666666666667</ele><time>2026-04-17T23:00:05.979Z</time></trkpt><trkpt lat="-36.735158" lon="174.4000949"><ele>100.33333333333334</ele><time>2026-04-17T23:00:07.978Z</time></trkpt><trkpt lat="-36.7350757" lon="174.40013"><ele>100.5</ele><time>2026-04-17T23:00:09.979Z</time></trkpt><trkpt lat="-36.7349886" lon="174.4001365"><ele>100.66666666666666</ele><time>2026-04-17T23:00:11.977Z</time></trkpt><trkpt lat="-36.7349061" lon="174.4001309"><ele>100.83333333333333</ele><time>2026-04-17T23:00:13.979Z</time></trkpt><trkpt lat="-36.7348347" lon="174.4001368"><ele>101.0</ele><time>2026-04-17T23:00:15.979Z</time></trkpt><trkpt lat="-36.7347514" lon="174.4001485"><ele>100.99999999999999</ele><time>2026-04-17T23:00:17.978Z</time></trkpt><trkpt lat="-36.7346615" lon="174.4001565"><ele>101.0</ele><time>2026-04-17T23:00:19.978Z</time></trkpt><trkpt lat="-36.7345732" lon="174.4001591"><ele>101.0</ele><time>2026-04-17T23:00:21.977Z</time></trkpt><trkpt lat="-36.7344811" lon="174.4001523"><ele>101.0</ele><time>2026-04-17T23:00:23.979Z</time></trkpt><trkpt lat="-36.7343998" lon="174.4001556"><ele>100.99999999999999</ele><time>2026-04-17T23:00:25.978Z</time></trkpt><trkpt lat="-36.73431" lon="174.400151"><ele>101.0</ele><time>2026-04-17T23:00:27.979Z</time></trkpt><trkpt lat="-36.7342267" lon="174.4001593"><ele>102.49999999999999</ele><time>2026-04-17T23:00:29.979Z</time></trkpt><trkpt lat="-36.7341424" lon="174.4001666"><ele>104.0</ele><time>2026-04-17T23:00:31.979Z</time></trkpt><trkpt lat="-36.7340576" lon="174.4001754"><ele>105.5</ele><time>2026-04-17T23:00:33.978Z</time></trkpt><trkpt lat="-36.7339756" lon="174.400194"><ele>107.0</ele><time>2026-04-17T23:00:35.978Z</time></trkpt><trkpt lat="-36.7338849" lon="174.4002014"><ele>108.49999999999999</ele><time>2026-04-17T23:00:37.979Z</time></trkpt><trkpt lat="-36.7337901" lon="174.4001846"><ele>110.0</ele><time>2026-04-17T23:00:39.978Z</time></trkpt><trkpt lat="-36.7337238" lon="174.4001429"><ele>109.99999999999999</ele><time>2026-04-17T23:00:41.978Z</time></trkpt><trkpt lat="-36.7336424" lon="174.4000706"><ele>110.0</ele><time>2026-04-17T23:00:43.979Z</time></trkpt><trkpt lat="-36.7335706" lon="174.4000031"><ele>110.0</ele><time>2026-04-17T23:00:45.979Z</time></trkpt><trkpt lat="-36.7335066" lon="174.3999226"><ele>110.0</ele><time>2026-04-17T23:00:48.978Z</time></trkpt><trkpt lat="-36.7335139" lon="174.3998086"><ele>109.99999999999999</ele><time>2026-04-17T23:00:51.98Z</time></trkpt><trkpt lat="-36.7335553" lon="174.3997485"><ele>110.0</ele><time>2026-04-17T23:00:53.977Z</time></trkpt><trkpt lat="-36.7334913" lon="174.3996866"><ele>110.85714285714285</ele><time>2026-04-17T23:00:57.978Z</time></trkpt><trkpt lat="-36.7334181" lon="174.3996602"><ele>111.71428571428572</ele><time>2026-04-17T23:01:00.98Z</time></trkpt><trkpt lat="-36.7333597" lon="174.3996222"><ele>112.57142857142858</ele><time>2026-04-17T23:01:03.978Z</time></trkpt><trkpt lat="-36.7333342" lon="174.3995465"><ele>113.42857142857143</ele><time>2026-04-17T23:01:06.979Z</time></trkpt><trkpt lat="-36.7333448" lon="174.3994531"><ele>114.28571428571429</ele><time>2026-04-17T23:01:09.979Z</time></trkpt><trkpt lat="-36.7333345" lon="174.3993439"><ele>115.14285714285715</ele><time>2026-04-17T23:01:12.979Z</time></trkpt><trkpt lat="-36.7333554" lon="174.3992583"><ele>116.00000000000001</ele><time>2026-04-17T23:01:14.978Z</time></trkpt><trkpt lat="-36.7333471" lon="174.3991671"><ele>115.99999999999999</ele><time>2026-04-17T23:01:18.979Z</time></trkpt><trkpt lat="-36.7333426" lon="174.399082"><ele>116.0</ele><time>2026-04-17T23:01:22.979Z</time></trkpt><trkpt lat="-36.733313" lon="174.3989825"><ele>116.0</ele><time>2026-04-17T23:01:25.978Z</time></trkpt><trkpt lat="-36.7333243" lon="174.3988594"><ele>116.0</ele><time>2026-04-17T23:01:27.977Z</time></trkpt><trkpt lat="-36.7333633" lon="174.3987344"><ele>115.99999999999999</ele><time>2026-04-17T23:01:29.979Z</time></trkpt><trkpt lat="-36.7333862" lon="174.398627"><ele>116.0</ele><time>2026-04-17T23:01:31.979Z</time></trkpt><trkpt lat="-36.7333944" lon="174.3985288"><ele>115.99999999999999</ele><time>2026-04-17T23:01:33.977Z</time></trkpt><trkpt lat="-36.7334103" lon="174.3984444"><ele>116.0</ele><time>2026-04-17T23:01:35.978Z</time></trkpt><trkpt lat="-36.7333918" lon="174.398334"><ele>116.0</ele><time>2026-04-17T23:01:38.979Z</time></trkpt><trkpt lat="-36.7333905" lon="174.398238"><ele>116.0</ele><time>2026-04-17T23:01:41.978Z</time></trkpt><trkpt lat="-36.7334096" lon="174.3981267"><ele>115.99999999999999</ele><time>2026-04-17T23:01:44.979Z</time></trkpt><trkpt lat="-36.7334467" lon="174.3980507"><ele>116.0</ele><time>2026-04-17T23:01:46.978Z</time></trkpt><trkpt lat="-36.7335227" lon="174.3979979"><ele>115.49999999999999</ele><time>2026-04-17T23:01:48.978Z</time></trkpt><trkpt lat="-36.7335827" lon="174.3979658"><ele>115.0</ele><time>2026-04-17T23:03:12.98Z</time></trkpt><trkpt lat="-36.7336378" lon="174.3979196"><ele>114.5</ele><time>2026-04-17T23:03:17.98Z</time></trkpt><trkpt lat="-36.7337052" lon="174.3978816"><ele>114.0</ele><time>2026-04-17T23:03:20.977Z</time></trkpt><trkpt lat="-36.7338016" lon="174.3978634"><ele>113.49999999999999</ele><time>2026-04-17T23:03:23.978Z</time></trkpt><trkpt lat="-36.7338737" lon="174.3978697"><ele>113.0</ele><time>2026-04-17T23:03:25.977Z</time></trkpt><trkpt lat="-36.7339544" lon="174.3978468"><ele>113.0</ele><time>2026-04-17T23:03:27.979Z</time></trkpt><trkpt lat="-36.7339856" lon="174.3977226"><ele>113.00000000000001</ele><time>2026-04-17T23:03:29.979Z</time></trkpt><trkpt lat="-36.7339663" lon="174.3975887"><ele>113.00000000000001</ele><time>2026-04-17T23:03:31.978Z</time></trkpt><trkpt lat="-36.7339539" lon="174.3974727"><ele>113.0</ele><time>2026-04-17T23:03:33.979Z</time></trkpt><trkpt lat="-36.7340176" lon="174.3973693"><ele>113.0</ele><time>2026-04-17T23:03:35.979Z</time></trkpt><trkpt lat="-36.7341189" lon="174.3972981"><ele>113.0</ele><time>2026-04-17T23:03:37.977Z</time></trkpt><trkpt lat="-36.7341956" lon="174.3972744"><ele>113.00000000000001</ele><time>2026-04-17T23:03:38.977Z</time></trkpt><trkpt lat="-36.7343044" lon="174.3972668"><ele>113.00000000000001</ele><time>2026-04-17T23:03:40.979Z</time></trkpt><trkpt lat="-36.7344117" lon="174.3972614"><ele>113.0</ele><time>2026-04-17T23:03:41.979Z</time></trkpt><trkpt lat="-36.7344841" lon="174.3971796"><ele>113.0</ele><time>2026-04-17T23:03:43.978Z</time></trkpt><trkpt lat="-36.7345257" lon="174.3970728"><ele>108.60000000000001</ele><time>2026-04-17T23:03:45.978Z</time></trkpt><trkpt lat="-36.7346197" lon="174.3970034"><ele>104.20000000000002</ele><time>2026-04-17T23:03:47.977Z</time></trkpt><trkpt lat="-36.7347158" lon="174.3969666"><ele>99.8</ele><time>2026-04-17T23:03:49.978Z</time></trkpt><trkpt lat="-36.734824" lon="174.3969889"><ele>95.4</ele><time>2026-04-17T23:03:51.979Z</time></trkpt><trkpt lat="-36.7349209" lon="174.3970255"><ele>91.0</ele><time>2026-04-17T23:03:53.977Z</time></trkpt><trkpt lat="-36.734999" lon="174.3970926"><ele>91.83333333333333</ele><time>2026-04-17T23:03:56.978Z</time></trkpt><trkpt lat="-36.7350272" lon="174.3971744"><ele>92.66666666666666</ele><time>2026-04-17T23:03:59.978Z</time></trkpt><trkpt lat="-36.7350783" lon="174.3972258"><ele>93.5</ele><time>2026-04-17T23:04:01.977Z</time></trkpt><trkpt lat="-36.7351114" lon="174.3973042"><ele>94.33333333333333</ele><time>2026-04-17T23:04:03.98Z</time></trkpt><trkpt lat="-36.7352" lon="174.3973493"><ele>95.16666666666667</ele><time>2026-04-17T23:04:06.979Z</time></trkpt><trkpt lat="-36.7352703" lon="174.3973589"><ele>96.0</ele><time>2026-04-17T23:04:08.979Z</time></trkpt><trkpt lat="-36.7353522" lon="174.3973671"><ele>96.0</ele><time>2026-04-17T23:04:11.977Z</time></trkpt><trkpt lat="-36.735456" lon="174.3974035"><ele>96.0</ele><time>2026-04-17T23:04:14.979Z</time></trkpt><trkpt lat="-36.7355294" lon="174.3974612"><ele>96.0</ele><time>2026-04-17T23:04:16.978Z</time></trkpt><trkpt lat="-36.7355793" lon="174.3975331"><ele>96.0</ele><time>2026-04-17T23:04:18.978Z</time></trkpt><trkpt lat="-36.7356437" lon="174.3975972"><ele>96.0</ele><time>2026-04-17T23:04:19.979Z</time></trkpt><trkpt lat="-36.7357239" lon="174.3976309"><ele>96.0</ele><time>2026-04-17T23:04:21.979Z</time></trkpt><trkpt lat="-36.735795" lon="174.3976908"><ele>96.0</ele><time>2026-04-17T23:04:23.979Z</time></trkpt><trkpt lat="-36.7358385" lon="174.3977689"><ele>96.0</ele><time>2026-04-17T23:04:25.978Z</time></trkpt><trkpt lat="-36.7358736" lon="174.3978579"><ele>96.0</ele><time>2026-04-17T23:04:27.977Z</time></trkpt><trkpt lat="-36.7358574" lon="174.3979566"><ele>96.0</ele><time>2026-04-17T23:04:30.978Z</time></trkpt><trkpt lat="-36.7358156" lon="174.3980256"><ele>96.0</ele><time>2026-04-17T23:04:32.979Z</time></trkpt><trkpt lat="-36.7357962" lon="174.3981252"><ele>96.0</ele><time>2026-04-17T23:04:35.979Z</time></trkpt><trkpt lat="-36.7358484" lon="174.3982231"><ele>95.4</ele><time>2026-04-17T23:04:37.978Z</time></trkpt><trkpt lat="-36.7358986" lon="174.3983113"><ele>94.8</ele><time>2026-04-17T23:04:39.978Z</time></trkpt><trkpt lat="-36.735972" lon="174.3983673"><ele>94.2</ele><time>2026-04-17T23:04:41.978Z</time></trkpt><trkpt lat="-36.7360609" lon="174.3983701"><ele>93.60000000000001</ele><time>2026-04-17T23:04:43.979Z</time></trkpt><trkpt lat="-36.7361333" lon="174.3982705"><ele>93.0</ele><time>2026-04-17T23:04:45.978Z</time></trkpt><trkpt lat="-36.7361771" lon="174.398167"><ele>93.0</ele><time>2026-04-17T23:04:47.979Z</time></trkpt><trkpt lat="-36.7362135" lon="174.398091"><ele>93.0</ele><time>2026-04-17T23:04:49.978Z</time></trkpt><trkpt lat="-36.7362585" lon="174.3980233"><ele>93.0</ele><time>2026-04-17T23:04:51.979Z</time></trkpt><trkpt lat="-36.7363721" lon="174.3979566"><ele>93.0</ele><time>2026-04-17T23:04:53.978Z</time></trkpt><trkpt lat="-36.7364366" lon="174.3979287"><ele>93.0</ele><time>2026-04-17T23:04:54.978Z</time></trkpt><trkpt lat="-36.7365246" lon="174.3979081"><ele>93.0</ele><time>2026-04-17T23:04:55.978Z</time></trkpt><trkpt lat="-36.7365945" lon="174.3978888"><ele>93.0</ele><time>2026-04-17T23:04:56.978Z</time></trkpt><trkpt lat="-36.7366987" lon="174.3979683"><ele>93.0</ele><time>2026-04-17T23:04:58.979Z</time></trkpt><trkpt lat="-36.7367332" lon="174.3980371"><ele>93.0</ele><time>2026-04-17T23:05:00.979Z</time></trkpt><trkpt lat="-36.736739" lon="174.3979395"><ele>93.0</ele><time>2026-04-17T23:05:03.978Z</time></trkpt><trkpt lat="-36.7366633" lon="174.3978647"><ele>93.0</ele><time>2026-04-17T23:05:05.978Z</time></trkpt><trkpt lat="-36.7365683" lon="174.3978046"><ele>90.4</ele><time>2026-04-17T23:05:07.978Z</time></trkpt><trkpt lat="-36.7365102" lon="174.3977472"><ele>87.80000000000001</ele><time>2026-04-17T23:05:09.98Z</time></trkpt><trkpt lat="-36.7365381" lon="174.3976214"><ele>85.2</ele><time>2026-04-17T23:05:11.977Z</time></trkpt><trkpt lat="-36.7365406" lon="174.3974682"><ele>82.6</ele><time>2026-04-17T23:05:13.978Z</time></trkpt><trkpt lat="-36.7365874" lon="174.3973728"><ele>80.0</ele><time>2026-04-17T23:05:15.978Z</time></trkpt><trkpt lat="-36.7365335" lon="174.3972604"><ele>80.0</ele><time>2026-04-17T23:05:17.977Z</time></trkpt><trkpt lat="-36.7364652" lon="174.3972013"><ele>80.0</ele><time>2026-04-17T23:05:19.978Z</time></trkpt><trkpt lat="-36.7364661" lon="174.3971176"><ele>80.0</ele><time>2026-04-17T23:05:20.978Z</time></trkpt><trkpt lat="-36.7364234" lon="174.3970366"><ele>80.0</ele><time>2026-04-17T23:05:22.978Z</time></trkpt><trkpt lat="-36.7363372" lon="174.3969496"><ele>80.0</ele><time>2026-04-17T23:05:24.979Z</time></trkpt><trkpt lat="-36.7362946" lon="174.3967751"><ele>79.5</ele><time>2026-04-17T23:05:26.978Z</time></trkpt><trkpt lat="-36.7362144" lon="174.3967137"><ele>79.0</ele><time>2026-04-17T23:05:28.98Z</time></trkpt><trkpt lat="-36.7361497" lon="174.3966883"><ele>78.5</ele><time>2026-04-17T23:05:29.978Z</time></trkpt><trkpt lat="-36.7360963" lon="174.3966039"><ele>78.0</ele><time>2026-04-17T23:05:31.978Z</time></trkpt><trkpt lat="-36.7360437" lon="174.3965532"><ele>77.5</ele><time>2026-04-17T23:05:33.979Z</time></trkpt><trkpt lat="-36.7359494" lon="174.3964949"><ele>77.0</ele><time>2026-04-17T23:05:36.979Z</time></trkpt><trkpt lat="-36.7358803" lon="174.3963822"><ele>73.6</ele><time>2026-04-17T23:05:38.979Z</time></trkpt><trkpt lat="-36.735846" lon="174.3963008"><ele>70.2</ele><time>2026-04-17T23:05:39.978Z</time></trkpt><trkpt lat="-36.7358009" lon="174.3961914"><ele>66.8</ele><time>2026-04-17T23:05:40.977Z</time></trkpt><trkpt lat="-36.7357307" lon="174.3960905"><ele>63.4</ele><time>2026-04-17T23:05:42.979Z</time></trkpt><trkpt lat="-36.7356364" lon="174.3959938"><ele>60.0</ele><time>2026-04-17T23:05:44.978Z</time></trkpt><trkpt lat="-36.735576" lon="174.3959545"><ele>60.0</ele><time>2026-04-17T23:05:45.978Z</time></trkpt><trkpt lat="-36.7355" lon="174.3959163"><ele>60.0</ele><time>2026-04-17T23:05:46.979Z</time></trkpt><trkpt lat="-36.7354556" lon="174.3958509"><ele>60.0</ele><time>2026-04-17T23:05:47.979Z</time></trkpt><trkpt lat="-36.7354062" lon="174.3957817"><ele>60.0</ele><time>2026-04-17T23:05:48.977Z</time></trkpt><trkpt lat="-36.7353158" lon="174.395736"><ele>60.0</ele><time>2026-04-17T23:05:50.978Z</time></trkpt><trkpt lat="-36.7351811" lon="174.3956816"><ele>59.333333333333336</ele><time>2026-04-17T23:05:53.977Z</time></trkpt><trkpt lat="-36.7351153" lon="174.3956332"><ele>58.66666666666667</ele><time>2026-04-17T23:05:54.978Z</time></trkpt><trkpt lat="-36.7350624" lon="174.3955875"><ele>58.0</ele><time>2026-04-17T23:05:55.977Z</time></trkpt><trkpt lat="-36.7350487" lon="174.3955093"><ele>57.333333333333336</ele><time>2026-04-17T23:05:56.979Z</time></trkpt><trkpt lat="-36.7350561" lon="174.3954219"><ele>56.66666666666667</ele><time>2026-04-17T23:05:57.977Z</time></trkpt><trkpt lat="-36.7351275" lon="174.3953103"><ele>56.0</ele><time>2026-04-17T23:05:59.977Z</time></trkpt><trkpt lat="-36.7352217" lon="174.3952868"><ele>54.199999999999996</ele><time>2026-04-17T23:06:01.977Z</time></trkpt><trkpt lat="-36.7353318" lon="174.3953492"><ele>52.39999999999999</ele><time>2026-04-17T23:06:03.978Z</time></trkpt><trkpt lat="-36.7354211" lon="174.3954287"><ele>50.6</ele><time>2026-04-17T23:06:05.978Z</time></trkpt><trkpt lat="-36.7355034" lon="174.3954191"><ele>48.8</ele><time>2026-04-17T23:06:07.979Z</time></trkpt><trkpt lat="-36.7354704" lon="174.3952861"><ele>47.0</ele><time>2026-04-17T23:06:09.977Z</time></trkpt><trkpt lat="-36.7354445" lon="174.3952115"><ele>47.0</ele><time>2026-04-17T23:06:10.977Z</time></trkpt><trkpt lat="-36.735405" lon="174.3951275"><ele>47.0</ele><time>2026-04-17T23:06:11.977Z</time></trkpt><trkpt lat="-36.7353564" lon="174.3950676"><ele>47.0</ele><time>2026-04-17T23:06:12.979Z</time></trkpt><trkpt lat="-36.7353256" lon="174.3949931"><ele>47.0</ele><time>2026-04-17T23:06:13.979Z</time></trkpt><trkpt lat="-36.7352244" lon="174.3948983"><ele>47.0</ele><time>2026-04-17T23:06:15.979Z</time></trkpt><trkpt lat="-36.7351171" lon="174.394891"><ele>47.0</ele><time>2026-04-17T23:06:17.979Z</time></trkpt><trkpt lat="-36.7350427" lon="174.3948613"><ele>47.0</ele><time>2026-04-17T23:06:18.979Z</time></trkpt><trkpt lat="-36.7349862" lon="174.3947875"><ele>47.0</ele><time>2026-04-17T23:06:20.978Z</time></trkpt><trkpt lat="-36.7350217" lon="174.3946997"><ele>47.0</ele><time>2026-04-17T23:06:21.977Z</time></trkpt><trkpt lat="-36.7350339" lon="174.3945626"><ele>47.0</ele><time>2026-04-17T23:06:23.978Z</time></trkpt><trkpt lat="-36.7350287" lon="174.3944831"><ele>47.0</ele><time>2026-04-17T23:06:24.978Z</time></trkpt><trkpt lat="-36.7349641" lon="174.3943976"><ele>47.0</ele><time>2026-04-17T23:06:26.979Z</time></trkpt><trkpt lat="-36.7349552" lon="174.3942706"><ele>47.0</ele><time>2026-04-17T23:06:27.979Z</time></trkpt><trkpt lat="-36.7349607" lon="174.394123"><ele>47.0</ele><time>2026-04-17T23:06:29.978Z</time></trkpt><trkpt lat="-36.7350169" lon="174.3940637"><ele>47.0</ele><time>2026-04-17T23:06:30.977Z</time></trkpt><trkpt lat="-36.7350448" lon="174.393913"><ele>47.0</ele><time>2026-04-17T23:06:32.978Z</time></trkpt><trkpt lat="-36.7350615" lon="174.393776"><ele>47.0</ele><time>2026-04-17T23:06:34.978Z</time></trkpt><trkpt lat="-36.7350222" lon="174.3936397"><ele>45.5</ele><time>2026-04-17T23:06:36.979Z</time></trkpt><trkpt lat="-36.7349014" lon="174.3935506"><ele>44.0</ele><time>2026-04-17T23:06:38.978Z</time></trkpt><trkpt lat="-36.7348483" lon="174.3935042"><ele>42.5</ele><time>2026-04-17T23:06:39.977Z</time></trkpt><trkpt lat="-36.7347887" lon="174.3934552"><ele>41.0</ele><time>2026-04-17T23:06:40.978Z</time></trkpt><trkpt lat="-36.7347378" lon="174.3933996"><ele>39.5</ele><time>2026-04-17T23:06:41.979Z</time></trkpt><trkpt lat="-36.7347046" lon="174.3933254"><ele>38.0</ele><time>2026-04-17T23:06:42.978Z</time></trkpt><trkpt lat="-36.7346357" lon="174.3932504"><ele>38.0</ele><time>2026-04-17T23:06:44.978Z</time></trkpt><trkpt lat="-36.7345932" lon="174.3931772"><ele>38.0</ele><time>2026-04-17T23:06:47.977Z</time></trkpt><trkpt lat="-36.7345427" lon="174.3931139"><ele>38.0</ele><time>2026-04-17T23:06:49.98Z</time></trkpt><trkpt lat="-36.7344125" lon="174.3931118"><ele>38.0</ele><time>2026-04-17T23:06:51.977Z</time></trkpt><trkpt lat="-36.7342907" lon="174.3931158"><ele>38.0</ele><time>2026-04-17T23:06:53.977Z</time></trkpt><trkpt lat="-36.7341898" lon="174.3930832"><ele>36.4</ele><time>2026-04-17T23:06:55.978Z</time></trkpt><trkpt lat="-36.7341351" lon="174.3929588"><ele>34.8</ele><time>2026-04-17T23:06:57.977Z</time></trkpt><trkpt lat="-36.7340979" lon="174.3928628"><ele>33.2</ele><time>2026-04-17T23:06:59.978Z</time></trkpt><trkpt lat="-36.734169" lon="174.3927453"><ele>31.6</ele><time>2026-04-17T23:07:01.978Z</time></trkpt><trkpt lat="-36.7342303" lon="174.3926872"><ele>30.0</ele><time>2026-04-17T23:07:02.978Z</time></trkpt><trkpt lat="-36.7343013" lon="174.3926558"><ele>30.0</ele><time>2026-04-17T23:07:03.977Z</time></trkpt><trkpt lat="-36.7343513" lon="174.392546"><ele>30.0</ele><time>2026-04-17T23:07:05.979Z</time></trkpt><trkpt lat="-36.7343337" lon="174.3924684"><ele>30.0</ele><time>2026-04-17T23:07:06.979Z</time></trkpt><trkpt lat="-36.7342588" lon="174.3923502"><ele>30.0</ele><time>2026-04-17T23:07:08.978Z</time></trkpt><trkpt lat="-36.7342099" lon="174.3922944"><ele>30.0</ele><time>2026-04-17T23:07:09.978Z</time></trkpt><trkpt lat="-36.7341466" lon="174.3922339"><ele>30.0</ele><time>2026-04-17T23:07:10.978Z</time></trkpt><trkpt lat="-36.7340898" lon="174.3921951"><ele>30.0</ele><time>2026-04-17T23:07:11.978Z</time></trkpt><trkpt lat="-36.7339952" lon="174.3921756"><ele>30.0</ele><time>2026-04-17T23:07:13.977Z</time></trkpt><trkpt lat="-36.7338913" lon="174.3921629"><ele>30.0</ele><time>2026-04-17T23:07:15.977Z</time></trkpt><trkpt lat="-36.733763" lon="174.3921796"><ele>30.0</ele><time>2026-04-17T23:07:17.978Z</time></trkpt><trkpt lat="-36.7336725" lon="174.3921769"><ele>30.0</ele><time>2026-04-17T23:07:18.978Z</time></trkpt><trkpt lat="-36.7336052" lon="174.3921374"><ele>28.833333333333332</ele><time>2026-04-17T23:07:19.979Z</time></trkpt><trkpt lat="-36.7335516" lon="174.392066"><ele>27.666666666666668</ele><time>2026-04-17T23:07:20.977Z</time></trkpt><trkpt lat="-36.7335082" lon="174.3919767"><ele>26.5</ele><time>2026-04-17T23:07:21.978Z</time></trkpt><trkpt lat="-36.7334478" lon="174.3919037"><ele>25.333333333333336</ele><time>2026-04-17T23:07:22.977Z</time></trkpt><trkpt lat="-36.7334023" lon="174.3918428"><ele>24.166666666666668</ele><time>2026-04-17T23:07:23.979Z</time></trkpt><trkpt lat="-36.7333706" lon="174.3917697"><ele>23.0</ele><time>2026-04-17T23:07:24.978Z</time></trkpt><trkpt lat="-36.7333656" lon="174.391627"><ele>23.0</ele><time>2026-04-17T23:07:26.979Z</time></trkpt><trkpt lat="-36.7333679" lon="174.3914992"><ele>23.0</ele><time>2026-04-17T23:07:28.978Z</time></trkpt><trkpt lat="-36.7333241" lon="174.3914171"><ele>23.0</ele><time>2026-04-17T23:07:30.978Z</time></trkpt><trkpt lat="-36.7332723" lon="174.3913096"><ele>23.0</ele><time>2026-04-17T23:07:32.977Z</time></trkpt><trkpt lat="-36.7332128" lon="174.3912067"><ele>23.0</ele><time>2026-04-17T23:07:34.979Z</time></trkpt><trkpt lat="-36.7331403" lon="174.3911328"><ele>23.666666666666668</ele><time>2026-04-17T23:07:36.979Z</time></trkpt><trkpt lat="-36.7330649" lon="174.3910682"><ele>24.333333333333336</ele><time>2026-04-17T23:07:38.979Z</time></trkpt><trkpt lat="-36.7330133" lon="174.3910053"><ele>25.0</ele><time>2026-04-17T23:07:40.978Z</time></trkpt><trkpt lat="-36.732938" lon="174.3909477"><ele>25.666666666666668</ele><time>2026-04-17T23:07:42.979Z</time></trkpt><trkpt lat="-36.7328569" lon="174.3909042"><ele>26.333333333333332</ele><time>2026-04-17T23:07:44.978Z</time></trkpt><trkpt lat="-36.7327983" lon="174.3908631"><ele>27.0</ele><time>2026-04-17T23:07:46.978Z</time></trkpt><trkpt lat="-36.7327375" lon="174.3908226"><ele>26.57142857142857</ele><time>2026-04-17T23:07:48.977Z</time></trkpt><trkpt lat="-36.7326694" lon="174.3908307"><ele>26.142857142857142</ele><time>2026-04-17T23:07:50.978Z</time></trkpt><trkpt lat="-36.7326148" lon="174.3909036"><ele>25.714285714285715</ele><time>2026-04-17T23:07:52.979Z</time></trkpt><trkpt lat="-36.7325727" lon="174.3909827"><ele>25.285714285714285</ele><time>2026-04-17T23:07:54.977Z</time></trkpt><trkpt lat="-36.7325269" lon="174.3910559"><ele>24.857142857142858</ele><time>2026-04-17T23:07:56.978Z</time></trkpt><trkpt lat="-36.7324843" lon="174.3911368"><ele>24.428571428571427</ele><time>2026-04-17T23:07:58.978Z</time></trkpt><trkpt lat="-36.7324525" lon="174.3912063"><ele>24.0</ele><time>2026-04-17T23:08:00.98Z</time></trkpt><trkpt lat="-36.7324124" lon="174.3912826"><ele>24.5</ele><time>2026-04-17T23:08:03.977Z</time></trkpt><trkpt lat="-36.7323905" lon="174.3913599"><ele>25.0</ele><time>2026-04-17T23:08:49.978Z</time></trkpt><trkpt lat="-36.7323191" lon="174.3914195"><ele>25.5</ele><time>2026-04-17T23:08:52.977Z</time></trkpt><trkpt lat="-36.7322457" lon="174.3914792"><ele>26.0</ele><time>2026-04-17T23:08:55.978Z</time></trkpt><trkpt lat="-36.732181" lon="174.3914964"><ele>26.5</ele><time>2026-04-17T23:08:57.978Z</time></trkpt><trkpt lat="-36.7321101" lon="174.3914869"><ele>27.0</ele><time>2026-04-17T23:08:59.978Z</time></trkpt><trkpt lat="-36.7320271" lon="174.3914997"><ele>27.0</ele><time>2026-04-17T23:09:01.977Z</time></trkpt><trkpt lat="-36.7319515" lon="174.3915219"><ele>27.0</ele><time>2026-04-17T23:09:03.978Z</time></trkpt><trkpt lat="-36.7318884" lon="174.391546"><ele>27.0</ele><time>2026-04-17T23:09:05.979Z</time></trkpt><trkpt lat="-36.73182" lon="174.3915441"><ele>27.0</ele><time>2026-04-17T23:09:07.977Z</time></trkpt><trkpt lat="-36.7317418" lon="174.3915487"><ele>27.0</ele><time>2026-04-17T23:09:09.978Z</time></trkpt><trkpt lat="-36.7316581" lon="174.3915662"><ele>27.0</ele><time>2026-04-17T23:09:11.98Z</time></trkpt><trkpt lat="-36.7315918" lon="174.3915968"><ele>27.0</ele><time>2026-04-17T23:09:13.979Z</time></trkpt><trkpt lat="-36.73153" lon="174.3916569"><ele>27.57142857142857</ele><time>2026-04-17T23:09:16.978Z</time></trkpt><trkpt lat="-36.7315802" lon="174.3917158"><ele>28.142857142857142</ele><time>2026-04-17T23:09:19.979Z</time></trkpt><trkpt lat="-36.7315641" lon="174.3917958"><ele>28.714285714285715</ele><time>2026-04-17T23:09:23.978Z</time></trkpt><trkpt lat="-36.7315098" lon="174.3918492"><ele>29.285714285714285</ele><time>2026-04-17T23:09:25.978Z</time></trkpt><trkpt lat="-36.7314751" lon="174.3919204"><ele>29.85714285714286</ele><time>2026-04-17T23:09:27.979Z</time></trkpt><trkpt lat="-36.7314251" lon="174.3919734"><ele>30.42857142857143</ele><time>2026-04-17T23:09:29.98Z</time></trkpt><trkpt lat="-36.7313604" lon="174.391992"><ele>31.0</ele><time>2026-04-17T23:09:31.979Z</time></trkpt><trkpt lat="-36.7312784" lon="174.3919306"><ele>31.000000000000004</ele><time>2026-04-17T23:09:33.978Z</time></trkpt><trkpt lat="-36.7312046" lon="174.3919"><ele>31.0</ele><time>2026-04-17T23:09:35.978Z</time></trkpt><trkpt lat="-36.7311252" lon="174.3918565"><ele>31.0</ele><time>2026-04-17T23:09:37.978Z</time></trkpt><trkpt lat="-36.7310303" lon="174.3918431"><ele>31.0</ele><time>2026-04-17T23:09:40.977Z</time></trkpt><trkpt lat="-36.730969" lon="174.3918854"><ele>31.000000000000004</ele><time>2026-04-17T23:09:42.978Z</time></trkpt><trkpt lat="-36.7309637" lon="174.3919919"><ele>31.0</ele><time>2026-04-17T23:09:46.977Z</time></trkpt><trkpt lat="-36.7309727" lon="174.3920805"><ele>31.42857142857143</ele><time>2026-04-17T23:09:49.979Z</time></trkpt><trkpt lat="-36.7309518" lon="174.3921862"><ele>31.85714285714286</ele><time>2026-04-17T23:09:52.979Z</time></trkpt><trkpt lat="-36.730952" lon="174.3922761"><ele>32.285714285714285</ele><time>2026-04-17T23:09:55.978Z</time></trkpt><trkpt lat="-36.7309371" lon="174.3923529"><ele>32.714285714285715</ele><time>2026-04-17T23:09:58.977Z</time></trkpt><trkpt lat="-36.7308879" lon="174.3922857"><ele>33.14285714285714</ele><time>2026-04-17T23:10:03.979Z</time></trkpt><trkpt lat="-36.7308586" lon="174.3922142"><ele>33.57142857142857</ele><time>2026-04-17T23:10:06.978Z</time></trkpt><trkpt lat="-36.7308241" lon="174.3921141"><ele>34.0</ele><time>2026-04-17T23:10:09.978Z</time></trkpt><trkpt lat="-36.7307427" lon="174.3920701"><ele>34.0</ele><time>2026-04-17T23:10:12.979Z</time></trkpt><trkpt lat="-36.7306608" lon="174.3920446"><ele>34.0</ele><time>2026-04-17T23:10:15.978Z</time></trkpt><trkpt lat="-36.7305781" lon="174.3920664"><ele>34.0</ele><time>2026-04-17T23:10:18.98Z</time></trkpt><trkpt lat="-36.7304926" lon="174.3920656"><ele>34.0</ele><time>2026-04-17T23:10:21.978Z</time></trkpt><trkpt lat="-36.7304223" lon="174.392061"><ele>34.0</ele><time>2026-04-17T23:10:23.977Z</time></trkpt><trkpt lat="-36.7304869" lon="174.3920968"><ele>34.0</ele><time>2026-04-17T23:10:29.977Z</time></trkpt><trkpt lat="-36.7305707" lon="174.392127"><ele>36.0</ele><time>2026-04-17T23:10:32.978Z</time></trkpt><trkpt lat="-36.7306353" lon="174.3921786"><ele>38.0</ele><time>2026-04-17T23:10:35.978Z</time></trkpt><trkpt lat="-36.7306731" lon="174.3922593"><ele>40.0</ele><time>2026-04-17T23:10:38.977Z</time></trkpt><trkpt lat="-36.7305941" lon="174.3922979"><ele>42.0</ele><time>2026-04-17T23:10:42.978Z</time></trkpt><trkpt lat="-36.7305293" lon="174.3922902"><ele>44.0</ele><time>2026-04-17T23:10:45.978Z</time></trkpt><trkpt lat="-36.7304371" lon="174.3922636"><ele>46.0</ele><time>2026-04-17T23:10:48.978Z</time></trkpt><trkpt lat="-36.7303667" lon="174.3922709"><ele>46.0</ele><time>2026-04-17T23:10:50.978Z</time></trkpt><trkpt lat="-36.7302964" lon="174.3922463"><ele>46.0</ele><time>2026-04-17T23:10:52.977Z</time></trkpt><trkpt lat="-36.7302468" lon="174.3921947"><ele>46.0</ele><time>2026-04-17T23:10:54.979Z</time></trkpt><trkpt lat="-36.7301938" lon="174.392152"><ele>46.0</ele><time>2026-04-17T23:10:56.979Z</time></trkpt><trkpt lat="-36.730136" lon="174.3920891"><ele>46.0</ele><time>2026-04-17T23:10:59.978Z</time></trkpt><trkpt lat="-36.7300741" lon="174.3920148"><ele>46.0</ele><time>2026-04-17T23:11:02.978Z</time></trkpt><trkpt lat="-36.7300208" lon="174.3919104"><ele>46.0</ele><time>2026-04-17T23:11:04.978Z</time></trkpt><trkpt lat="-36.7299533" lon="174.3918048"><ele>46.0</ele><time>2026-04-17T23:11:06.979Z</time></trkpt><trkpt lat="-36.7298747" lon="174.3917239"><ele>46.0</ele><time>2026-04-17T23:11:08.977Z</time></trkpt><trkpt lat="-36.7297876" lon="174.3916678"><ele>46.0</ele><time>2026-04-17T23:11:10.977Z</time></trkpt><trkpt lat="-36.7297046" lon="174.3916198"><ele>46.0</ele><time>2026-04-17T23:11:12.978Z</time></trkpt><trkpt lat="-36.7296148" lon="174.391574"><ele>46.0</ele><time>2026-04-17T23:11:14.978Z</time></trkpt><trkpt lat="-36.7295338" lon="174.3915291"><ele>46.0</ele><time>2026-04-17T23:11:16.978Z</time></trkpt><trkpt lat="-36.729459" lon="174.3914814"><ele>46.0</ele><time>2026-04-17T23:11:18.979Z</time></trkpt><trkpt lat="-36.7293879" lon="174.3914255"><ele>46.0</ele><time>2026-04-17T23:11:20.978Z</time></trkpt><trkpt lat="-36.729323" lon="174.3913567"><ele>46.0</ele><time>2026-04-17T23:11:22.978Z</time></trkpt><trkpt lat="-36.7292672" lon="174.3912807"><ele>46.0</ele><time>2026-04-17T23:11:24.977Z</time></trkpt><trkpt lat="-36.7291956" lon="174.3911548"><ele>44.8</ele><time>2026-04-17T23:11:26.979Z</time></trkpt><trkpt lat="-36.7291363" lon="174.3910754"><ele>43.599999999999994</ele><time>2026-04-17T23:11:28.979Z</time></trkpt><trkpt lat="-36.7290538" lon="174.3909826"><ele>42.4</ele><time>2026-04-17T23:11:30.977Z</time></trkpt><trkpt lat="-36.7289896" lon="174.3909031"><ele>41.2</ele><time>2026-04-17T23:11:32.977Z</time></trkpt><trkpt lat="-36.7289222" lon="174.3908439"><ele>40.0</ele><time>2026-04-17T23:11:34.977Z</time></trkpt><trkpt lat="-36.728857" lon="174.3907891"><ele>40.0</ele><time>2026-04-17T23:11:36.977Z</time></trkpt><trkpt lat="-36.7287923" lon="174.3907477"><ele>40.0</ele><time>2026-04-17T23:11:38.979Z</time></trkpt><trkpt lat="-36.7287017" lon="174.3907352"><ele>40.0</ele><time>2026-04-17T23:11:41.977Z</time></trkpt><trkpt lat="-36.7286179" lon="174.3907692"><ele>40.0</ele><time>2026-04-17T23:11:45.979Z</time></trkpt><trkpt lat="-36.7285583" lon="174.3908359"><ele>40.0</ele><time>2026-04-17T23:11:47.977Z</time></trkpt><trkpt lat="-36.7285307" lon="174.390923"><ele>40.0</ele><time>2026-04-17T23:11:50.979Z</time></trkpt><trkpt lat="-36.728466" lon="174.3909545"><ele>42.16666666666667</ele><time>2026-04-17T23:11:54.977Z</time></trkpt><trkpt lat="-36.7284174" lon="174.3908876"><ele>44.333333333333336</ele><time>2026-04-17T23:11:58.977Z</time></trkpt><trkpt lat="-36.7283507" lon="174.3908579"><ele>46.5</ele><time>2026-04-17T23:12:01.978Z</time></trkpt><trkpt lat="-36.7282589" lon="174.3908253"><ele>48.66666666666667</ele><time>2026-04-17T23:12:04.977Z</time></trkpt><trkpt lat="-36.7281643" lon="174.3907885"><ele>50.833333333333336</ele><time>2026-04-17T23:12:07.978Z</time></trkpt><trkpt lat="-36.7280784" lon="174.3907756"><ele>53.0</ele><time>2026-04-17T23:12:10.977Z</time></trkpt><trkpt lat="-36.7279962" lon="174.3907828"><ele>53.0</ele><time>2026-04-17T23:12:13.978Z</time></trkpt><trkpt lat="-36.7279151" lon="174.3907511"><ele>53.0</ele><time>2026-04-17T23:12:16.98Z</time></trkpt><trkpt lat="-36.7278438" lon="174.3907288"><ele>53.0</ele><time>2026-04-17T23:12:19.977Z</time></trkpt><trkpt lat="-36.7278924" lon="174.3907915"><ele>53.0</ele><time>2026-04-17T23:12:24.977Z</time></trkpt><trkpt lat="-36.7279096" lon="174.3908706"><ele>53.0</ele><time>2026-04-17T23:12:27.978Z</time></trkpt><trkpt lat="-36.7278445" lon="174.3908976"><ele>53.0</ele><time>2026-04-17T23:12:31.978Z</time></trkpt><trkpt lat="-36.7277687" lon="174.3908751"><ele>53.0</ele><time>2026-04-17T23:12:35.978Z</time></trkpt><trkpt lat="-36.7277262" lon="174.3909391"><ele>53.85714285714286</ele><time>2026-04-17T23:12:46.978Z</time></trkpt><trkpt lat="-36.7276915" lon="174.3910153"><ele>54.71428571428571</ele><time>2026-04-17T23:12:50.978Z</time></trkpt><trkpt lat="-36.727633" lon="174.3910759"><ele>55.57142857142857</ele><time>2026-04-17T23:12:53.978Z</time></trkpt><trkpt lat="-36.7275558" lon="174.3911098"><ele>56.42857142857143</ele><time>2026-04-17T23:12:56.977Z</time></trkpt><trkpt lat="-36.7275374" lon="174.3911884"><ele>57.28571428571429</ele><time>2026-04-17T23:13:01.978Z</time></trkpt><trkpt lat="-36.7276217" lon="174.3912055"><ele>58.14285714285714</ele><time>2026-04-17T23:13:05.978Z</time></trkpt><trkpt lat="-36.7276551" lon="174.3912756"><ele>59.0</ele><time>2026-04-17T23:13:08.978Z</time></trkpt><trkpt lat="-36.7276766" lon="174.3913955"><ele>60.66666666666667</ele><time>2026-04-17T23:13:11.979Z</time></trkpt><trkpt lat="-36.7276887" lon="174.3915077"><ele>62.333333333333336</ele><time>2026-04-17T23:13:14.978Z</time></trkpt><trkpt lat="-36.7277168" lon="174.391604"><ele>64.0</ele><time>2026-04-17T23:13:17.978Z</time></trkpt><trkpt lat="-36.7277198" lon="174.3916847"><ele>65.66666666666667</ele><time>2026-04-17T23:13:19.977Z</time></trkpt><trkpt lat="-36.727726" lon="174.3917641"><ele>67.33333333333333</ele><time>2026-04-17T23:13:21.98Z</time></trkpt><trkpt lat="-36.7277357" lon="174.3918848"><ele>69.0</ele><time>2026-04-17T23:13:24.978Z</time></trkpt><trkpt lat="-36.7277493" lon="174.3919727"><ele>69.66666666666667</ele><time>2026-04-17T23:13:26.978Z</time></trkpt><trkpt lat="-36.7277481" lon="174.3920832"><ele>70.33333333333333</ele><time>2026-04-17T23:13:28.978Z</time></trkpt><trkpt lat="-36.7277467" lon="174.3921917"><ele>71.0</ele><time>2026-04-17T23:13:30.98Z</time></trkpt><trkpt lat="-36.7277486" lon="174.3922834"><ele>71.66666666666666</ele><time>2026-04-17T23:13:32.979Z</time></trkpt><trkpt lat="-36.7277206" lon="174.3923886"><ele>72.33333333333333</ele><time>2026-04-17T23:13:35.977Z</time></trkpt><trkpt lat="-36.7277176" lon="174.3924941"><ele>73.0</ele><time>2026-04-17T23:13:38.978Z</time></trkpt><trkpt lat="-36.7276803" lon="174.392563"><ele>73.14285714285714</ele><time>2026-04-17T23:13:40.979Z</time></trkpt><trkpt lat="-36.727623" lon="174.3925996"><ele>73.28571428571429</ele><time>2026-04-17T23:13:42.979Z</time></trkpt><trkpt lat="-36.7275506" lon="174.3926133"><ele>73.42857142857143</ele><time>2026-04-17T23:13:45.979Z</time></trkpt><trkpt lat="-36.7274966" lon="174.3926958"><ele>73.57142857142857</ele><time>2026-04-17T23:13:48.977Z</time></trkpt><trkpt lat="-36.7274306" lon="174.3927634"><ele>73.71428571428571</ele><time>2026-04-17T23:13:51.978Z</time></trkpt><trkpt lat="-36.7274572" lon="174.3928373"><ele>73.85714285714286</ele><time>2026-04-17T23:13:54.977Z</time></trkpt><trkpt lat="-36.7274779" lon="174.3929251"><ele>74.0</ele><time>2026-04-17T23:13:57.978Z</time></trkpt><trkpt lat="-36.7274234" lon="174.3929822"><ele>74.66666666666667</ele><time>2026-04-17T23:14:01.977Z</time></trkpt><trkpt lat="-36.7273735" lon="174.3930403"><ele>75.33333333333334</ele><time>2026-04-17T23:14:03.978Z</time></trkpt><trkpt lat="-36.7273785" lon="174.3931369"><ele>76.0</ele><time>2026-04-17T23:14:06.977Z</time></trkpt><trkpt lat="-36.7273516" lon="174.3932523"><ele>76.66666666666667</ele><time>2026-04-17T23:14:09.977Z</time></trkpt><trkpt lat="-36.7272772" lon="174.393315"><ele>77.33333333333333</ele><time>2026-04-17T23:14:12.977Z</time></trkpt><trkpt lat="-36.7272179" lon="174.3933694"><ele>78.0</ele><time>2026-04-17T23:14:15.979Z</time></trkpt><trkpt lat="-36.7272084" lon="174.3934731"><ele>78.0</ele><time>2026-04-17T23:14:18.979Z</time></trkpt><trkpt lat="-36.727197" lon="174.3935722"><ele>78.0</ele><time>2026-04-17T23:14:21.978Z</time></trkpt><trkpt lat="-36.7272036" lon="174.3936605"><ele>78.0</ele><time>2026-04-17T23:14:23.978Z</time></trkpt><trkpt lat="-36.7271479" lon="174.3937503"><ele>78.0</ele><time>2026-04-17T23:14:25.977Z</time></trkpt><trkpt lat="-36.7270931" lon="174.3938081"><ele>78.0</ele><time>2026-04-17T23:14:27.978Z</time></trkpt><trkpt lat="-36.7270941" lon="174.3939276"><ele>78.0</ele><time>2026-04-17T23:14:30.978Z</time></trkpt><trkpt lat="-36.7270853" lon="174.3940334"><ele>78.0</ele><time>2026-04-17T23:14:32.978Z</time></trkpt><trkpt lat="-36.7270465" lon="174.3941489"><ele>78.0</ele><time>2026-04-17T23:14:35.978Z</time></trkpt><trkpt lat="-36.7270176" lon="174.3942279"><ele>78.0</ele><time>2026-04-17T23:14:37.978Z</time></trkpt><trkpt lat="-36.7270175" lon="174.3943182"><ele>78.0</ele><time>2026-04-17T23:14:39.979Z</time></trkpt><trkpt lat="-36.7270282" lon="174.3944261"><ele>78.0</ele><time>2026-04-17T23:14:42.977Z</time></trkpt><trkpt lat="-36.7269965" lon="174.3945127"><ele>78.0</ele><time>2026-04-17T23:14:45.978Z</time></trkpt><trkpt lat="-36.7269307" lon="174.394459"><ele>79.66666666666667</ele><time>2026-04-17T23:14:49.978Z</time></trkpt><trkpt lat="-36.7268828" lon="174.3943915"><ele>81.33333333333333</ele><time>2026-04-17T23:14:52.978Z</time></trkpt><trkpt lat="-36.726894" lon="174.3942859"><ele>83.0</ele><time>2026-04-17T23:14:55.979Z</time></trkpt><trkpt lat="-36.7268242" lon="174.3942655"><ele>84.66666666666666</ele><time>2026-04-17T23:15:00.978Z</time></trkpt><trkpt lat="-36.726823" lon="174.3943454"><ele>86.33333333333333</ele><time>2026-04-17T23:15:03.978Z</time></trkpt><trkpt lat="-36.7268407" lon="174.3944496"><ele>88.0</ele><time>2026-04-17T23:15:06.978Z</time></trkpt><trkpt lat="-36.7268703" lon="174.3945613"><ele>88.0</ele><time>2026-04-17T23:15:10.977Z</time></trkpt><trkpt lat="-36.7268883" lon="174.3946386"><ele>88.0</ele><time>2026-04-17T23:15:14.977Z</time></trkpt><trkpt lat="-36.7268437" lon="174.394715"><ele>88.0</ele><time>2026-04-17T23:15:17.978Z</time></trkpt><trkpt lat="-36.7267831" lon="174.3947943"><ele>88.0</ele><time>2026-04-17T23:15:21.979Z</time></trkpt><trkpt lat="-36.7266829" lon="174.3949019"><ele>88.0</ele><time>2026-04-17T23:15:23.978Z</time></trkpt><trkpt lat="-36.7265618" lon="174.3949613"><ele>88.33333333333333</ele><time>2026-04-17T23:15:25.978Z</time></trkpt><trkpt lat="-36.7264637" lon="174.3949932"><ele>88.66666666666666</ele><time>2026-04-17T23:15:27.977Z</time></trkpt><trkpt lat="-36.726382" lon="174.3950548"><ele>89.0</ele><time>2026-04-17T23:15:29.978Z</time></trkpt><trkpt lat="-36.7263232" lon="174.3951171"><ele>89.33333333333333</ele><time>2026-04-17T23:15:31.979Z</time></trkpt><trkpt lat="-36.7262889" lon="174.3952357"><ele>89.66666666666667</ele><time>2026-04-17T23:15:34.978Z</time></trkpt><trkpt lat="-36.7262783" lon="174.395314"><ele>90.0</ele><time>2026-04-17T23:15:36.978Z</time></trkpt><trkpt lat="-36.7262538" lon="174.3953949"><ele>90.0</ele><time>2026-04-17T23:15:39.978Z</time></trkpt><trkpt lat="-36.7261906" lon="174.3954522"><ele>90.0</ele><time>2026-04-17T23:15:41.978Z</time></trkpt><trkpt lat="-36.7261514" lon="174.3955151"><ele>90.0</ele><time>2026-04-17T23:15:43.978Z</time></trkpt><trkpt lat="-36.7260879" lon="174.3955676"><ele>90.0</ele><time>2026-04-17T23:15:45.977Z</time></trkpt><trkpt lat="-36.7260377" lon="174.3956163"><ele>90.0</ele><time>2026-04-17T23:15:47.979Z</time></trkpt><trkpt lat="-36.725972" lon="174.3956795"><ele>90.0</ele><time>2026-04-17T23:15:49.977Z</time></trkpt><trkpt lat="-36.725909" lon="174.3957562"><ele>92.33333333333333</ele><time>2026-04-17T23:15:51.977Z</time></trkpt><trkpt lat="-36.7258606" lon="174.3958422"><ele>94.66666666666666</ele><time>2026-04-17T23:15:53.977Z</time></trkpt><trkpt lat="-36.7258058" lon="174.395934"><ele>97.0</ele><time>2026-04-17T23:15:55.978Z</time></trkpt><trkpt lat="-36.7257809" lon="174.3960385"><ele>99.33333333333333</ele><time>2026-04-17T23:15:58.977Z</time></trkpt><trkpt lat="-36.7257812" lon="174.3961326"><ele>101.66666666666666</ele><time>2026-04-17T23:16:01.977Z</time></trkpt><trkpt lat="-36.7257701" lon="174.3962124"><ele>104.0</ele><time>2026-04-17T23:16:04.978Z</time></trkpt><trkpt lat="-36.7257406" lon="174.3961365"><ele>103.99999999999999</ele><time>2026-04-17T23:16:08.978Z</time></trkpt><trkpt lat="-36.725698" lon="174.3960564"><ele>104.0</ele><time>2026-04-17T23:16:12.977Z</time></trkpt><trkpt lat="-36.7256362" lon="174.3959883"><ele>104.0</ele><time>2026-04-17T23:16:16.978Z</time></trkpt><trkpt lat="-36.7256532" lon="174.3958814"><ele>104.0</ele><time>2026-04-17T23:16:19.977Z</time></trkpt><trkpt lat="-36.7256618" lon="174.3957721"><ele>103.99999999999999</ele><time>2026-04-17T23:16:22.978Z</time></trkpt><trkpt lat="-36.7256428" lon="174.39568"><ele>104.0</ele><time>2026-04-17T23:16:25.978Z</time></trkpt><trkpt lat="-36.7256381" lon="174.3955879"><ele>104.0</ele><time>2026-04-17T23:16:28.978Z</time></trkpt><trkpt lat="-36.725662" lon="174.3955076"><ele>104.0</ele><time>2026-04-17T23:16:30.979Z</time></trkpt><trkpt lat="-36.7256899" lon="174.3954299"><ele>104.0</ele><time>2026-04-17T23:16:32.977Z</time></trkpt><trkpt lat="-36.7257261" lon="174.3953524"><ele>104.0</ele><time>2026-04-17T23:16:34.978Z</time></trkpt><trkpt lat="-36.7257668" lon="174.3952894"><ele>104.0</ele><time>2026-04-17T23:16:36.977Z</time></trkpt><trkpt lat="-36.7258101" lon="174.3952219"><ele>104.0</ele><time>2026-04-17T23:16:38.977Z</time></trkpt><trkpt lat="-36.7258326" lon="174.3951349"><ele>104.0</ele><time>2026-04-17T23:16:40.977Z</time></trkpt><trkpt lat="-36.7258566" lon="174.3950547"><ele>104.16666666666666</ele><time>2026-04-17T23:16:42.977Z</time></trkpt><trkpt lat="-36.7258828" lon="174.3949494"><ele>104.33333333333333</ele><time>2026-04-17T23:16:45.977Z</time></trkpt><trkpt lat="-36.7258856" lon="174.3948259"><ele>104.5</ele><time>2026-04-17T23:16:48.977Z</time></trkpt><trkpt lat="-36.7259072" lon="174.3947247"><ele>104.66666666666666</ele><time>2026-04-17T23:16:50.979Z</time></trkpt><trkpt lat="-36.7259131" lon="174.3946282"><ele>104.83333333333333</ele><time>2026-04-17T23:16:52.978Z</time></trkpt><trkpt lat="-36.725896" lon="174.3945347"><ele>105.0</ele><time>2026-04-17T23:16:54.978Z</time></trkpt><trkpt lat="-36.7258592" lon="174.3944586"><ele>105.16666666666667</ele><time>2026-04-17T23:16:56.977Z</time></trkpt><trkpt lat="-36.7258336" lon="174.39437"><ele>105.33333333333334</ele><time>2026-04-17T23:16:58.978Z</time></trkpt><trkpt lat="-36.7258067" lon="174.3942904"><ele>105.5</ele><time>2026-04-17T23:17:00.979Z</time></trkpt><trkpt lat="-36.7257509" lon="174.3941953"><ele>105.66666666666667</ele><time>2026-04-17T23:17:03.977Z</time></trkpt><trkpt lat="-36.7257068" lon="174.3941244"><ele>105.83333333333334</ele><time>2026-04-17T23:17:06.977Z</time></trkpt><trkpt lat="-36.7256985" lon="174.394045"><ele>106.0</ele><time>2026-04-17T23:17:08.978Z</time></trkpt><trkpt lat="-36.7256743" lon="174.3939259"><ele>106.0</ele><time>2026-04-17T23:17:11.978Z</time></trkpt><trkpt lat="-36.7256318" lon="174.3938647"><ele>106.0</ele><time>2026-04-17T23:17:13.978Z</time></trkpt><trkpt lat="-36.7256063" lon="174.3937694"><ele>106.0</ele><time>2026-04-17T23:17:16.979Z</time></trkpt><trkpt lat="-36.7256112" lon="174.3936873"><ele>106.0</ele><time>2026-04-17T23:17:18.979Z</time></trkpt><trkpt lat="-36.7256108" lon="174.3935948"><ele>106.0</ele><time>2026-04-17T23:17:20.978Z</time></trkpt><trkpt lat="-36.7256135" lon="174.3934975"><ele>106.0</ele><time>2026-04-17T23:17:22.978Z</time></trkpt><trkpt lat="-36.7256258" lon="174.3934011"><ele>106.0</ele><time>2026-04-17T23:17:24.978Z</time></trkpt><trkpt lat="-36.7256188" lon="174.393318"><ele>105.50000000000001</ele><time>2026-04-17T23:17:26.977Z</time></trkpt><trkpt lat="-36.7255885" lon="174.3932184"><ele>105.0</ele><time>2026-04-17T23:17:29.978Z</time></trkpt><trkpt lat="-36.7255702" lon="174.3931386"><ele>104.5</ele><time>2026-04-17T23:19:02.978Z</time></trkpt><trkpt lat="-36.7255511" lon="174.3930472"><ele>104.0</ele><time>2026-04-17T23:19:06.978Z</time></trkpt><trkpt lat="-36.725517" lon="174.3929809"><ele>103.50000000000001</ele><time>2026-04-17T23:19:08.978Z</time></trkpt><trkpt lat="-36.7254457" lon="174.3929298"><ele>103.0</ele><time>2026-04-17T23:19:11.978Z</time></trkpt><trkpt lat="-36.7253668" lon="174.3929284"><ele>103.14285714285714</ele><time>2026-04-17T23:19:14.978Z</time></trkpt><trkpt lat="-36.7253026" lon="174.3929272"><ele>103.28571428571428</ele><time>2026-04-17T23:19:16.977Z</time></trkpt><trkpt lat="-36.7252361" lon="174.3929146"><ele>103.42857142857142</ele><time>2026-04-17T23:19:18.977Z</time></trkpt><trkpt lat="-36.7251729" lon="174.3929411"><ele>103.57142857142857</ele><time>2026-04-17T23:19:21.977Z</time></trkpt><trkpt lat="-36.7251174" lon="174.3929799"><ele>103.71428571428572</ele><time>2026-04-17T23:19:23.978Z</time></trkpt><trkpt lat="-36.7250658" lon="174.3930411"><ele>103.85714285714285</ele><time>2026-04-17T23:19:25.978Z</time></trkpt><trkpt lat="-36.7250204" lon="174.3931416"><ele>104.0</ele><time>2026-04-17T23:19:27.978Z</time></trkpt><trkpt lat="-36.724981" lon="174.3932166"><ele>104.4</ele><time>2026-04-17T23:19:29.978Z</time></trkpt><trkpt lat="-36.7249441" lon="174.3933043"><ele>104.80000000000001</ele><time>2026-04-17T23:19:32.978Z</time></trkpt><trkpt lat="-36.7248231" lon="174.393435"><ele>105.19999999999999</ele><time>2026-04-17T23:19:34.978Z</time></trkpt><trkpt lat="-36.7247676" lon="174.3935355"><ele>105.6</ele><time>2026-04-17T23:19:36.978Z</time></trkpt><trkpt lat="-36.7246913" lon="174.3936123"><ele>106.0</ele><time>2026-04-17T23:19:38.978Z</time></trkpt><trkpt lat="-36.7246311" lon="174.3936886"><ele>106.00000000000001</ele><time>2026-04-17T23:19:40.978Z</time></trkpt><trkpt lat="-36.724558" lon="174.393766"><ele>106.0</ele><time>2026-04-17T23:19:42.978Z</time></trkpt><trkpt lat="-36.7244755" lon="174.3937741"><ele>106.0</ele><time>2026-04-17T23:19:45.978Z</time></trkpt><trkpt lat="-36.7244137" lon="174.3937229"><ele>106.0</ele><time>2026-04-17T23:19:46.977Z</time></trkpt><trkpt lat="-36.7243211" lon="174.3936357"><ele>106.00000000000001</ele><time>2026-04-17T23:19:48.978Z</time></trkpt><trkpt lat="-36.7242769" lon="174.3935695"><ele>106.0</ele><time>2026-04-17T23:19:49.978Z</time></trkpt><trkpt lat="-36.724218" lon="174.3935042"><ele>104.8</ele><time>2026-04-17T23:19:50.977Z</time></trkpt><trkpt lat="-36.7241196" lon="174.393454"><ele>103.6</ele><time>2026-04-17T23:19:52.977Z</time></trkpt><trkpt lat="-36.7240171" lon="174.3935148"><ele>102.4</ele><time>2026-04-17T23:19:54.978Z</time></trkpt><trkpt lat="-36.7239236" lon="174.3935615"><ele>101.2</ele><time>2026-04-17T23:19:56.978Z</time></trkpt><trkpt lat="-36.7238598" lon="174.3935829"><ele>100.0</ele><time>2026-04-17T23:19:57.978Z</time></trkpt><trkpt lat="-36.7237799" lon="174.3935443"><ele>100.00000000000001</ele><time>2026-04-17T23:19:59.977Z</time></trkpt><trkpt lat="-36.7237049" lon="174.393486"><ele>100.0</ele><time>2026-04-17T23:20:01.978Z</time></trkpt><trkpt lat="-36.7236239" lon="174.3934683"><ele>100.0</ele><time>2026-04-17T23:20:03.977Z</time></trkpt><trkpt lat="-36.723554" lon="174.3935474"><ele>100.0</ele><time>2026-04-17T23:20:06.978Z</time></trkpt><trkpt lat="-36.7235107" lon="174.3936049"><ele>100.00000000000001</ele><time>2026-04-17T23:20:08.978Z</time></trkpt><trkpt lat="-36.7234491" lon="174.3936845"><ele>100.0</ele><time>2026-04-17T23:20:11.977Z</time></trkpt><trkpt lat="-36.7233932" lon="174.3936358"><ele>100.00000000000001</ele><time>2026-04-17T23:20:15.978Z</time></trkpt><trkpt lat="-36.7234461" lon="174.3935467"><ele>100.0</ele><time>2026-04-17T23:20:18.978Z</time></trkpt><trkpt lat="-36.7234923" lon="174.3934815"><ele>100.0</ele><time>2026-04-17T23:20:20.977Z</time></trkpt><trkpt lat="-36.7235276" lon="174.3934147"><ele>100.0</ele><time>2026-04-17T23:20:22.978Z</time></trkpt><trkpt lat="-36.7235643" lon="174.39335"><ele>100.0</ele><time>2026-04-17T23:20:24.978Z</time></trkpt><trkpt lat="-36.7235807" lon="174.3932454"><ele>100.00000000000001</ele><time>2026-04-17T23:20:27.977Z</time></trkpt><trkpt lat="-36.7235734" lon="174.3931568"><ele>100.0</ele><time>2026-04-17T23:20:30.977Z</time></trkpt><trkpt lat="-36.7236066" lon="174.3930656"><ele>101.14285714285715</ele><time>2026-04-17T23:20:33.979Z</time></trkpt><trkpt lat="-36.7236547" lon="174.3930037"><ele>102.28571428571429</ele><time>2026-04-17T23:20:36.978Z</time></trkpt><trkpt lat="-36.7236936" lon="174.3929256"><ele>103.42857142857143</ele><time>2026-04-17T23:20:38.978Z</time></trkpt><trkpt lat="-36.7237249" lon="174.3928497"><ele>104.57142857142858</ele><time>2026-04-17T23:20:40.977Z</time></trkpt><trkpt lat="-36.7237883" lon="174.3927959"><ele>105.71428571428571</ele><time>2026-04-17T23:20:43.977Z</time></trkpt><trkpt lat="-36.7238301" lon="174.3927331"><ele>106.85714285714286</ele><time>2026-04-17T23:20:46.977Z</time></trkpt><trkpt lat="-36.7237661" lon="174.3926931"><ele>108.0</ele><time>2026-04-17T23:20:53.978Z</time></trkpt><trkpt lat="-36.7238358" lon="174.392636"><ele>108.0</ele><time>2026-04-17T23:20:58.978Z</time></trkpt><trkpt lat="-36.7238139" lon="174.3925587"><ele>108.0</ele><time>2026-04-17T23:21:03.977Z</time></trkpt><trkpt lat="-36.7237545" lon="174.3925229"><ele>108.0</ele><time>2026-04-17T23:21:07.978Z</time></trkpt><trkpt lat="-36.7238092" lon="174.3924551"><ele>108.0</ele><time>2026-04-17T23:21:11.977Z</time></trkpt><trkpt lat="-36.723845" lon="174.3923689"><ele>108.0</ele><time>2026-04-17T23:21:14.978Z</time></trkpt><trkpt lat="-36.7238764" lon="174.3922766"><ele>108.0</ele><time>2026-04-17T23:21:17.977Z</time></trkpt><trkpt lat="-36.7239106" lon="174.3921917"><ele>108.0</ele><time>2026-04-17T23:21:20.977Z</time></trkpt><trkpt lat="-36.7239747" lon="174.3921214"><ele>109.42857142857143</ele><time>2026-04-17T23:21:23.977Z</time></trkpt><trkpt lat="-36.7240013" lon="174.3920319"><ele>110.85714285714286</ele><time>2026-04-17T23:21:27.978Z</time></trkpt><trkpt lat="-36.7239433" lon="174.3919996"><ele>112.28571428571428</ele><time>2026-04-17T23:21:32.978Z</time></trkpt><trkpt lat="-36.7238648" lon="174.3919796"><ele>113.71428571428572</ele><time>2026-04-17T23:21:36.978Z</time></trkpt><trkpt lat="-36.7238144" lon="174.3918944"><ele>115.14285714285715</ele><time>2026-04-17T23:21:39.977Z</time></trkpt><trkpt lat="-36.7237666" lon="174.3918389"><ele>116.57142857142857</ele><time>2026-04-17T23:21:42.978Z</time></trkpt><trkpt lat="-36.7237577" lon="174.3917595"><ele>118.0</ele><time>2026-04-17T23:21:45.978Z</time></trkpt><trkpt lat="-36.7237983" lon="174.3916871"><ele>118.0</ele><time>2026-04-17T23:21:48.978Z</time></trkpt><trkpt lat="-36.7237883" lon="174.3916058"><ele>118.0</ele><time>2026-04-17T23:21:51.978Z</time></trkpt><trkpt lat="-36.7237973" lon="174.3915116"><ele>118.0</ele><time>2026-04-17T23:21:55.976Z</time></trkpt><trkpt lat="-36.7238183" lon="174.3914335"><ele>118.0</ele><time>2026-04-17T23:21:58.978Z</time></trkpt><trkpt lat="-36.7238541" lon="174.3913522"><ele>118.0</ele><time>2026-04-17T23:22:02.978Z</time></trkpt><trkpt lat="-36.7239124" lon="174.3912928"><ele>118.0</ele><time>2026-04-17T23:22:05.979Z</time></trkpt><trkpt lat="-36.7239777" lon="174.3912398"><ele>118.0</ele><time>2026-04-17T23:22:09.977Z</time></trkpt><trkpt lat="-36.7240539" lon="174.3912309"><ele>117.66666666666667</ele><time>2026-04-17T23:22:13.977Z</time></trkpt><trkpt lat="-36.7241268" lon="174.3912098"><ele>117.33333333333334</ele><time>2026-04-17T23:22:16.978Z</time></trkpt><trkpt lat="-36.7242153" lon="174.3911745"><ele>117.0</ele><time>2026-04-17T23:22:18.978Z</time></trkpt><trkpt lat="-36.7242723" lon="174.3911389"><ele>116.66666666666666</ele><time>2026-04-17T23:22:20.976Z</time></trkpt><trkpt lat="-36.7243252" lon="174.3910723"><ele>116.33333333333333</ele><time>2026-04-17T23:22:23.977Z</time></trkpt><trkpt lat="-36.7243771" lon="174.3910113"><ele>116.0</ele><time>2026-04-17T23:22:26.977Z</time></trkpt><trkpt lat="-36.7244464" lon="174.3909355"><ele>115.99999999999999</ele><time>2026-04-17T23:22:29.978Z</time></trkpt><trkpt lat="-36.7245376" lon="174.3908204"><ele>116.0</ele><time>2026-04-17T23:22:31.977Z</time></trkpt><trkpt lat="-36.7245997" lon="174.3907464"><ele>116.0</ele><time>2026-04-17T23:22:33.978Z</time></trkpt><trkpt lat="-36.724662" lon="174.3907213"><ele>116.0</ele><time>2026-04-17T23:22:35.979Z</time></trkpt><trkpt lat="-36.7247393" lon="174.3906777"><ele>115.99999999999999</ele><time>2026-04-17T23:22:38.977Z</time></trkpt><trkpt lat="-36.7248159" lon="174.3907187"><ele>116.0</ele><time>2026-04-17T23:22:41.977Z</time></trkpt><trkpt lat="-36.7248362" lon="174.3908028"><ele>116.00000000000001</ele><time>2026-04-17T23:22:44.977Z</time></trkpt><trkpt lat="-36.7248103" lon="174.390906"><ele>116.0</ele><time>2026-04-17T23:22:47.978Z</time></trkpt><trkpt lat="-36.7247698" lon="174.3909757"><ele>116.00000000000001</ele><time>2026-04-17T23:22:49.977Z</time></trkpt><trkpt lat="-36.7247031" lon="174.3910116"><ele>116.00000000000001</ele><time>2026-04-17T23:22:51.977Z</time></trkpt><trkpt lat="-36.7246373" lon="174.391025"><ele>116.0</ele><time>2026-04-17T23:22:53.977Z</time></trkpt><trkpt lat="-36.7245653" lon="174.3910511"><ele>116.00000000000001</ele><time>2026-04-17T23:22:55.978Z</time></trkpt><trkpt lat="-36.7245041" lon="174.3910835"><ele>116.00000000000001</ele><time>2026-04-17T23:22:57.977Z</time></trkpt><trkpt lat="-36.7244599" lon="174.3911628"><ele>115.99999999999999</ele><time>2026-04-17T23:23:00.977Z</time></trkpt><trkpt lat="-36.7243988" lon="174.3912058"><ele>116.0</ele><time>2026-04-17T23:23:03.978Z</time></trkpt><trkpt lat="-36.724333" lon="174.3912295"><ele>116.0</ele><time>2026-04-17T23:23:05.978Z</time></trkpt><trkpt lat="-36.724278" lon="174.3913247"><ele>116.0</ele><time>2026-04-17T23:23:08.977Z</time></trkpt><trkpt lat="-36.7242757" lon="174.3914288"><ele>115.99999999999999</ele><time>2026-04-17T23:23:10.977Z</time></trkpt><trkpt lat="-36.7243102" lon="174.3915526"><ele>116.0</ele><time>2026-04-17T23:23:12.977Z</time></trkpt><trkpt lat="-36.7243623" lon="174.3916226"><ele>116.33333333333333</ele><time>2026-04-17T23:23:14.978Z</time></trkpt><trkpt lat="-36.7243359" lon="174.3917401"><ele>116.66666666666666</ele><time>2026-04-17T23:23:16.977Z</time></trkpt><trkpt lat="-36.7242937" lon="174.3918296"><ele>117.0</ele><time>2026-04-17T23:23:18.978Z</time></trkpt><trkpt lat="-36.7242276" lon="174.3919129"><ele>117.33333333333334</ele><time>2026-04-17T23:23:20.977Z</time></trkpt><trkpt lat="-36.7241703" lon="174.3919826"><ele>117.66666666666667</ele><time>2026-04-17T23:23:22.978Z</time></trkpt><trkpt lat="-36.7241387" lon="174.3920691"><ele>118.0</ele><time>2026-04-17T23:23:24.976Z</time></trkpt><trkpt lat="-36.724183" lon="174.3921344"><ele>118.00000000000001</ele><time>2026-04-17T23:23:27.977Z</time></trkpt><trkpt lat="-36.7242399" lon="174.3920824"><ele>118.0</ele><time>2026-04-17T23:23:29.978Z</time></trkpt><trkpt lat="-36.7242824" lon="174.3919777"><ele>118.0</ele><time>2026-04-17T23:23:32.977Z</time></trkpt><trkpt lat="-36.7243291" lon="174.3919174"><ele>118.0</ele><time>2026-04-17T23:23:34.977Z</time></trkpt><trkpt lat="-36.7243842" lon="174.3918444"><ele>118.00000000000001</ele><time>2026-04-17T23:23:36.978Z</time></trkpt><trkpt lat="-36.7244766" lon="174.3917504"><ele>118.0</ele><time>2026-04-17T23:23:38.977Z</time></trkpt><trkpt lat="-36.7245429" lon="174.3916563"><ele>117.66666666666667</ele><time>2026-04-17T23:23:40.978Z</time></trkpt><trkpt lat="-36.7245891" lon="174.3915796"><ele>117.33333333333334</ele><time>2026-04-17T23:23:42.979Z</time></trkpt><trkpt lat="-36.7246167" lon="174.3914741"><ele>117.0</ele><time>2026-04-17T23:23:45.977Z</time></trkpt><trkpt lat="-36.7246587" lon="174.3913992"><ele>116.66666666666666</ele><time>2026-04-17T23:23:48.977Z</time></trkpt><trkpt lat="-36.7247156" lon="174.3913393"><ele>116.33333333333333</ele><time>2026-04-17T23:23:50.977Z</time></trkpt><trkpt lat="-36.724801" lon="174.3912873"><ele>116.0</ele><time>2026-04-17T23:23:53.977Z</time></trkpt><trkpt lat="-36.72485" lon="174.3912328"><ele>115.99999999999999</ele><time>2026-04-17T23:23:55.978Z</time></trkpt><trkpt lat="-36.724901" lon="174.3911663"><ele>116.0</ele><time>2026-04-17T23:23:57.978Z</time></trkpt><trkpt lat="-36.7249824" lon="174.3911758"><ele>116.0</ele><time>2026-04-17T23:24:01.978Z</time></trkpt><trkpt lat="-36.7250745" lon="174.3911669"><ele>116.0</ele><time>2026-04-17T23:24:03.978Z</time></trkpt><trkpt lat="-36.7251388" lon="174.3911115"><ele>115.99999999999999</ele><time>2026-04-17T23:24:04.977Z</time></trkpt><trkpt lat="-36.7252017" lon="174.3910461"><ele>116.0</ele><time>2026-04-17T23:24:05.977Z</time></trkpt><trkpt lat="-36.7252923" lon="174.390966"><ele>112.4</ele><time>2026-04-17T23:24:07.978Z</time></trkpt><trkpt lat="-36.7254015" lon="174.3909802"><ele>108.8</ele><time>2026-04-17T23:24:09.977Z</time></trkpt><trkpt lat="-36.7254787" lon="174.3910109"><ele>105.2</ele><time>2026-04-17T23:24:11.978Z</time></trkpt><trkpt lat="-36.7255493" lon="174.3910831"><ele>101.60000000000001</ele><time>2026-04-17T23:24:14.978Z</time></trkpt><trkpt lat="-36.7255739" lon="174.3911776"><ele>98.0</ele><time>2026-04-17T23:24:17.977Z</time></trkpt><trkpt lat="-36.7255289" lon="174.3912739"><ele>98.4</ele><time>2026-04-17T23:24:20.978Z</time></trkpt><trkpt lat="-36.7254839" lon="174.3913591"><ele>98.80000000000001</ele><time>2026-04-17T23:24:23.978Z</time></trkpt><trkpt lat="-36.72544" lon="174.3914566"><ele>99.2</ele><time>2026-04-17T23:24:26.977Z</time></trkpt><trkpt lat="-36.7253488" lon="174.3915165"><ele>99.6</ele><time>2026-04-17T23:24:28.977Z</time></trkpt><trkpt lat="-36.7252799" lon="174.3915706"><ele>100.0</ele><time>2026-04-17T23:24:29.977Z</time></trkpt><trkpt lat="-36.725173" lon="174.3916595"><ele>100.8</ele><time>2026-04-17T23:24:31.977Z</time></trkpt><trkpt lat="-36.7251667" lon="174.3917712"><ele>101.6</ele><time>2026-04-17T23:24:33.976Z</time></trkpt><trkpt lat="-36.7251596" lon="174.3919347"><ele>102.4</ele><time>2026-04-17T23:24:35.976Z</time></trkpt><trkpt lat="-36.7251706" lon="174.3920304"><ele>103.2</ele><time>2026-04-17T23:24:36.977Z</time></trkpt><trkpt lat="-36.725183" lon="174.3921106"><ele>104.0</ele><time>2026-04-17T23:24:37.977Z</time></trkpt><trkpt lat="-36.72518" lon="174.3922281"><ele>103.99999999999999</ele><time>2026-04-17T23:24:39.977Z</time></trkpt><trkpt lat="-36.7251423" lon="174.3923235"><ele>104.0</ele><time>2026-04-17T23:24:41.978Z</time></trkpt><trkpt lat="-36.7251064" lon="174.3924143"><ele>104.0</ele><time>2026-04-17T23:24:44.978Z</time></trkpt><trkpt lat="-36.7250885" lon="174.3924921"><ele>104.0</ele><time>2026-04-17T23:24:46.977Z</time></trkpt><trkpt lat="-36.7250496" lon="174.3925661"><ele>103.99999999999999</ele><time>2026-04-17T23:24:49.978Z</time></trkpt><trkpt lat="-36.7249859" lon="174.3926137"><ele>104.0</ele><time>2026-04-17T23:24:51.978Z</time></trkpt><trkpt lat="-36.724831" lon="174.3926636"><ele>103.99999999999999</ele><time>2026-04-17T23:24:53.977Z</time></trkpt><trkpt lat="-36.7247497" lon="174.3927093"><ele>104.0</ele><time>2026-04-17T23:24:55.977Z</time></trkpt><trkpt lat="-36.7246847" lon="174.3927299"><ele>104.0</ele><time>2026-04-17T23:24:57.978Z</time></trkpt><trkpt lat="-36.7246557" lon="174.3928026"><ele>104.0</ele><time>2026-04-17T23:25:00.978Z</time></trkpt><trkpt lat="-36.7247189" lon="174.3928675"><ele>103.99999999999999</ele><time>2026-04-17T23:25:04.977Z</time></trkpt><trkpt lat="-36.7248019" lon="174.3928643"><ele>104.0</ele><time>2026-04-17T23:25:07.978Z</time></trkpt><trkpt lat="-36.7248912" lon="174.3928275"><ele>104.0</ele><time>2026-04-17T23:25:10.977Z</time></trkpt><trkpt lat="-36.7249498" lon="174.3927869"><ele>104.0</ele><time>2026-04-17T23:25:12.979Z</time></trkpt><trkpt lat="-36.7250144" lon="174.3927587"><ele>104.0</ele><time>2026-04-17T23:25:14.977Z</time></trkpt><trkpt lat="-36.7250814" lon="174.3927404"><ele>104.0</ele><time>2026-04-17T23:25:16.978Z</time></trkpt><trkpt lat="-36.7251521" lon="174.3927201"><ele>104.0</ele><time>2026-04-17T23:25:18.978Z</time></trkpt><trkpt lat="-36.7252268" lon="174.3927092"><ele>104.0</ele><time>2026-04-17T23:25:21.977Z</time></trkpt><trkpt lat="-36.7252942" lon="174.3927416"><ele>104.0</ele><time>2026-04-17T23:25:24.978Z</time></trkpt><trkpt lat="-36.7253408" lon="174.392796"><ele>103.83333333333333</ele><time>2026-04-17T23:25:26.978Z</time></trkpt><trkpt lat="-36.7253921" lon="174.3928536"><ele>103.66666666666666</ele><time>2026-04-17T23:25:28.977Z</time></trkpt><trkpt lat="-36.7254568" lon="174.392907"><ele>103.5</ele><time>2026-04-17T23:25:31.976Z</time></trkpt><trkpt lat="-36.7255051" lon="174.3930102"><ele>103.33333333333334</ele><time>2026-04-17T23:25:34.978Z</time></trkpt><trkpt lat="-36.7255288" lon="174.3931008"><ele>103.16666666666667</ele><time>2026-04-17T23:25:37.977Z</time></trkpt><trkpt lat="-36.7255921" lon="174.3931118"><ele>103.0</ele><time>2026-04-17T23:26:02.977Z</time></trkpt><trkpt lat="-36.7256456" lon="174.3930058"><ele>102.4</ele><time>2026-04-17T23:26:07.978Z</time></trkpt><trkpt lat="-36.725687" lon="174.3928876"><ele>101.80000000000001</ele><time>2026-04-17T23:26:09.977Z</time></trkpt><trkpt lat="-36.7256973" lon="174.3927654"><ele>101.2</ele><time>2026-04-17T23:26:11.976Z</time></trkpt><trkpt lat="-36.7257347" lon="174.3926728"><ele>100.6</ele><time>2026-04-17T23:26:13.978Z</time></trkpt><trkpt lat="-36.7257947" lon="174.3925656"><ele>100.0</ele><time>2026-04-17T23:26:15.977Z</time></trkpt><trkpt lat="-36.7257825" lon="174.3924674"><ele>100.0</ele><time>2026-04-17T23:26:18.977Z</time></trkpt><trkpt lat="-36.7257862" lon="174.392374"><ele>100.0</ele><time>2026-04-17T23:26:21.977Z</time></trkpt><trkpt lat="-36.725842" lon="174.3922648"><ele>100.0</ele><time>2026-04-17T23:26:24.979Z</time></trkpt><trkpt lat="-36.7259163" lon="174.3921801"><ele>100.0</ele><time>2026-04-17T23:26:26.977Z</time></trkpt><trkpt lat="-36.7259898" lon="174.3921014"><ele>100.0</ele><time>2026-04-17T23:26:28.976Z</time></trkpt><trkpt lat="-36.7260511" lon="174.3920252"><ele>97.16666666666667</ele><time>2026-04-17T23:26:30.977Z</time></trkpt><trkpt lat="-36.7261091" lon="174.3919665"><ele>94.33333333333334</ele><time>2026-04-17T23:26:32.977Z</time></trkpt><trkpt lat="-36.726176" lon="174.391906"><ele>91.5</ele><time>2026-04-17T23:26:34.976Z</time></trkpt><trkpt lat="-36.7262368" lon="174.391839"><ele>88.66666666666667</ele><time>2026-04-17T23:26:36.977Z</time></trkpt><trkpt lat="-36.7262705" lon="174.3917463"><ele>85.83333333333334</ele><time>2026-04-17T23:26:38.977Z</time></trkpt><trkpt lat="-36.7262896" lon="174.3916506"><ele>83.0</ele><time>2026-04-17T23:26:40.977Z</time></trkpt><trkpt lat="-36.7262961" lon="174.3915473"><ele>83.0</ele><time>2026-04-17T23:26:44.976Z</time></trkpt><trkpt lat="-36.7263299" lon="174.3914765"><ele>83.0</ele><time>2026-04-17T23:26:46.976Z</time></trkpt><trkpt lat="-36.7263528" lon="174.3913646"><ele>83.0</ele><time>2026-04-17T23:26:49.978Z</time></trkpt><trkpt lat="-36.726341" lon="174.3912679"><ele>83.0</ele><time>2026-04-17T23:26:51.979Z</time></trkpt><trkpt lat="-36.7263551" lon="174.3911638"><ele>83.0</ele><time>2026-04-17T23:26:53.978Z</time></trkpt><trkpt lat="-36.7263566" lon="174.3910726"><ele>83.0</ele><time>2026-04-17T23:26:55.978Z</time></trkpt><trkpt lat="-36.726308" lon="174.3910157"><ele>81.83333333333334</ele><time>2026-04-17T23:26:57.979Z</time></trkpt><trkpt lat="-36.7262556" lon="174.3909707"><ele>80.66666666666667</ele><time>2026-04-17T23:26:59.978Z</time></trkpt><trkpt lat="-36.7262323" lon="174.3908958"><ele>79.5</ele><time>2026-04-17T23:27:01.977Z</time></trkpt><trkpt lat="-36.7262355" lon="174.3907569"><ele>78.33333333333333</ele><time>2026-04-17T23:27:03.979Z</time></trkpt><trkpt lat="-36.7262351" lon="174.3906539"><ele>77.16666666666666</ele><time>2026-04-17T23:27:05.979Z</time></trkpt><trkpt lat="-36.7262795" lon="174.390578"><ele>76.0</ele><time>2026-04-17T23:27:07.979Z</time></trkpt><trkpt lat="-36.7263521" lon="174.3905344"><ele>76.0</ele><time>2026-04-17T23:27:10.976Z</time></trkpt><trkpt lat="-36.7264578" lon="174.3905358"><ele>76.0</ele><time>2026-04-17T23:27:12.978Z</time></trkpt><trkpt lat="-36.7265501" lon="174.3905477"><ele>76.0</ele><time>2026-04-17T23:27:14.977Z</time></trkpt><trkpt lat="-36.7266383" lon="174.390534"><ele>76.0</ele><time>2026-04-17T23:27:16.977Z</time></trkpt><trkpt lat="-36.7267286" lon="174.3904833"><ele>76.0</ele><time>2026-04-17T23:27:18.977Z</time></trkpt><trkpt lat="-36.7268168" lon="174.3904391"><ele>70.2</ele><time>2026-04-17T23:27:20.978Z</time></trkpt><trkpt lat="-36.7269218" lon="174.3903977"><ele>64.39999999999999</ele><time>2026-04-17T23:27:22.976Z</time></trkpt><trkpt lat="-36.7269841" lon="174.3903713"><ele>58.6</ele><time>2026-04-17T23:27:23.978Z</time></trkpt><trkpt lat="-36.7270645" lon="174.3903684"><ele>52.8</ele><time>2026-04-17T23:27:25.977Z</time></trkpt><trkpt lat="-36.7271648" lon="174.3904146"><ele>47.0</ele><time>2026-04-17T23:27:27.977Z</time></trkpt><trkpt lat="-36.7272517" lon="174.3904632"><ele>47.0</ele><time>2026-04-17T23:27:29.976Z</time></trkpt><trkpt lat="-36.7273757" lon="174.3904258"><ele>47.0</ele><time>2026-04-17T23:27:32.978Z</time></trkpt><trkpt lat="-36.7274806" lon="174.3904023"><ele>47.0</ele><time>2026-04-17T23:27:34.977Z</time></trkpt><trkpt lat="-36.7275682" lon="174.3903441"><ele>47.0</ele><time>2026-04-17T23:27:36.978Z</time></trkpt><trkpt lat="-36.7276545" lon="174.3903123"><ele>47.0</ele><time>2026-04-17T23:27:38.977Z</time></trkpt><trkpt lat="-36.7277268" lon="174.3902738"><ele>45.6</ele><time>2026-04-17T23:27:40.977Z</time></trkpt><trkpt lat="-36.7278" lon="174.3902216"><ele>44.2</ele><time>2026-04-17T23:27:42.977Z</time></trkpt><trkpt lat="-36.7278815" lon="174.3901676"><ele>42.8</ele><time>2026-04-17T23:27:44.977Z</time></trkpt><trkpt lat="-36.7279529" lon="174.39011"><ele>41.4</ele><time>2026-04-17T23:27:46.977Z</time></trkpt><trkpt lat="-36.728048" lon="174.3900461"><ele>40.0</ele><time>2026-04-17T23:27:48.978Z</time></trkpt><trkpt lat="-36.7281115" lon="174.3899608"><ele>40.0</ele><time>2026-04-17T23:27:50.977Z</time></trkpt><trkpt lat="-36.7281202" lon="174.389849"><ele>40.0</ele><time>2026-04-17T23:27:52.977Z</time></trkpt><trkpt lat="-36.7281056" lon="174.3897141"><ele>40.0</ele><time>2026-04-17T23:27:54.977Z</time></trkpt><trkpt lat="-36.7280573" lon="174.3896176"><ele>40.0</ele><time>2026-04-17T23:27:56.978Z</time></trkpt><trkpt lat="-36.7280214" lon="174.3895428"><ele>40.0</ele><time>2026-04-17T23:27:58.978Z</time></trkpt><trkpt lat="-36.7279461" lon="174.389447"><ele>37.6</ele><time>2026-04-17T23:28:01.978Z</time></trkpt><trkpt lat="-36.7278983" lon="174.3893392"><ele>35.2</ele><time>2026-04-17T23:28:03.977Z</time></trkpt><trkpt lat="-36.7278402" lon="174.3892342"><ele>32.8</ele><time>2026-04-17T23:28:05.977Z</time></trkpt><trkpt lat="-36.7278667" lon="174.3891504"><ele>30.4</ele><time>2026-04-17T23:28:07.976Z</time></trkpt><trkpt lat="-36.7279509" lon="174.3890735"><ele>28.0</ele><time>2026-04-17T23:28:09.978Z</time></trkpt><trkpt lat="-36.7280369" lon="174.3890112"><ele>28.000000000000004</ele><time>2026-04-17T23:28:11.976Z</time></trkpt><trkpt lat="-36.7281238" lon="174.3889819"><ele>28.0</ele><time>2026-04-17T23:28:13.976Z</time></trkpt><trkpt lat="-36.7281993" lon="174.3889708"><ele>28.0</ele><time>2026-04-17T23:28:15.978Z</time></trkpt><trkpt lat="-36.7282925" lon="174.3889232"><ele>28.0</ele><time>2026-04-17T23:28:17.976Z</time></trkpt><trkpt lat="-36.7283518" lon="174.3888684"><ele>28.000000000000004</ele><time>2026-04-17T23:28:18.976Z</time></trkpt><trkpt lat="-36.7284016" lon="174.3888075"><ele>28.0</ele><time>2026-04-17T23:28:19.976Z</time></trkpt><trkpt lat="-36.7284476" lon="174.3887459"><ele>27.166666666666668</ele><time>2026-04-17T23:28:20.976Z</time></trkpt><trkpt lat="-36.7284963" lon="174.3886888"><ele>26.333333333333336</ele><time>2026-04-17T23:28:21.976Z</time></trkpt><trkpt lat="-36.7285957" lon="174.3886631"><ele>25.5</ele><time>2026-04-17T23:28:22.977Z</time></trkpt><trkpt lat="-36.7287031" lon="174.3886415"><ele>24.666666666666668</ele><time>2026-04-17T23:28:24.978Z</time></trkpt><trkpt lat="-36.7287638" lon="174.3887003"><ele>23.833333333333336</ele><time>2026-04-17T23:28:26.978Z</time></trkpt><trkpt lat="-36.7288458" lon="174.3887494"><ele>23.0</ele><time>2026-04-17T23:28:29.978Z</time></trkpt><trkpt lat="-36.7289347" lon="174.3887314"><ele>22.666666666666668</ele><time>2026-04-17T23:28:32.977Z</time></trkpt><trkpt lat="-36.7290186" lon="174.3887586"><ele>22.333333333333336</ele><time>2026-04-17T23:28:35.977Z</time></trkpt><trkpt lat="-36.7290475" lon="174.3888336"><ele>22.0</ele><time>2026-04-17T23:28:37.977Z</time></trkpt><trkpt lat="-36.7291315" lon="174.388835"><ele>21.666666666666668</ele><time>2026-04-17T23:28:40.977Z</time></trkpt><trkpt lat="-36.729167" lon="174.3887665"><ele>21.333333333333332</ele><time>2026-04-17T23:28:42.977Z</time></trkpt><trkpt lat="-36.7292563" lon="174.3887184"><ele>21.0</ele><time>2026-04-17T23:28:45.977Z</time></trkpt><trkpt lat="-36.7293354" lon="174.3887011"><ele>21.5</ele><time>2026-04-17T23:28:47.977Z</time></trkpt><trkpt lat="-36.729413" lon="174.3886729"><ele>22.0</ele><time>2026-04-17T23:28:49.977Z</time></trkpt><trkpt lat="-36.7294981" lon="174.3886625"><ele>22.5</ele><time>2026-04-17T23:28:51.977Z</time></trkpt><trkpt lat="-36.7295749" lon="174.3886866"><ele>23.0</ele><time>2026-04-17T23:28:53.976Z</time></trkpt><trkpt lat="-36.7296481" lon="174.3887001"><ele>23.5</ele><time>2026-04-17T23:28:55.976Z</time></trkpt><trkpt lat="-36.7297107" lon="174.3886792"><ele>24.0</ele><time>2026-04-17T23:28:57.977Z</time></trkpt><trkpt lat="-36.7297765" lon="174.3887024"><ele>24.0</ele><time>2026-04-17T23:29:00.977Z</time></trkpt><trkpt lat="-36.7298319" lon="174.3887416"><ele>24.0</ele><time>2026-04-17T23:29:02.976Z</time></trkpt><trkpt lat="-36.7298929" lon="174.3887779"><ele>24.0</ele><time>2026-04-17T23:29:04.977Z</time></trkpt><trkpt lat="-36.7299589" lon="174.3888165"><ele>24.0</ele><time>2026-04-17T23:29:06.978Z</time></trkpt><trkpt lat="-36.7300302" lon="174.3888577"><ele>24.0</ele><time>2026-04-17T23:29:08.978Z</time></trkpt><trkpt lat="-36.7301121" lon="174.3889106"><ele>24.0</ele><time>2026-04-17T23:29:10.977Z</time></trkpt><trkpt lat="-36.7302046" lon="174.3889707"><ele>24.2</ele><time>2026-04-17T23:29:12.978Z</time></trkpt><trkpt lat="-36.7303088" lon="174.3890201"><ele>24.4</ele><time>2026-04-17T23:29:14.978Z</time></trkpt><trkpt lat="-36.7303672" lon="174.3890502"><ele>24.6</ele><time>2026-04-17T23:29:15.977Z</time></trkpt><trkpt lat="-36.7304623" lon="174.3890988"><ele>24.8</ele><time>2026-04-17T23:29:17.977Z</time></trkpt><trkpt lat="-36.7305169" lon="174.3891756"><ele>25.0</ele><time>2026-04-17T23:29:19.976Z</time></trkpt><trkpt lat="-36.7305888" lon="174.3892438"><ele>25.000000000000004</ele><time>2026-04-17T23:29:22.978Z</time></trkpt><trkpt lat="-36.7306599" lon="174.3892226"><ele>25.0</ele><time>2026-04-17T23:29:24.978Z</time></trkpt><trkpt lat="-36.7307427" lon="174.3892321"><ele>25.0</ele><time>2026-04-17T23:29:26.976Z</time></trkpt><trkpt lat="-36.7308223" lon="174.3892761"><ele>25.0</ele><time>2026-04-17T23:29:28.978Z</time></trkpt><trkpt lat="-36.7309095" lon="174.3893378"><ele>25.000000000000004</ele><time>2026-04-17T23:29:30.976Z</time></trkpt><trkpt lat="-36.7309787" lon="174.3893846"><ele>25.0</ele><time>2026-04-17T23:29:32.977Z</time></trkpt><trkpt lat="-36.7310524" lon="174.3894196"><ele>25.166666666666668</ele><time>2026-04-17T23:29:34.977Z</time></trkpt><trkpt lat="-36.7311354" lon="174.3894804"><ele>25.333333333333336</ele><time>2026-04-17T23:29:36.977Z</time></trkpt><trkpt lat="-36.7312137" lon="174.3895176"><ele>25.5</ele><time>2026-04-17T23:29:38.977Z</time></trkpt><trkpt lat="-36.7312775" lon="174.3895406"><ele>25.666666666666664</ele><time>2026-04-17T23:29:40.978Z</time></trkpt><trkpt lat="-36.7313487" lon="174.3895821"><ele>25.833333333333332</ele><time>2026-04-17T23:29:42.977Z</time></trkpt><trkpt lat="-36.7314255" lon="174.3896334"><ele>26.0</ele><time>2026-04-17T23:29:44.977Z</time></trkpt><trkpt lat="-36.7314929" lon="174.389677"><ele>25.833333333333332</ele><time>2026-04-17T23:29:46.977Z</time></trkpt><trkpt lat="-36.7315568" lon="174.3897209"><ele>25.666666666666664</ele><time>2026-04-17T23:29:48.977Z</time></trkpt><trkpt lat="-36.7316247" lon="174.3897794"><ele>25.5</ele><time>2026-04-17T23:29:50.977Z</time></trkpt><trkpt lat="-36.7317101" lon="174.3898352"><ele>25.333333333333336</ele><time>2026-04-17T23:29:52.976Z</time></trkpt><trkpt lat="-36.7317925" lon="174.3898804"><ele>25.166666666666668</ele><time>2026-04-17T23:29:54.977Z</time></trkpt><trkpt lat="-36.7318634" lon="174.3899321"><ele>25.0</ele><time>2026-04-17T23:29:56.977Z</time></trkpt><trkpt lat="-36.7319215" lon="174.3899912"><ele>25.000000000000004</ele><time>2026-04-17T23:29:58.978Z</time></trkpt><trkpt lat="-36.7319982" lon="174.3900618"><ele>25.0</ele><time>2026-04-17T23:30:00.977Z</time></trkpt><trkpt lat="-36.7320654" lon="174.3901255"><ele>25.0</ele><time>2026-04-17T23:30:02.976Z</time></trkpt><trkpt lat="-36.7321242" lon="174.3901711"><ele>25.0</ele><time>2026-04-17T23:30:04.976Z</time></trkpt><trkpt lat="-36.732192" lon="174.3902227"><ele>25.000000000000004</ele><time>2026-04-17T23:30:06.976Z</time></trkpt><trkpt lat="-36.7322668" lon="174.390279"><ele>25.0</ele><time>2026-04-17T23:30:08.976Z</time></trkpt><trkpt lat="-36.7323306" lon="174.3903327"><ele>25.000000000000004</ele><time>2026-04-17T23:30:10.978Z</time></trkpt><trkpt lat="-36.7323829" lon="174.3903988"><ele>25.0</ele><time>2026-04-17T23:30:12.976Z</time></trkpt><trkpt lat="-36.7324377" lon="174.3904605"><ele>25.0</ele><time>2026-04-17T23:30:14.978Z</time></trkpt><trkpt lat="-36.7324985" lon="174.3905042"><ele>25.0</ele><time>2026-04-17T23:30:16.977Z</time></trkpt><trkpt lat="-36.7325562" lon="174.3905619"><ele>25.000000000000004</ele><time>2026-04-17T23:30:18.978Z</time></trkpt><trkpt lat="-36.7325825" lon="174.390665"><ele>25.0</ele><time>2026-04-17T23:30:20.977Z</time></trkpt><trkpt lat="-36.7326043" lon="174.3907663"><ele>24.833333333333336</ele><time>2026-04-17T23:30:22.977Z</time></trkpt><trkpt lat="-36.7326435" lon="174.3908452"><ele>24.666666666666668</ele><time>2026-04-17T23:30:25.977Z</time></trkpt><trkpt lat="-36.7327166" lon="174.3908252"><ele>24.5</ele><time>2026-04-17T23:30:28.978Z</time></trkpt><trkpt lat="-36.7327995" lon="174.3908213"><ele>24.333333333333336</ele><time>2026-04-17T23:30:31.978Z</time></trkpt><trkpt lat="-36.7328558" lon="174.3908794"><ele>24.166666666666668</ele><time>2026-04-17T23:30:33.977Z</time></trkpt><trkpt lat="-36.7329295" lon="174.3909181"><ele>24.0</ele><time>2026-04-17T23:30:35.977Z</time></trkpt><trkpt lat="-36.7330137" lon="174.3909811"><ele>23.799999999999997</ele><time>2026-04-17T23:30:37.977Z</time></trkpt><trkpt lat="-36.7330861" lon="174.391065"><ele>23.599999999999998</ele><time>2026-04-17T23:30:39.976Z</time></trkpt><trkpt lat="-36.7331588" lon="174.3911379"><ele>23.4</ele><time>2026-04-17T23:30:41.977Z</time></trkpt><trkpt lat="-36.733232" lon="174.3912081"><ele>23.2</ele><time>2026-04-17T23:30:43.978Z</time></trkpt><trkpt lat="-36.7332835" lon="174.3913065"><ele>23.0</ele><time>2026-04-17T23:30:45.977Z</time></trkpt><trkpt lat="-36.7333343" lon="174.3914056"><ele>23.0</ele><time>2026-04-17T23:30:47.977Z</time></trkpt><trkpt lat="-36.7333889" lon="174.3914782"><ele>23.0</ele><time>2026-04-17T23:30:49.978Z</time></trkpt><trkpt lat="-36.7333929" lon="174.3915595"><ele>23.0</ele><time>2026-04-17T23:30:51.978Z</time></trkpt><trkpt lat="-36.7333919" lon="174.3916527"><ele>23.0</ele><time>2026-04-17T23:30:53.977Z</time></trkpt><trkpt lat="-36.7334085" lon="174.3917525"><ele>23.0</ele><time>2026-04-17T23:30:56.977Z</time></trkpt><trkpt lat="-36.7334652" lon="174.3918103"><ele>23.0</ele><time>2026-04-17T23:30:58.978Z</time></trkpt><trkpt lat="-36.7335273" lon="174.3918679"><ele>23.28571428571429</ele><time>2026-04-17T23:31:00.977Z</time></trkpt><trkpt lat="-36.7335908" lon="174.3919036"><ele>23.57142857142857</ele><time>2026-04-17T23:31:02.977Z</time></trkpt><trkpt lat="-36.7336589" lon="174.39192"><ele>23.857142857142858</ele><time>2026-04-17T23:31:04.977Z</time></trkpt><trkpt lat="-36.7337247" lon="174.3919433"><ele>24.142857142857146</ele><time>2026-04-17T23:31:06.978Z</time></trkpt><trkpt lat="-36.7337904" lon="174.3919663"><ele>24.42857142857143</ele><time>2026-04-17T23:31:08.978Z</time></trkpt><trkpt lat="-36.7338681" lon="174.3919699"><ele>24.714285714285715</ele><time>2026-04-17T23:31:10.977Z</time></trkpt><trkpt lat="-36.7339578" lon="174.3919675"><ele>25.0</ele><time>2026-04-17T23:31:13.976Z</time></trkpt><trkpt lat="-36.7340183" lon="174.3919911"><ele>25.000000000000004</ele><time>2026-04-17T23:31:15.977Z</time></trkpt><trkpt lat="-36.7340804" lon="174.3920397"><ele>25.0</ele><time>2026-04-17T23:31:17.977Z</time></trkpt><trkpt lat="-36.7341473" lon="174.3921027"><ele>25.0</ele><time>2026-04-17T23:31:19.976Z</time></trkpt><trkpt lat="-36.7342032" lon="174.392174"><ele>25.0</ele><time>2026-04-17T23:31:21.978Z</time></trkpt><trkpt lat="-36.7342561" lon="174.3922279"><ele>25.0</ele><time>2026-04-17T23:31:23.977Z</time></trkpt><trkpt lat="-36.7343169" lon="174.3922766"><ele>25.000000000000004</ele><time>2026-04-17T23:31:25.977Z</time></trkpt><trkpt lat="-36.734373" lon="174.392317"><ele>25.0</ele><time>2026-04-17T23:31:27.977Z</time></trkpt><trkpt lat="-36.7344295" lon="174.392365"><ele>25.714285714285715</ele><time>2026-04-17T23:31:30.977Z</time></trkpt><trkpt lat="-36.7344766" lon="174.3924228"><ele>26.42857142857143</ele><time>2026-04-17T23:31:33.977Z</time></trkpt><trkpt lat="-36.7345262" lon="174.3925065"><ele>27.142857142857146</ele><time>2026-04-17T23:31:37.978Z</time></trkpt><trkpt lat="-36.7345702" lon="174.3925685"><ele>27.857142857142858</ele><time>2026-04-17T23:31:40.977Z</time></trkpt><trkpt lat="-36.7346338" lon="174.3926195"><ele>28.57142857142857</ele><time>2026-04-17T23:31:44.977Z</time></trkpt><trkpt lat="-36.7346951" lon="174.3926767"><ele>29.28571428571429</ele><time>2026-04-17T23:31:49.977Z</time></trkpt><trkpt lat="-36.7347494" lon="174.3927234"><ele>30.0</ele><time>2026-04-17T23:31:53.977Z</time></trkpt><trkpt lat="-36.7347944" lon="174.3927795"><ele>30.0</ele><time>2026-04-17T23:31:57.978Z</time></trkpt><trkpt lat="-36.7348282" lon="174.392873"><ele>30.0</ele><time>2026-04-17T23:32:01.977Z</time></trkpt><trkpt lat="-36.7348607" lon="174.3929828"><ele>30.0</ele><time>2026-04-17T23:32:04.976Z</time></trkpt><trkpt lat="-36.7348858" lon="174.3930647"><ele>30.0</ele><time>2026-04-17T23:32:06.976Z</time></trkpt><trkpt lat="-36.7349415" lon="174.3931344"><ele>30.0</ele><time>2026-04-17T23:32:08.977Z</time></trkpt><trkpt lat="-36.7350175" lon="174.3931584"><ele>30.0</ele><time>2026-04-17T23:32:10.976Z</time></trkpt><trkpt lat="-36.735084" lon="174.3931424"><ele>30.333333333333332</ele><time>2026-04-17T23:32:12.977Z</time></trkpt><trkpt lat="-36.7351731" lon="174.3931139"><ele>30.666666666666664</ele><time>2026-04-17T23:32:14.976Z</time></trkpt><trkpt lat="-36.7352515" lon="174.3930922"><ele>31.0</ele><time>2026-04-17T23:32:16.976Z</time></trkpt><trkpt lat="-36.7353317" lon="174.3930857"><ele>31.333333333333332</ele><time>2026-04-17T23:32:18.978Z</time></trkpt><trkpt lat="-36.7354032" lon="174.3930844"><ele>31.666666666666664</ele><time>2026-04-17T23:32:19.977Z</time></trkpt><trkpt lat="-36.7355031" lon="174.3930518"><ele>32.0</ele><time>2026-04-17T23:32:21.977Z</time></trkpt><trkpt lat="-36.735565" lon="174.3929834"><ele>31.999999999999996</ele><time>2026-04-17T23:32:23.978Z</time></trkpt><trkpt lat="-36.7356414" lon="174.3929623"><ele>32.0</ele><time>2026-04-17T23:32:25.977Z</time></trkpt><trkpt lat="-36.7357317" lon="174.3929602"><ele>32.0</ele><time>2026-04-17T23:32:27.977Z</time></trkpt><trkpt lat="-36.735828" lon="174.393008"><ele>32.0</ele><time>2026-04-17T23:32:29.976Z</time></trkpt><trkpt lat="-36.7358449" lon="174.3930929"><ele>31.999999999999996</ele><time>2026-04-17T23:32:31.977Z</time></trkpt><trkpt lat="-36.7358397" lon="174.3932027"><ele>32.0</ele><time>2026-04-17T23:32:34.976Z</time></trkpt><trkpt lat="-36.7358209" lon="174.3932872"><ele>31.999999999999996</ele><time>2026-04-17T23:32:36.976Z</time></trkpt><trkpt lat="-36.7357983" lon="174.3933961"><ele>32.0</ele><time>2026-04-17T23:32:39.976Z</time></trkpt><trkpt lat="-36.7357701" lon="174.3934844"><ele>32.0</ele><time>2026-04-17T23:32:42.976Z</time></trkpt><trkpt lat="-36.7357895" lon="174.3935881"><ele>32.0</ele><time>2026-04-17T23:32:45.978Z</time></trkpt><trkpt lat="-36.7357672" lon="174.3936826"><ele>31.999999999999996</ele><time>2026-04-17T23:32:48.977Z</time></trkpt><trkpt lat="-36.735689" lon="174.3936534"><ele>32.0</ele><time>2026-04-17T23:32:51.977Z</time></trkpt><trkpt lat="-36.7356297" lon="174.3936102"><ele>31.999999999999996</ele><time>2026-04-17T23:32:53.977Z</time></trkpt><trkpt lat="-36.7355801" lon="174.3935214"><ele>32.0</ele><time>2026-04-17T23:32:56.976Z</time></trkpt><trkpt lat="-36.7355139" lon="174.3934549"><ele>32.0</ele><time>2026-04-17T23:32:59.978Z</time></trkpt><trkpt lat="-36.735488" lon="174.3935548"><ele>32.0</ele><time>2026-04-17T23:33:03.976Z</time></trkpt><trkpt lat="-36.7355082" lon="174.3936641"><ele>31.999999999999996</ele><time>2026-04-17T23:33:06.976Z</time></trkpt><trkpt lat="-36.7355339" lon="174.393757"><ele>32.0</ele><time>2026-04-17T23:33:08.977Z</time></trkpt><trkpt lat="-36.735539" lon="174.3938556"><ele>32.857142857142854</ele><time>2026-04-17T23:33:10.976Z</time></trkpt><trkpt lat="-36.735512" lon="174.393932"><ele>33.71428571428571</ele><time>2026-04-17T23:33:12.978Z</time></trkpt><trkpt lat="-36.7354791" lon="174.394001"><ele>34.57142857142857</ele><time>2026-04-17T23:33:14.978Z</time></trkpt><trkpt lat="-36.7354616" lon="174.3940869"><ele>35.42857142857143</ele><time>2026-04-17T23:33:16.978Z</time></trkpt><trkpt lat="-36.7355003" lon="174.3941637"><ele>36.28571428571429</ele><time>2026-04-17T23:33:18.977Z</time></trkpt><trkpt lat="-36.7355668" lon="174.3941548"><ele>37.14285714285714</ele><time>2026-04-17T23:33:20.977Z</time></trkpt><trkpt lat="-36.7356379" lon="174.3940612"><ele>38.0</ele><time>2026-04-17T23:33:22.977Z</time></trkpt><trkpt lat="-36.7357165" lon="174.393962"><ele>38.0</ele><time>2026-04-17T23:33:24.976Z</time></trkpt><trkpt lat="-36.7357944" lon="174.3939081"><ele>38.0</ele><time>2026-04-17T23:33:26.977Z</time></trkpt><trkpt lat="-36.7358763" lon="174.3938791"><ele>38.0</ele><time>2026-04-17T23:33:28.978Z</time></trkpt><trkpt lat="-36.7358852" lon="174.3937763"><ele>38.0</ele><time>2026-04-17T23:33:30.977Z</time></trkpt><trkpt lat="-36.7359149" lon="174.3936823"><ele>38.0</ele><time>2026-04-17T23:33:34.977Z</time></trkpt><trkpt lat="-36.7359837" lon="174.3936044"><ele>38.0</ele><time>2026-04-17T23:33:35.976Z</time></trkpt><trkpt lat="-36.7360317" lon="174.3935479"><ele>35.83333333333333</ele><time>2026-04-17T23:33:36.976Z</time></trkpt><trkpt lat="-36.7361366" lon="174.3934779"><ele>33.666666666666664</ele><time>2026-04-17T23:33:38.976Z</time></trkpt><trkpt lat="-36.7361733" lon="174.393412"><ele>31.5</ele><time>2026-04-17T23:33:40.978Z</time></trkpt><trkpt lat="-36.736186" lon="174.3933239"><ele>29.333333333333336</ele><time>2026-04-17T23:33:42.977Z</time></trkpt><trkpt lat="-36.7362335" lon="174.3932128"><ele>27.166666666666668</ele><time>2026-04-17T23:33:44.977Z</time></trkpt><trkpt lat="-36.736261" lon="174.3931218"><ele>25.0</ele><time>2026-04-17T23:33:45.976Z</time></trkpt><trkpt lat="-36.7362712" lon="174.3930426"><ele>25.2</ele><time>2026-04-17T23:33:46.978Z</time></trkpt><trkpt lat="-36.7362494" lon="174.3929052"><ele>25.4</ele><time>2026-04-17T23:33:48.977Z</time></trkpt><trkpt lat="-36.7362741" lon="174.3927872"><ele>25.6</ele><time>2026-04-17T23:33:50.977Z</time></trkpt><trkpt lat="-36.736291" lon="174.3927065"><ele>25.8</ele><time>2026-04-17T23:33:51.977Z</time></trkpt><trkpt lat="-36.7363379" lon="174.3926081"><ele>26.0</ele><time>2026-04-17T23:33:52.979Z</time></trkpt><trkpt lat="-36.7363967" lon="174.3924753"><ele>25.999999999999996</ele><time>2026-04-17T23:33:54.976Z</time></trkpt><trkpt lat="-36.7364816" lon="174.3924194"><ele>26.0</ele><time>2026-04-17T23:33:57.976Z</time></trkpt><trkpt lat="-36.7365505" lon="174.3924235"><ele>26.0</ele><time>2026-04-17T23:34:00.976Z</time></trkpt><trkpt lat="-36.7366021" lon="174.3924779"><ele>26.0</ele><time>2026-04-17T23:34:02.977Z</time></trkpt><trkpt lat="-36.736637" lon="174.3925538"><ele>25.999999999999996</ele><time>2026-04-17T23:34:04.978Z</time></trkpt><trkpt lat="-36.7366715" lon="174.3926477"><ele>26.0</ele><time>2026-04-17T23:34:07.976Z</time></trkpt><trkpt lat="-36.7367209" lon="174.3925937"><ele>25.999999999999996</ele><time>2026-04-17T23:34:13.977Z</time></trkpt><trkpt lat="-36.7367688" lon="174.3924787"><ele>26.0</ele><time>2026-04-17T23:34:16.977Z</time></trkpt><trkpt lat="-36.7368081" lon="174.3924108"><ele>26.0</ele><time>2026-04-17T23:34:18.976Z</time></trkpt><trkpt lat="-36.7368564" lon="174.392326"><ele>26.0</ele><time>2026-04-17T23:34:21.977Z</time></trkpt><trkpt lat="-36.7369133" lon="174.3922343"><ele>25.999999999999996</ele><time>2026-04-17T23:34:24.977Z</time></trkpt><trkpt lat="-36.7369665" lon="174.3921722"><ele>26.0</ele><time>2026-04-17T23:34:26.977Z</time></trkpt><trkpt lat="-36.7370271" lon="174.3921325"><ele>25.999999999999996</ele><time>2026-04-17T23:34:28.976Z</time></trkpt><trkpt lat="-36.7370968" lon="174.3921565"><ele>26.0</ele><time>2026-04-17T23:34:30.977Z</time></trkpt><trkpt lat="-36.7371731" lon="174.3922059"><ele>26.0</ele><time>2026-04-17T23:34:32.976Z</time></trkpt><trkpt lat="-36.7372395" lon="174.3922793"><ele>26.0</ele><time>2026-04-17T23:34:34.977Z</time></trkpt><trkpt lat="-36.7373054" lon="174.3923297"><ele>25.999999999999996</ele><time>2026-04-17T23:34:36.976Z</time></trkpt><trkpt lat="-36.737413" lon="174.3923032"><ele>26.0</ele><time>2026-04-17T23:34:38.977Z</time></trkpt><trkpt lat="-36.7375212" lon="174.3923545"><ele>25.833333333333332</ele><time>2026-04-17T23:34:40.978Z</time></trkpt><trkpt lat="-36.7375528" lon="174.3924385"><ele>25.666666666666664</ele><time>2026-04-17T23:34:42.978Z</time></trkpt><trkpt lat="-36.7375812" lon="174.3925399"><ele>25.5</ele><time>2026-04-17T23:34:44.978Z</time></trkpt><trkpt lat="-36.7376713" lon="174.3926265"><ele>25.333333333333336</ele><time>2026-04-17T23:34:47.977Z</time></trkpt><trkpt lat="-36.7377205" lon="174.3927105"><ele>25.166666666666668</ele><time>2026-04-17T23:34:49.979Z</time></trkpt><trkpt lat="-36.7377638" lon="174.3927758"><ele>25.0</ele><time>2026-04-17T23:34:50.976Z</time></trkpt><trkpt lat="-36.737826" lon="174.3928379"><ele>25.000000000000004</ele><time>2026-04-17T23:34:52.976Z</time></trkpt><trkpt lat="-36.7378875" lon="174.3929303"><ele>25.0</ele><time>2026-04-17T23:34:54.976Z</time></trkpt><trkpt lat="-36.73793" lon="174.3930122"><ele>25.0</ele><time>2026-04-17T23:34:56.976Z</time></trkpt><trkpt lat="-36.7379771" lon="174.3931076"><ele>25.0</ele><time>2026-04-17T23:34:59.977Z</time></trkpt><trkpt lat="-36.7380213" lon="174.3931988"><ele>25.000000000000004</ele><time>2026-04-17T23:35:01.976Z</time></trkpt><trkpt lat="-36.7380453" lon="174.3932785"><ele>25.0</ele><time>2026-04-17T23:35:03.977Z</time></trkpt><trkpt lat="-36.7379798" lon="174.393342"><ele>24.833333333333336</ele><time>2026-04-17T23:35:06.976Z</time></trkpt><trkpt lat="-36.7379175" lon="174.3934093"><ele>24.666666666666668</ele><time>2026-04-17T23:35:09.977Z</time></trkpt><trkpt lat="-36.7378658" lon="174.3935079"><ele>24.5</ele><time>2026-04-17T23:35:12.979Z</time></trkpt><trkpt lat="-36.7378549" lon="174.3936126"><ele>24.333333333333336</ele><time>2026-04-17T23:35:14.978Z</time></trkpt><trkpt lat="-36.7378527" lon="174.3937237"><ele>24.166666666666668</ele><time>2026-04-17T23:35:16.977Z</time></trkpt><trkpt lat="-36.7378522" lon="174.3938166"><ele>24.0</ele><time>2026-04-17T23:35:18.978Z</time></trkpt><trkpt lat="-36.7378635" lon="174.3938992"><ele>24.0</ele><time>2026-04-17T23:35:20.978Z</time></trkpt><trkpt lat="-36.7378945" lon="174.393986"><ele>24.0</ele><time>2026-04-17T23:35:22.976Z</time></trkpt><trkpt lat="-36.7379445" lon="174.3940775"><ele>24.0</ele><time>2026-04-17T23:35:24.977Z</time></trkpt><trkpt lat="-36.7379883" lon="174.3941496"><ele>24.0</ele><time>2026-04-17T23:35:26.977Z</time></trkpt><trkpt lat="-36.7380284" lon="174.3942537"><ele>24.0</ele><time>2026-04-17T23:35:29.979Z</time></trkpt><trkpt lat="-36.7380676" lon="174.3943307"><ele>24.0</ele><time>2026-04-17T23:35:31.977Z</time></trkpt><trkpt lat="-36.7380886" lon="174.3944122"><ele>23.999999999999996</ele><time>2026-04-17T23:35:33.976Z</time></trkpt><trkpt lat="-36.738143" lon="174.3944534"><ele>24.0</ele><time>2026-04-17T23:35:35.976Z</time></trkpt><trkpt lat="-36.7382105" lon="174.3944344"><ele>24.0</ele><time>2026-04-17T23:35:37.976Z</time></trkpt><trkpt lat="-36.7382745" lon="174.3944235"><ele>24.0</ele><time>2026-04-17T23:35:39.976Z</time></trkpt><trkpt lat="-36.7383358" lon="174.3944661"><ele>24.0</ele><time>2026-04-17T23:35:41.978Z</time></trkpt><trkpt lat="-36.7383569" lon="174.3945437"><ele>23.999999999999996</ele><time>2026-04-17T23:35:44.977Z</time></trkpt><trkpt lat="-36.7383096" lon="174.3946154"><ele>24.0</ele><time>2026-04-17T23:35:48.976Z</time></trkpt><trkpt lat="-36.7382449" lon="174.3946722"><ele>25.428571428571427</ele><time>2026-04-17T23:35:52.978Z</time></trkpt><trkpt lat="-36.7382073" lon="174.3947398"><ele>26.857142857142854</ele><time>2026-04-17T23:35:54.976Z</time></trkpt><trkpt lat="-36.7381867" lon="174.3948438"><ele>28.285714285714285</ele><time>2026-04-17T23:35:57.977Z</time></trkpt><trkpt lat="-36.7381729" lon="174.3949408"><ele>29.71428571428571</ele><time>2026-04-17T23:36:00.977Z</time></trkpt><trkpt lat="-36.7381086" lon="174.3949856"><ele>31.142857142857142</ele><time>2026-04-17T23:36:03.977Z</time></trkpt><trkpt lat="-36.738046" lon="174.3950312"><ele>32.57142857142857</ele><time>2026-04-17T23:36:07.976Z</time></trkpt><trkpt lat="-36.7379859" lon="174.3950628"><ele>34.0</ele><time>2026-04-17T23:36:10.977Z</time></trkpt><trkpt lat="-36.7379204" lon="174.395074"><ele>33.99999999999999</ele><time>2026-04-17T23:36:13.977Z</time></trkpt><trkpt lat="-36.737886" lon="174.3949974"><ele>34.0</ele><time>2026-04-17T23:36:17.977Z</time></trkpt><trkpt lat="-36.737818" lon="174.3949384"><ele>34.0</ele><time>2026-04-17T23:36:19.976Z</time></trkpt><trkpt lat="-36.7377542" lon="174.3949029"><ele>34.0</ele><time>2026-04-17T23:36:22.977Z</time></trkpt><trkpt lat="-36.7377205" lon="174.3949741"><ele>34.0</ele><time>2026-04-17T23:36:25.977Z</time></trkpt><trkpt lat="-36.7377349" lon="174.3950628"><ele>33.99999999999999</ele><time>2026-04-17T23:36:28.977Z</time></trkpt><trkpt lat="-36.7377043" lon="174.3951367"><ele>34.0</ele><time>2026-04-17T23:36:31.976Z</time></trkpt><trkpt lat="-36.7376421" lon="174.395191"><ele>33.57142857142857</ele><time>2026-04-17T23:36:34.976Z</time></trkpt><trkpt lat="-36.7375701" lon="174.3951281"><ele>33.14285714285714</ele><time>2026-04-17T23:36:38.977Z</time></trkpt><trkpt lat="-36.7374994" lon="174.3950521"><ele>32.714285714285715</ele><time>2026-04-17T23:36:40.978Z</time></trkpt><trkpt lat="-36.737434" lon="174.3950175"><ele>32.285714285714285</ele><time>2026-04-17T23:36:42.977Z</time></trkpt><trkpt lat="-36.7373826" lon="174.395065"><ele>31.85714285714286</ele><time>2026-04-17T23:36:44.978Z</time></trkpt><trkpt lat="-36.7373544" lon="174.3951369"><ele>31.42857142857143</ele><time>2026-04-17T23:36:47.977Z</time></trkpt><trkpt lat="-36.7374095" lon="174.395178"><ele>31.0</ele><time>2026-04-17T23:36:50.977Z</time></trkpt><trkpt lat="-36.7374722" lon="174.3952379"><ele>31.0</ele><time>2026-04-17T23:36:53.977Z</time></trkpt><trkpt lat="-36.7374638" lon="174.3953382"><ele>31.000000000000004</ele><time>2026-04-17T23:36:56.977Z</time></trkpt><trkpt lat="-36.7374624" lon="174.3954342"><ele>31.0</ele><time>2026-04-17T23:36:59.977Z</time></trkpt><trkpt lat="-36.7374677" lon="174.395529"><ele>31.0</ele><time>2026-04-17T23:37:02.976Z</time></trkpt><trkpt lat="-36.737415" lon="174.3955974"><ele>31.000000000000004</ele><time>2026-04-17T23:37:05.977Z</time></trkpt><trkpt lat="-36.737354" lon="174.3955728"><ele>31.0</ele><time>2026-04-17T23:37:08.976Z</time></trkpt><trkpt lat="-36.737335" lon="174.3956576"><ele>31.0</ele><time>2026-04-17T23:37:12.977Z</time></trkpt><trkpt lat="-36.7373542" lon="174.3957443"><ele>32.833333333333336</ele><time>2026-04-17T23:37:16.976Z</time></trkpt><trkpt lat="-36.7373236" lon="174.3958255"><ele>34.66666666666667</ele><time>2026-04-17T23:37:19.978Z</time></trkpt><trkpt lat="-36.7372555" lon="174.3957881"><ele>36.5</ele><time>2026-04-17T23:37:24.976Z</time></trkpt><trkpt lat="-36.7372088" lon="174.395699"><ele>38.333333333333336</ele><time>2026-04-17T23:37:27.976Z</time></trkpt><trkpt lat="-36.7371186" lon="174.3956868"><ele>40.166666666666664</ele><time>2026-04-17T23:37:30.977Z</time></trkpt><trkpt lat="-36.7370736" lon="174.3957477"><ele>42.0</ele><time>2026-04-17T23:37:33.978Z</time></trkpt><trkpt lat="-36.737104" lon="174.39582"><ele>42.0</ele><time>2026-04-17T23:37:36.978Z</time></trkpt><trkpt lat="-36.7371319" lon="174.3959007"><ele>42.0</ele><time>2026-04-17T23:37:38.978Z</time></trkpt><trkpt lat="-36.7371295" lon="174.395984"><ele>42.0</ele><time>2026-04-17T23:37:40.976Z</time></trkpt><trkpt lat="-36.737158" lon="174.3960938"><ele>42.0</ele><time>2026-04-17T23:37:43.976Z</time></trkpt><trkpt lat="-36.7371944" lon="174.396189"><ele>42.0</ele><time>2026-04-17T23:37:46.976Z</time></trkpt><trkpt lat="-36.7372527" lon="174.3962488"><ele>42.0</ele><time>2026-04-17T23:37:50.977Z</time></trkpt><trkpt lat="-36.7373184" lon="174.3962895"><ele>42.0</ele><time>2026-04-17T23:37:54.977Z</time></trkpt><trkpt lat="-36.7373909" lon="174.3963171"><ele>42.0</ele><time>2026-04-17T23:37:57.976Z</time></trkpt><trkpt lat="-36.7374818" lon="174.396296"><ele>42.0</ele><time>2026-04-17T23:38:00.976Z</time></trkpt><trkpt lat="-36.7375651" lon="174.3963125"><ele>42.0</ele><time>2026-04-17T23:38:03.977Z</time></trkpt><trkpt lat="-36.737607" lon="174.3963851"><ele>42.0</ele><time>2026-04-17T23:38:05.978Z</time></trkpt><trkpt lat="-36.7376375" lon="174.396462"><ele>42.0</ele><time>2026-04-17T23:38:07.976Z</time></trkpt><trkpt lat="-36.73765" lon="174.3965477"><ele>44.333333333333336</ele><time>2026-04-17T23:38:09.976Z</time></trkpt><trkpt lat="-36.7376348" lon="174.3966509"><ele>46.66666666666667</ele><time>2026-04-17T23:38:12.977Z</time></trkpt><trkpt lat="-36.7376231" lon="174.396765"><ele>49.0</ele><time>2026-04-17T23:38:15.976Z</time></trkpt><trkpt lat="-36.7375961" lon="174.3968721"><ele>51.333333333333336</ele><time>2026-04-17T23:38:18.977Z</time></trkpt><trkpt lat="-36.7375675" lon="174.3969421"><ele>53.66666666666667</ele><time>2026-04-17T23:38:20.976Z</time></trkpt><trkpt lat="-36.7375159" lon="174.3969918"><ele>56.0</ele><time>2026-04-17T23:38:23.977Z</time></trkpt><trkpt lat="-36.7375117" lon="174.3969046"><ele>56.0</ele><time>2026-04-17T23:38:27.976Z</time></trkpt><trkpt lat="-36.737517" lon="174.3968259"><ele>56.0</ele><time>2026-04-17T23:38:30.978Z</time></trkpt><trkpt lat="-36.7374592" lon="174.3967803"><ele>56.0</ele><time>2026-04-17T23:38:33.976Z</time></trkpt><trkpt lat="-36.7374433" lon="174.3968764"><ele>56.0</ele><time>2026-04-17T23:38:36.977Z</time></trkpt><trkpt lat="-36.7374365" lon="174.3969842"><ele>56.0</ele><time>2026-04-17T23:38:39.976Z</time></trkpt><trkpt lat="-36.7374426" lon="174.3970649"><ele>56.0</ele><time>2026-04-17T23:38:42.979Z</time></trkpt><trkpt lat="-36.7374846" lon="174.3971257"><ele>56.0</ele><time>2026-04-17T23:38:44.978Z</time></trkpt><trkpt lat="-36.7375303" lon="174.3972197"><ele>58.66666666666667</ele><time>2026-04-17T23:38:47.977Z</time></trkpt><trkpt lat="-36.7375326" lon="174.3973303"><ele>61.333333333333336</ele><time>2026-04-17T23:38:50.977Z</time></trkpt><trkpt lat="-36.7375027" lon="174.3974226"><ele>64.0</ele><time>2026-04-17T23:38:53.977Z</time></trkpt><trkpt lat="-36.737453" lon="174.3975325"><ele>66.66666666666667</ele><time>2026-04-17T23:38:56.976Z</time></trkpt><trkpt lat="-36.7374084" lon="174.3976178"><ele>69.33333333333333</ele><time>2026-04-17T23:38:59.977Z</time></trkpt><trkpt lat="-36.7373696" lon="174.3977232"><ele>72.0</ele><time>2026-04-17T23:39:02.977Z</time></trkpt><trkpt lat="-36.7373269" lon="174.3978281"><ele>72.00000000000001</ele><time>2026-04-17T23:39:05.977Z</time></trkpt><trkpt lat="-36.7372554" lon="174.3978736"><ele>72.0</ele><time>2026-04-17T23:39:08.976Z</time></trkpt><trkpt lat="-36.7372618" lon="174.3977789"><ele>72.0</ele><time>2026-04-17T23:39:11.976Z</time></trkpt><trkpt lat="-36.737314" lon="174.3977246"><ele>72.0</ele><time>2026-04-17T23:39:14.976Z</time></trkpt><trkpt lat="-36.73727" lon="174.3976634"><ele>72.0</ele><time>2026-04-17T23:39:19.977Z</time></trkpt><trkpt lat="-36.7373042" lon="174.3975941"><ele>72.00000000000001</ele><time>2026-04-17T23:39:22.977Z</time></trkpt><trkpt lat="-36.737265" lon="174.3975114"><ele>72.0</ele><time>2026-04-17T23:39:26.976Z</time></trkpt><trkpt lat="-36.7372069" lon="174.39743"><ele>72.0</ele><time>2026-04-17T23:39:29.976Z</time></trkpt><trkpt lat="-36.7371485" lon="174.3973756"><ele>72.0</ele><time>2026-04-17T23:39:32.977Z</time></trkpt><trkpt lat="-36.737066" lon="174.3973652"><ele>72.0</ele><time>2026-04-17T23:39:36.976Z</time></trkpt><trkpt lat="-36.736994" lon="174.3973539"><ele>72.0</ele><time>2026-04-17T23:39:39.976Z</time></trkpt><trkpt lat="-36.7369196" lon="174.3973757"><ele>72.0</ele><time>2026-04-17T23:39:43.976Z</time></trkpt><trkpt lat="-36.7369779" lon="174.3974371"><ele>72.0</ele><time>2026-04-17T23:39:47.977Z</time></trkpt><trkpt lat="-36.7369047" lon="174.3974323"><ele>73.33333333333333</ele><time>2026-04-17T23:39:52.976Z</time></trkpt><trkpt lat="-36.7368213" lon="174.3973915"><ele>74.66666666666667</ele><time>2026-04-17T23:39:56.977Z</time></trkpt><trkpt lat="-36.7367597" lon="174.3974152"><ele>76.0</ele><time>2026-04-17T23:40:01.978Z</time></trkpt><trkpt lat="-36.7368128" lon="174.3974917"><ele>77.33333333333334</ele><time>2026-04-17T23:40:05.977Z</time></trkpt><trkpt lat="-36.7368513" lon="174.3975795"><ele>78.66666666666667</ele><time>2026-04-17T23:40:08.976Z</time></trkpt><trkpt lat="-36.736827" lon="174.3976644"><ele>80.0</ele><time>2026-04-17T23:40:12.977Z</time></trkpt><trkpt lat="-36.7367693" lon="174.397632"><ele>80.0</ele><time>2026-04-17T23:40:14.976Z</time></trkpt><trkpt lat="-36.7366933" lon="174.3975858"><ele>80.0</ele><time>2026-04-17T23:40:17.976Z</time></trkpt><trkpt lat="-36.736658" lon="174.3974996"><ele>80.0</ele><time>2026-04-17T23:40:20.977Z</time></trkpt><trkpt lat="-36.7366056" lon="174.3974507"><ele>80.0</ele><time>2026-04-17T23:40:23.976Z</time></trkpt><trkpt lat="-36.7365965" lon="174.397544"><ele>80.0</ele><time>2026-04-17T23:40:27.977Z</time></trkpt><trkpt lat="-36.7366407" lon="174.3976235"><ele>80.0</ele><time>2026-04-17T23:40:30.976Z</time></trkpt><trkpt lat="-36.7366979" lon="174.3976792"><ele>80.0</ele><time>2026-04-17T23:40:33.977Z</time></trkpt><trkpt lat="-36.7367468" lon="174.3977475"><ele>80.0</ele><time>2026-04-17T23:40:36.976Z</time></trkpt><trkpt lat="-36.7368167" lon="174.3977921"><ele>80.0</ele><time>2026-04-17T23:40:39.977Z</time></trkpt><trkpt lat="-36.7368848" lon="174.3978646"><ele>80.0</ele><time>2026-04-17T23:40:42.977Z</time></trkpt><trkpt lat="-36.7369139" lon="174.3979544"><ele>80.0</ele><time>2026-04-17T23:40:44.977Z</time></trkpt><trkpt lat="-36.7369039" lon="174.3980452"><ele>80.0</ele><time>2026-04-17T23:40:46.978Z</time></trkpt><trkpt lat="-36.7369063" lon="174.3981386"><ele>82.16666666666667</ele><time>2026-04-17T23:40:49.977Z</time></trkpt><trkpt lat="-36.7368712" lon="174.3982141"><ele>84.33333333333334</ele><time>2026-04-17T23:40:52.977Z</time></trkpt><trkpt lat="-36.7368495" lon="174.398292"><ele>86.5</ele><time>2026-04-17T23:40:54.976Z</time></trkpt><trkpt lat="-36.7368513" lon="174.398389"><ele>88.66666666666667</ele><time>2026-04-17T23:40:57.976Z</time></trkpt><trkpt lat="-36.7368226" lon="174.3984942"><ele>90.83333333333333</ele><time>2026-04-17T23:41:00.977Z</time></trkpt><trkpt lat="-36.736794" lon="174.3985716"><ele>93.0</ele><time>2026-04-17T23:41:02.977Z</time></trkpt><trkpt lat="-36.736756" lon="174.3986704"><ele>93.0</ele><time>2026-04-17T23:41:05.977Z</time></trkpt><trkpt lat="-36.7367085" lon="174.3987627"><ele>93.0</ele><time>2026-04-17T23:41:08.976Z</time></trkpt><trkpt lat="-36.7366717" lon="174.3988625"><ele>93.0</ele><time>2026-04-17T23:41:11.976Z</time></trkpt><trkpt lat="-36.7366354" lon="174.3989296"><ele>93.0</ele><time>2026-04-17T23:41:13.978Z</time></trkpt><trkpt lat="-36.7366128" lon="174.3990099"><ele>93.0</ele><time>2026-04-17T23:41:16.977Z</time></trkpt><trkpt lat="-36.736554" lon="174.3990557"><ele>93.0</ele><time>2026-04-17T23:41:18.976Z</time></trkpt><trkpt lat="-36.7364978" lon="174.399139"><ele>93.83333333333333</ele><time>2026-04-17T23:41:21.977Z</time></trkpt><trkpt lat="-36.7364117" lon="174.399141"><ele>94.66666666666666</ele><time>2026-04-17T23:41:24.976Z</time></trkpt><trkpt lat="-36.7363528" lon="174.3990566"><ele>95.5</ele><time>2026-04-17T23:41:27.977Z</time></trkpt><trkpt lat="-36.7363017" lon="174.3990049"><ele>96.33333333333333</ele><time>2026-04-17T23:41:29.975Z</time></trkpt><trkpt lat="-36.7362351" lon="174.3989633"><ele>97.16666666666666</ele><time>2026-04-17T23:41:31.977Z</time></trkpt><trkpt lat="-36.7361608" lon="174.3990271"><ele>98.0</ele><time>2026-04-17T23:41:34.976Z</time></trkpt><trkpt lat="-36.7360971" lon="174.3990834"><ele>98.16666666666666</ele><time>2026-04-17T23:41:36.976Z</time></trkpt><trkpt lat="-36.7360396" lon="174.3991155"><ele>98.33333333333333</ele><time>2026-04-17T23:41:38.977Z</time></trkpt><trkpt lat="-36.7359603" lon="174.3991575"><ele>98.5</ele><time>2026-04-17T23:41:41.976Z</time></trkpt><trkpt lat="-36.7358832" lon="174.399192"><ele>98.66666666666666</ele><time>2026-04-17T23:41:44.977Z</time></trkpt><trkpt lat="-36.7358259" lon="174.3992571"><ele>98.83333333333333</ele><time>2026-04-17T23:41:46.976Z</time></trkpt><trkpt lat="-36.735803" lon="174.3993654"><ele>99.0</ele><time>2026-04-17T23:41:48.977Z</time></trkpt><trkpt lat="-36.7358067" lon="174.3994722"><ele>99.0</ele><time>2026-04-17T23:41:50.976Z</time></trkpt><trkpt lat="-36.7357609" lon="174.3995452"><ele>99.0</ele><time>2026-04-17T23:41:52.977Z</time></trkpt><trkpt lat="-36.7356957" lon="174.3996081"><ele>99.0</ele><time>2026-04-17T23:41:54.977Z</time></trkpt><trkpt lat="-36.7356384" lon="174.3996837"><ele>99.0</ele><time>2026-04-17T23:41:56.976Z</time></trkpt><trkpt lat="-36.7355826" lon="174.3997605"><ele>99.0</ele><time>2026-04-17T23:41:58.977Z</time></trkpt><trkpt lat="-36.7355021" lon="174.3998145"><ele>99.0</ele><time>2026-04-17T23:42:00.976Z</time></trkpt><trkpt lat="-36.7354239" lon="174.3998665"><ele>99.14285714285715</ele><time>2026-04-17T23:42:02.976Z</time></trkpt><trkpt lat="-36.7353448" lon="174.3999066"><ele>99.28571428571428</ele><time>2026-04-17T23:42:04.975Z</time></trkpt><trkpt lat="-36.7352619" lon="174.3999514"><ele>99.42857142857143</ele><time>2026-04-17T23:42:07.977Z</time></trkpt><trkpt lat="-36.7352054" lon="174.3999882"><ele>99.57142857142858</ele><time>2026-04-17T23:42:09.975Z</time></trkpt><trkpt lat="-36.7351486" lon="174.4000304"><ele>99.71428571428572</ele><time>2026-04-17T23:42:11.977Z</time></trkpt><trkpt lat="-36.735087" lon="174.4000743"><ele>99.85714285714286</ele><time>2026-04-17T23:42:13.976Z</time></trkpt><trkpt lat="-36.7350183" lon="174.4000857"><ele>100.0</ele><time>2026-04-17T23:42:15.977Z</time></trkpt><trkpt lat="-36.7349475" lon="174.4000845"><ele>100.14285714285715</ele><time>2026-04-17T23:42:17.976Z</time></trkpt><trkpt lat="-36.7348797" lon="174.4000979"><ele>100.28571428571429</ele><time>2026-04-17T23:42:19.977Z</time></trkpt><trkpt lat="-36.7348151" lon="174.4001122"><ele>100.42857142857143</ele><time>2026-04-17T23:42:21.977Z</time></trkpt><trkpt lat="-36.7347415" lon="174.4001134"><ele>100.57142857142858</ele><time>2026-04-17T23:42:23.977Z</time></trkpt><trkpt lat="-36.7346685" lon="174.4001046"><ele>100.71428571428571</ele><time>2026-04-17T23:42:25.977Z</time></trkpt><trkpt lat="-36.7346032" lon="174.4001033"><ele>100.85714285714286</ele><time>2026-04-17T23:42:27.976Z</time></trkpt><trkpt lat="-36.7345265" lon="174.4001424"><ele>101.0</ele><time>2026-04-17T23:42:30.976Z</time></trkpt><trkpt lat="-36.7344635" lon="174.4002049"><ele>100.99999999999999</ele><time>2026-04-17T23:42:33.976Z</time></trkpt><trkpt lat="-36.7344388" lon="174.4003103"><ele>101.0</ele><time>2026-04-17T23:42:35.976Z</time></trkpt><trkpt lat="-36.7344508" lon="174.4004137"><ele>101.0</ele><time>2026-04-17T23:42:37.977Z</time></trkpt><trkpt lat="-36.7344905" lon="174.4004878"><ele>101.0</ele><time>2026-04-17T23:42:39.978Z</time></trkpt><trkpt lat="-36.7345579" lon="174.4005737"><ele>100.99999999999999</ele><time>2026-04-17T23:42:41.977Z</time></trkpt><trkpt lat="-36.7345322" lon="174.400679"><ele>101.0</ele><time>2026-04-17T23:42:43.977Z</time></trkpt><trkpt lat="-36.7345124" lon="174.4007569"><ele>101.16666666666666</ele><time>2026-04-17T23:42:44.977Z</time></trkpt><trkpt lat="-36.7344879" lon="174.4008514"><ele>101.33333333333333</ele><time>2026-04-17T23:42:46.977Z</time></trkpt><trkpt lat="-36.7344357" lon="174.4009428"><ele>101.5</ele><time>2026-04-17T23:42:49.977Z</time></trkpt><trkpt lat="-36.7344945" lon="174.400982"><ele>101.66666666666666</ele><time>2026-04-17T23:42:53.976Z</time></trkpt><trkpt lat="-36.7345684" lon="174.4009638"><ele>101.83333333333333</ele><time>2026-04-17T23:42:56.976Z</time></trkpt><trkpt lat="-36.73463" lon="174.400927"><ele>102.0</ele><time>2026-04-17T23:42:59.975Z</time></trkpt><trkpt lat="-36.7346511" lon="174.4010121"><ele>102.0</ele><time>2026-04-17T23:43:03.977Z</time></trkpt><trkpt lat="-36.7346347" lon="174.4011163"><ele>102.0</ele><time>2026-04-17T23:43:06.976Z</time></trkpt><trkpt lat="-36.7346167" lon="174.4012033"><ele>102.0</ele><time>2026-04-17T23:43:09.975Z</time></trkpt><trkpt lat="-36.7346056" lon="174.4012884"><ele>102.0</ele><time>2026-04-17T23:43:12.976Z</time></trkpt><trkpt lat="-36.7345756" lon="174.4014091"><ele>102.0</ele><time>2026-04-17T23:43:15.975Z</time></trkpt><trkpt lat="-36.7345351" lon="174.4014977"><ele>102.0</ele><time>2026-04-17T23:43:18.976Z</time></trkpt><trkpt lat="-36.7345307" lon="174.4015888"><ele>103.5</ele><time>2026-04-17T23:43:21.975Z</time></trkpt><trkpt lat="-36.7345303" lon="174.4016752"><ele>105.0</ele><time>2026-04-17T23:43:23.977Z</time></trkpt><trkpt lat="-36.7345285" lon="174.40176"><ele>106.5</ele><time>2026-04-17T23:43:26.975Z</time></trkpt><trkpt lat="-36.7344915" lon="174.4018492"><ele>108.0</ele><time>2026-04-17T23:43:28.977Z</time></trkpt><trkpt lat="-36.7344396" lon="174.4019445"><ele>109.5</ele><time>2026-04-17T23:43:30.977Z</time></trkpt><trkpt lat="-36.7344068" lon="174.4020179"><ele>111.0</ele><time>2026-04-17T23:43:31.976Z</time></trkpt><trkpt lat="-36.7343056" lon="174.4020469"><ele>111.0</ele><time>2026-04-17T23:43:33.977Z</time></trkpt><trkpt lat="-36.7342391" lon="174.4020708"><ele>111.0</ele><time>2026-04-17T23:43:34.977Z</time></trkpt><trkpt lat="-36.7341783" lon="174.4021096"><ele>111.0</ele><time>2026-04-17T23:43:35.977Z</time></trkpt><trkpt lat="-36.7341312" lon="174.4022037"><ele>111.0</ele><time>2026-04-17T23:43:37.977Z</time></trkpt><trkpt lat="-36.7341099" lon="174.402279"><ele>111.0</ele><time>2026-04-17T23:43:39.976Z</time></trkpt><trkpt lat="-36.7341296" lon="174.4023814"><ele>111.0</ele><time>2026-04-17T23:43:41.976Z</time></trkpt><trkpt lat="-36.7341428" lon="174.4024636"><ele>111.0</ele><time>2026-04-17T23:43:43.976Z</time></trkpt><trkpt lat="-36.7341571" lon="174.402559"><ele>112.19999999999999</ele><time>2026-04-17T23:43:45.977Z</time></trkpt><trkpt lat="-36.7341517" lon="174.4026571"><ele>113.39999999999999</ele><time>2026-04-17T23:43:47.977Z</time></trkpt><trkpt lat="-36.7341226" lon="174.4027525"><ele>114.6</ele><time>2026-04-17T23:43:49.976Z</time></trkpt><trkpt lat="-36.7340849" lon="174.4028923"><ele>115.8</ele><time>2026-04-17T23:43:51.976Z</time></trkpt><trkpt lat="-36.7341008" lon="174.4029922"><ele>117.0</ele><time>2026-04-17T23:43:53.976Z</time></trkpt><trkpt lat="-36.7341438" lon="174.4031045"><ele>118.0</ele><time>2026-04-17T23:43:55.977Z</time></trkpt><trkpt lat="-36.7341865" lon="174.4031867"><ele>119.0</ele><time>2026-04-17T23:43:57.977Z</time></trkpt><trkpt lat="-36.7342259" lon="174.403288"><ele>120.0</ele><time>2026-04-17T23:43:59.977Z</time></trkpt><trkpt lat="-36.7342577" lon="174.4033846"><ele>121.0</ele><time>2026-04-17T23:44:01.977Z</time></trkpt><trkpt lat="-36.7342634" lon="174.4034733"><ele>122.0</ele><time>2026-04-17T23:44:03.975Z</time></trkpt><trkpt lat="-36.7342121" lon="174.4035674"><ele>123.0</ele><time>2026-04-17T23:44:05.977Z</time></trkpt><trkpt lat="-36.7341583" lon="174.4036691"><ele>123.0</ele><time>2026-04-17T23:44:07.976Z</time></trkpt><trkpt lat="-36.7341085" lon="174.4037714"><ele>123.00000000000001</ele><time>2026-04-17T23:44:09.976Z</time></trkpt><trkpt lat="-36.7340788" lon="174.4038835"><ele>123.00000000000001</ele><time>2026-04-17T23:44:11.977Z</time></trkpt><trkpt lat="-36.7340848" lon="174.4039866"><ele>123.0</ele><time>2026-04-17T23:44:13.977Z</time></trkpt><trkpt lat="-36.73412" lon="174.4040889"><ele>123.0</ele><time>2026-04-17T23:44:15.977Z</time></trkpt><trkpt lat="-36.7341772" lon="174.4041757"><ele>123.5</ele><time>2026-04-17T23:44:17.976Z</time></trkpt><trkpt lat="-36.7342292" lon="174.4042577"><ele>124.0</ele><time>2026-04-17T23:44:19.976Z</time></trkpt><trkpt lat="-36.7342799" lon="174.4043468"><ele>124.5</ele><time>2026-04-17T23:44:21.977Z</time></trkpt><trkpt lat="-36.7343223" lon="174.4044245"><ele>125.0</ele><time>2026-04-17T23:44:23.976Z</time></trkpt><trkpt lat="-36.7343014" lon="174.4045155"><ele>125.5</ele><time>2026-04-17T23:44:26.976Z</time></trkpt><trkpt lat="-36.7343425" lon="174.4045861"><ele>126.0</ele><time>2026-04-17T23:44:29.975Z</time></trkpt><trkpt lat="-36.7344204" lon="174.4046078"><ele>126.5</ele><time>2026-04-17T23:44:31.977Z</time></trkpt><trkpt lat="-36.7344946" lon="174.4046507"><ele>127.0</ele><time>2026-04-17T23:44:33.978Z</time></trkpt><trkpt lat="-36.7345751" lon="174.404677"><ele>127.5</ele><time>2026-04-17T23:44:35.977Z</time></trkpt><trkpt lat="-36.7346423" lon="174.4047171"><ele>128.0</ele><time>2026-04-17T23:44:37.976Z</time></trkpt><trkpt lat="-36.7346517" lon="174.4048098"><ele>128.5</ele><time>2026-04-17T23:44:39.977Z</time></trkpt><trkpt lat="-36.7346316" lon="174.4048939"><ele>129.0</ele><time>2026-04-17T23:44:41.977Z</time></trkpt><trkpt lat="-36.734637" lon="174.4049811"><ele>127.66666666666667</ele><time>2026-04-17T23:44:43.976Z</time></trkpt><trkpt lat="-36.7346622" lon="174.4051195"><ele>126.33333333333334</ele><time>2026-04-17T23:44:45.976Z</time></trkpt><trkpt lat="-36.7346566" lon="174.4052081"><ele>125.0</ele><time>2026-04-17T23:44:47.976Z</time></trkpt><trkpt lat="-36.7346806" lon="174.4052815"><ele>123.66666666666667</ele><time>2026-04-17T23:44:50.976Z</time></trkpt><trkpt lat="-36.7346718" lon="174.4053697"><ele>122.33333333333334</ele><time>2026-04-17T23:44:54.977Z</time></trkpt><trkpt lat="-36.7346365" lon="174.4054716"><ele>121.0</ele><time>2026-04-17T23:44:58.977Z</time></trkpt><trkpt lat="-36.7346561" lon="174.4055705"><ele>120.8</ele><time>2026-04-17T23:45:00.976Z</time></trkpt><trkpt lat="-36.7346977" lon="174.4056937"><ele>120.6</ele><time>2026-04-17T23:45:02.976Z</time></trkpt><trkpt lat="-36.7347212" lon="174.4057678"><ele>120.4</ele><time>2026-04-17T23:45:03.976Z</time></trkpt><trkpt lat="-36.734766" lon="174.4059096"><ele>120.2</ele><time>2026-04-17T23:45:05.976Z</time></trkpt><trkpt lat="-36.7348511" lon="174.4060387"><ele>120.0</ele><time>2026-04-17T23:45:07.976Z</time></trkpt><trkpt lat="-36.734908" lon="174.4060951"><ele>120.0</ele><time>2026-04-17T23:45:08.976Z</time></trkpt><trkpt lat="-36.7349693" lon="174.4061349"><ele>120.0</ele><time>2026-04-17T23:45:09.976Z</time></trkpt><trkpt lat="-36.7350386" lon="174.4061746"><ele>120.0</ele><time>2026-04-17T23:45:10.976Z</time></trkpt><trkpt lat="-36.7351049" lon="174.4062035"><ele>120.0</ele><time>2026-04-17T23:45:11.977Z</time></trkpt><trkpt lat="-36.7351736" lon="174.4062286"><ele>120.0</ele><time>2026-04-17T23:45:12.977Z</time></trkpt><trkpt lat="-36.7352373" lon="174.4062145"><ele>120.0</ele><time>2026-04-17T23:45:13.977Z</time></trkpt><trkpt lat="-36.7353066" lon="174.4062153"><ele>120.0</ele><time>2026-04-17T23:45:14.975Z</time></trkpt><trkpt lat="-36.7353744" lon="174.4062089"><ele>120.0</ele><time>2026-04-17T23:45:15.975Z</time></trkpt><trkpt lat="-36.735489" lon="174.4062784"><ele>120.0</ele><time>2026-04-17T23:45:17.976Z</time></trkpt><trkpt lat="-36.7355142" lon="174.4064216"><ele>120.0</ele><time>2026-04-17T23:45:19.977Z</time></trkpt><trkpt lat="-36.7355358" lon="174.4065662"><ele>120.0</ele><time>2026-04-17T23:45:21.977Z</time></trkpt><trkpt lat="-36.7355553" lon="174.4067166"><ele>120.83333333333333</ele><time>2026-04-17T23:45:23.977Z</time></trkpt><trkpt lat="-36.7355621" lon="174.4067973"><ele>121.66666666666666</ele><time>2026-04-17T23:45:24.977Z</time></trkpt><trkpt lat="-36.7355798" lon="174.4069542"><ele>122.5</ele><time>2026-04-17T23:45:26.976Z</time></trkpt><trkpt lat="-36.7355877" lon="174.4070389"><ele>123.33333333333333</ele><time>2026-04-17T23:45:27.976Z</time></trkpt><trkpt lat="-36.735602" lon="174.4071372"><ele>124.16666666666666</ele><time>2026-04-17T23:45:28.976Z</time></trkpt><trkpt lat="-36.7356001" lon="174.4072317"><ele>125.0</ele><time>2026-04-17T23:45:29.975Z</time></trkpt><trkpt lat="-36.7356122" lon="174.4073369"><ele>125.16666666666666</ele><time>2026-04-17T23:45:30.977Z</time></trkpt><trkpt lat="-36.7356095" lon="174.4074265"><ele>125.33333333333333</ele><time>2026-04-17T23:45:31.977Z</time></trkpt><trkpt lat="-36.7356186" lon="174.4075269"><ele>125.5</ele><time>2026-04-17T23:45:32.976Z</time></trkpt><trkpt lat="-36.735625" lon="174.4076218"><ele>125.66666666666666</ele><time>2026-04-17T23:45:33.976Z</time></trkpt><trkpt lat="-36.7356052" lon="174.4077425"><ele>125.83333333333333</ele><time>2026-04-17T23:45:34.976Z</time></trkpt><trkpt lat="-36.7356063" lon="174.4078572"><ele>126.0</ele><time>2026-04-17T23:45:35.977Z</time></trkpt><trkpt lat="-36.7355756" lon="174.4079308"><ele>125.5</ele><time>2026-04-17T23:45:36.976Z</time></trkpt><trkpt lat="-36.7355842" lon="174.4080276"><ele>125.0</ele><time>2026-04-17T23:45:37.975Z</time></trkpt><trkpt lat="-36.7355936" lon="174.4081917"><ele>124.5</ele><time>2026-04-17T23:45:39.977Z</time></trkpt><trkpt lat="-36.7356042" lon="174.408288"><ele>124.0</ele><time>2026-04-17T23:45:40.977Z</time></trkpt><trkpt lat="-36.7356084" lon="174.4083831"><ele>123.5</ele><time>2026-04-17T23:45:41.976Z</time></trkpt><trkpt lat="-36.7355792" lon="174.4084742"><ele>123.0</ele><time>2026-04-17T23:45:42.976Z</time></trkpt><trkpt lat="-36.7355452" lon="174.4085558"><ele>123.0</ele><time>2026-04-17T23:45:43.977Z</time></trkpt><trkpt lat="-36.7354905" lon="174.4086226"><ele>123.0</ele><time>2026-04-17T23:45:44.977Z</time></trkpt><trkpt lat="-36.7354434" lon="174.4086904"><ele>123.0</ele><time>2026-04-17T23:45:45.978Z</time></trkpt><trkpt lat="-36.7354063" lon="174.4087608"><ele>123.0</ele><time>2026-04-17T23:45:46.976Z</time></trkpt><trkpt lat="-36.7353916" lon="174.4088613"><ele>123.0</ele><time>2026-04-17T23:45:47.975Z</time></trkpt><trkpt lat="-36.7353769" lon="174.4090044"><ele>123.0</ele><time>2026-04-17T23:45:49.976Z</time></trkpt><trkpt lat="-36.7353938" lon="174.4091347"><ele>124.0</ele><time>2026-04-17T23:45:51.977Z</time></trkpt><trkpt lat="-36.7353694" lon="174.4092508"><ele>125.0</ele><time>2026-04-17T23:45:53.976Z</time></trkpt><trkpt lat="-36.7353442" lon="174.4093499"><ele>126.0</ele><time>2026-04-17T23:45:55.976Z</time></trkpt><trkpt lat="-36.7353249" lon="174.4094514"><ele>127.0</ele><time>2026-04-17T23:45:57.976Z</time></trkpt><trkpt lat="-36.7353163" lon="174.4095662"><ele>128.0</ele><time>2026-04-17T23:45:59.976Z</time></trkpt><trkpt lat="-36.7353193" lon="174.4096459"><ele>129.0</ele><time>2026-04-17T23:46:01.977Z</time></trkpt><trkpt lat="-36.7353053" lon="174.4097263"><ele>129.33333333333334</ele><time>2026-04-17T23:46:03.976Z</time></trkpt><trkpt lat="-36.735296" lon="174.4098163"><ele>129.66666666666666</ele><time>2026-04-17T23:46:05.976Z</time></trkpt><trkpt lat="-36.7352844" lon="174.4099162"><ele>130.0</ele><time>2026-04-17T23:46:07.975Z</time></trkpt><trkpt lat="-36.7352597" lon="174.4100331"><ele>130.33333333333331</ele><time>2026-04-17T23:46:10.975Z</time></trkpt><trkpt lat="-36.7352289" lon="174.4101342"><ele>130.66666666666666</ele><time>2026-04-17T23:46:13.977Z</time></trkpt><trkpt lat="-36.7351763" lon="174.4101923"><ele>131.0</ele><time>2026-04-17T23:46:16.978Z</time></trkpt><trkpt lat="-36.7351015" lon="174.4102442"><ele>129.83333333333331</ele><time>2026-04-17T23:46:19.977Z</time></trkpt><trkpt lat="-36.7350237" lon="174.4102742"><ele>128.66666666666666</ele><time>2026-04-17T23:46:21.977Z</time></trkpt><trkpt lat="-36.734944" lon="174.4102882"><ele>127.5</ele><time>2026-04-17T23:46:23.976Z</time></trkpt><trkpt lat="-36.7348522" lon="174.4102983"><ele>126.33333333333334</ele><time>2026-04-17T23:46:25.976Z</time></trkpt><trkpt lat="-36.7347562" lon="174.4103178"><ele>125.16666666666667</ele><time>2026-04-17T23:46:27.977Z</time></trkpt><trkpt lat="-36.7346595" lon="174.4103313"><ele>124.0</ele><time>2026-04-17T23:46:29.975Z</time></trkpt><trkpt lat="-36.7345762" lon="174.4103207"><ele>124.0</ele><time>2026-04-17T23:46:31.976Z</time></trkpt><trkpt lat="-36.734497" lon="174.4103313"><ele>124.00000000000001</ele><time>2026-04-17T23:46:33.977Z</time></trkpt><trkpt lat="-36.7344226" lon="174.4103232"><ele>124.0</ele><time>2026-04-17T23:46:35.977Z</time></trkpt><trkpt lat="-36.734354" lon="174.4103445"><ele>124.0</ele><time>2026-04-17T23:46:37.976Z</time></trkpt><trkpt lat="-36.734294" lon="174.4103819"><ele>124.00000000000001</ele><time>2026-04-17T23:46:40.977Z</time></trkpt><trkpt lat="-36.7342785" lon="174.4104616"><ele>124.0</ele><time>2026-04-17T23:46:43.976Z</time></trkpt><trkpt lat="-36.734256" lon="174.410537"><ele>124.0</ele><time>2026-04-17T23:46:45.977Z</time></trkpt><trkpt lat="-36.7342407" lon="174.4106178"><ele>124.0</ele><time>2026-04-17T23:46:47.977Z</time></trkpt><trkpt lat="-36.734249" lon="174.4106984"><ele>124.0</ele><time>2026-04-17T23:46:49.975Z</time></trkpt><trkpt lat="-36.7341666" lon="174.4106946"><ele>124.0</ele><time>2026-04-17T23:46:53.977Z</time></trkpt><trkpt lat="-36.7341037" lon="174.4105887"><ele>124.0</ele><time>2026-04-17T23:46:55.977Z</time></trkpt><trkpt lat="-36.7340265" lon="174.4105169"><ele>124.0</ele><time>2026-04-17T23:46:57.977Z</time></trkpt><trkpt lat="-36.7339246" lon="174.4105599"><ele>124.00000000000001</ele><time>2026-04-17T23:46:59.977Z</time></trkpt><trkpt lat="-36.733866" lon="174.4105929"><ele>124.0</ele><time>2026-04-17T23:47:01.977Z</time></trkpt><trkpt lat="-36.7337709" lon="174.4105389"><ele>124.0</ele><time>2026-04-17T23:47:04.976Z</time></trkpt><trkpt lat="-36.7336721" lon="174.4105393"><ele>124.0</ele><time>2026-04-17T23:47:06.977Z</time></trkpt><trkpt lat="-36.7335959" lon="174.4105312"><ele>124.00000000000001</ele><time>2026-04-17T23:47:08.975Z</time></trkpt><trkpt lat="-36.7335592" lon="174.4106357"><ele>124.0</ele><time>2026-04-17T23:47:11.977Z</time></trkpt><trkpt lat="-36.7335109" lon="174.410718"><ele>124.33333333333334</ele><time>2026-04-17T23:47:14.976Z</time></trkpt><trkpt lat="-36.7334185" lon="174.4107573"><ele>124.66666666666667</ele><time>2026-04-17T23:47:17.976Z</time></trkpt><trkpt lat="-36.7333567" lon="174.4107224"><ele>125.0</ele><time>2026-04-17T23:47:19.976Z</time></trkpt><trkpt lat="-36.7333154" lon="174.4106347"><ele>125.33333333333334</ele><time>2026-04-17T23:47:23.976Z</time></trkpt><trkpt lat="-36.7332382" lon="174.4106419"><ele>125.66666666666667</ele><time>2026-04-17T23:47:27.976Z</time></trkpt><trkpt lat="-36.7331746" lon="174.4106978"><ele>126.0</ele><time>2026-04-17T23:47:30.975Z</time></trkpt><trkpt lat="-36.7330867" lon="174.4107009"><ele>126.0</ele><time>2026-04-17T23:47:33.976Z</time></trkpt><trkpt lat="-36.7330818" lon="174.4106202"><ele>126.0</ele><time>2026-04-17T23:47:41.976Z</time></trkpt><trkpt lat="-36.7330958" lon="174.4105306"><ele>126.0</ele><time>2026-04-17T23:47:44.976Z</time></trkpt><trkpt lat="-36.7331027" lon="174.4104385"><ele>126.0</ele><time>2026-04-17T23:47:47.975Z</time></trkpt><trkpt lat="-36.7331383" lon="174.4103632"><ele>126.0</ele><time>2026-04-17T23:47:49.977Z</time></trkpt><trkpt lat="-36.7331468" lon="174.4102802"><ele>126.0</ele><time>2026-04-17T23:47:52.976Z</time></trkpt><trkpt lat="-36.7330627" lon="174.4102622"><ele>126.0</ele><time>2026-04-17T23:47:56.975Z</time></trkpt><trkpt lat="-36.7329745" lon="174.4102746"><ele>126.0</ele><time>2026-04-17T23:47:59.975Z</time></trkpt><trkpt lat="-36.7328977" lon="174.410327"><ele>126.0</ele><time>2026-04-17T23:48:02.976Z</time></trkpt><trkpt lat="-36.7328124" lon="174.4103324"><ele>126.0</ele><time>2026-04-17T23:48:05.976Z</time></trkpt><trkpt lat="-36.7327452" lon="174.410312"><ele>126.0</ele><time>2026-04-17T23:48:07.976Z</time></trkpt><trkpt lat="-36.7326625" lon="174.4102912"><ele>126.0</ele><time>2026-04-17T23:48:09.977Z</time></trkpt><trkpt lat="-36.7325924" lon="174.4102659"><ele>126.0</ele><time>2026-04-17T23:48:11.976Z</time></trkpt><trkpt lat="-36.7325317" lon="174.4102356"><ele>127.33333333333333</ele><time>2026-04-17T23:48:13.976Z</time></trkpt><trkpt lat="-36.7324474" lon="174.4102101"><ele>128.66666666666666</ele><time>2026-04-17T23:48:15.975Z</time></trkpt><trkpt lat="-36.7323609" lon="174.4101787"><ele>130.0</ele><time>2026-04-17T23:48:17.977Z</time></trkpt><trkpt lat="-36.7322816" lon="174.4101472"><ele>131.33333333333331</ele><time>2026-04-17T23:48:19.976Z</time></trkpt><trkpt lat="-36.732207" lon="174.4101012"><ele>132.66666666666666</ele><time>2026-04-17T23:48:21.976Z</time></trkpt><trkpt lat="-36.7321213" lon="174.4100696"><ele>134.0</ele><time>2026-04-17T23:48:23.977Z</time></trkpt><trkpt lat="-36.7320563" lon="174.4100395"><ele>134.0</ele><time>2026-04-17T23:48:25.976Z</time></trkpt><trkpt lat="-36.7319923" lon="174.4100133"><ele>134.0</ele><time>2026-04-17T23:48:27.976Z</time></trkpt><trkpt lat="-36.7319256" lon="174.4099717"><ele>134.0</ele><time>2026-04-17T23:48:29.977Z</time></trkpt><trkpt lat="-36.7318611" lon="174.409958"><ele>134.0</ele><time>2026-04-17T23:48:31.977Z</time></trkpt><trkpt lat="-36.7317942" lon="174.4099693"><ele>134.0</ele><time>2026-04-17T23:48:33.978Z</time></trkpt><trkpt lat="-36.7317289" lon="174.4100071"><ele>134.0</ele><time>2026-04-17T23:48:35.977Z</time></trkpt><trkpt lat="-36.7316649" lon="174.4100663"><ele>134.0</ele><time>2026-04-17T23:48:37.975Z</time></trkpt><trkpt lat="-36.7316177" lon="174.4101297"><ele>134.33333333333331</ele><time>2026-04-17T23:48:39.976Z</time></trkpt><trkpt lat="-36.7315227" lon="174.4101197"><ele>134.66666666666666</ele><time>2026-04-17T23:48:42.977Z</time></trkpt><trkpt lat="-36.7314654" lon="174.4101536"><ele>135.0</ele><time>2026-04-17T23:48:44.976Z</time></trkpt><trkpt lat="-36.7313995" lon="174.4102122"><ele>135.33333333333334</ele><time>2026-04-17T23:48:46.977Z</time></trkpt><trkpt lat="-36.73135" lon="174.4102767"><ele>135.66666666666669</ele><time>2026-04-17T23:48:48.976Z</time></trkpt><trkpt lat="-36.7312894" lon="174.4103361"><ele>136.0</ele><time>2026-04-17T23:48:50.977Z</time></trkpt><trkpt lat="-36.7312262" lon="174.4103685"><ele>136.0</ele><time>2026-04-17T23:48:52.976Z</time></trkpt><trkpt lat="-36.7311591" lon="174.4103896"><ele>136.0</ele><time>2026-04-17T23:48:54.977Z</time></trkpt><trkpt lat="-36.7310732" lon="174.4104145"><ele>136.0</ele><time>2026-04-17T23:48:56.975Z</time></trkpt><trkpt lat="-36.7309955" lon="174.410413"><ele>136.0</ele><time>2026-04-17T23:48:58.977Z</time></trkpt><trkpt lat="-36.7309258" lon="174.4103357"><ele>136.0</ele><time>2026-04-17T23:49:00.975Z</time></trkpt><trkpt lat="-36.7308846" lon="174.4102416"><ele>136.0</ele><time>2026-04-17T23:49:03.975Z</time></trkpt><trkpt lat="-36.7308169" lon="174.4101846"><ele>136.33333333333334</ele><time>2026-04-17T23:49:06.976Z</time></trkpt><trkpt lat="-36.7307558" lon="174.4102348"><ele>136.66666666666669</ele><time>2026-04-17T23:49:09.977Z</time></trkpt><trkpt lat="-36.7307268" lon="174.4101359"><ele>137.0</ele><time>2026-04-17T23:49:16.976Z</time></trkpt><trkpt lat="-36.7307088" lon="174.4100283"><ele>137.33333333333334</ele><time>2026-04-17T23:49:19.975Z</time></trkpt><trkpt lat="-36.7306509" lon="174.4099715"><ele>137.66666666666666</ele><time>2026-04-17T23:49:22.976Z</time></trkpt><trkpt lat="-36.7305806" lon="174.4099303"><ele>138.0</ele><time>2026-04-17T23:49:25.977Z</time></trkpt><trkpt lat="-36.7305605" lon="174.4098448"><ele>138.0</ele><time>2026-04-17T23:49:28.976Z</time></trkpt><trkpt lat="-36.7305938" lon="174.4097311"><ele>138.0</ele><time>2026-04-17T23:49:31.976Z</time></trkpt><trkpt lat="-36.7306303" lon="174.4096447"><ele>138.0</ele><time>2026-04-17T23:49:33.978Z</time></trkpt><trkpt lat="-36.7306668" lon="174.4095487"><ele>138.0</ele><time>2026-04-17T23:49:35.976Z</time></trkpt><trkpt lat="-36.7307119" lon="174.4094424"><ele>138.0</ele><time>2026-04-17T23:49:37.978Z</time></trkpt><trkpt lat="-36.7307561" lon="174.409337"><ele>137.33333333333334</ele><time>2026-04-17T23:49:39.975Z</time></trkpt><trkpt lat="-36.7307977" lon="174.4092397"><ele>136.66666666666666</ele><time>2026-04-17T23:49:41.976Z</time></trkpt><trkpt lat="-36.7308256" lon="174.4091378"><ele>136.0</ele><time>2026-04-17T23:49:44.977Z</time></trkpt><trkpt lat="-36.7307659" lon="174.4091122"><ele>135.33333333333331</ele><time>2026-04-17T23:51:21.976Z</time></trkpt><trkpt lat="-36.7307008" lon="174.40909"><ele>134.66666666666666</ele><time>2026-04-17T23:51:25.976Z</time></trkpt><trkpt lat="-36.7306147" lon="174.4090725"><ele>134.0</ele><time>2026-04-17T23:51:28.975Z</time></trkpt><trkpt lat="-36.7305485" lon="174.4090913"><ele>134.0</ele><time>2026-04-17T23:51:30.976Z</time></trkpt><trkpt lat="-36.7304722" lon="174.4091298"><ele>134.0</ele><time>2026-04-17T23:51:32.976Z</time></trkpt><trkpt lat="-36.730404" lon="174.4091535"><ele>134.0</ele><time>2026-04-17T23:51:34.975Z</time></trkpt><trkpt lat="-36.7303218" lon="174.409154"><ele>134.0</ele><time>2026-04-17T23:51:36.976Z</time></trkpt><trkpt lat="-36.7302362" lon="174.4091266"><ele>134.0</ele><time>2026-04-17T23:51:38.975Z</time></trkpt><trkpt lat="-36.7301374" lon="174.4091074"><ele>134.0</ele><time>2026-04-17T23:51:40.976Z</time></trkpt><trkpt lat="-36.730047" lon="174.4091568"><ele>133.0</ele><time>2026-04-17T23:51:42.975Z</time></trkpt><trkpt lat="-36.7300016" lon="174.4092389"><ele>132.0</ele><time>2026-04-17T23:51:43.977Z</time></trkpt><trkpt lat="-36.7299733" lon="174.4093145"><ele>131.0</ele><time>2026-04-17T23:51:44.975Z</time></trkpt><trkpt lat="-36.7299069" lon="174.4094216"><ele>130.0</ele><time>2026-04-17T23:51:46.975Z</time></trkpt><trkpt lat="-36.7298001" lon="174.4094024"><ele>129.0</ele><time>2026-04-17T23:51:48.975Z</time></trkpt><trkpt lat="-36.7297388" lon="174.4093567"><ele>128.0</ele><time>2026-04-17T23:51:49.976Z</time></trkpt><trkpt lat="-36.7296886" lon="174.409299"><ele>128.0</ele><time>2026-04-17T23:51:50.977Z</time></trkpt><trkpt lat="-36.7296737" lon="174.4091663"><ele>128.0</ele><time>2026-04-17T23:51:52.977Z</time></trkpt><trkpt lat="-36.7296967" lon="174.4090803"><ele>128.0</ele><time>2026-04-17T23:51:53.976Z</time></trkpt><trkpt lat="-36.7296979" lon="174.4089989"><ele>128.0</ele><time>2026-04-17T23:51:54.975Z</time></trkpt><trkpt lat="-36.7296232" lon="174.4088911"><ele>128.0</ele><time>2026-04-17T23:51:56.976Z</time></trkpt><trkpt lat="-36.7295216" lon="174.4088239"><ele>128.0</ele><time>2026-04-17T23:51:58.975Z</time></trkpt><trkpt lat="-36.7294572" lon="174.4088424"><ele>128.0</ele><time>2026-04-17T23:51:59.975Z</time></trkpt><trkpt lat="-36.7293418" lon="174.4088584"><ele>128.0</ele><time>2026-04-17T23:52:01.977Z</time></trkpt><trkpt lat="-36.7292388" lon="174.4089233"><ele>128.0</ele><time>2026-04-17T23:52:03.976Z</time></trkpt><trkpt lat="-36.7291329" lon="174.4089692"><ele>128.0</ele><time>2026-04-17T23:52:05.977Z</time></trkpt><trkpt lat="-36.7290432" lon="174.4089429"><ele>127.16666666666666</ele><time>2026-04-17T23:52:07.976Z</time></trkpt><trkpt lat="-36.7289637" lon="174.4088916"><ele>126.33333333333333</ele><time>2026-04-17T23:52:09.976Z</time></trkpt><trkpt lat="-36.7289033" lon="174.4088595"><ele>125.5</ele><time>2026-04-17T23:52:10.975Z</time></trkpt><trkpt lat="-36.7288173" lon="174.4088006"><ele>124.66666666666666</ele><time>2026-04-17T23:52:12.976Z</time></trkpt><trkpt lat="-36.7287392" lon="174.4086978"><ele>123.83333333333333</ele><time>2026-04-17T23:52:14.976Z</time></trkpt><trkpt lat="-36.7287014" lon="174.4086121"><ele>123.0</ele><time>2026-04-17T23:52:16.976Z</time></trkpt><trkpt lat="-36.7286526" lon="174.4085457"><ele>122.16666666666667</ele><time>2026-04-17T23:52:18.977Z</time></trkpt><trkpt lat="-36.7285748" lon="174.4085467"><ele>121.33333333333334</ele><time>2026-04-17T23:52:21.976Z</time></trkpt><trkpt lat="-36.728478" lon="174.4085394"><ele>120.5</ele><time>2026-04-17T23:52:24.976Z</time></trkpt><trkpt lat="-36.728397" lon="174.4085092"><ele>119.66666666666667</ele><time>2026-04-17T23:52:26.975Z</time></trkpt><trkpt lat="-36.7283254" lon="174.4084961"><ele>118.83333333333334</ele><time>2026-04-17T23:52:28.976Z</time></trkpt><trkpt lat="-36.7282588" lon="174.4085475"><ele>118.0</ele><time>2026-04-17T23:52:31.976Z</time></trkpt><trkpt lat="-36.7282125" lon="174.4086386"><ele>118.00000000000001</ele><time>2026-04-17T23:52:34.975Z</time></trkpt><trkpt lat="-36.7281173" lon="174.4086407"><ele>118.0</ele><time>2026-04-17T23:52:37.976Z</time></trkpt><trkpt lat="-36.728049" lon="174.4086515"><ele>118.0</ele><time>2026-04-17T23:52:39.976Z</time></trkpt><trkpt lat="-36.7279801" lon="174.4087216"><ele>118.0</ele><time>2026-04-17T23:52:42.976Z</time></trkpt><trkpt lat="-36.7278994" lon="174.4087315"><ele>118.00000000000001</ele><time>2026-04-17T23:52:44.975Z</time></trkpt><trkpt lat="-36.7278121" lon="174.4086828"><ele>118.0</ele><time>2026-04-17T23:52:46.977Z</time></trkpt><trkpt lat="-36.7277596" lon="174.4085935"><ele>118.4</ele><time>2026-04-17T23:52:48.975Z</time></trkpt><trkpt lat="-36.7277" lon="174.4084859"><ele>118.80000000000001</ele><time>2026-04-17T23:52:50.977Z</time></trkpt><trkpt lat="-36.7276573" lon="174.408405"><ele>119.2</ele><time>2026-04-17T23:52:51.977Z</time></trkpt><trkpt lat="-36.7275482" lon="174.4083212"><ele>119.6</ele><time>2026-04-17T23:52:53.977Z</time></trkpt><trkpt lat="-36.7274349" lon="174.4083061"><ele>120.0</ele><time>2026-04-17T23:52:55.976Z</time></trkpt><trkpt lat="-36.7273727" lon="174.4083299"><ele>120.0</ele><time>2026-04-17T23:52:56.976Z</time></trkpt><trkpt lat="-36.7272955" lon="174.4083432"><ele>120.0</ele><time>2026-04-17T23:52:58.975Z</time></trkpt><trkpt lat="-36.7272084" lon="174.4083085"><ele>120.0</ele><time>2026-04-17T23:53:00.977Z</time></trkpt><trkpt lat="-36.7271316" lon="174.4081902"><ele>120.0</ele><time>2026-04-17T23:53:02.975Z</time></trkpt><trkpt lat="-36.7270864" lon="174.4081286"><ele>120.0</ele><time>2026-04-17T23:53:03.976Z</time></trkpt><trkpt lat="-36.7270288" lon="174.407981"><ele>119.16666666666667</ele><time>2026-04-17T23:53:05.976Z</time></trkpt><trkpt lat="-36.7269944" lon="174.4078925"><ele>118.33333333333334</ele><time>2026-04-17T23:53:06.977Z</time></trkpt><trkpt lat="-36.7269565" lon="174.4078065"><ele>117.5</ele><time>2026-04-17T23:53:07.976Z</time></trkpt><trkpt lat="-36.7269276" lon="174.4077249"><ele>116.66666666666667</ele><time>2026-04-17T23:53:08.977Z</time></trkpt><trkpt lat="-36.7269192" lon="174.407642"><ele>115.83333333333334</ele><time>2026-04-17T23:53:09.976Z</time></trkpt><trkpt lat="-36.7269024" lon="174.407535"><ele>115.0</ele><time>2026-04-17T23:53:11.976Z</time></trkpt><trkpt lat="-36.7268227" lon="174.4075943"><ele>113.4</ele><time>2026-04-17T23:53:13.976Z</time></trkpt><trkpt lat="-36.7267375" lon="174.4076775"><ele>111.8</ele><time>2026-04-17T23:53:15.976Z</time></trkpt><trkpt lat="-36.726679" lon="174.4075978"><ele>110.19999999999999</ele><time>2026-04-17T23:53:17.976Z</time></trkpt><trkpt lat="-36.7266849" lon="174.4075051"><ele>108.6</ele><time>2026-04-17T23:53:19.976Z</time></trkpt><trkpt lat="-36.7266694" lon="174.4073963"><ele>107.0</ele><time>2026-04-17T23:53:21.975Z</time></trkpt><trkpt lat="-36.7266259" lon="174.4072906"><ele>107.0</ele><time>2026-04-17T23:53:23.976Z</time></trkpt><trkpt lat="-36.7265549" lon="174.4071935"><ele>106.99999999999999</ele><time>2026-04-17T23:53:25.976Z</time></trkpt><trkpt lat="-36.7265129" lon="174.407108"><ele>106.99999999999999</ele><time>2026-04-17T23:53:26.977Z</time></trkpt><trkpt lat="-36.7264309" lon="174.4070218"><ele>107.0</ele><time>2026-04-17T23:53:28.975Z</time></trkpt><trkpt lat="-36.7263456" lon="174.4069863"><ele>107.0</ele><time>2026-04-17T23:53:30.976Z</time></trkpt><trkpt lat="-36.7262662" lon="174.4069405"><ele>106.8</ele><time>2026-04-17T23:53:32.975Z</time></trkpt><trkpt lat="-36.72616" lon="174.4068303"><ele>106.6</ele><time>2026-04-17T23:53:34.976Z</time></trkpt><trkpt lat="-36.7260481" lon="174.4067242"><ele>106.39999999999999</ele><time>2026-04-17T23:53:36.976Z</time></trkpt><trkpt lat="-36.7260289" lon="174.4066446"><ele>106.19999999999999</ele><time>2026-04-17T23:53:37.976Z</time></trkpt><trkpt lat="-36.7259435" lon="174.4066107"><ele>106.0</ele><time>2026-04-17T23:53:39.976Z</time></trkpt><trkpt lat="-36.7258512" lon="174.4066229"><ele>105.00000000000001</ele><time>2026-04-17T23:53:41.977Z</time></trkpt><trkpt lat="-36.7257701" lon="174.4066225"><ele>104.0</ele><time>2026-04-17T23:53:43.975Z</time></trkpt><trkpt lat="-36.7256955" lon="174.4066483"><ele>103.0</ele><time>2026-04-17T23:53:45.977Z</time></trkpt><trkpt lat="-36.7256259" lon="174.4066956"><ele>102.0</ele><time>2026-04-17T23:53:47.977Z</time></trkpt><trkpt lat="-36.7255694" lon="174.4067633"><ele>101.00000000000001</ele><time>2026-04-17T23:53:49.975Z</time></trkpt><trkpt lat="-36.7255156" lon="174.4068368"><ele>100.0</ele><time>2026-04-17T23:53:51.977Z</time></trkpt><trkpt lat="-36.7254681" lon="174.4069289"><ele>100.0</ele><time>2026-04-17T23:53:53.976Z</time></trkpt><trkpt lat="-36.7254078" lon="174.4070171"><ele>100.0</ele><time>2026-04-17T23:53:55.977Z</time></trkpt><trkpt lat="-36.7253538" lon="174.4071248"><ele>100.0</ele><time>2026-04-17T23:53:57.977Z</time></trkpt><trkpt lat="-36.7253203" lon="174.4072315"><ele>100.0</ele><time>2026-04-17T23:53:58.976Z</time></trkpt><trkpt lat="-36.7252659" lon="174.4073516"><ele>100.0</ele><time>2026-04-17T23:54:00.976Z</time></trkpt><trkpt lat="-36.7252068" lon="174.4074196"><ele>99.71428571428572</ele><time>2026-04-17T23:54:02.977Z</time></trkpt><trkpt lat="-36.7251502" lon="174.4074779"><ele>99.42857142857143</ele><time>2026-04-17T23:54:04.975Z</time></trkpt><trkpt lat="-36.7250901" lon="174.4075406"><ele>99.14285714285714</ele><time>2026-04-17T23:54:07.975Z</time></trkpt><trkpt lat="-36.7250402" lon="174.4074718"><ele>98.85714285714286</ele><time>2026-04-17T23:54:13.976Z</time></trkpt><trkpt lat="-36.7249646" lon="174.4074338"><ele>98.57142857142857</ele><time>2026-04-17T23:54:16.975Z</time></trkpt><trkpt lat="-36.7249161" lon="174.4073786"><ele>98.28571428571429</ele><time>2026-04-17T23:54:19.976Z</time></trkpt><trkpt lat="-36.7248885" lon="174.4072928"><ele>98.0</ele><time>2026-04-17T23:54:22.977Z</time></trkpt><trkpt lat="-36.7248719" lon="174.4072059"><ele>98.85714285714286</ele><time>2026-04-17T23:54:24.976Z</time></trkpt><trkpt lat="-36.7248403" lon="174.4071204"><ele>99.71428571428572</ele><time>2026-04-17T23:54:26.977Z</time></trkpt><trkpt lat="-36.7247913" lon="174.4070595"><ele>100.57142857142857</ele><time>2026-04-17T23:54:28.976Z</time></trkpt><trkpt lat="-36.724723" lon="174.4070371"><ele>101.42857142857143</ele><time>2026-04-17T23:54:30.975Z</time></trkpt><trkpt lat="-36.7246594" lon="174.4070112"><ele>102.28571428571429</ele><time>2026-04-17T23:54:32.975Z</time></trkpt><trkpt lat="-36.7245879" lon="174.4069927"><ele>103.14285714285714</ele><time>2026-04-17T23:54:34.977Z</time></trkpt><trkpt lat="-36.7245217" lon="174.406944"><ele>104.0</ele><time>2026-04-17T23:54:36.976Z</time></trkpt><trkpt lat="-36.7245004" lon="174.4068669"><ele>103.99999999999999</ele><time>2026-04-17T23:54:38.976Z</time></trkpt><trkpt lat="-36.7244694" lon="174.4067716"><ele>104.0</ele><time>2026-04-17T23:54:40.976Z</time></trkpt><trkpt lat="-36.7244075" lon="174.4066853"><ele>104.0</ele><time>2026-04-17T23:54:42.975Z</time></trkpt><trkpt lat="-36.7243656" lon="174.4066174"><ele>104.0</ele><time>2026-04-17T23:54:43.976Z</time></trkpt><trkpt lat="-36.7242824" lon="174.4065813"><ele>103.99999999999999</ele><time>2026-04-17T23:54:45.976Z</time></trkpt><trkpt lat="-36.7242132" lon="174.4065768"><ele>104.0</ele><time>2026-04-17T23:54:47.975Z</time></trkpt><trkpt lat="-36.7241408" lon="174.4065753"><ele>104.33333333333333</ele><time>2026-04-17T23:54:48.975Z</time></trkpt><trkpt lat="-36.7240657" lon="174.4065757"><ele>104.66666666666666</ele><time>2026-04-17T23:54:50.975Z</time></trkpt><trkpt lat="-36.7239787" lon="174.4065651"><ele>105.0</ele><time>2026-04-17T23:54:52.975Z</time></trkpt><trkpt lat="-36.7239066" lon="174.4065244"><ele>105.33333333333334</ele><time>2026-04-17T23:54:54.975Z</time></trkpt><trkpt lat="-36.723819" lon="174.4064828"><ele>105.66666666666667</ele><time>2026-04-17T23:54:57.976Z</time></trkpt><trkpt lat="-36.7237367" lon="174.406445"><ele>106.0</ele><time>2026-04-17T23:55:00.976Z</time></trkpt><trkpt lat="-36.7236894" lon="174.406388"><ele>106.0</ele><time>2026-04-17T23:55:02.975Z</time></trkpt><trkpt lat="-36.7236156" lon="174.4063467"><ele>106.0</ele><time>2026-04-17T23:55:04.976Z</time></trkpt><trkpt lat="-36.7235254" lon="174.4062944"><ele>106.0</ele><time>2026-04-17T23:55:06.977Z</time></trkpt><trkpt lat="-36.7234427" lon="174.4062366"><ele>106.0</ele><time>2026-04-17T23:55:08.975Z</time></trkpt><trkpt lat="-36.7233575" lon="174.406178"><ele>106.0</ele><time>2026-04-17T23:55:10.976Z</time></trkpt><trkpt lat="-36.7232331" lon="174.4061174"><ele>104.8</ele><time>2026-04-17T23:55:12.976Z</time></trkpt><trkpt lat="-36.7231314" lon="174.4060811"><ele>103.6</ele><time>2026-04-17T23:55:13.976Z</time></trkpt><trkpt lat="-36.7230612" lon="174.4060683"><ele>102.4</ele><time>2026-04-17T23:55:14.975Z</time></trkpt><trkpt lat="-36.7229503" lon="174.4060145"><ele>101.2</ele><time>2026-04-17T23:55:16.976Z</time></trkpt><trkpt lat="-36.7228485" lon="174.4059958"><ele>100.0</ele><time>2026-04-17T23:55:18.976Z</time></trkpt><trkpt lat="-36.7227649" lon="174.4060419"><ele>99.50000000000001</ele><time>2026-04-17T23:55:20.976Z</time></trkpt><trkpt lat="-36.7226917" lon="174.4061274"><ele>99.0</ele><time>2026-04-17T23:55:22.976Z</time></trkpt><trkpt lat="-36.7226536" lon="174.4061953"><ele>98.5</ele><time>2026-04-17T23:55:24.976Z</time></trkpt><trkpt lat="-36.7226022" lon="174.4062894"><ele>98.0</ele><time>2026-04-17T23:55:26.976Z</time></trkpt><trkpt lat="-36.7225566" lon="174.4063635"><ele>97.50000000000001</ele><time>2026-04-17T23:55:28.976Z</time></trkpt><trkpt lat="-36.7224988" lon="174.4064267"><ele>97.0</ele><time>2026-04-17T23:55:30.976Z</time></trkpt><trkpt lat="-36.7224189" lon="174.4064591"><ele>97.0</ele><time>2026-04-17T23:55:32.977Z</time></trkpt><trkpt lat="-36.7222909" lon="174.4064151"><ele>97.0</ele><time>2026-04-17T23:55:34.976Z</time></trkpt><trkpt lat="-36.7222027" lon="174.406349"><ele>97.0</ele><time>2026-04-17T23:55:36.975Z</time></trkpt><trkpt lat="-36.7221016" lon="174.4062699"><ele>97.0</ele><time>2026-04-17T23:55:38.976Z</time></trkpt><trkpt lat="-36.722022" lon="174.4062347"><ele>97.0</ele><time>2026-04-17T23:55:40.975Z</time></trkpt><trkpt lat="-36.721928" lon="174.406165"><ele>95.8</ele><time>2026-04-17T23:55:42.976Z</time></trkpt><trkpt lat="-36.7218665" lon="174.4060938"><ele>94.6</ele><time>2026-04-17T23:55:44.976Z</time></trkpt><trkpt lat="-36.7217563" lon="174.4059889"><ele>93.39999999999999</ele><time>2026-04-17T23:55:46.976Z</time></trkpt><trkpt lat="-36.7217199" lon="174.4059182"><ele>92.19999999999999</ele><time>2026-04-17T23:55:47.976Z</time></trkpt><trkpt lat="-36.7216548" lon="174.4058028"><ele>91.0</ele><time>2026-04-17T23:55:49.976Z</time></trkpt><trkpt lat="-36.7215841" lon="174.4057445"><ele>91.0</ele><time>2026-04-17T23:55:50.976Z</time></trkpt><trkpt lat="-36.7215045" lon="174.4056454"><ele>91.0</ele><time>2026-04-17T23:55:52.976Z</time></trkpt><trkpt lat="-36.721427" lon="174.4055362"><ele>91.0</ele><time>2026-04-17T23:55:54.975Z</time></trkpt><trkpt lat="-36.7213399" lon="174.4054067"><ele>91.0</ele><time>2026-04-17T23:55:55.975Z</time></trkpt><trkpt lat="-36.7212488" lon="174.4053191"><ele>90.66666666666666</ele><time>2026-04-17T23:55:57.975Z</time></trkpt><trkpt lat="-36.721181" lon="174.4053329"><ele>90.33333333333333</ele><time>2026-04-17T23:55:59.976Z</time></trkpt><trkpt lat="-36.7210991" lon="174.4053445"><ele>90.0</ele><time>2026-04-17T23:56:01.975Z</time></trkpt><trkpt lat="-36.7210208" lon="174.4053526"><ele>89.66666666666667</ele><time>2026-04-17T23:56:03.976Z</time></trkpt><trkpt lat="-36.7209277" lon="174.4053441"><ele>89.33333333333334</ele><time>2026-04-17T23:56:05.977Z</time></trkpt><trkpt lat="-36.7208416" lon="174.4052866"><ele>89.0</ele><time>2026-04-17T23:56:07.976Z</time></trkpt><trkpt lat="-36.7208183" lon="174.4051912"><ele>88.57142857142857</ele><time>2026-04-17T23:56:09.976Z</time></trkpt><trkpt lat="-36.7208302" lon="174.4050896"><ele>88.14285714285714</ele><time>2026-04-17T23:56:11.976Z</time></trkpt><trkpt lat="-36.7208266" lon="174.4049961"><ele>87.71428571428572</ele><time>2026-04-17T23:56:13.976Z</time></trkpt><trkpt lat="-36.7207916" lon="174.404927"><ele>87.28571428571428</ele><time>2026-04-17T23:56:15.976Z</time></trkpt><trkpt lat="-36.7207884" lon="174.4048448"><ele>86.85714285714286</ele><time>2026-04-17T23:56:18.976Z</time></trkpt><trkpt lat="-36.7208351" lon="174.4047823"><ele>86.42857142857143</ele><time>2026-04-17T23:56:20.975Z</time></trkpt><trkpt lat="-36.7208829" lon="174.4046889"><ele>86.0</ele><time>2026-04-17T23:56:23.976Z</time></trkpt><trkpt lat="-36.7209299" lon="174.4046073"><ele>87.66666666666667</ele><time>2026-04-17T23:56:25.976Z</time></trkpt><trkpt lat="-36.7209993" lon="174.4045428"><ele>89.33333333333334</ele><time>2026-04-17T23:56:27.975Z</time></trkpt><trkpt lat="-36.7210632" lon="174.4044751"><ele>91.0</ele><time>2026-04-17T23:56:29.975Z</time></trkpt><trkpt lat="-36.7211372" lon="174.4044421"><ele>92.66666666666667</ele><time>2026-04-17T23:56:31.975Z</time></trkpt><trkpt lat="-36.7212161" lon="174.4043959"><ele>94.33333333333333</ele><time>2026-04-17T23:56:33.976Z</time></trkpt><trkpt lat="-36.7212894" lon="174.4043393"><ele>96.0</ele><time>2026-04-17T23:56:35.977Z</time></trkpt><trkpt lat="-36.721366" lon="174.4043027"><ele>96.0</ele><time>2026-04-17T23:56:37.976Z</time></trkpt><trkpt lat="-36.7214396" lon="174.4043014"><ele>96.0</ele><time>2026-04-17T23:56:39.976Z</time></trkpt><trkpt lat="-36.721521" lon="174.4043225"><ele>96.0</ele><time>2026-04-17T23:56:41.975Z</time></trkpt><trkpt lat="-36.7216031" lon="174.4043222"><ele>96.0</ele><time>2026-04-17T23:56:44.976Z</time></trkpt><trkpt lat="-36.7216866" lon="174.4043162"><ele>96.0</ele><time>2026-04-17T23:56:47.976Z</time></trkpt><trkpt lat="-36.7217714" lon="174.4043452"><ele>96.0</ele><time>2026-04-17T23:56:49.976Z</time></trkpt><trkpt lat="-36.7218462" lon="174.4043745"><ele>97.16666666666667</ele><time>2026-04-17T23:56:51.975Z</time></trkpt><trkpt lat="-36.7219191" lon="174.4044151"><ele>98.33333333333334</ele><time>2026-04-17T23:56:53.977Z</time></trkpt><trkpt lat="-36.7219904" lon="174.4044583"><ele>99.5</ele><time>2026-04-17T23:56:55.976Z</time></trkpt><trkpt lat="-36.7220622" lon="174.404498"><ele>100.66666666666667</ele><time>2026-04-17T23:56:57.975Z</time></trkpt><trkpt lat="-36.7221345" lon="174.4045444"><ele>101.83333333333334</ele><time>2026-04-17T23:57:00.976Z</time></trkpt><trkpt lat="-36.7222093" lon="174.4045635"><ele>103.0</ele><time>2026-04-17T23:57:03.976Z</time></trkpt><trkpt lat="-36.7222651" lon="174.4045014"><ele>103.00000000000001</ele><time>2026-04-17T23:57:06.975Z</time></trkpt><trkpt lat="-36.7223009" lon="174.4044071"><ele>103.0</ele><time>2026-04-17T23:57:09.977Z</time></trkpt><trkpt lat="-36.722367" lon="174.4043995"><ele>103.0</ele><time>2026-04-17T23:57:15.975Z</time></trkpt><trkpt lat="-36.7223882" lon="174.4044798"><ele>103.0</ele><time>2026-04-17T23:57:18.975Z</time></trkpt><trkpt lat="-36.7224382" lon="174.40458"><ele>103.00000000000001</ele><time>2026-04-17T23:57:21.976Z</time></trkpt><trkpt lat="-36.7224813" lon="174.4046388"><ele>103.0</ele><time>2026-04-17T23:57:23.977Z</time></trkpt><trkpt lat="-36.7225355" lon="174.4047005"><ele>102.50000000000001</ele><time>2026-04-17T23:57:26.975Z</time></trkpt><trkpt lat="-36.7226211" lon="174.4047188"><ele>102.0</ele><time>2026-04-17T23:57:29.975Z</time></trkpt><trkpt lat="-36.7227037" lon="174.4047462"><ele>101.5</ele><time>2026-04-17T23:57:32.976Z</time></trkpt><trkpt lat="-36.7227694" lon="174.4047663"><ele>101.0</ele><time>2026-04-17T23:57:34.977Z</time></trkpt><trkpt lat="-36.7228541" lon="174.4047904"><ele>100.50000000000001</ele><time>2026-04-17T23:57:37.976Z</time></trkpt><trkpt lat="-36.722933" lon="174.4048368"><ele>100.0</ele><time>2026-04-17T23:57:40.978Z</time></trkpt><trkpt lat="-36.7229956" lon="174.4048613"><ele>101.00000000000001</ele><time>2026-04-17T23:57:42.976Z</time></trkpt><trkpt lat="-36.7230786" lon="174.4048917"><ele>102.0</ele><time>2026-04-17T23:57:45.975Z</time></trkpt><trkpt lat="-36.7231525" lon="174.40493"><ele>103.0</ele><time>2026-04-17T23:57:48.975Z</time></trkpt><trkpt lat="-36.7232148" lon="174.4049501"><ele>104.0</ele><time>2026-04-17T23:57:50.975Z</time></trkpt><trkpt lat="-36.7232913" lon="174.4049663"><ele>105.00000000000001</ele><time>2026-04-17T23:57:52.976Z</time></trkpt><trkpt lat="-36.7233628" lon="174.4050051"><ele>106.0</ele><time>2026-04-17T23:57:54.975Z</time></trkpt><trkpt lat="-36.7234549" lon="174.4050565"><ele>106.0</ele><time>2026-04-17T23:57:56.975Z</time></trkpt><trkpt lat="-36.7235319" lon="174.4050863"><ele>106.0</ele><time>2026-04-17T23:57:58.975Z</time></trkpt><trkpt lat="-36.7235985" lon="174.405089"><ele>106.0</ele><time>2026-04-17T23:58:00.975Z</time></trkpt><trkpt lat="-36.723664" lon="174.4050823"><ele>106.0</ele><time>2026-04-17T23:58:02.976Z</time></trkpt><trkpt lat="-36.723735" lon="174.405076"><ele>106.0</ele><time>2026-04-17T23:58:04.976Z</time></trkpt><trkpt lat="-36.7238048" lon="174.4050717"><ele>106.0</ele><time>2026-04-17T23:58:06.976Z</time></trkpt><trkpt lat="-36.7238847" lon="174.4050814"><ele>106.0</ele><time>2026-04-17T23:58:08.975Z</time></trkpt><trkpt lat="-36.7239557" lon="174.4051031"><ele>106.16666666666667</ele><time>2026-04-17T23:58:10.976Z</time></trkpt><trkpt lat="-36.7240282" lon="174.4051454"><ele>106.33333333333334</ele><time>2026-04-17T23:58:12.975Z</time></trkpt><trkpt lat="-36.7241116" lon="174.4052076"><ele>106.5</ele><time>2026-04-17T23:58:15.975Z</time></trkpt><trkpt lat="-36.7241697" lon="174.4052836"><ele>106.66666666666666</ele><time>2026-04-17T23:58:17.975Z</time></trkpt><trkpt lat="-36.7242325" lon="174.4053434"><ele>106.83333333333333</ele><time>2026-04-17T23:58:19.975Z</time></trkpt><trkpt lat="-36.7243136" lon="174.4053683"><ele>107.0</ele><time>2026-04-17T23:58:21.975Z</time></trkpt><trkpt lat="-36.7243948" lon="174.4053856"><ele>107.00000000000001</ele><time>2026-04-17T23:58:23.976Z</time></trkpt><trkpt lat="-36.7244622" lon="174.4054037"><ele>107.0</ele><time>2026-04-17T23:58:25.977Z</time></trkpt><trkpt lat="-36.7245329" lon="174.4054137"><ele>107.0</ele><time>2026-04-17T23:58:27.976Z</time></trkpt><trkpt lat="-36.7246202" lon="174.4054254"><ele>107.0</ele><time>2026-04-17T23:58:29.976Z</time></trkpt><trkpt lat="-36.7246914" lon="174.405484"><ele>107.0</ele><time>2026-04-17T23:58:32.975Z</time></trkpt><trkpt lat="-36.7247493" lon="174.4055169"><ele>107.00000000000001</ele><time>2026-04-17T23:58:34.976Z</time></trkpt><trkpt lat="-36.7248177" lon="174.4055266"><ele>107.0</ele><time>2026-04-17T23:58:36.976Z</time></trkpt><trkpt lat="-36.7248909" lon="174.4055431"><ele>106.99999999999999</ele><time>2026-04-17T23:58:38.976Z</time></trkpt><trkpt lat="-36.7249712" lon="174.4055887"><ele>107.0</ele><time>2026-04-17T23:58:40.976Z</time></trkpt><trkpt lat="-36.7250486" lon="174.4056296"><ele>107.0</ele><time>2026-04-17T23:58:42.976Z</time></trkpt><trkpt lat="-36.7251153" lon="174.4056518"><ele>107.0</ele><time>2026-04-17T23:58:45.975Z</time></trkpt><trkpt lat="-36.7251911" lon="174.4056286"><ele>106.99999999999999</ele><time>2026-04-17T23:58:48.975Z</time></trkpt><trkpt lat="-36.7252674" lon="174.4055883"><ele>107.0</ele><time>2026-04-17T23:58:50.975Z</time></trkpt><trkpt lat="-36.7253369" lon="174.4055729"><ele>107.16666666666666</ele><time>2026-04-17T23:58:52.975Z</time></trkpt><trkpt lat="-36.7254147" lon="174.4055944"><ele>107.33333333333333</ele><time>2026-04-17T23:58:54.975Z</time></trkpt><trkpt lat="-36.7254816" lon="174.4055882"><ele>107.5</ele><time>2026-04-17T23:58:56.975Z</time></trkpt><trkpt lat="-36.7255503" lon="174.4055521"><ele>107.66666666666666</ele><time>2026-04-17T23:58:58.976Z</time></trkpt><trkpt lat="-36.7256245" lon="174.4055148"><ele>107.83333333333333</ele><time>2026-04-17T23:59:00.976Z</time></trkpt><trkpt lat="-36.7256924" lon="174.4054928"><ele>108.0</ele><time>2026-04-17T23:59:02.976Z</time></trkpt><trkpt lat="-36.7257945" lon="174.4055061"><ele>108.16666666666667</ele><time>2026-04-17T23:59:05.976Z</time></trkpt><trkpt lat="-36.725857" lon="174.4055278"><ele>108.33333333333334</ele><time>2026-04-17T23:59:07.975Z</time></trkpt><trkpt lat="-36.7259384" lon="174.4055712"><ele>108.5</ele><time>2026-04-17T23:59:10.976Z</time></trkpt><trkpt lat="-36.7259984" lon="174.405628"><ele>108.66666666666667</ele><time>2026-04-17T23:59:12.976Z</time></trkpt><trkpt lat="-36.7260553" lon="174.4056675"><ele>108.83333333333334</ele><time>2026-04-17T23:59:14.976Z</time></trkpt><trkpt lat="-36.7261263" lon="174.4056864"><ele>109.0</ele><time>2026-04-17T23:59:16.975Z</time></trkpt><trkpt lat="-36.7262092" lon="174.4057107"><ele>109.00000000000001</ele><time>2026-04-17T23:59:18.976Z</time></trkpt><trkpt lat="-36.7263111" lon="174.4057073"><ele>109.0</ele><time>2026-04-17T23:59:21.976Z</time></trkpt><trkpt lat="-36.7263969" lon="174.4056893"><ele>109.0</ele><time>2026-04-17T23:59:24.976Z</time></trkpt><trkpt lat="-36.7264631" lon="174.4056936"><ele>109.0</ele><time>2026-04-17T23:59:26.975Z</time></trkpt><trkpt lat="-36.7265238" lon="174.4057691"><ele>109.00000000000001</ele><time>2026-04-17T23:59:28.976Z</time></trkpt><trkpt lat="-36.7265811" lon="174.4058566"><ele>109.0</ele><time>2026-04-17T23:59:30.975Z</time></trkpt><trkpt lat="-36.726673" lon="174.4059678"><ele>109.00000000000001</ele><time>2026-04-17T23:59:32.976Z</time></trkpt><trkpt lat="-36.7267111" lon="174.4060313"><ele>109.0</ele><time>2026-04-17T23:59:33.975Z</time></trkpt><trkpt lat="-36.7267605" lon="174.406122"><ele>109.0</ele><time>2026-04-17T23:59:35.975Z</time></trkpt><trkpt lat="-36.7267611" lon="174.4062614"><ele>109.0</ele><time>2026-04-17T23:59:37.977Z</time></trkpt><trkpt lat="-36.7267389" lon="174.4063548"><ele>109.00000000000001</ele><time>2026-04-17T23:59:39.976Z</time></trkpt><trkpt lat="-36.7267048" lon="174.4064261"><ele>109.0</ele><time>2026-04-17T23:59:41.975Z</time></trkpt><trkpt lat="-36.7267035" lon="174.4065182"><ele>108.57142857142857</ele><time>2026-04-17T23:59:43.975Z</time></trkpt><trkpt lat="-36.7267265" lon="174.4066091"><ele>108.14285714285714</ele><time>2026-04-17T23:59:45.977Z</time></trkpt><trkpt lat="-36.7267895" lon="174.4066531"><ele>107.71428571428572</ele><time>2026-04-17T23:59:49.975Z</time></trkpt><trkpt lat="-36.7268605" lon="174.4067054"><ele>107.28571428571428</ele><time>2026-04-17T23:59:52.976Z</time></trkpt><trkpt lat="-36.7269228" lon="174.4067214"><ele>106.85714285714285</ele><time>2026-04-17T23:59:54.975Z</time></trkpt><trkpt lat="-36.7269938" lon="174.406754"><ele>106.42857142857143</ele><time>2026-04-17T23:59:56.976Z</time></trkpt><trkpt lat="-36.727051" lon="174.4067869"><ele>106.0</ele><time>2026-04-17T23:59:58.976Z</time></trkpt><trkpt lat="-36.727137" lon="174.4067631"><ele>107.0</ele><time>2026-04-18T00:00:01.977Z</time></trkpt><trkpt lat="-36.7271917" lon="174.4067221"><ele>108.0</ele><time>2026-04-18T00:00:03.976Z</time></trkpt><trkpt lat="-36.7272487" lon="174.4066647"><ele>109.0</ele><time>2026-04-18T00:00:06.976Z</time></trkpt><trkpt lat="-36.727314" lon="174.4066665"><ele>110.0</ele><time>2026-04-18T00:00:09.976Z</time></trkpt><trkpt lat="-36.7273774" lon="174.4066887"><ele>111.0</ele><time>2026-04-18T00:00:12.975Z</time></trkpt><trkpt lat="-36.7274389" lon="174.4066501"><ele>112.0</ele><time>2026-04-18T00:00:14.976Z</time></trkpt><trkpt lat="-36.727494" lon="174.4066093"><ele>113.0</ele><time>2026-04-18T00:00:16.976Z</time></trkpt><trkpt lat="-36.7275777" lon="174.406629"><ele>113.0</ele><time>2026-04-18T00:00:19.976Z</time></trkpt><trkpt lat="-36.7276364" lon="174.406658"><ele>113.0</ele><time>2026-04-18T00:00:21.976Z</time></trkpt><trkpt lat="-36.7277178" lon="174.4066721"><ele>113.0</ele><time>2026-04-18T00:00:24.976Z</time></trkpt><trkpt lat="-36.7277885" lon="174.4066639"><ele>113.0</ele><time>2026-04-18T00:00:26.976Z</time></trkpt><trkpt lat="-36.7278539" lon="174.4066364"><ele>113.0</ele><time>2026-04-18T00:00:28.975Z</time></trkpt><trkpt lat="-36.727921" lon="174.4066127"><ele>113.0</ele><time>2026-04-18T00:00:30.976Z</time></trkpt><trkpt lat="-36.7279891" lon="174.4066162"><ele>113.0</ele><time>2026-04-18T00:00:32.977Z</time></trkpt><trkpt lat="-36.7280593" lon="174.4065839"><ele>113.49999999999999</ele><time>2026-04-18T00:00:34.975Z</time></trkpt><trkpt lat="-36.7281255" lon="174.4065347"><ele>114.0</ele><time>2026-04-18T00:00:36.975Z</time></trkpt><trkpt lat="-36.7281951" lon="174.4064866"><ele>114.5</ele><time>2026-04-18T00:00:38.975Z</time></trkpt><trkpt lat="-36.7282693" lon="174.4064494"><ele>115.0</ele><time>2026-04-18T00:00:41.975Z</time></trkpt><trkpt lat="-36.7283296" lon="174.4064837"><ele>115.49999999999999</ele><time>2026-04-18T00:00:43.977Z</time></trkpt><trkpt lat="-36.7283654" lon="174.4065696"><ele>116.0</ele><time>2026-04-18T00:00:45.976Z</time></trkpt><trkpt lat="-36.7284182" lon="174.406638"><ele>115.99999999999999</ele><time>2026-04-18T00:00:47.975Z</time></trkpt><trkpt lat="-36.7284919" lon="174.4067068"><ele>116.0</ele><time>2026-04-18T00:00:49.975Z</time></trkpt><trkpt lat="-36.7285788" lon="174.4067743"><ele>116.0</ele><time>2026-04-18T00:00:51.976Z</time></trkpt><trkpt lat="-36.7286505" lon="174.4068288"><ele>116.0</ele><time>2026-04-18T00:00:53.975Z</time></trkpt><trkpt lat="-36.7287031" lon="174.4068984"><ele>115.99999999999999</ele><time>2026-04-18T00:00:55.976Z</time></trkpt><trkpt lat="-36.7287327" lon="174.4069807"><ele>116.0</ele><time>2026-04-18T00:00:57.976Z</time></trkpt><trkpt lat="-36.7287486" lon="174.4070701"><ele>116.14285714285717</ele><time>2026-04-18T00:00:59.975Z</time></trkpt><trkpt lat="-36.7287919" lon="174.4071728"><ele>116.28571428571429</ele><time>2026-04-18T00:01:01.974Z</time></trkpt><trkpt lat="-36.7288307" lon="174.407257"><ele>116.42857142857144</ele><time>2026-04-18T00:01:03.976Z</time></trkpt><trkpt lat="-36.7288739" lon="174.4073187"><ele>116.57142857142858</ele><time>2026-04-18T00:01:05.976Z</time></trkpt><trkpt lat="-36.7288893" lon="174.4074086"><ele>116.71428571428572</ele><time>2026-04-18T00:01:08.975Z</time></trkpt><trkpt lat="-36.7288869" lon="174.4074878"><ele>116.85714285714286</ele><time>2026-04-18T00:01:11.976Z</time></trkpt><trkpt lat="-36.7289476" lon="174.4075356"><ele>117.0</ele><time>2026-04-18T00:01:14.976Z</time></trkpt><trkpt lat="-36.7290379" lon="174.4075611"><ele>117.0</ele><time>2026-04-18T00:01:17.975Z</time></trkpt><trkpt lat="-36.7291131" lon="174.4075607"><ele>117.0</ele><time>2026-04-18T00:01:20.975Z</time></trkpt><trkpt lat="-36.729188" lon="174.4075547"><ele>117.0</ele><time>2026-04-18T00:01:22.976Z</time></trkpt><trkpt lat="-36.7292896" lon="174.4075785"><ele>117.0</ele><time>2026-04-18T00:01:25.977Z</time></trkpt><trkpt lat="-36.7293768" lon="174.4076077"><ele>117.0</ele><time>2026-04-18T00:01:27.975Z</time></trkpt><trkpt lat="-36.7294586" lon="174.4076411"><ele>117.0</ele><time>2026-04-18T00:01:29.975Z</time></trkpt><trkpt lat="-36.7295252" lon="174.4076529"><ele>117.28571428571429</ele><time>2026-04-18T00:01:31.976Z</time></trkpt><trkpt lat="-36.7296124" lon="174.4076325"><ele>117.57142857142858</ele><time>2026-04-18T00:01:34.975Z</time></trkpt><trkpt lat="-36.7297007" lon="174.4076349"><ele>117.85714285714286</ele><time>2026-04-18T00:01:37.975Z</time></trkpt><trkpt lat="-36.7297624" lon="174.407658"><ele>118.14285714285714</ele><time>2026-04-18T00:01:39.976Z</time></trkpt><trkpt lat="-36.729817" lon="174.4077249"><ele>118.42857142857143</ele><time>2026-04-18T00:01:42.976Z</time></trkpt><trkpt lat="-36.7298467" lon="174.4077977"><ele>118.71428571428572</ele><time>2026-04-18T00:01:44.976Z</time></trkpt><trkpt lat="-36.7299111" lon="174.4077837"><ele>119.0</ele><time>2026-04-18T00:01:47.975Z</time></trkpt><trkpt lat="-36.7299629" lon="174.4077271"><ele>118.99999999999999</ele><time>2026-04-18T00:01:50.976Z</time></trkpt><trkpt lat="-36.7300201" lon="174.4076629"><ele>119.0</ele><time>2026-04-18T00:01:53.976Z</time></trkpt><trkpt lat="-36.7300921" lon="174.4076651"><ele>119.0</ele><time>2026-04-18T00:01:56.976Z</time></trkpt><trkpt lat="-36.7300659" lon="174.4077692"><ele>119.0</ele><time>2026-04-18T00:02:00.975Z</time></trkpt><trkpt lat="-36.7300899" lon="174.407869"><ele>118.99999999999999</ele><time>2026-04-18T00:02:03.975Z</time></trkpt><trkpt lat="-36.7301688" lon="174.4078525"><ele>119.0</ele><time>2026-04-18T00:02:06.976Z</time></trkpt><trkpt lat="-36.7302491" lon="174.4078695"><ele>120.16666666666666</ele><time>2026-04-18T00:02:10.975Z</time></trkpt><trkpt lat="-36.7303392" lon="174.4079093"><ele>121.33333333333333</ele><time>2026-04-18T00:02:13.975Z</time></trkpt><trkpt lat="-36.73041" lon="174.4079172"><ele>122.5</ele><time>2026-04-18T00:02:15.975Z</time></trkpt><trkpt lat="-36.730481" lon="174.407927"><ele>123.66666666666666</ele><time>2026-04-18T00:02:17.976Z</time></trkpt><trkpt lat="-36.730564" lon="174.4079371"><ele>124.83333333333333</ele><time>2026-04-18T00:02:20.975Z</time></trkpt><trkpt lat="-36.7306326" lon="174.4079231"><ele>126.0</ele><time>2026-04-18T00:02:22.975Z</time></trkpt><trkpt lat="-36.7306982" lon="174.4079017"><ele>126.0</ele><time>2026-04-18T00:02:25.975Z</time></trkpt><trkpt lat="-36.7307643" lon="174.4079488"><ele>126.0</ele><time>2026-04-18T00:02:28.975Z</time></trkpt><trkpt lat="-36.7307921" lon="174.4080376"><ele>126.0</ele><time>2026-04-18T00:02:31.975Z</time></trkpt><trkpt lat="-36.7307951" lon="174.4081395"><ele>126.0</ele><time>2026-04-18T00:02:34.975Z</time></trkpt><trkpt lat="-36.7308027" lon="174.4082439"><ele>126.0</ele><time>2026-04-18T00:02:37.975Z</time></trkpt><trkpt lat="-36.7308375" lon="174.4083094"><ele>126.0</ele><time>2026-04-18T00:02:39.976Z</time></trkpt><trkpt lat="-36.7308951" lon="174.4083549"><ele>126.0</ele><time>2026-04-18T00:02:41.976Z</time></trkpt><trkpt lat="-36.7309219" lon="174.4084295"><ele>126.33333333333333</ele><time>2026-04-18T00:02:43.975Z</time></trkpt><trkpt lat="-36.7309249" lon="174.4085271"><ele>126.66666666666666</ele><time>2026-04-18T00:02:46.975Z</time></trkpt><trkpt lat="-36.7309211" lon="174.40861"><ele>127.0</ele><time>2026-04-18T00:02:48.975Z</time></trkpt><trkpt lat="-36.7309197" lon="174.408719"><ele>127.33333333333333</ele><time>2026-04-18T00:02:50.976Z</time></trkpt><trkpt lat="-36.7309076" lon="174.4088319"><ele>127.66666666666666</ele><time>2026-04-18T00:02:52.976Z</time></trkpt><trkpt lat="-36.7308981" lon="174.4089417"><ele>128.0</ele><time>2026-04-18T00:02:54.977Z</time></trkpt><trkpt lat="-36.7308856" lon="174.4090353"><ele>129.0</ele><time>2026-04-18T00:02:56.975Z</time></trkpt><trkpt lat="-36.7308482" lon="174.4091208"><ele>130.0</ele><time>2026-04-18T00:02:58.975Z</time></trkpt><trkpt lat="-36.7308134" lon="174.4092015"><ele>131.0</ele><time>2026-04-18T00:03:00.976Z</time></trkpt><trkpt lat="-36.7307798" lon="174.4092838"><ele>132.0</ele><time>2026-04-18T00:03:02.975Z</time></trkpt><trkpt lat="-36.7307468" lon="174.4093766"><ele>133.0</ele><time>2026-04-18T00:03:04.976Z</time></trkpt><trkpt lat="-36.7307129" lon="174.4094701"><ele>134.0</ele><time>2026-04-18T00:03:06.975Z</time></trkpt><trkpt lat="-36.7306774" lon="174.4095676"><ele>134.0</ele><time>2026-04-18T00:03:08.974Z</time></trkpt><trkpt lat="-36.7306329" lon="174.4096574"><ele>134.0</ele><time>2026-04-18T00:03:10.975Z</time></trkpt><trkpt lat="-36.7305989" lon="174.4097476"><ele>134.0</ele><time>2026-04-18T00:03:12.976Z</time></trkpt><trkpt lat="-36.7305625" lon="174.4098297"><ele>134.0</ele><time>2026-04-18T00:03:14.975Z</time></trkpt><trkpt lat="-36.7305691" lon="174.4099164"><ele>134.0</ele><time>2026-04-18T00:03:17.976Z</time></trkpt><trkpt lat="-36.7306208" lon="174.4099878"><ele>134.0</ele><time>2026-04-18T00:03:21.975Z</time></trkpt><trkpt lat="-36.7305821" lon="174.4100548"><ele>134.16666666666666</ele><time>2026-04-18T00:03:25.974Z</time></trkpt><trkpt lat="-36.7305635" lon="174.4101362"><ele>134.33333333333331</ele><time>2026-04-18T00:04:17.975Z</time></trkpt><trkpt lat="-36.7305287" lon="174.4102295"><ele>134.5</ele><time>2026-04-18T00:04:20.975Z</time></trkpt><trkpt lat="-36.7304841" lon="174.4102971"><ele>134.66666666666666</ele><time>2026-04-18T00:04:22.975Z</time></trkpt><trkpt lat="-36.7304231" lon="174.4103636"><ele>134.83333333333334</ele><time>2026-04-18T00:04:25.975Z</time></trkpt><trkpt lat="-36.7303748" lon="174.4104494"><ele>135.0</ele><time>2026-04-18T00:04:28.975Z</time></trkpt><trkpt lat="-36.730402" lon="174.4105602"><ele>135.0</ele><time>2026-04-18T00:04:31.976Z</time></trkpt><trkpt lat="-36.7304122" lon="174.4106401"><ele>135.0</ele><time>2026-04-18T00:04:33.975Z</time></trkpt><trkpt lat="-36.7304087" lon="174.4107358"><ele>135.0</ele><time>2026-04-18T00:04:35.976Z</time></trkpt><trkpt lat="-36.7303686" lon="174.4109107"><ele>135.0</ele><time>2026-04-18T00:04:37.974Z</time></trkpt><trkpt lat="-36.7303325" lon="174.4109989"><ele>135.0</ele><time>2026-04-18T00:04:39.975Z</time></trkpt><trkpt lat="-36.7302962" lon="174.4111004"><ele>135.0</ele><time>2026-04-18T00:04:41.975Z</time></trkpt><trkpt lat="-36.7302557" lon="174.4111751"><ele>135.0</ele><time>2026-04-18T00:04:43.975Z</time></trkpt><trkpt lat="-36.7302224" lon="174.4112545"><ele>135.0</ele><time>2026-04-18T00:04:46.975Z</time></trkpt><trkpt lat="-36.7301906" lon="174.4113546"><ele>135.0</ele><time>2026-04-18T00:04:49.975Z</time></trkpt><trkpt lat="-36.7301558" lon="174.4114321"><ele>135.0</ele><time>2026-04-18T00:04:51.976Z</time></trkpt><trkpt lat="-36.7301165" lon="174.4114989"><ele>135.0</ele><time>2026-04-18T00:04:53.975Z</time></trkpt><trkpt lat="-36.7301097" lon="174.4115823"><ele>135.0</ele><time>2026-04-18T00:04:54.976Z</time></trkpt><trkpt lat="-36.7300956" lon="174.411695"><ele>134.2</ele><time>2026-04-18T00:04:56.976Z</time></trkpt><trkpt lat="-36.7300665" lon="174.411775"><ele>133.4</ele><time>2026-04-18T00:04:57.976Z</time></trkpt><trkpt lat="-36.7300225" lon="174.4119073"><ele>132.6</ele><time>2026-04-18T00:04:59.976Z</time></trkpt><trkpt lat="-36.7299717" lon="174.4120346"><ele>131.8</ele><time>2026-04-18T00:05:01.975Z</time></trkpt><trkpt lat="-36.7299411" lon="174.4121162"><ele>131.0</ele><time>2026-04-18T00:05:02.976Z</time></trkpt><trkpt lat="-36.72989" lon="174.4121972"><ele>129.83333333333331</ele><time>2026-04-18T00:05:03.975Z</time></trkpt><trkpt lat="-36.7298376" lon="174.4122817"><ele>128.66666666666666</ele><time>2026-04-18T00:05:04.976Z</time></trkpt><trkpt lat="-36.7298728" lon="174.4123501"><ele>127.5</ele><time>2026-04-18T00:05:05.975Z</time></trkpt><trkpt lat="-36.7299472" lon="174.4124201"><ele>126.33333333333334</ele><time>2026-04-18T00:05:07.976Z</time></trkpt><trkpt lat="-36.7300503" lon="174.4123843"><ele>125.16666666666667</ele><time>2026-04-18T00:05:09.975Z</time></trkpt><trkpt lat="-36.7301245" lon="174.4123323"><ele>124.0</ele><time>2026-04-18T00:05:11.977Z</time></trkpt><trkpt lat="-36.7302098" lon="174.4123709"><ele>124.16666666666667</ele><time>2026-04-18T00:05:13.976Z</time></trkpt><trkpt lat="-36.730263" lon="174.4124207"><ele>124.33333333333334</ele><time>2026-04-18T00:05:14.976Z</time></trkpt><trkpt lat="-36.7303122" lon="174.4124942"><ele>124.5</ele><time>2026-04-18T00:05:15.976Z</time></trkpt><trkpt lat="-36.7303423" lon="174.4126105"><ele>124.66666666666666</ele><time>2026-04-18T00:05:16.976Z</time></trkpt><trkpt lat="-36.7303596" lon="174.4126951"><ele>124.83333333333333</ele><time>2026-04-18T00:05:17.975Z</time></trkpt><trkpt lat="-36.7303446" lon="174.4128229"><ele>125.0</ele><time>2026-04-18T00:05:19.976Z</time></trkpt><trkpt lat="-36.7303369" lon="174.4129013"><ele>124.99999999999999</ele><time>2026-04-18T00:05:20.975Z</time></trkpt><trkpt lat="-36.7303356" lon="174.4129878"><ele>125.0</ele><time>2026-04-18T00:05:22.976Z</time></trkpt><trkpt lat="-36.730402" lon="174.4129641"><ele>125.0</ele><time>2026-04-18T00:05:26.974Z</time></trkpt><trkpt lat="-36.7304033" lon="174.412878"><ele>125.0</ele><time>2026-04-18T00:05:29.976Z</time></trkpt><trkpt lat="-36.7304151" lon="174.4127834"><ele>124.99999999999999</ele><time>2026-04-18T00:05:32.974Z</time></trkpt><trkpt lat="-36.7304685" lon="174.4127187"><ele>125.0</ele><time>2026-04-18T00:05:34.974Z</time></trkpt><trkpt lat="-36.7305092" lon="174.4125987"><ele>124.99999999999999</ele><time>2026-04-18T00:05:36.976Z</time></trkpt><trkpt lat="-36.7305346" lon="174.4125019"><ele>125.0</ele><time>2026-04-18T00:05:38.976Z</time></trkpt><trkpt lat="-36.7305838" lon="174.4124333"><ele>125.0</ele><time>2026-04-18T00:05:40.974Z</time></trkpt><trkpt lat="-36.7306617" lon="174.41237"><ele>125.0</ele><time>2026-04-18T00:05:44.975Z</time></trkpt><trkpt lat="-36.7307489" lon="174.4123568"><ele>124.99999999999999</ele><time>2026-04-18T00:05:46.975Z</time></trkpt><trkpt lat="-36.7308214" lon="174.412327"><ele>125.0</ele><time>2026-04-18T00:05:48.975Z</time></trkpt><trkpt lat="-36.7308819" lon="174.4122982"><ele>124.99999999999999</ele><time>2026-04-18T00:05:50.975Z</time></trkpt><trkpt lat="-36.7309439" lon="174.4122697"><ele>125.0</ele><time>2026-04-18T00:05:53.975Z</time></trkpt><trkpt lat="-36.7309969" lon="174.4123132"><ele>125.0</ele><time>2026-04-18T00:05:55.975Z</time></trkpt><trkpt lat="-36.7310867" lon="174.4123727"><ele>125.0</ele><time>2026-04-18T00:05:58.975Z</time></trkpt><trkpt lat="-36.7311659" lon="174.4123869"><ele>124.99999999999999</ele><time>2026-04-18T00:06:00.975Z</time></trkpt><trkpt lat="-36.7312325" lon="174.4123679"><ele>125.0</ele><time>2026-04-18T00:06:02.974Z</time></trkpt><trkpt lat="-36.7313034" lon="174.4123488"><ele>125.2</ele><time>2026-04-18T00:06:04.977Z</time></trkpt><trkpt lat="-36.7313781" lon="174.4123223"><ele>125.4</ele><time>2026-04-18T00:06:06.975Z</time></trkpt><trkpt lat="-36.7314684" lon="174.4123311"><ele>125.6</ele><time>2026-04-18T00:06:08.975Z</time></trkpt><trkpt lat="-36.7315755" lon="174.4123877"><ele>125.8</ele><time>2026-04-18T00:06:10.975Z</time></trkpt><trkpt lat="-36.7316674" lon="174.4124143"><ele>126.0</ele><time>2026-04-18T00:06:12.975Z</time></trkpt><trkpt lat="-36.7317628" lon="174.4123961"><ele>126.0</ele><time>2026-04-18T00:06:14.974Z</time></trkpt><trkpt lat="-36.7318328" lon="174.4123903"><ele>126.0</ele><time>2026-04-18T00:06:16.974Z</time></trkpt><trkpt lat="-36.7319368" lon="174.4124192"><ele>126.0</ele><time>2026-04-18T00:06:18.976Z</time></trkpt><trkpt lat="-36.7320351" lon="174.4124501"><ele>126.0</ele><time>2026-04-18T00:06:20.976Z</time></trkpt><trkpt lat="-36.7321177" lon="174.4124508"><ele>126.0</ele><time>2026-04-18T00:06:22.976Z</time></trkpt><trkpt lat="-36.7321882" lon="174.4124001"><ele>126.0</ele><time>2026-04-18T00:06:24.975Z</time></trkpt><trkpt lat="-36.7322455" lon="174.4123517"><ele>125.83333333333333</ele><time>2026-04-18T00:06:26.976Z</time></trkpt><trkpt lat="-36.7323276" lon="174.4123244"><ele>125.66666666666666</ele><time>2026-04-18T00:06:29.976Z</time></trkpt><trkpt lat="-36.7324062" lon="174.4122611"><ele>125.5</ele><time>2026-04-18T00:06:32.975Z</time></trkpt><trkpt lat="-36.7324525" lon="174.4122064"><ele>125.33333333333333</ele><time>2026-04-18T00:06:34.976Z</time></trkpt><trkpt lat="-36.7325048" lon="174.4121525"><ele>125.16666666666666</ele><time>2026-04-18T00:06:36.975Z</time></trkpt><trkpt lat="-36.7325594" lon="174.4120855"><ele>125.0</ele><time>2026-04-18T00:06:38.977Z</time></trkpt><trkpt lat="-36.7326513" lon="174.4120714"><ele>124.83333333333333</ele><time>2026-04-18T00:06:40.976Z</time></trkpt><trkpt lat="-36.7327334" lon="174.4120634"><ele>124.66666666666666</ele><time>2026-04-18T00:06:42.975Z</time></trkpt><trkpt lat="-36.7328287" lon="174.4120879"><ele>124.5</ele><time>2026-04-18T00:06:44.976Z</time></trkpt><trkpt lat="-36.7329123" lon="174.4120698"><ele>124.33333333333334</ele><time>2026-04-18T00:06:46.976Z</time></trkpt><trkpt lat="-36.732994" lon="174.4120669"><ele>124.16666666666667</ele><time>2026-04-18T00:06:48.975Z</time></trkpt><trkpt lat="-36.733079" lon="174.4120604"><ele>124.0</ele><time>2026-04-18T00:06:50.976Z</time></trkpt><trkpt lat="-36.733149" lon="174.4120093"><ele>124.0</ele><time>2026-04-18T00:06:52.976Z</time></trkpt><trkpt lat="-36.7332071" lon="174.4119619"><ele>124.0</ele><time>2026-04-18T00:06:54.976Z</time></trkpt><trkpt lat="-36.733275" lon="174.4119518"><ele>124.0</ele><time>2026-04-18T00:06:56.974Z</time></trkpt><trkpt lat="-36.733364" lon="174.4119602"><ele>124.0</ele><time>2026-04-18T00:06:59.974Z</time></trkpt><trkpt lat="-36.7333373" lon="174.4122634"><ele>124.16666666666667</ele><time>2026-04-18T00:07:02.975Z</time></trkpt><trkpt lat="-36.7333925" lon="174.4123562"><ele>124.33333333333334</ele><time>2026-04-18T00:07:05.976Z</time></trkpt><trkpt lat="-36.7334637" lon="174.4123771"><ele>124.5</ele><time>2026-04-18T00:07:07.975Z</time></trkpt><trkpt lat="-36.7335236" lon="174.41244"><ele>124.66666666666666</ele><time>2026-04-18T00:07:10.975Z</time></trkpt><trkpt lat="-36.7335688" lon="174.4125259"><ele>124.83333333333333</ele><time>2026-04-18T00:07:12.974Z</time></trkpt><trkpt lat="-36.7335667" lon="174.4126615"><ele>125.0</ele><time>2026-04-18T00:07:14.975Z</time></trkpt><trkpt lat="-36.7335703" lon="174.4127749"><ele>125.33333333333333</ele><time>2026-04-18T00:07:16.975Z</time></trkpt><trkpt lat="-36.7335951" lon="174.4128645"><ele>125.66666666666666</ele><time>2026-04-18T00:07:18.974Z</time></trkpt><trkpt lat="-36.7336123" lon="174.4129539"><ele>126.0</ele><time>2026-04-18T00:07:20.974Z</time></trkpt><trkpt lat="-36.7336309" lon="174.4130408"><ele>126.33333333333334</ele><time>2026-04-18T00:07:22.975Z</time></trkpt><trkpt lat="-36.7336201" lon="174.4131521"><ele>126.66666666666667</ele><time>2026-04-18T00:07:25.974Z</time></trkpt><trkpt lat="-36.7336798" lon="174.4132484"><ele>127.0</ele><time>2026-04-18T00:07:28.974Z</time></trkpt><trkpt lat="-36.7337705" lon="174.4132968"><ele>127.00000000000001</ele><time>2026-04-18T00:07:30.975Z</time></trkpt><trkpt lat="-36.7338245" lon="174.4133539"><ele>127.0</ele><time>2026-04-18T00:07:32.974Z</time></trkpt><trkpt lat="-36.7338828" lon="174.4133942"><ele>127.0</ele><time>2026-04-18T00:07:34.974Z</time></trkpt><trkpt lat="-36.7339471" lon="174.4134285"><ele>127.0</ele><time>2026-04-18T00:07:37.975Z</time></trkpt><trkpt lat="-36.7340085" lon="174.4135161"><ele>127.00000000000001</ele><time>2026-04-18T00:07:40.974Z</time></trkpt><trkpt lat="-36.7340722" lon="174.4135646"><ele>127.0</ele><time>2026-04-18T00:07:42.975Z</time></trkpt><trkpt lat="-36.7341442" lon="174.4136373"><ele>127.00000000000001</ele><time>2026-04-18T00:07:45.975Z</time></trkpt><trkpt lat="-36.7341819" lon="174.413705"><ele>127.0</ele><time>2026-04-18T00:07:47.976Z</time></trkpt><trkpt lat="-36.7342476" lon="174.413753"><ele>127.0</ele><time>2026-04-18T00:07:50.975Z</time></trkpt><trkpt lat="-36.734332" lon="174.4137811"><ele>127.0</ele><time>2026-04-18T00:07:53.976Z</time></trkpt><trkpt lat="-36.7344085" lon="174.4137931"><ele>127.00000000000001</ele><time>2026-04-18T00:07:55.975Z</time></trkpt><trkpt lat="-36.734454" lon="174.4138689"><ele>127.0</ele><time>2026-04-18T00:07:58.974Z</time></trkpt><trkpt lat="-36.7344926" lon="174.4139664"><ele>127.83333333333334</ele><time>2026-04-18T00:08:01.975Z</time></trkpt><trkpt lat="-36.7345627" lon="174.4140424"><ele>128.66666666666669</ele><time>2026-04-18T00:08:04.976Z</time></trkpt><trkpt lat="-36.7346512" lon="174.4140901"><ele>129.5</ele><time>2026-04-18T00:08:07.974Z</time></trkpt><trkpt lat="-36.7347235" lon="174.4141398"><ele>130.33333333333334</ele><time>2026-04-18T00:08:09.976Z</time></trkpt><trkpt lat="-36.734806" lon="174.4141675"><ele>131.16666666666666</ele><time>2026-04-18T00:08:11.976Z</time></trkpt><trkpt lat="-36.7348792" lon="174.41417"><ele>132.0</ele><time>2026-04-18T00:08:13.975Z</time></trkpt><trkpt lat="-36.7349579" lon="174.4140989"><ele>132.0</ele><time>2026-04-18T00:08:16.975Z</time></trkpt><trkpt lat="-36.7350232" lon="174.4140765"><ele>132.0</ele><time>2026-04-18T00:08:18.975Z</time></trkpt><trkpt lat="-36.7350984" lon="174.4140768"><ele>132.0</ele><time>2026-04-18T00:08:20.975Z</time></trkpt><trkpt lat="-36.7351888" lon="174.4140748"><ele>132.0</ele><time>2026-04-18T00:08:22.976Z</time></trkpt><trkpt lat="-36.7352982" lon="174.4141205"><ele>132.0</ele><time>2026-04-18T00:08:25.974Z</time></trkpt><trkpt lat="-36.7353663" lon="174.4141127"><ele>132.0</ele><time>2026-04-18T00:08:27.976Z</time></trkpt><trkpt lat="-36.7354404" lon="174.4140807"><ele>131.83333333333334</ele><time>2026-04-18T00:08:29.975Z</time></trkpt><trkpt lat="-36.7355029" lon="174.414122"><ele>131.66666666666666</ele><time>2026-04-18T00:08:31.975Z</time></trkpt><trkpt lat="-36.7355665" lon="174.4141529"><ele>131.5</ele><time>2026-04-18T00:08:35.975Z</time></trkpt><trkpt lat="-36.7356184" lon="174.4140548"><ele>131.33333333333331</ele><time>2026-04-18T00:08:38.976Z</time></trkpt><trkpt lat="-36.7356379" lon="174.4139621"><ele>131.16666666666666</ele><time>2026-04-18T00:08:40.975Z</time></trkpt><trkpt lat="-36.7356679" lon="174.4138769"><ele>131.0</ele><time>2026-04-18T00:08:42.975Z</time></trkpt><trkpt lat="-36.7357012" lon="174.413789"><ele>131.0</ele><time>2026-04-18T00:08:44.976Z</time></trkpt><trkpt lat="-36.7357291" lon="174.4136947"><ele>131.0</ele><time>2026-04-18T00:08:46.975Z</time></trkpt><trkpt lat="-36.7357708" lon="174.4135957"><ele>131.0</ele><time>2026-04-18T00:08:48.976Z</time></trkpt><trkpt lat="-36.7358173" lon="174.4134856"><ele>131.0</ele><time>2026-04-18T00:08:50.974Z</time></trkpt><trkpt lat="-36.7358433" lon="174.413365"><ele>131.0</ele><time>2026-04-18T00:08:52.975Z</time></trkpt><trkpt lat="-36.7358627" lon="174.4132454"><ele>131.0</ele><time>2026-04-18T00:08:54.975Z</time></trkpt><trkpt lat="-36.7358784" lon="174.413098"><ele>131.0</ele><time>2026-04-18T00:08:56.975Z</time></trkpt><trkpt lat="-36.735903" lon="174.4129516"><ele>131.0</ele><time>2026-04-18T00:08:58.975Z</time></trkpt><trkpt lat="-36.7359299" lon="174.4128101"><ele>131.0</ele><time>2026-04-18T00:09:00.975Z</time></trkpt><trkpt lat="-36.7359546" lon="174.4126874"><ele>131.4</ele><time>2026-04-18T00:09:02.976Z</time></trkpt><trkpt lat="-36.7359969" lon="174.4125723"><ele>131.8</ele><time>2026-04-18T00:09:04.974Z</time></trkpt><trkpt lat="-36.7360117" lon="174.4124451"><ele>132.20000000000002</ele><time>2026-04-18T00:09:06.975Z</time></trkpt><trkpt lat="-36.736027" lon="174.412332"><ele>132.6</ele><time>2026-04-18T00:09:08.975Z</time></trkpt><trkpt lat="-36.7360547" lon="174.4121916"><ele>133.0</ele><time>2026-04-18T00:09:10.974Z</time></trkpt><trkpt lat="-36.7361093" lon="174.4120714"><ele>132.20000000000002</ele><time>2026-04-18T00:09:12.974Z</time></trkpt><trkpt lat="-36.7361271" lon="174.4119336"><ele>131.4</ele><time>2026-04-18T00:09:14.974Z</time></trkpt><trkpt lat="-36.7361235" lon="174.4118152"><ele>130.60000000000002</ele><time>2026-04-18T00:09:16.976Z</time></trkpt><trkpt lat="-36.7361452" lon="174.411688"><ele>129.8</ele><time>2026-04-18T00:09:18.975Z</time></trkpt><trkpt lat="-36.7361463" lon="174.4115713"><ele>129.0</ele><time>2026-04-18T00:09:20.974Z</time></trkpt><trkpt lat="-36.7361579" lon="174.4114823"><ele>129.0</ele><time>2026-04-18T00:09:22.975Z</time></trkpt><trkpt lat="-36.7361972" lon="174.4114051"><ele>129.0</ele><time>2026-04-18T00:09:24.976Z</time></trkpt><trkpt lat="-36.7362693" lon="174.4113319"><ele>129.0</ele><time>2026-04-18T00:09:27.975Z</time></trkpt><trkpt lat="-36.7363402" lon="174.4113359"><ele>129.0</ele><time>2026-04-18T00:09:29.976Z</time></trkpt><trkpt lat="-36.736417" lon="174.4113769"><ele>129.0</ele><time>2026-04-18T00:09:31.976Z</time></trkpt><trkpt lat="-36.7364795" lon="174.4114046"><ele>129.0</ele><time>2026-04-18T00:09:33.976Z</time></trkpt><trkpt lat="-36.7365461" lon="174.4114184"><ele>129.0</ele><time>2026-04-18T00:09:36.974Z</time></trkpt><trkpt lat="-36.7366321" lon="174.4114515"><ele>129.0</ele><time>2026-04-18T00:09:39.976Z</time></trkpt><trkpt lat="-36.7366977" lon="174.4114773"><ele>129.0</ele><time>2026-04-18T00:09:41.976Z</time></trkpt><trkpt lat="-36.7367779" lon="174.4115071"><ele>129.0</ele><time>2026-04-18T00:09:43.975Z</time></trkpt><trkpt lat="-36.736874" lon="174.4115422"><ele>129.0</ele><time>2026-04-18T00:09:45.974Z</time></trkpt><trkpt lat="-36.7369343" lon="174.4115735"><ele>129.0</ele><time>2026-04-18T00:09:46.975Z</time></trkpt><trkpt lat="-36.7369978" lon="174.4116103"><ele>128.66666666666666</ele><time>2026-04-18T00:09:47.975Z</time></trkpt><trkpt lat="-36.7370684" lon="174.4116459"><ele>128.33333333333334</ele><time>2026-04-18T00:09:48.975Z</time></trkpt><trkpt lat="-36.7371289" lon="174.4116709"><ele>128.0</ele><time>2026-04-18T00:09:49.974Z</time></trkpt><trkpt lat="-36.7371941" lon="174.4117004"><ele>127.66666666666667</ele><time>2026-04-18T00:09:50.974Z</time></trkpt><trkpt lat="-36.7373229" lon="174.4117608"><ele>127.33333333333334</ele><time>2026-04-18T00:09:52.975Z</time></trkpt><trkpt lat="-36.7373879" lon="174.4117924"><ele>127.0</ele><time>2026-04-18T00:09:53.975Z</time></trkpt><trkpt lat="-36.7374568" lon="174.4118188"><ele>127.00000000000001</ele><time>2026-04-18T00:09:54.975Z</time></trkpt><trkpt lat="-36.7375254" lon="174.4118479"><ele>127.0</ele><time>2026-04-18T00:09:55.975Z</time></trkpt><trkpt lat="-36.7375934" lon="174.4118857"><ele>127.0</ele><time>2026-04-18T00:09:56.975Z</time></trkpt><trkpt lat="-36.7376668" lon="174.4119255"><ele>127.0</ele><time>2026-04-18T00:09:57.974Z</time></trkpt><trkpt lat="-36.7377289" lon="174.4119582"><ele>127.00000000000001</ele><time>2026-04-18T00:09:58.976Z</time></trkpt><trkpt lat="-36.7378365" lon="174.4120173"><ele>127.0</ele><time>2026-04-18T00:10:00.975Z</time></trkpt><trkpt lat="-36.7379185" lon="174.4120423"><ele>126.8</ele><time>2026-04-18T00:10:02.976Z</time></trkpt><trkpt lat="-36.738001" lon="174.4120798"><ele>126.6</ele><time>2026-04-18T00:10:04.975Z</time></trkpt><trkpt lat="-36.7380992" lon="174.4121274"><ele>126.39999999999999</ele><time>2026-04-18T00:10:06.974Z</time></trkpt><trkpt lat="-36.7382" lon="174.4121803"><ele>126.19999999999999</ele><time>2026-04-18T00:10:08.976Z</time></trkpt><trkpt lat="-36.7383026" lon="174.4122336"><ele>126.0</ele><time>2026-04-18T00:10:10.974Z</time></trkpt><trkpt lat="-36.7384069" lon="174.4122772"><ele>126.0</ele><time>2026-04-18T00:10:12.975Z</time></trkpt><trkpt lat="-36.7385046" lon="174.4123365"><ele>126.0</ele><time>2026-04-18T00:10:14.974Z</time></trkpt><trkpt lat="-36.7386115" lon="174.4123835"><ele>126.0</ele><time>2026-04-18T00:10:16.975Z</time></trkpt><trkpt lat="-36.7387157" lon="174.4124379"><ele>126.0</ele><time>2026-04-18T00:10:18.974Z</time></trkpt><trkpt lat="-36.7388213" lon="174.4124941"><ele>125.6</ele><time>2026-04-18T00:10:20.974Z</time></trkpt><trkpt lat="-36.7389244" lon="174.4125487"><ele>125.19999999999999</ele><time>2026-04-18T00:10:22.976Z</time></trkpt><trkpt lat="-36.7390241" lon="174.4125994"><ele>124.80000000000001</ele><time>2026-04-18T00:10:24.975Z</time></trkpt><trkpt lat="-36.7391258" lon="174.4126556"><ele>124.4</ele><time>2026-04-18T00:10:26.975Z</time></trkpt><trkpt lat="-36.7392304" lon="174.412707"><ele>124.0</ele><time>2026-04-18T00:10:28.975Z</time></trkpt><trkpt lat="-36.7393423" lon="174.4127562"><ele>124.80000000000001</ele><time>2026-04-18T00:10:30.974Z</time></trkpt><trkpt lat="-36.7394505" lon="174.4128137"><ele>125.60000000000001</ele><time>2026-04-18T00:10:32.976Z</time></trkpt><trkpt lat="-36.7395102" lon="174.4128482"><ele>126.4</ele><time>2026-04-18T00:10:33.976Z</time></trkpt><trkpt lat="-36.7396242" lon="174.4129142"><ele>127.2</ele><time>2026-04-18T00:10:35.974Z</time></trkpt><trkpt lat="-36.7397412" lon="174.4129692"><ele>128.0</ele><time>2026-04-18T00:10:37.975Z</time></trkpt><trkpt lat="-36.7398554" lon="174.4130286"><ele>128.0</ele><time>2026-04-18T00:10:39.974Z</time></trkpt><trkpt lat="-36.7399629" lon="174.4130892"><ele>128.0</ele><time>2026-04-18T00:10:41.976Z</time></trkpt><trkpt lat="-36.7400604" lon="174.41314"><ele>128.0</ele><time>2026-04-18T00:10:43.976Z</time></trkpt><trkpt lat="-36.740165" lon="174.4131885"><ele>128.0</ele><time>2026-04-18T00:10:45.975Z</time></trkpt><trkpt lat="-36.7402708" lon="174.413243"><ele>127.5</ele><time>2026-04-18T00:10:47.975Z</time></trkpt><trkpt lat="-36.7403792" lon="174.4132831"><ele>127.0</ele><time>2026-04-18T00:10:49.977Z</time></trkpt><trkpt lat="-36.7404839" lon="174.4133371"><ele>126.5</ele><time>2026-04-18T00:10:51.975Z</time></trkpt><trkpt lat="-36.7405997" lon="174.4133913"><ele>126.0</ele><time>2026-04-18T00:10:53.976Z</time></trkpt><trkpt lat="-36.7407012" lon="174.4134532"><ele>126.0</ele><time>2026-04-18T00:10:55.974Z</time></trkpt><trkpt lat="-36.7408092" lon="174.4134943"><ele>126.0</ele><time>2026-04-18T00:10:57.974Z</time></trkpt><trkpt lat="-36.7409096" lon="174.4135447"><ele>126.0</ele><time>2026-04-18T00:10:59.974Z</time></trkpt><trkpt lat="-36.7410146" lon="174.4135958"><ele>126.0</ele><time>2026-04-18T00:11:01.975Z</time></trkpt><trkpt lat="-36.7411273" lon="174.4136413"><ele>126.19999999999999</ele><time>2026-04-18T00:11:03.974Z</time></trkpt><trkpt lat="-36.741232" lon="174.4136993"><ele>126.39999999999999</ele><time>2026-04-18T00:11:05.975Z</time></trkpt><trkpt lat="-36.7413358" lon="174.4137403"><ele>126.6</ele><time>2026-04-18T00:11:07.976Z</time></trkpt><trkpt lat="-36.741438" lon="174.4137875"><ele>126.8</ele><time>2026-04-18T00:11:09.976Z</time></trkpt><trkpt lat="-36.741542" lon="174.4138421"><ele>127.0</ele><time>2026-04-18T00:11:11.976Z</time></trkpt><trkpt lat="-36.7416526" lon="174.4138945"><ele>128.6</ele><time>2026-04-18T00:11:13.976Z</time></trkpt><trkpt lat="-36.7417613" lon="174.4139417"><ele>130.2</ele><time>2026-04-18T00:11:15.975Z</time></trkpt><trkpt lat="-36.7418633" lon="174.4139927"><ele>131.8</ele><time>2026-04-18T00:11:17.975Z</time></trkpt><trkpt lat="-36.7419548" lon="174.414058"><ele>133.4</ele><time>2026-04-18T00:11:19.975Z</time></trkpt><trkpt lat="-36.7420459" lon="174.4141151"><ele>135.0</ele><time>2026-04-18T00:11:21.976Z</time></trkpt><trkpt lat="-36.7421298" lon="174.4141744"><ele>135.14285714285714</ele><time>2026-04-18T00:11:23.975Z</time></trkpt><trkpt lat="-36.7421932" lon="174.4142082"><ele>135.28571428571428</ele><time>2026-04-18T00:11:25.974Z</time></trkpt><trkpt lat="-36.7421894" lon="174.4142958"><ele>135.42857142857142</ele><time>2026-04-18T00:11:29.974Z</time></trkpt><trkpt lat="-36.7421421" lon="174.4143541"><ele>135.57142857142856</ele><time>2026-04-18T00:11:31.974Z</time></trkpt><trkpt lat="-36.7421441" lon="174.414434"><ele>135.71428571428572</ele><time>2026-04-18T00:11:33.976Z</time></trkpt><trkpt lat="-36.7422154" lon="174.4144485"><ele>135.85714285714283</ele><time>2026-04-18T00:11:37.977Z</time></trkpt><trkpt lat="-36.7422881" lon="174.4144366"><ele>136.0</ele><time>2026-04-18T00:11:39.975Z</time></trkpt><trkpt lat="-36.7423591" lon="174.4144951"><ele>136.0</ele><time>2026-04-18T00:11:41.974Z</time></trkpt><trkpt lat="-36.7424184" lon="174.4145806"><ele>136.0</ele><time>2026-04-18T00:11:43.976Z</time></trkpt><trkpt lat="-36.7424554" lon="174.4146759"><ele>136.0</ele><time>2026-04-18T00:11:45.975Z</time></trkpt><trkpt lat="-36.7424499" lon="174.4147889"><ele>136.0</ele><time>2026-04-18T00:11:47.975Z</time></trkpt><trkpt lat="-36.7424008" lon="174.4148665"><ele>136.0</ele><time>2026-04-18T00:11:48.977Z</time></trkpt><trkpt lat="-36.7423701" lon="174.4149366"><ele>136.0</ele><time>2026-04-18T00:11:49.975Z</time></trkpt><trkpt lat="-36.7423265" lon="174.4150295"><ele>135.4</ele><time>2026-04-18T00:11:50.974Z</time></trkpt><trkpt lat="-36.7423443" lon="174.4151151"><ele>134.8</ele><time>2026-04-18T00:11:52.975Z</time></trkpt><trkpt lat="-36.7424107" lon="174.4152052"><ele>134.20000000000002</ele><time>2026-04-18T00:11:54.975Z</time></trkpt><trkpt lat="-36.7424985" lon="174.4152365"><ele>133.6</ele><time>2026-04-18T00:11:56.975Z</time></trkpt><trkpt lat="-36.7426003" lon="174.415189"><ele>133.0</ele><time>2026-04-18T00:11:58.975Z</time></trkpt><trkpt lat="-36.7427288" lon="174.4152046"><ele>131.6</ele><time>2026-04-18T00:12:01.974Z</time></trkpt><trkpt lat="-36.7427739" lon="174.4152793"><ele>130.20000000000002</ele><time>2026-04-18T00:12:02.975Z</time></trkpt><trkpt lat="-36.7427972" lon="174.4153571"><ele>128.8</ele><time>2026-04-18T00:12:04.975Z</time></trkpt><trkpt lat="-36.7427396" lon="174.415431"><ele>127.4</ele><time>2026-04-18T00:12:06.974Z</time></trkpt><trkpt lat="-36.7426105" lon="174.4155451"><ele>126.0</ele><time>2026-04-18T00:12:08.975Z</time></trkpt><trkpt lat="-36.7425382" lon="174.4155556"><ele>125.83333333333333</ele><time>2026-04-18T00:12:09.974Z</time></trkpt><trkpt lat="-36.7424588" lon="174.4156095"><ele>125.66666666666666</ele><time>2026-04-18T00:12:11.976Z</time></trkpt><trkpt lat="-36.7423882" lon="174.4156854"><ele>125.5</ele><time>2026-04-18T00:12:13.976Z</time></trkpt><trkpt lat="-36.7423829" lon="174.4157849"><ele>125.33333333333333</ele><time>2026-04-18T00:12:15.976Z</time></trkpt><trkpt lat="-36.7424371" lon="174.4158686"><ele>125.16666666666666</ele><time>2026-04-18T00:12:17.975Z</time></trkpt><trkpt lat="-36.742512" lon="174.415937"><ele>125.0</ele><time>2026-04-18T00:12:19.975Z</time></trkpt><trkpt lat="-36.7425914" lon="174.4159089"><ele>124.99999999999999</ele><time>2026-04-18T00:12:22.975Z</time></trkpt><trkpt lat="-36.7426698" lon="174.4159316"><ele>125.0</ele><time>2026-04-18T00:12:26.976Z</time></trkpt><trkpt lat="-36.7427227" lon="174.4159974"><ele>125.0</ele><time>2026-04-18T00:12:29.974Z</time></trkpt><trkpt lat="-36.7427688" lon="174.4160586"><ele>125.0</ele><time>2026-04-18T00:12:45.976Z</time></trkpt><trkpt lat="-36.7428143" lon="174.4161411"><ele>124.99999999999999</ele><time>2026-04-18T00:12:49.974Z</time></trkpt><trkpt lat="-36.7428526" lon="174.4162062"><ele>125.0</ele><time>2026-04-18T00:12:51.974Z</time></trkpt><trkpt lat="-36.742915" lon="174.4162845"><ele>125.14285714285714</ele><time>2026-04-18T00:12:54.975Z</time></trkpt><trkpt lat="-36.742982" lon="174.4163158"><ele>125.28571428571429</ele><time>2026-04-18T00:12:57.974Z</time></trkpt><trkpt lat="-36.7430604" lon="174.4163142"><ele>125.42857142857143</ele><time>2026-04-18T00:12:59.975Z</time></trkpt><trkpt lat="-36.7431357" lon="174.4163211"><ele>125.57142857142857</ele><time>2026-04-18T00:13:02.974Z</time></trkpt><trkpt lat="-36.743179" lon="174.4163884"><ele>125.71428571428572</ele><time>2026-04-18T00:13:04.974Z</time></trkpt><trkpt lat="-36.7432433" lon="174.4164194"><ele>125.85714285714286</ele><time>2026-04-18T00:13:06.975Z</time></trkpt><trkpt lat="-36.7433035" lon="174.4164779"><ele>126.0</ele><time>2026-04-18T00:13:09.975Z</time></trkpt><trkpt lat="-36.7433004" lon="174.4165678"><ele>126.0</ele><time>2026-04-18T00:13:12.974Z</time></trkpt><trkpt lat="-36.7432307" lon="174.416648"><ele>126.0</ele><time>2026-04-18T00:13:15.974Z</time></trkpt><trkpt lat="-36.7431849" lon="174.4167058"><ele>126.0</ele><time>2026-04-18T00:13:17.974Z</time></trkpt><trkpt lat="-36.7431484" lon="174.4167918"><ele>126.0</ele><time>2026-04-18T00:13:19.975Z</time></trkpt><trkpt lat="-36.7430698" lon="174.4168397"><ele>126.0</ele><time>2026-04-18T00:13:21.976Z</time></trkpt><trkpt lat="-36.7430066" lon="174.4168857"><ele>126.0</ele><time>2026-04-18T00:13:23.974Z</time></trkpt><trkpt lat="-36.7429938" lon="174.4169773"><ele>126.0</ele><time>2026-04-18T00:13:25.975Z</time></trkpt><trkpt lat="-36.7430451" lon="174.4170392"><ele>126.0</ele><time>2026-04-18T00:13:27.974Z</time></trkpt><trkpt lat="-36.7431074" lon="174.4170634"><ele>126.0</ele><time>2026-04-18T00:13:29.975Z</time></trkpt><trkpt lat="-36.7431535" lon="174.4171519"><ele>126.0</ele><time>2026-04-18T00:13:32.977Z</time></trkpt><trkpt lat="-36.7431356" lon="174.4172316"><ele>126.0</ele><time>2026-04-18T00:13:34.975Z</time></trkpt><trkpt lat="-36.7431364" lon="174.4173201"><ele>126.0</ele><time>2026-04-18T00:13:36.974Z</time></trkpt><trkpt lat="-36.743195" lon="174.4173969"><ele>126.0</ele><time>2026-04-18T00:13:39.974Z</time></trkpt><trkpt lat="-36.7432878" lon="174.4173992"><ele>126.16666666666667</ele><time>2026-04-18T00:13:42.975Z</time></trkpt><trkpt lat="-36.7433502" lon="174.4173349"><ele>126.33333333333334</ele><time>2026-04-18T00:13:45.974Z</time></trkpt><trkpt lat="-36.7434207" lon="174.4173639"><ele>126.5</ele><time>2026-04-18T00:13:48.974Z</time></trkpt><trkpt lat="-36.7434884" lon="174.4174245"><ele>126.66666666666667</ele><time>2026-04-18T00:13:50.974Z</time></trkpt><trkpt lat="-36.7435379" lon="174.417496"><ele>126.83333333333334</ele><time>2026-04-18T00:13:52.974Z</time></trkpt><trkpt lat="-36.7435986" lon="174.4175558"><ele>127.0</ele><time>2026-04-18T00:13:54.975Z</time></trkpt><trkpt lat="-36.7436707" lon="174.4175496"><ele>127.0</ele><time>2026-04-18T00:13:56.974Z</time></trkpt><trkpt lat="-36.743717" lon="174.4174862"><ele>127.0</ele><time>2026-04-18T00:13:58.974Z</time></trkpt><trkpt lat="-36.7437031" lon="174.4173831"><ele>127.0</ele><time>2026-04-18T00:14:01.975Z</time></trkpt><trkpt lat="-36.7437234" lon="174.4173076"><ele>127.0</ele><time>2026-04-18T00:14:03.974Z</time></trkpt><trkpt lat="-36.743782" lon="174.4172713"><ele>127.0</ele><time>2026-04-18T00:14:05.975Z</time></trkpt><trkpt lat="-36.7438474" lon="174.4172011"><ele>127.0</ele><time>2026-04-18T00:14:08.975Z</time></trkpt><trkpt lat="-36.7438908" lon="174.4171392"><ele>127.0</ele><time>2026-04-18T00:14:10.975Z</time></trkpt><trkpt lat="-36.7439392" lon="174.4170665"><ele>127.00000000000001</ele><time>2026-04-18T00:14:12.975Z</time></trkpt><trkpt lat="-36.7440153" lon="174.4170286"><ele>127.0</ele><time>2026-04-18T00:14:14.977Z</time></trkpt><trkpt lat="-36.7441005" lon="174.4170299"><ele>127.0</ele><time>2026-04-18T00:14:16.975Z</time></trkpt><trkpt lat="-36.7441635" lon="174.4170215"><ele>127.0</ele><time>2026-04-18T00:14:17.976Z</time></trkpt><trkpt lat="-36.7442639" lon="174.4169733"><ele>127.00000000000001</ele><time>2026-04-18T00:14:19.974Z</time></trkpt><trkpt lat="-36.744359" lon="174.4169119"><ele>127.0</ele><time>2026-04-18T00:14:21.974Z</time></trkpt><trkpt lat="-36.7443176" lon="174.4168208"><ele>127.0</ele><time>2026-04-18T00:14:24.977Z</time></trkpt><trkpt lat="-36.7442476" lon="174.4167948"><ele>126.99999999999999</ele><time>2026-04-18T00:14:26.975Z</time></trkpt><trkpt lat="-36.7441341" lon="174.4167343"><ele>126.99999999999999</ele><time>2026-04-18T00:14:28.975Z</time></trkpt><trkpt lat="-36.7440253" lon="174.4166875"><ele>127.0</ele><time>2026-04-18T00:14:30.975Z</time></trkpt><trkpt lat="-36.7439684" lon="174.4165924"><ele>127.0</ele><time>2026-04-18T00:14:32.974Z</time></trkpt><trkpt lat="-36.7439712" lon="174.4165095"><ele>127.0</ele><time>2026-04-18T00:14:33.975Z</time></trkpt><trkpt lat="-36.7439674" lon="174.4164266"><ele>126.99999999999999</ele><time>2026-04-18T00:14:34.974Z</time></trkpt><trkpt lat="-36.7439274" lon="174.4163379"><ele>126.99999999999999</ele><time>2026-04-18T00:14:36.975Z</time></trkpt><trkpt lat="-36.7438716" lon="174.4162654"><ele>127.0</ele><time>2026-04-18T00:14:38.974Z</time></trkpt><trkpt lat="-36.7438184" lon="174.4161835"><ele>127.0</ele><time>2026-04-18T00:14:39.975Z</time></trkpt><trkpt lat="-36.7437241" lon="174.4160363"><ele>125.66666666666667</ele><time>2026-04-18T00:14:41.974Z</time></trkpt><trkpt lat="-36.7436915" lon="174.4159283"><ele>124.33333333333334</ele><time>2026-04-18T00:14:43.976Z</time></trkpt><trkpt lat="-36.7436795" lon="174.4158008"><ele>123.0</ele><time>2026-04-18T00:14:45.974Z</time></trkpt><trkpt lat="-36.7437566" lon="174.415783"><ele>121.66666666666666</ele><time>2026-04-18T00:14:48.974Z</time></trkpt><trkpt lat="-36.7438212" lon="174.4158487"><ele>120.33333333333333</ele><time>2026-04-18T00:14:51.974Z</time></trkpt><trkpt lat="-36.7438469" lon="174.4159345"><ele>119.0</ele><time>2026-04-18T00:14:53.974Z</time></trkpt><trkpt lat="-36.7439046" lon="174.4159779"><ele>118.99999999999999</ele><time>2026-04-18T00:14:55.976Z</time></trkpt><trkpt lat="-36.7439912" lon="174.4159772"><ele>119.0</ele><time>2026-04-18T00:14:58.975Z</time></trkpt><trkpt lat="-36.7440337" lon="174.4160444"><ele>119.0</ele><time>2026-04-18T00:15:00.975Z</time></trkpt><trkpt lat="-36.7440494" lon="174.4161425"><ele>119.0</ele><time>2026-04-18T00:15:02.975Z</time></trkpt><trkpt lat="-36.7440506" lon="174.4162469"><ele>118.99999999999999</ele><time>2026-04-18T00:15:04.975Z</time></trkpt><trkpt lat="-36.7440794" lon="174.4163294"><ele>119.0</ele><time>2026-04-18T00:15:06.975Z</time></trkpt><trkpt lat="-36.7440733" lon="174.4164267"><ele>118.99999999999999</ele><time>2026-04-18T00:15:09.974Z</time></trkpt><trkpt lat="-36.7441028" lon="174.4165252"><ele>119.0</ele><time>2026-04-18T00:15:12.975Z</time></trkpt><trkpt lat="-36.7441704" lon="174.4165582"><ele>119.0</ele><time>2026-04-18T00:15:15.975Z</time></trkpt><trkpt lat="-36.7442341" lon="174.4165294"><ele>119.0</ele><time>2026-04-18T00:15:17.974Z</time></trkpt><trkpt lat="-36.744236" lon="174.4164154"><ele>118.99999999999999</ele><time>2026-04-18T00:15:20.976Z</time></trkpt><trkpt lat="-36.7442352" lon="174.4163207"><ele>119.0</ele><time>2026-04-18T00:15:22.974Z</time></trkpt><trkpt lat="-36.7442641" lon="174.416234"><ele>118.99999999999999</ele><time>2026-04-18T00:15:24.974Z</time></trkpt><trkpt lat="-36.7443342" lon="174.4161819"><ele>119.0</ele><time>2026-04-18T00:15:26.974Z</time></trkpt><trkpt lat="-36.7443956" lon="174.4162102"><ele>119.0</ele><time>2026-04-18T00:15:28.976Z</time></trkpt><trkpt lat="-36.744475" lon="174.4162834"><ele>119.0</ele><time>2026-04-18T00:15:31.975Z</time></trkpt><trkpt lat="-36.7445207" lon="174.4163785"><ele>118.99999999999999</ele><time>2026-04-18T00:15:34.975Z</time></trkpt><trkpt lat="-36.744521" lon="174.4164584"><ele>119.0</ele><time>2026-04-18T00:15:36.976Z</time></trkpt><trkpt lat="-36.7445118" lon="174.4165719"><ele>121.16666666666666</ele><time>2026-04-18T00:15:38.974Z</time></trkpt><trkpt lat="-36.7445176" lon="174.4166881"><ele>123.33333333333333</ele><time>2026-04-18T00:15:40.975Z</time></trkpt><trkpt lat="-36.7445603" lon="174.4167749"><ele>125.5</ele><time>2026-04-18T00:15:42.975Z</time></trkpt><trkpt lat="-36.7445762" lon="174.4168937"><ele>127.66666666666666</ele><time>2026-04-18T00:15:45.975Z</time></trkpt><trkpt lat="-36.7446084" lon="174.4169751"><ele>129.83333333333334</ele><time>2026-04-18T00:15:48.976Z</time></trkpt><trkpt lat="-36.7446709" lon="174.4169516"><ele>132.0</ele><time>2026-04-18T00:15:50.975Z</time></trkpt><trkpt lat="-36.7447477" lon="174.4168881"><ele>132.0</ele><time>2026-04-18T00:15:53.974Z</time></trkpt><trkpt lat="-36.7448004" lon="174.4168438"><ele>132.0</ele><time>2026-04-18T00:15:55.975Z</time></trkpt><trkpt lat="-36.74487" lon="174.4168071"><ele>132.0</ele><time>2026-04-18T00:15:57.975Z</time></trkpt><trkpt lat="-36.7449557" lon="174.4168428"><ele>132.0</ele><time>2026-04-18T00:16:00.976Z</time></trkpt><trkpt lat="-36.7450063" lon="174.416937"><ele>132.0</ele><time>2026-04-18T00:16:02.976Z</time></trkpt><trkpt lat="-36.7450594" lon="174.4170293"><ele>132.0</ele><time>2026-04-18T00:16:04.975Z</time></trkpt><trkpt lat="-36.745102" lon="174.4171092"><ele>132.0</ele><time>2026-04-18T00:16:06.975Z</time></trkpt><trkpt lat="-36.7451569" lon="174.417158"><ele>132.0</ele><time>2026-04-18T00:16:08.974Z</time></trkpt><trkpt lat="-36.7452208" lon="174.4171704"><ele>132.0</ele><time>2026-04-18T00:16:10.974Z</time></trkpt><trkpt lat="-36.7452762" lon="174.4171294"><ele>132.0</ele><time>2026-04-18T00:16:12.974Z</time></trkpt><trkpt lat="-36.7453345" lon="174.4170468"><ele>132.0</ele><time>2026-04-18T00:16:15.975Z</time></trkpt><trkpt lat="-36.7454117" lon="174.4170214"><ele>132.0</ele><time>2026-04-18T00:16:18.975Z</time></trkpt><trkpt lat="-36.7454784" lon="174.417049"><ele>132.0</ele><time>2026-04-18T00:16:20.975Z</time></trkpt><trkpt lat="-36.7455499" lon="174.4170713"><ele>132.66666666666666</ele><time>2026-04-18T00:16:22.974Z</time></trkpt><trkpt lat="-36.7456208" lon="174.4170606"><ele>133.33333333333334</ele><time>2026-04-18T00:16:24.975Z</time></trkpt><trkpt lat="-36.745704" lon="174.417085"><ele>134.0</ele><time>2026-04-18T00:16:27.975Z</time></trkpt><trkpt lat="-36.7457537" lon="174.4171444"><ele>134.66666666666669</ele><time>2026-04-18T00:16:29.974Z</time></trkpt><trkpt lat="-36.745781" lon="174.4172353"><ele>135.33333333333334</ele><time>2026-04-18T00:16:31.974Z</time></trkpt><trkpt lat="-36.7457988" lon="174.417344"><ele>136.0</ele><time>2026-04-18T00:16:34.974Z</time></trkpt><trkpt lat="-36.7458368" lon="174.4174349"><ele>136.0</ele><time>2026-04-18T00:16:37.975Z</time></trkpt><trkpt lat="-36.7458484" lon="174.4175122"><ele>136.0</ele><time>2026-04-18T00:16:39.976Z</time></trkpt><trkpt lat="-36.7458731" lon="174.4176279"><ele>136.0</ele><time>2026-04-18T00:16:42.975Z</time></trkpt><trkpt lat="-36.7459233" lon="174.4177162"><ele>136.0</ele><time>2026-04-18T00:16:44.976Z</time></trkpt><trkpt lat="-36.7460034" lon="174.417758"><ele>136.0</ele><time>2026-04-18T00:16:47.976Z</time></trkpt><trkpt lat="-36.7460852" lon="174.4177773"><ele>136.0</ele><time>2026-04-18T00:16:51.975Z</time></trkpt><trkpt lat="-36.7461269" lon="174.4178449"><ele>136.0</ele><time>2026-04-18T00:16:55.974Z</time></trkpt><trkpt lat="-36.7460625" lon="174.4179175"><ele>136.0</ele><time>2026-04-18T00:16:58.974Z</time></trkpt><trkpt lat="-36.7459869" lon="174.4179824"><ele>136.0</ele><time>2026-04-18T00:17:01.974Z</time></trkpt><trkpt lat="-36.7459221" lon="174.4180001"><ele>136.0</ele><time>2026-04-18T00:17:03.975Z</time></trkpt><trkpt lat="-36.7458514" lon="174.4179906"><ele>136.0</ele><time>2026-04-18T00:17:05.974Z</time></trkpt><trkpt lat="-36.7458007" lon="174.4178883"><ele>136.0</ele><time>2026-04-18T00:17:07.975Z</time></trkpt><trkpt lat="-36.7457449" lon="174.4177768"><ele>136.0</ele><time>2026-04-18T00:17:08.975Z</time></trkpt><trkpt lat="-36.7456154" lon="174.4176917"><ele>136.0</ele><time>2026-04-18T00:17:10.975Z</time></trkpt><trkpt lat="-36.7455485" lon="174.4176788"><ele>136.0</ele><time>2026-04-18T00:17:11.975Z</time></trkpt><trkpt lat="-36.7454785" lon="174.417641"><ele>136.0</ele><time>2026-04-18T00:17:12.975Z</time></trkpt><trkpt lat="-36.7454069" lon="174.4175481"><ele>136.0</ele><time>2026-04-18T00:17:13.977Z</time></trkpt><trkpt lat="-36.7453364" lon="174.4174658"><ele>136.0</ele><time>2026-04-18T00:17:15.975Z</time></trkpt><trkpt lat="-36.7452393" lon="174.4173974"><ele>136.0</ele><time>2026-04-18T00:17:17.974Z</time></trkpt><trkpt lat="-36.7451901" lon="174.4173289"><ele>136.0</ele><time>2026-04-18T00:17:18.976Z</time></trkpt><trkpt lat="-36.7451236" lon="174.4172878"><ele>136.0</ele><time>2026-04-18T00:17:19.975Z</time></trkpt><trkpt lat="-36.7450588" lon="174.4172639"><ele>136.0</ele><time>2026-04-18T00:17:20.975Z</time></trkpt><trkpt lat="-36.7449824" lon="174.4171881"><ele>136.0</ele><time>2026-04-18T00:17:22.977Z</time></trkpt><trkpt lat="-36.744875" lon="174.4171323"><ele>135.2</ele><time>2026-04-18T00:17:24.976Z</time></trkpt><trkpt lat="-36.7447547" lon="174.4171345"><ele>134.39999999999998</ele><time>2026-04-18T00:17:26.974Z</time></trkpt><trkpt lat="-36.7447265" lon="174.4172392"><ele>133.6</ele><time>2026-04-18T00:17:28.975Z</time></trkpt><trkpt lat="-36.744768" lon="174.417308"><ele>132.79999999999998</ele><time>2026-04-18T00:17:29.975Z</time></trkpt><trkpt lat="-36.7447387" lon="174.4174594"><ele>132.0</ele><time>2026-04-18T00:17:31.976Z</time></trkpt><trkpt lat="-36.7447194" lon="174.4175384"><ele>132.0</ele><time>2026-04-18T00:17:32.975Z</time></trkpt><trkpt lat="-36.7447009" lon="174.417614"><ele>132.0</ele><time>2026-04-18T00:17:33.974Z</time></trkpt><trkpt lat="-36.7446461" lon="174.4176979"><ele>132.0</ele><time>2026-04-18T00:17:35.975Z</time></trkpt><trkpt lat="-36.7445316" lon="174.4177329"><ele>132.0</ele><time>2026-04-18T00:17:37.975Z</time></trkpt><trkpt lat="-36.7444246" lon="174.417813"><ele>132.0</ele><time>2026-04-18T00:17:39.975Z</time></trkpt><trkpt lat="-36.7443539" lon="174.417812"><ele>131.16666666666666</ele><time>2026-04-18T00:17:40.975Z</time></trkpt><trkpt lat="-36.7442713" lon="174.4178063"><ele>130.33333333333334</ele><time>2026-04-18T00:17:41.974Z</time></trkpt><trkpt lat="-36.7442027" lon="174.4178612"><ele>129.5</ele><time>2026-04-18T00:17:42.975Z</time></trkpt><trkpt lat="-36.7441391" lon="174.4179051"><ele>128.66666666666669</ele><time>2026-04-18T00:17:43.974Z</time></trkpt><trkpt lat="-36.7440704" lon="174.4179607"><ele>127.83333333333334</ele><time>2026-04-18T00:17:44.976Z</time></trkpt><trkpt lat="-36.7440014" lon="174.4179969"><ele>127.0</ele><time>2026-04-18T00:17:45.974Z</time></trkpt><trkpt lat="-36.7438955" lon="174.4180614"><ele>125.66666666666667</ele><time>2026-04-18T00:17:47.975Z</time></trkpt><trkpt lat="-36.7437886" lon="174.4180863"><ele>124.33333333333334</ele><time>2026-04-18T00:17:49.976Z</time></trkpt><trkpt lat="-36.7436954" lon="174.4181309"><ele>123.0</ele><time>2026-04-18T00:17:51.975Z</time></trkpt><trkpt lat="-36.7436341" lon="174.4181795"><ele>121.66666666666666</ele><time>2026-04-18T00:17:53.976Z</time></trkpt><trkpt lat="-36.7435776" lon="174.4182358"><ele>120.33333333333333</ele><time>2026-04-18T00:17:55.974Z</time></trkpt><trkpt lat="-36.7435249" lon="174.4183021"><ele>119.0</ele><time>2026-04-18T00:17:57.974Z</time></trkpt><trkpt lat="-36.7434568" lon="174.4183903"><ele>118.2</ele><time>2026-04-18T00:17:59.976Z</time></trkpt><trkpt lat="-36.7433859" lon="174.4184524"><ele>117.4</ele><time>2026-04-18T00:18:01.974Z</time></trkpt><trkpt lat="-36.7433142" lon="174.4185443"><ele>116.6</ele><time>2026-04-18T00:18:03.975Z</time></trkpt><trkpt lat="-36.7432343" lon="174.4186305"><ele>115.8</ele><time>2026-04-18T00:18:05.975Z</time></trkpt><trkpt lat="-36.7431304" lon="174.4186668"><ele>115.0</ele><time>2026-04-18T00:18:07.974Z</time></trkpt><trkpt lat="-36.7430244" lon="174.4186504"><ele>115.0</ele><time>2026-04-18T00:18:09.975Z</time></trkpt><trkpt lat="-36.7429193" lon="174.4186316"><ele>115.0</ele><time>2026-04-18T00:18:11.975Z</time></trkpt><trkpt lat="-36.7428338" lon="174.4186381"><ele>115.0</ele><time>2026-04-18T00:18:13.976Z</time></trkpt><trkpt lat="-36.7427142" lon="174.4186114"><ele>115.0</ele><time>2026-04-18T00:18:15.975Z</time></trkpt><trkpt lat="-36.7426029" lon="174.4186422"><ele>115.0</ele><time>2026-04-18T00:18:17.975Z</time></trkpt><trkpt lat="-36.7424875" lon="174.4186741"><ele>114.50000000000001</ele><time>2026-04-18T00:18:19.974Z</time></trkpt><trkpt lat="-36.7423843" lon="174.4187355"><ele>114.0</ele><time>2026-04-18T00:18:21.974Z</time></trkpt><trkpt lat="-36.7423192" lon="174.4187709"><ele>113.5</ele><time>2026-04-18T00:18:22.974Z</time></trkpt><trkpt lat="-36.7422533" lon="174.4188075"><ele>113.0</ele><time>2026-04-18T00:18:23.976Z</time></trkpt><trkpt lat="-36.7421895" lon="174.4188453"><ele>112.50000000000001</ele><time>2026-04-18T00:18:24.975Z</time></trkpt><trkpt lat="-36.7421274" lon="174.4188731"><ele>112.0</ele><time>2026-04-18T00:18:25.975Z</time></trkpt><trkpt lat="-36.7420628" lon="174.4188942"><ele>112.0</ele><time>2026-04-18T00:18:26.975Z</time></trkpt><trkpt lat="-36.7420033" lon="174.4189209"><ele>111.99999999999999</ele><time>2026-04-18T00:18:27.975Z</time></trkpt><trkpt lat="-36.7419369" lon="174.4189347"><ele>111.99999999999999</ele><time>2026-04-18T00:18:28.975Z</time></trkpt><trkpt lat="-36.7418113" lon="174.4189617"><ele>112.0</ele><time>2026-04-18T00:18:30.975Z</time></trkpt><trkpt lat="-36.7417126" lon="174.4189596"><ele>112.0</ele><time>2026-04-18T00:18:32.976Z</time></trkpt><trkpt lat="-36.741605" lon="174.4189604"><ele>111.39999999999999</ele><time>2026-04-18T00:18:34.974Z</time></trkpt><trkpt lat="-36.7415414" lon="174.4189644"><ele>110.79999999999998</ele><time>2026-04-18T00:18:35.974Z</time></trkpt><trkpt lat="-36.7414177" lon="174.4189646"><ele>110.2</ele><time>2026-04-18T00:18:37.974Z</time></trkpt><trkpt lat="-36.7413223" lon="174.4190048"><ele>109.6</ele><time>2026-04-18T00:18:39.977Z</time></trkpt><trkpt lat="-36.741248" lon="174.419075"><ele>109.0</ele><time>2026-04-18T00:18:41.975Z</time></trkpt><trkpt lat="-36.7411835" lon="174.4191744"><ele>109.00000000000001</ele><time>2026-04-18T00:18:43.975Z</time></trkpt><trkpt lat="-36.7411122" lon="174.4192824"><ele>109.0</ele><time>2026-04-18T00:18:45.975Z</time></trkpt><trkpt lat="-36.7410252" lon="174.4193356"><ele>109.0</ele><time>2026-04-18T00:18:47.974Z</time></trkpt><trkpt lat="-36.7410345" lon="174.4192456"><ele>109.0</ele><time>2026-04-18T00:18:52.974Z</time></trkpt><trkpt lat="-36.7410379" lon="174.4191529"><ele>109.00000000000001</ele><time>2026-04-18T00:18:55.974Z</time></trkpt><trkpt lat="-36.7409634" lon="174.4191995"><ele>109.0</ele><time>2026-04-18T00:18:58.977Z</time></trkpt><trkpt lat="-36.7409006" lon="174.4192304"><ele>109.50000000000001</ele><time>2026-04-18T00:19:00.975Z</time></trkpt><trkpt lat="-36.7408284" lon="174.4192506"><ele>110.0</ele><time>2026-04-18T00:19:02.976Z</time></trkpt><trkpt lat="-36.7407603" lon="174.419283"><ele>110.5</ele><time>2026-04-18T00:19:04.975Z</time></trkpt><trkpt lat="-36.740684" lon="174.4193717"><ele>111.0</ele><time>2026-04-18T00:19:06.974Z</time></trkpt><trkpt lat="-36.7405933" lon="174.4194392"><ele>111.50000000000001</ele><time>2026-04-18T00:19:08.975Z</time></trkpt><trkpt lat="-36.7405324" lon="174.4194629"><ele>112.0</ele><time>2026-04-18T00:19:09.975Z</time></trkpt><trkpt lat="-36.7404304" lon="174.4194951"><ele>112.0</ele><time>2026-04-18T00:19:11.975Z</time></trkpt><trkpt lat="-36.7403063" lon="174.4194975"><ele>111.99999999999999</ele><time>2026-04-18T00:19:13.974Z</time></trkpt><trkpt lat="-36.7401763" lon="174.4195089"><ele>111.99999999999999</ele><time>2026-04-18T00:19:15.975Z</time></trkpt><trkpt lat="-36.7401095" lon="174.4194997"><ele>112.0</ele><time>2026-04-18T00:19:16.974Z</time></trkpt><trkpt lat="-36.7400347" lon="174.4195071"><ele>112.0</ele><time>2026-04-18T00:19:17.974Z</time></trkpt><trkpt lat="-36.7399566" lon="174.4195046"><ele>111.66666666666667</ele><time>2026-04-18T00:19:18.975Z</time></trkpt><trkpt lat="-36.7398811" lon="174.4195274"><ele>111.33333333333334</ele><time>2026-04-18T00:19:19.975Z</time></trkpt><trkpt lat="-36.7398028" lon="174.4195355"><ele>111.0</ele><time>2026-04-18T00:19:20.975Z</time></trkpt><trkpt lat="-36.7397349" lon="174.4195261"><ele>110.66666666666666</ele><time>2026-04-18T00:19:21.974Z</time></trkpt><trkpt lat="-36.739659" lon="174.4195368"><ele>110.33333333333333</ele><time>2026-04-18T00:19:22.975Z</time></trkpt><trkpt lat="-36.7395357" lon="174.4195527"><ele>110.0</ele><time>2026-04-18T00:19:24.974Z</time></trkpt><trkpt lat="-36.7394617" lon="174.4195791"><ele>107.6</ele><time>2026-04-18T00:19:25.974Z</time></trkpt><trkpt lat="-36.7393817" lon="174.4195859"><ele>105.2</ele><time>2026-04-18T00:19:26.976Z</time></trkpt><trkpt lat="-36.7392695" lon="174.4195881"><ele>102.80000000000001</ele><time>2026-04-18T00:19:28.975Z</time></trkpt><trkpt lat="-36.7391771" lon="174.4195193"><ele>100.4</ele><time>2026-04-18T00:19:30.974Z</time></trkpt><trkpt lat="-36.7391228" lon="174.4194314"><ele>98.0</ele><time>2026-04-18T00:19:32.974Z</time></trkpt><trkpt lat="-36.7390696" lon="174.4193459"><ele>97.99999999999999</ele><time>2026-04-18T00:19:34.975Z</time></trkpt><trkpt lat="-36.7390235" lon="174.4192849"><ele>98.0</ele><time>2026-04-18T00:19:36.975Z</time></trkpt><trkpt lat="-36.7390295" lon="174.4193909"><ele>98.0</ele><time>2026-04-18T00:19:42.976Z</time></trkpt><trkpt lat="-36.7390661" lon="174.4194573"><ele>98.0</ele><time>2026-04-18T00:19:43.975Z</time></trkpt><trkpt lat="-36.7391241" lon="174.4195787"><ele>97.99999999999999</ele><time>2026-04-18T00:19:45.974Z</time></trkpt><trkpt lat="-36.7391511" lon="174.419653"><ele>98.0</ele><time>2026-04-18T00:19:46.976Z</time></trkpt><trkpt lat="-36.7391664" lon="174.4197443"><ele>96.42857142857143</ele><time>2026-04-18T00:19:47.974Z</time></trkpt><trkpt lat="-36.7391938" lon="174.419842"><ele>94.85714285714286</ele><time>2026-04-18T00:19:48.976Z</time></trkpt><trkpt lat="-36.7392129" lon="174.4199247"><ele>93.28571428571428</ele><time>2026-04-18T00:19:49.976Z</time></trkpt><trkpt lat="-36.73922" lon="174.4200146"><ele>91.71428571428572</ele><time>2026-04-18T00:19:50.976Z</time></trkpt><trkpt lat="-36.7392345" lon="174.4200987"><ele>90.14285714285714</ele><time>2026-04-18T00:19:51.975Z</time></trkpt><trkpt lat="-36.7392711" lon="174.4201675"><ele>88.57142857142857</ele><time>2026-04-18T00:19:52.976Z</time></trkpt><trkpt lat="-36.7393047" lon="174.4202421"><ele>87.0</ele><time>2026-04-18T00:19:53.975Z</time></trkpt><trkpt lat="-36.7393071" lon="174.4203232"><ele>87.0</ele><time>2026-04-18T00:19:54.976Z</time></trkpt><trkpt lat="-36.7393819" lon="174.4204163"><ele>87.0</ele><time>2026-04-18T00:19:56.975Z</time></trkpt><trkpt lat="-36.7394342" lon="174.4205075"><ele>87.0</ele><time>2026-04-18T00:19:58.976Z</time></trkpt><trkpt lat="-36.7394667" lon="174.42061"><ele>87.0</ele><time>2026-04-18T00:20:00.976Z</time></trkpt><trkpt lat="-36.7395011" lon="174.420734"><ele>87.0</ele><time>2026-04-18T00:20:02.975Z</time></trkpt><trkpt lat="-36.7394631" lon="174.4208236"><ele>86.6</ele><time>2026-04-18T00:20:03.974Z</time></trkpt><trkpt lat="-36.7393904" lon="174.420923"><ele>86.19999999999999</ele><time>2026-04-18T00:20:05.976Z</time></trkpt><trkpt lat="-36.7393681" lon="174.4210253"><ele>85.8</ele><time>2026-04-18T00:20:07.975Z</time></trkpt><trkpt lat="-36.7393851" lon="174.4211529"><ele>85.4</ele><time>2026-04-18T00:20:09.974Z</time></trkpt><trkpt lat="-36.7393862" lon="174.4212991"><ele>85.0</ele><time>2026-04-18T00:20:11.975Z</time></trkpt><trkpt lat="-36.7393943" lon="174.4213849"><ele>85.0</ele><time>2026-04-18T00:20:12.976Z</time></trkpt><trkpt lat="-36.7393951" lon="174.4215012"><ele>85.0</ele><time>2026-04-18T00:20:13.975Z</time></trkpt><trkpt lat="-36.7394033" lon="174.4215849"><ele>85.0</ele><time>2026-04-18T00:20:14.975Z</time></trkpt><trkpt lat="-36.7394229" lon="174.4216738"><ele>85.0</ele><time>2026-04-18T00:20:15.976Z</time></trkpt><trkpt lat="-36.7394559" lon="174.4217453"><ele>85.0</ele><time>2026-04-18T00:20:16.974Z</time></trkpt><trkpt lat="-36.7395341" lon="174.4218638"><ele>85.0</ele><time>2026-04-18T00:20:18.975Z</time></trkpt><trkpt lat="-36.7395898" lon="174.4219321"><ele>85.0</ele><time>2026-04-18T00:20:20.974Z</time></trkpt><trkpt lat="-36.7396179" lon="174.4220244"><ele>85.0</ele><time>2026-04-18T00:20:23.975Z</time></trkpt><trkpt lat="-36.7396852" lon="174.422084"><ele>85.0</ele><time>2026-04-18T00:20:25.974Z</time></trkpt><trkpt lat="-36.7397541" lon="174.4221142"><ele>85.0</ele><time>2026-04-18T00:20:27.974Z</time></trkpt><trkpt lat="-36.7398271" lon="174.4221423"><ele>85.0</ele><time>2026-04-18T00:20:29.975Z</time></trkpt><trkpt lat="-36.7399208" lon="174.4221573"><ele>85.0</ele><time>2026-04-18T00:20:31.974Z</time></trkpt><trkpt lat="-36.7399928" lon="174.4221836"><ele>85.0</ele><time>2026-04-18T00:20:33.975Z</time></trkpt><trkpt lat="-36.7400311" lon="174.4222468"><ele>85.0</ele><time>2026-04-18T00:20:35.976Z</time></trkpt><trkpt lat="-36.7400482" lon="174.4223318"><ele>85.0</ele><time>2026-04-18T00:20:38.974Z</time></trkpt><trkpt lat="-36.7400048" lon="174.4223974"><ele>85.0</ele><time>2026-04-18T00:20:42.976Z</time></trkpt><trkpt lat="-36.7399891" lon="174.4224776"><ele>85.0</ele><time>2026-04-18T00:20:46.975Z</time></trkpt><trkpt lat="-36.7399273" lon="174.422508"><ele>85.0</ele><time>2026-04-18T00:20:50.975Z</time></trkpt><trkpt lat="-36.7399099" lon="174.4225849"><ele>85.0</ele><time>2026-04-18T00:20:52.974Z</time></trkpt><trkpt lat="-36.7398982" lon="174.4227001"><ele>85.0</ele><time>2026-04-18T00:20:55.974Z</time></trkpt><trkpt lat="-36.7398709" lon="174.4228048"><ele>85.0</ele><time>2026-04-18T00:20:58.974Z</time></trkpt><trkpt lat="-36.7398542" lon="174.4229111"><ele>85.0</ele><time>2026-04-18T00:21:01.975Z</time></trkpt><trkpt lat="-36.7398355" lon="174.4230097"><ele>81.0</ele><time>2026-04-18T00:21:04.974Z</time></trkpt></trkseg></trk></gpx>